ECMWFFLT1_sfc_thetae_000.txt.gz
Theta_e
346 346 346 347 347 347 345 346 349 348 349 352 356 354 354 357 358 357 358 360 362 363 366 366 368 369 367 366 366 366 365 365 365 362 361 360 359 359 358 357 356 357 355 353 353 352 355 354 353 352 351 350 349 349 349 347 346 343 345 345 345 344 344
343 344 345 346 347 347 346 347 350 349 351 353 355 355 354 357 359 356 358 364 366 367 366 365 368 370 369 370 368 368 367 366 366 364 362 361 361 362 359 360 358 357 358 357 355 356 355 352 352 351 349 350 348 349 347 348 346 345 344 344 343 343 345
341 343 345 345 346 345 348 348 350 351 352 351 351 353 354 357 361 361 360 362 367 369 367 366 368 369 370 371 370 368 368 367 366 365 362 358 360 359 361 361 360 357 358 358 357 354 355 353 353 352 350 349 348 348 347 347 347 345 345 344 343 342 344
341 342 344 347 349 349 349 349 351 350 349 350 350 352 355 358 362 364 363 364 366 367 366 365 368 370 371 371 370 369 369 370 368 364 362 360 359 360 359 360 362 359 358 357 356 354 353 353 352 350 349 349 348 348 347 347 345 346 345 344 342 342 342
342 343 343 345 347 348 349 349 350 351 347 347 351 355 357 359 361 363 365 365 361 363 365 366 365 369 373 373 371 369 370 370 369 367 364 362 361 361 361 359 361 357 357 359 357 356 354 352 351 350 350 350 349 349 347 345 344 346 345 345 342 342 340
340 342 342 343 345 348 349 349 348 347 345 345 347 353 355 358 358 357 361 364 362 360 366 367 365 369 371 371 371 371 372 373 371 370 367 366 365 363 362 362 361 362 359 360 357 355 354 352 348 349 349 349 347 346 346 345 344 344 345 345 344 341 339
340 343 343 344 345 347 349 349 346 344 346 346 347 353 355 353 355 355 356 359 361 361 362 363 365 368 371 371 371 371 372 370 370 369 368 369 369 366 365 365 364 361 361 359 355 354 353 352 350 350 349 348 348 346 346 346 344 343 344 343 342 342 342
342 343 346 346 346 346 346 349 348 345 347 348 347 350 353 352 353 353 354 355 359 359 360 360 364 367 371 372 370 371 371 371 371 370 370 369 368 366 365 363 359 358 358 354 355 353 351 352 351 350 349 347 347 348 346 346 345 340 341 341 340 342 341
343 347 347 346 347 346 346 348 350 348 348 350 350 352 354 354 352 353 354 354 358 359 359 359 361 367 373 371 370 370 371 371 370 369 368 367 366 361 359 358 356 356 352 351 351 351 350 349 349 350 351 349 348 348 347 345 343 342 339 340 342 342 341
345 348 350 349 348 346 348 347 351 355 353 354 354 355 355 356 356 354 355 356 358 360 360 360 359 364 370 370 369 371 372 368 368 367 364 362 361 358 357 358 353 351 348 343 347 345 346 347 347 347 347 347 347 348 346 344 343 341 340 341 342 342 341
345 349 349 347 348 348 348 346 349 354 356 359 358 356 357 357 358 356 357 359 358 359 361 362 361 360 367 369 367 369 370 368 366 364 362 360 357 355 352 350 349 343 340 341 343 343 345 345 345 345 346 346 346 346 345 342 343 342 341 342 342 342 341
351 349 350 350 349 348 348 352 355 358 359 361 359 357 360 361 360 359 360 362 361 361 362 362 362 360 363 367 366 369 367 364 361 359 356 353 352 349 346 342 342 340 340 340 342 341 344 343 342 341 342 344 345 345 344 344 343 343 343 341 341 342 341
349 349 350 348 350 351 355 357 357 360 362 362 359 360 360 360 361 360 363 364 362 363 364 365 365 365 361 364 366 370 366 361 358 354 351 352 351 345 341 338 339 341 340 338 337 338 340 347 344 342 343 343 344 344 344 344 343 343 345 344 343 342 342
350 347 349 350 351 352 353 357 361 363 364 362 361 362 363 362 361 362 364 363 363 363 363 364 366 366 366 368 367 371 363 361 361 354 350 349 352 343 340 340 338 342 345 344 340 343 344 339 336 336 340 342 343 344 344 344 343 344 345 346 344 342 342
345 344 347 347 352 354 356 358 360 362 362 362 362 362 363 363 363 365 366 366 365 363 364 366 367 368 367 369 368 366 362 358 355 354 351 348 345 340 337 337 337 342 345 346 342 341 339 335 340 339 341 343 344 343 344 344 344 344 345 345 344 344 342
343 344 344 345 349 352 356 357 361 363 364 364 363 364 362 363 365 364 364 364 364 365 364 366 367 369 367 365 362 359 358 355 353 348 345 343 343 341 339 339 336 339 344 343 341 337 336 334 335 339 340 342 343 344 344 344 344 341 334 339 345 345 344
343 343 344 346 350 351 355 357 359 362 363 364 364 364 363 365 366 365 363 363 364 367 366 366 368 368 366 364 359 356 353 350 349 348 346 348 348 347 342 340 338 337 340 341 339 336 335 335 334 337 341 341 343 344 344 345 344 332 329 330 333 343 344
344 347 346 346 349 351 354 354 357 360 362 362 363 365 366 367 366 365 363 364 364 365 366 366 367 366 367 365 357 353 350 347 346 346 347 349 350 348 345 343 343 344 344 343 340 338 338 337 338 341 341 342 344 342 341 344 334 327 327 328 328 331 341
345 348 349 350 351 352 352 352 357 361 361 361 363 365 366 368 365 366 366 367 367 368 366 365 365 366 366 364 359 357 351 347 346 346 346 348 347 348 347 347 347 345 344 344 344 342 340 338 341 343 344 344 343 340 339 342 332 326 325 326 326 325 329
342 346 349 350 351 350 352 354 356 357 359 362 363 362 365 367 366 368 367 367 368 367 368 368 367 365 364 361 358 356 353 348 346 344 344 345 346 346 347 347 346 344 343 342 344 343 342 343 343 344 345 345 343 342 343 345 330 324 322 323 322 323 328
343 345 346 349 352 351 352 352 354 357 357 357 357 362 364 364 366 366 365 367 365 367 368 368 367 365 362 358 357 355 353 350 346 343 343 344 345 346 347 347 347 345 344 342 343 343 343 343 344 343 344 344 341 343 343 343 324 323 322 319 319 321 328
338 342 343 347 350 352 352 351 354 353 356 358 360 359 360 361 362 361 362 365 366 366 368 367 366 362 361 357 356 354 353 350 348 346 345 344 344 344 344 346 346 345 345 343 342 343 342 343 343 343 343 342 342 341 343 339 323 322 321 319 319 322 333
338 342 344 347 347 351 354 354 354 354 355 356 357 357 356 357 357 357 358 361 364 367 367 366 364 361 359 356 354 352 350 348 346 345 345 344 344 344 344 344 345 347 348 345 341 341 341 342 341 343 343 342 342 341 341 340 328 320 318 318 318 325 340
340 346 347 348 354 353 353 351 350 353 351 355 354 353 353 354 356 358 360 362 364 364 364 365 361 359 357 354 352 350 349 347 345 345 345 346 345 346 346 347 348 348 347 344 341 339 340 342 342 343 343 340 340 339 340 339 330 317 315 315 317 328 340
337 342 346 349 348 346 347 350 353 352 355 356 350 355 357 359 360 360 361 362 363 363 362 361 360 358 356 354 352 350 348 347 345 344 345 346 346 346 345 346 346 346 347 345 345 343 344 341 340 341 341 339 339 336 335 335 330 314 314 314 315 331 342
342 344 345 348 348 351 356 357 355 355 355 353 359 362 363 363 363 362 362 361 361 359 359 359 359 360 358 355 352 351 350 349 348 347 346 345 345 344 343 344 344 344 344 344 344 342 341 339 339 338 338 338 338 337 336 334 339 335 313 312 312 321 341
346 347 348 349 351 353 356 356 353 348 348 362 364 363 365 365 363 362 361 361 358 357 357 359 360 358 356 354 351 350 350 351 350 347 346 345 344 342 341 342 343 343 343 341 339 341 339 337 336 336 337 335 335 335 335 334 334 341 311 310 312 314 320
347 349 351 354 354 350 345 343 349 352 357 365 364 365 365 365 363 362 360 358 355 356 359 359 359 357 355 353 352 351 350 350 350 349 346 344 342 341 340 341 341 339 338 336 337 338 337 337 336 334 333 335 334 335 334 339 336 338 315 312 310 310 314
343 342 344 346 347 345 342 345 349 353 358 360 361 361 363 362 362 360 359 357 357 358 360 359 358 356 353 352 350 351 351 350 348 348 345 343 341 341 338 337 337 338 338 336 336 336 336 336 335 335 334 335 335 335 343 346 337 327 332 311 309 307 309
338 338 335 335 335 338 343 356 358 357 356 354 354 356 358 363 361 360 359 360 361 360 359 359 357 355 352 349 350 350 349 349 347 345 344 343 342 339 338 336 337 337 336 336 335 335 336 334 333 332 331 331 331 336 343 344 342 326 324 323 310 308 306
334 334 333 334 333 337 340 350 355 352 350 350 355 360 364 364 360 358 360 360 359 359 358 357 355 352 349 349 348 348 349 347 346 343 340 340 339 337 336 335 336 335 337 337 336 335 334 332 333 332 330 329 330 336 340 341 341 340 326 318 312 308 306
342 338 336 339 346 343 338 340 342 345 347 349 352 353 358 358 357 358 354 355 355 357 357 356 353 350 348 348 347 347 346 345 343 341 340 339 339 339 339 337 335 335 336 335 333 335 332 332 332 332 332 332 333 335 338 339 338 338 336 321 315 313 309
345 346 345 343 348 347 339 337 338 342 344 344 346 346 346 351 355 356 355 355 356 355 354 353 351 348 348 346 346 346 345 344 341 339 340 339 339 338 337 338 337 336 337 335 334 334 333 333 333 333 331 331 333 336 337 337 337 336 336 332 327 324 317
345 346 346 348 349 349 344 339 339 341 344 347 348 349 348 348 351 353 353 353 353 353 351 349 348 346 346 345 344 342 342 341 340 338 338 337 336 336 335 337 338 336 336 335 335 333 333 333 332 330 330 330 331 334 336 334 337 337 335 334 334 331 332
345 347 347 346 347 347 344 343 342 343 345 346 348 349 351 352 352 352 353 352 351 350 348 346 344 346 345 344 344 341 340 339 338 339 338 336 337 335 333 338 338 337 337 342 340 337 334 333 331 331 331 332 333 331 330 330 331 332 327 339 319 339 329
340 341 343 345 346 347 347 346 346 345 345 347 348 349 349 349 349 350 350 351 351 349 347 345 344 345 344 343 342 340 339 339 338 339 338 336 334 328 319 304 298 312 331 331 315 302 296 303 330 328 331 328 329 335 332 331 338 305 299 299 297 295 297
336 336 337 341 342 343 345 348 347 347 347 347 348 347 347 347 347 348 348 351 350 348 346 347 345 343 343 341 341 340 340 339 339 340 340 338 336 332 327 321 313 294 293 303 304 298 293 293 293 297 303 323 333 317 300 302 300 298 298 296 295 295 295
329 334 335 336 338 343 346 346 346 346 346 347 347 346 347 345 347 348 347 349 349 349 348 346 343 341 339 339 341 340 340 341 341 341 340 339 339 336 334 332 329 321 297 292 296 296 293 292 292 293 298 299 309 321 321 302 295 295 295 294 293 294 293

ECMWFFLT1_sfc_thetae_003.txt.gz
Theta_e
339 337 339 343 341 344 346 350 351 350 349 350 351 351 351 353 356 357 357 360 361 363 365 365 364 364 363 363 364 365 364 365 365 363 361 361 362 362 359 358 358 358 356 355 356 354 357 354 352 349 350 349 348 349 350 349 348 345 346 346 345 345 345
333 335 334 339 342 342 346 350 352 351 351 350 350 352 352 354 355 354 356 360 362 363 365 365 366 364 364 364 364 365 365 365 366 365 363 363 363 363 361 361 359 357 357 357 357 356 355 351 351 350 349 349 348 349 348 349 348 346 345 345 344 343 343
339 340 338 337 341 344 348 348 351 351 352 351 352 352 353 357 356 357 358 359 361 362 364 365 366 365 365 366 364 364 365 364 365 363 361 359 361 359 360 361 358 356 355 356 356 354 354 354 352 352 350 349 347 348 348 347 346 345 346 346 344 342 344
331 339 340 341 344 348 350 348 349 350 351 352 352 352 353 357 357 357 358 359 360 361 363 365 366 366 366 366 364 364 364 365 365 363 362 361 360 360 359 358 358 357 354 353 354 354 352 353 352 352 351 350 348 349 347 346 345 345 345 345 344 343 343
330 332 336 339 341 346 350 348 348 351 350 350 352 355 356 356 355 357 358 358 358 361 361 363 363 365 366 366 364 363 363 365 364 363 362 362 362 361 357 355 355 354 356 353 356 355 354 353 351 351 349 350 348 348 346 345 345 347 345 345 344 344 341
328 331 339 339 345 346 350 349 348 348 349 349 350 351 353 355 355 356 357 359 358 360 363 364 364 365 364 364 364 363 365 366 367 367 364 363 362 357 355 355 356 354 352 355 356 355 354 350 349 350 347 346 346 345 344 344 343 343 345 345 345 342 340
329 334 338 341 344 346 351 351 349 348 350 350 350 353 355 354 352 352 355 356 355 358 361 362 361 362 364 364 365 367 364 362 364 365 363 361 360 359 356 356 357 355 359 361 359 357 353 351 350 350 349 348 348 346 347 347 345 344 345 347 346 347 344
331 334 339 341 342 346 350 352 349 348 349 350 350 353 353 351 349 350 353 354 354 354 360 353 359 362 365 366 364 364 364 363 362 363 363 361 361 357 356 357 356 357 360 358 357 356 351 351 348 349 349 347 347 350 349 350 349 345 344 345 344 343 342
330 336 340 338 341 341 349 351 351 349 350 350 348 350 349 349 348 349 351 353 354 352 355 355 354 358 366 366 366 366 365 364 363 364 362 357 355 355 358 358 359 360 357 355 355 356 354 353 351 351 350 348 348 349 347 348 347 346 344 343 343 341 341
340 340 341 340 341 340 347 350 352 353 351 350 349 351 349 349 348 348 349 350 350 350 351 352 352 353 360 364 366 366 366 367 364 360 358 356 358 359 358 361 357 357 356 355 357 354 356 356 352 352 351 348 348 347 348 348 346 346 344 342 341 341 341
339 347 347 344 346 345 349 349 353 356 353 351 350 345 350 349 348 349 348 347 346 349 350 349 349 347 353 360 364 365 367 364 362 360 359 358 357 356 360 356 352 353 354 354 351 351 353 354 355 355 353 349 349 349 349 348 348 346 342 340 340 341 341
343 342 346 351 353 350 350 355 359 366 362 354 351 344 352 354 348 345 346 348 347 347 349 348 349 347 349 358 363 363 364 365 361 362 361 356 355 358 359 354 353 352 351 349 345 351 352 353 352 352 353 352 352 351 350 349 348 345 342 338 340 341 341
334 346 346 346 354 353 359 363 361 362 365 354 347 346 348 349 348 346 352 350 347 347 349 353 353 353 348 352 359 362 364 363 363 365 362 360 359 361 359 355 353 352 349 350 350 350 350 350 350 350 351 351 351 349 349 347 344 342 341 341 342 342 343
342 338 350 356 355 355 355 360 362 362 362 355 349 349 347 349 350 350 351 349 349 347 349 354 352 350 352 357 364 366 365 364 366 364 364 361 364 361 357 356 354 354 354 355 353 349 348 347 347 349 348 348 347 347 345 342 340 340 340 341 342 343 343
335 338 345 352 356 357 357 355 359 361 357 356 353 351 349 350 353 356 355 351 355 349 352 354 355 355 352 357 361 364 368 369 367 367 365 364 362 359 356 356 358 358 359 356 352 348 347 346 346 346 344 344 342 340 340 339 340 340 339 339 342 343 342
324 336 345 347 354 353 357 357 358 360 361 363 357 356 353 355 359 355 354 352 352 354 354 354 361 361 356 352 359 366 372 370 368 367 365 365 363 360 357 355 356 356 357 354 351 349 348 347 346 345 342 342 342 341 339 339 341 335 329 334 341 344 344
325 327 328 332 342 352 357 359 359 360 361 363 362 361 361 360 358 356 355 357 358 360 355 354 366 366 363 362 363 367 370 369 366 365 363 361 360 358 358 357 357 357 355 353 353 351 351 349 349 345 344 342 342 341 341 341 338 330 328 330 335 344 345
326 329 329 329 339 353 358 358 361 363 363 363 363 363 362 364 362 361 359 360 360 360 357 361 361 360 365 364 369 372 367 363 363 362 361 359 357 357 356 357 357 356 355 353 352 353 353 351 350 346 342 341 341 342 342 339 331 327 327 330 330 336 345
326 326 328 345 346 351 354 357 360 366 365 365 363 362 363 365 363 363 362 365 365 366 361 358 361 366 364 370 370 366 366 363 361 360 359 358 357 356 355 354 355 355 353 351 353 353 352 351 348 345 342 343 343 341 340 339 329 326 327 328 328 331 340
326 326 327 339 345 343 353 359 360 365 367 367 365 363 365 368 365 366 365 366 367 366 367 367 367 369 369 369 368 365 363 363 361 360 359 358 357 356 355 355 353 353 353 353 354 353 351 349 347 346 345 344 344 342 340 341 328 325 325 326 327 329 333
331 329 344 344 343 342 354 360 361 365 367 366 365 365 368 368 368 369 365 366 365 370 372 371 371 369 367 366 366 366 365 363 360 359 359 360 359 358 356 354 353 351 350 348 349 350 349 347 346 346 346 344 343 342 340 338 324 324 324 324 323 324 331
328 339 343 343 352 356 359 357 359 358 363 364 364 365 366 367 368 366 360 363 367 369 370 370 371 367 367 364 363 363 362 360 359 359 360 359 359 358 357 357 355 352 351 349 348 349 348 347 344 344 345 344 343 342 340 340 320 323 322 321 321 323 337
331 331 335 346 347 352 358 361 360 361 368 365 363 363 366 367 365 362 362 366 367 370 369 369 368 366 368 365 363 360 358 358 358 359 359 359 358 357 356 355 356 355 354 350 347 345 344 345 343 346 345 344 344 342 342 339 327 320 319 319 319 324 340
333 332 332 340 349 351 363 363 362 365 365 364 365 367 366 366 368 368 369 368 368 369 369 368 367 368 368 365 363 361 359 358 356 357 356 356 355 355 355 355 355 354 353 349 346 343 343 344 345 346 346 344 343 341 340 339 330 316 316 316 316 325 340
331 329 336 343 347 352 357 358 360 360 363 363 360 366 370 371 369 368 366 367 369 370 367 365 365 365 363 363 362 360 359 356 356 356 355 354 354 353 351 351 351 351 351 348 348 347 347 344 342 341 343 339 342 340 339 339 332 314 315 314 314 326 341
335 335 339 341 346 353 360 363 363 361 360 362 366 366 368 367 367 367 367 368 368 365 365 365 366 365 364 361 358 359 357 357 358 357 356 354 354 353 352 351 350 348 347 347 346 344 344 343 342 342 341 342 343 342 340 339 342 329 314 313 313 317 342
340 339 340 344 350 355 359 359 359 358 359 360 365 363 366 367 365 365 367 367 366 365 365 366 365 363 362 360 358 356 356 358 357 356 357 355 354 352 350 349 349 348 348 346 344 343 344 342 342 341 341 340 341 340 340 340 340 337 313 312 312 315 323
341 342 346 349 354 354 355 354 356 355 357 363 362 363 363 365 365 366 367 365 365 366 366 365 364 363 361 359 358 356 356 356 357 357 356 355 354 352 349 348 350 349 348 345 344 344 343 343 342 340 339 339 338 339 339 341 339 347 316 313 311 313 314
344 343 346 353 354 355 353 353 353 355 359 358 361 363 364 366 366 366 363 362 362 364 367 365 364 362 359 358 356 355 354 354 355 353 353 353 354 352 348 348 349 349 349 345 344 343 342 340 340 337 336 337 338 338 340 343 341 328 328 311 309 310 312
350 352 355 354 353 352 352 355 360 360 359 357 358 356 360 363 360 358 359 361 364 364 364 363 361 359 356 354 353 352 352 353 353 354 353 353 352 350 347 347 347 347 345 343 340 337 337 337 337 335 333 332 333 335 335 341 344 327 322 319 311 310 309
349 348 347 348 349 357 356 355 354 354 351 348 350 350 353 357 359 359 358 361 364 363 361 360 358 356 354 352 350 350 351 352 351 352 352 351 349 347 345 345 344 342 342 340 337 336 337 337 337 336 334 333 333 333 334 338 343 338 326 318 311 309 307
343 345 345 348 351 352 354 355 356 356 356 359 362 364 366 362 360 359 361 364 364 363 362 359 356 353 351 351 350 351 350 350 350 350 349 348 347 346 344 344 341 339 338 335 334 336 337 336 335 334 334 332 332 332 334 336 338 338 330 321 316 314 309
342 341 341 341 342 345 345 346 345 346 346 348 354 357 359 362 364 365 365 363 363 361 358 354 352 350 351 352 351 352 351 348 346 345 345 346 345 345 344 342 339 339 337 335 333 335 335 335 334 332 329 329 330 331 333 335 335 336 335 332 330 328 321
347 343 342 344 345 345 344 342 344 346 347 345 346 349 354 359 359 360 360 358 356 355 355 352 351 350 350 350 350 349 348 345 344 342 342 342 342 341 340 339 338 336 336 335 335 334 333 332 330 329 330 329 330 332 333 333 335 336 334 336 336 335 332
350 350 346 342 343 345 346 348 348 350 351 352 355 356 356 357 358 358 359 358 357 356 353 349 348 349 348 348 348 346 346 343 342 342 341 342 343 345 345 344 339 338 340 345 343 341 336 336 333 333 333 332 332 331 331 334 334 337 326 344 322 332 331
343 345 346 345 344 347 349 351 352 352 352 352 355 355 355 355 356 356 354 355 354 353 351 349 346 347 345 344 343 343 342 341 340 341 340 340 339 335 323 305 296 307 341 333 312 302 298 308 331 328 333 335 335 332 335 334 332 313 309 309 310 309 309
340 342 343 346 345 346 347 348 349 350 350 351 353 353 353 354 353 353 352 353 353 351 351 349 346 344 343 342 341 340 341 339 339 340 341 340 339 337 334 330 321 297 293 301 304 298 293 293 294 298 304 327 332 320 302 302 300 298 299 301 299 297 297
337 338 340 344 346 347 346 346 348 349 348 350 350 350 351 350 351 352 351 352 351 351 351 349 347 344 343 343 342 341 343 341 340 339 339 339 339 338 336 335 333 326 300 293 295 296 294 293 292 293 295 296 309 323 325 305 297 296 296 296 295 295 294

ECMWFFLT1_sfc_thetae_006.txt.gz
Theta_e
334 336 337 340 340 342 342 345 347 347 349 352 353 353 352 354 356 357 358 362 363 364 366 366 366 365 364 363 365 366 367 366 366 365 364 363 362 363 362 360 359 359 358 357 358 357 359 360 355 354 352 351 351 351 354 352 354 351 352 351 350 352 346
332 334 337 338 339 340 343 345 347 350 350 352 354 355 353 354 356 357 358 362 363 364 365 366 366 365 363 363 364 366 366 366 366 366 365 366 365 365 363 362 360 361 361 359 360 360 358 356 355 352 352 352 350 352 351 353 351 350 348 349 349 350 351
331 338 340 341 341 342 343 344 349 347 348 350 351 352 353 354 357 358 359 362 363 365 366 366 366 365 364 364 364 365 366 366 366 365 363 363 362 359 362 363 361 361 360 361 359 357 356 354 354 353 351 350 349 351 351 351 351 349 349 348 347 347 347
333 339 339 339 340 343 344 345 348 350 350 351 350 350 352 356 357 358 360 361 362 364 364 365 365 364 364 364 364 364 365 366 366 364 362 362 362 362 362 362 361 359 359 355 356 354 352 353 351 353 355 351 351 349 349 348 347 348 348 350 348 346 347
337 336 335 336 338 342 345 346 347 349 349 349 350 351 354 356 357 357 361 360 360 362 363 364 362 363 364 365 364 364 364 365 365 364 363 362 363 362 360 357 358 355 357 355 355 355 354 353 350 352 351 353 350 349 348 349 347 348 347 348 349 347 346
334 333 336 337 339 342 344 343 342 342 342 346 350 351 352 353 353 352 354 358 359 360 364 364 363 363 363 363 363 363 365 365 366 366 363 363 362 361 358 357 357 354 354 353 355 355 354 351 352 350 350 349 346 347 346 346 345 346 347 346 346 345 343
332 334 336 336 337 339 344 345 343 343 345 350 352 351 351 352 352 352 352 354 355 358 359 361 362 362 363 362 364 364 364 364 365 365 364 363 363 360 358 357 357 354 354 355 353 354 352 351 352 351 350 347 347 345 345 345 344 346 347 346 345 346 345
338 338 339 339 337 337 340 345 345 344 346 352 352 351 350 351 351 351 351 352 353 356 357 359 361 362 364 364 364 364 363 362 365 365 364 362 362 359 357 357 357 357 355 353 355 354 352 353 352 352 350 347 347 347 346 346 347 344 346 346 345 343 344
333 337 338 335 333 334 339 343 344 346 349 351 351 352 350 350 350 351 351 351 353 356 357 358 360 361 365 364 364 364 364 363 363 364 363 360 359 356 355 357 357 356 354 352 354 355 354 354 351 351 350 348 348 348 347 348 347 345 344 345 345 343 342
347 333 334 334 334 336 344 348 351 351 348 349 351 353 352 352 353 352 351 351 353 355 357 358 359 361 364 363 363 364 364 363 363 360 359 357 357 354 354 354 354 355 355 354 355 355 357 357 351 351 350 348 349 348 347 348 347 346 345 345 345 344 344
342 343 342 340 342 344 347 346 350 350 350 352 352 351 353 352 352 351 351 350 351 353 355 356 357 358 360 360 359 360 362 361 361 360 359 357 356 354 353 353 351 353 357 358 356 358 359 358 352 351 350 348 350 349 348 348 348 347 345 345 345 345 343
343 342 342 342 345 345 342 346 347 349 350 352 353 351 352 353 352 351 352 352 353 352 353 355 358 357 358 359 358 359 360 361 359 358 359 358 356 354 353 352 352 353 355 356 357 359 359 356 352 352 350 349 349 348 348 348 348 347 345 343 342 342 341
340 343 341 341 345 347 348 350 349 349 350 349 350 353 353 353 352 352 354 354 354 353 352 356 358 360 357 357 356 359 359 359 359 360 360 359 358 358 355 352 352 353 355 356 356 356 359 355 353 352 349 348 347 347 347 348 348 347 346 343 341 340 340
351 345 347 347 348 348 349 350 350 349 350 352 353 353 354 354 354 353 352 351 352 352 351 353 356 354 354 356 357 360 360 360 362 362 361 360 360 358 356 355 355 356 357 356 354 355 357 355 353 351 350 348 348 347 348 349 347 348 346 343 340 341 341
337 338 344 345 351 349 348 348 350 351 351 354 354 352 352 352 352 352 353 351 352 351 351 353 353 353 354 357 358 361 362 363 364 364 363 360 358 358 357 356 358 360 359 356 355 357 357 356 355 352 350 351 350 350 350 348 345 346 344 341 340 340 340
325 328 335 348 354 358 360 357 358 359 360 359 354 352 349 350 351 350 351 350 350 350 351 352 352 352 352 353 357 361 364 365 366 365 364 362 359 359 359 357 358 359 358 356 355 355 355 353 352 350 349 350 350 349 349 347 346 339 331 334 339 340 340
327 329 327 345 353 353 359 363 366 370 367 361 355 351 349 350 351 352 348 347 347 349 349 353 352 351 350 350 355 361 365 366 367 367 365 363 362 360 359 360 360 358 357 356 356 355 353 351 349 346 345 348 347 346 346 345 341 328 326 329 333 339 341
329 333 335 345 348 350 359 360 362 364 367 363 358 353 349 350 351 351 347 347 346 346 347 354 354 353 352 353 358 365 366 366 367 366 366 365 363 362 361 361 360 359 358 358 358 355 353 349 347 345 345 345 345 343 341 340 331 324 325 327 328 333 342
328 328 344 338 345 355 354 354 357 362 362 361 358 354 352 351 351 351 349 348 348 348 346 355 354 353 353 353 358 366 367 367 368 367 366 366 365 365 364 362 361 361 361 359 358 354 351 348 344 342 344 343 342 339 339 338 327 323 323 325 325 329 337
329 328 330 337 338 344 353 357 354 357 361 361 361 357 355 352 351 352 352 352 352 351 349 355 355 355 353 354 358 362 366 367 368 367 367 366 367 367 364 362 360 359 359 358 357 355 352 349 348 346 346 345 343 342 341 339 323 322 321 323 325 327 333
333 332 338 344 350 346 356 363 363 361 361 357 356 358 358 356 354 355 355 355 354 353 353 354 360 358 357 357 361 367 372 369 370 368 367 368 366 364 363 361 360 359 358 354 354 354 352 351 352 348 346 345 344 343 343 341 321 321 321 322 322 325 331
328 331 332 332 347 350 360 360 362 358 363 360 363 361 358 356 353 351 351 352 356 356 356 357 366 368 363 361 371 373 371 370 370 367 365 364 364 363 361 360 359 358 357 354 353 355 353 351 350 347 345 346 345 343 345 340 319 321 321 321 321 325 336
324 326 328 334 338 355 366 361 364 359 369 369 363 362 360 359 358 356 355 354 355 363 362 362 367 367 369 373 370 370 369 368 366 364 363 363 361 361 360 359 359 358 357 352 350 349 349 349 346 347 345 345 346 344 343 340 322 320 319 320 320 325 340
324 328 330 331 333 350 363 363 365 364 365 367 365 362 363 362 363 362 361 359 362 363 363 366 374 371 370 370 369 368 367 367 365 364 363 362 361 360 360 359 359 358 357 353 349 345 346 348 347 347 346 345 344 342 342 342 325 317 317 319 318 327 340
322 325 327 330 332 343 355 360 359 356 360 362 361 364 367 367 365 365 363 362 363 365 365 369 371 369 369 368 369 369 367 365 364 363 362 361 361 360 359 359 359 359 358 354 352 349 349 347 345 345 345 343 344 343 341 340 329 314 316 315 315 328 341
332 328 328 331 330 332 360 366 366 358 356 359 364 369 370 368 368 367 365 364 366 364 365 368 369 369 369 368 367 367 365 365 364 363 362 361 361 361 360 359 358 357 355 353 352 350 348 347 344 344 344 344 345 345 341 342 334 322 314 313 314 321 341
336 335 334 329 331 341 362 366 363 360 352 357 368 368 370 371 369 367 366 368 367 364 364 370 371 369 367 365 363 362 363 363 362 361 362 362 360 359 357 355 355 353 352 350 349 349 348 346 344 343 342 340 341 342 343 342 336 326 311 312 313 317 324
338 336 337 343 352 353 363 358 362 362 359 369 372 370 371 372 369 369 369 368 367 368 369 372 370 369 367 364 361 360 360 360 361 361 360 360 358 356 353 354 354 350 348 346 348 348 347 348 347 344 344 344 343 347 345 344 339 331 313 312 311 312 314
340 335 337 338 351 357 357 357 356 356 360 365 366 366 371 370 370 370 369 369 368 368 368 367 366 364 362 361 359 357 357 359 360 359 359 357 356 353 351 352 350 349 347 349 347 348 345 346 347 346 344 345 345 345 345 346 341 326 325 312 310 309 311
341 339 334 335 336 355 357 360 361 362 363 361 365 367 368 369 367 367 366 366 369 366 364 363 362 361 358 356 357 356 356 358 357 356 355 353 353 352 351 351 351 351 349 351 348 346 346 345 344 343 340 337 339 340 343 347 345 328 323 320 311 309 309
344 342 341 342 339 350 353 361 362 362 362 363 367 370 370 371 366 363 363 366 365 363 362 362 361 359 357 356 355 356 357 357 356 355 353 352 353 351 349 349 350 349 351 346 346 345 344 343 342 342 343 340 338 339 341 343 342 335 327 320 314 310 308
345 345 346 344 341 342 348 354 357 357 359 363 367 368 367 366 364 361 364 365 362 364 362 360 358 356 355 355 356 356 356 354 354 354 353 352 351 350 350 348 346 346 346 342 340 342 342 342 338 337 338 339 336 336 338 342 339 334 327 321 317 315 310
342 342 343 340 342 351 352 347 344 346 352 355 356 358 360 362 364 364 363 362 361 360 359 356 355 352 353 353 352 353 353 351 349 349 349 348 347 347 347 346 343 343 340 338 336 338 339 337 337 336 334 335 335 335 338 341 339 334 329 327 324 324 318
338 339 340 338 341 340 339 340 341 340 342 343 349 352 354 356 360 360 361 360 360 358 356 353 352 350 350 349 350 349 350 349 349 348 346 345 344 343 343 344 343 340 339 336 337 337 337 336 336 334 333 333 332 334 337 336 338 336 332 330 329 328 326
340 342 342 341 342 347 349 349 350 351 349 349 352 356 356 359 362 361 360 359 357 355 352 349 347 349 348 348 348 347 348 347 347 346 345 344 342 327 327 344 342 340 332 323 327 337 336 337 334 334 331 330 331 331 334 333 335 338 324 333 321 328 328
336 337 340 343 342 344 341 341 343 345 347 349 356 357 359 359 359 358 357 355 354 353 351 350 349 348 347 347 347 346 345 344 344 344 344 338 330 325 318 305 296 314 333 323 312 303 305 316 332 328 335 335 329 328 330 334 336 319 314 312 310 311 313
339 338 341 342 343 344 346 350 351 353 353 354 355 354 354 354 354 356 355 356 353 351 352 351 349 346 345 345 344 342 344 343 342 343 343 339 334 330 327 322 314 296 297 305 303 297 295 294 295 299 304 334 333 319 303 312 309 306 307 305 305 303 302
336 339 341 342 343 346 347 347 349 349 351 353 353 353 352 348 349 354 353 354 352 352 353 351 348 346 344 344 344 343 343 342 342 342 342 340 338 336 334 330 325 318 299 294 298 297 294 294 293 294 297 301 317 322 319 305 301 301 301 300 299 298 297

ECMWFFLT1_sfc_thetae_009.txt.gz
Theta_e
330 330 333 334 334 336 337 340 341 342 344 345 347 347 348 348 349 352 353 355 355 356 357 357 357 358 358 357 358 358 359 358 358 357 355 354 354 354 352 353 353 352 352 352 351 352 352 353 349 348 349 344 343 343 343 342 343 342 340 343 341 339 339
329 331 332 334 335 335 337 340 342 343 344 345 347 348 348 348 349 350 353 355 356 357 358 358 358 358 358 358 358 358 358 359 359 358 356 356 354 356 354 353 353 352 352 352 351 352 351 351 349 348 345 344 342 343 341 340 341 340 339 339 338 339 337
330 332 333 333 336 336 338 341 342 343 344 344 346 347 347 347 348 350 353 355 356 357 359 359 358 358 358 358 358 357 358 359 358 358 356 355 354 356 354 354 353 352 352 352 351 351 352 351 349 346 343 342 342 343 340 341 342 340 340 339 339 338 337
331 332 333 335 337 338 339 341 342 343 344 345 345 347 347 347 348 350 353 355 356 357 358 358 358 358 357 357 357 357 358 359 359 358 357 356 355 356 355 353 353 352 353 351 353 351 352 350 348 345 348 342 342 342 341 341 341 340 340 338 338 338 336
330 332 333 334 336 337 338 339 342 342 343 344 345 347 347 347 349 351 353 356 357 357 359 359 360 359 359 358 357 358 358 358 359 358 358 357 357 356 355 353 353 352 353 352 353 351 349 347 346 345 344 342 342 341 342 341 340 340 340 337 336 338 336
328 329 331 334 335 336 338 339 340 342 343 343 344 346 347 348 349 351 352 355 357 358 359 359 359 359 358 358 357 358 359 359 359 359 358 356 356 355 354 354 353 352 353 352 352 350 348 347 345 345 343 343 343 341 342 340 340 340 339 340 337 337 337
328 328 330 333 334 335 337 338 339 341 342 344 345 349 349 349 349 350 352 354 357 357 358 359 359 359 358 358 357 357 357 358 359 358 358 356 356 354 354 354 353 352 352 351 350 349 347 347 344 344 344 343 342 341 341 340 339 339 338 338 339 337 337
327 328 331 333 334 336 336 337 338 340 342 343 344 347 349 350 350 350 351 353 356 358 358 358 359 358 358 358 357 356 357 358 358 359 358 356 356 354 353 354 353 352 351 349 349 349 347 347 344 345 344 342 341 341 341 340 339 339 338 337 336 338 339
326 330 333 334 335 336 337 338 338 339 341 342 342 345 348 349 350 350 351 353 355 356 357 359 359 359 359 358 357 356 357 358 358 358 357 356 355 355 354 353 352 352 350 349 348 349 348 346 345 344 343 342 341 340 340 340 339 339 338 337 336 336 337
328 331 333 335 336 336 336 338 339 339 341 343 343 344 346 348 349 350 350 352 354 355 357 358 359 359 358 358 357 357 357 357 357 357 357 356 355 355 354 354 353 352 350 349 348 348 348 347 346 345 343 342 340 340 340 339 339 339 339 338 338 336 336
329 331 332 333 333 333 334 336 338 339 341 342 342 345 345 347 348 348 349 350 352 354 357 358 359 358 358 357 357 357 356 356 356 356 356 356 356 355 355 354 353 352 350 349 348 348 348 347 346 345 343 342 340 340 340 340 339 338 339 339 339 338 337
329 330 331 331 331 331 333 337 338 338 339 341 343 345 345 346 347 348 348 349 351 352 354 356 358 358 357 357 356 356 356 356 356 356 356 356 355 355 354 354 353 352 351 349 347 348 348 347 346 346 344 342 341 341 340 340 340 339 338 339 339 338 338
329 330 330 330 332 333 335 337 338 339 340 341 344 346 346 346 347 348 348 348 349 351 352 354 356 357 357 357 356 355 356 356 355 355 356 356 355 355 354 353 352 352 350 350 348 348 347 348 346 346 344 343 342 341 341 341 341 339 338 338 339 339 338
337 330 331 332 333 334 335 337 338 339 341 342 344 347 347 347 347 347 347 347 348 350 351 354 355 356 357 356 355 355 356 356 356 356 356 356 356 354 354 353 351 351 350 350 348 347 348 349 347 345 344 343 343 342 342 341 341 340 339 339 338 338 337
329 330 332 335 335 336 337 338 339 340 341 343 345 346 347 347 347 347 348 348 348 349 350 353 354 354 356 356 355 354 356 357 356 356 356 356 355 354 353 352 350 350 349 349 349 349 349 351 349 346 344 343 343 343 343 342 342 342 340 338 337 336 335
330 331 333 334 335 336 337 339 340 341 342 342 344 345 347 347 347 347 348 348 348 348 350 353 353 353 354 355 355 355 355 356 356 356 356 355 355 354 353 351 349 348 347 348 349 349 350 352 350 347 345 343 342 342 343 342 343 338 330 333 337 335 335
329 330 330 332 333 334 336 338 340 341 342 342 343 346 347 347 348 348 348 348 348 348 349 351 352 352 353 354 355 355 355 355 355 355 355 355 355 354 353 351 350 348 348 348 349 349 350 351 349 347 345 343 342 341 341 342 343 331 328 330 333 335 334
328 331 331 334 335 335 336 337 338 340 341 343 344 346 347 347 347 348 348 348 348 348 350 350 351 352 352 353 355 355 354 355 355 355 354 355 354 354 354 352 350 348 348 350 349 349 350 350 349 348 346 344 343 341 341 341 333 327 326 328 328 332 335
328 331 332 334 336 336 335 337 339 341 342 344 345 346 347 348 348 347 348 349 349 350 350 349 350 351 352 353 353 353 354 355 355 355 354 354 355 354 354 352 351 349 349 351 351 349 349 349 348 347 346 345 343 342 343 342 331 325 325 326 326 328 334
322 327 335 339 339 338 338 339 340 342 343 344 346 348 348 349 349 349 349 349 349 349 349 348 348 350 351 352 352 353 354 355 355 354 355 355 355 354 353 352 351 351 351 352 351 349 347 346 346 345 344 343 343 343 343 342 324 322 322 324 327 326 331
324 324 335 338 341 343 342 343 344 345 345 346 347 348 348 348 349 349 349 348 347 347 347 347 347 347 349 350 350 352 353 354 355 355 356 356 356 355 353 352 352 352 352 352 351 348 344 343 342 342 342 342 341 340 339 341 320 320 320 321 322 325 329
323 327 325 337 341 344 346 348 350 352 353 355 353 350 348 347 348 348 347 348 346 346 346 345 346 346 347 347 348 350 352 354 355 355 356 357 357 356 354 353 353 353 353 351 349 347 345 343 342 340 340 340 340 339 337 338 319 319 318 320 321 323 329
320 325 326 326 335 340 345 350 350 353 356 357 356 352 349 347 347 347 346 345 345 344 344 344 344 345 345 346 347 348 350 353 355 356 357 358 357 356 356 355 353 353 352 348 347 345 344 344 343 342 340 340 340 339 338 336 320 317 316 319 320 323 329
315 316 320 321 329 335 343 350 352 352 353 355 355 354 352 348 346 345 345 344 344 343 343 342 343 346 346 345 346 347 349 353 356 357 358 358 357 357 357 356 355 353 349 345 345 345 345 346 345 344 342 340 340 339 338 335 320 315 315 317 317 322 328
318 315 316 319 320 328 339 347 351 352 352 353 352 353 353 350 346 344 344 344 343 343 342 342 343 346 347 346 346 347 351 355 357 358 359 358 358 358 356 355 354 351 347 345 345 346 346 345 344 343 341 341 341 341 339 334 321 313 315 315 315 322 329
327 328 326 326 322 330 338 346 351 351 352 351 351 353 353 352 349 345 344 344 344 343 342 342 343 348 349 348 348 350 355 358 359 359 359 358 358 358 356 355 353 350 347 345 345 344 344 343 342 341 341 341 341 340 340 336 327 320 313 314 314 318 332
332 330 328 331 343 346 345 352 353 353 354 355 354 354 355 354 351 347 345 344 344 343 344 345 345 348 352 353 355 356 358 359 359 358 359 358 358 357 356 355 353 351 349 346 345 343 342 342 341 341 340 341 341 339 338 337 330 323 312 311 312 315 324
336 336 338 337 343 353 350 351 353 353 356 357 358 358 357 356 353 351 348 347 345 345 347 348 349 354 359 359 358 359 359 359 359 359 358 358 357 355 354 354 354 352 350 349 346 344 343 341 339 339 339 340 339 338 337 338 329 326 313 312 310 313 319
338 338 337 338 340 343 352 351 350 349 348 351 358 359 359 358 354 353 352 350 349 350 352 358 361 361 361 360 358 358 358 358 357 357 358 356 355 354 352 352 351 350 349 346 345 343 341 338 337 336 336 336 336 338 338 335 328 320 320 311 310 310 314
340 340 340 342 343 343 345 343 341 340 338 339 343 346 349 356 355 354 354 354 356 358 363 363 363 362 360 357 357 357 356 356 356 357 356 354 353 351 349 347 348 347 344 342 341 339 337 336 337 336 336 335 336 337 337 335 330 319 317 317 311 310 311
336 336 336 335 338 342 339 337 337 338 339 340 342 343 343 342 342 348 355 359 361 363 363 362 360 358 356 356 356 355 355 355 355 354 353 351 350 346 344 343 343 341 341 340 339 337 336 335 336 336 335 334 335 336 336 335 332 326 322 318 313 311 309
336 336 336 335 334 337 336 336 336 337 338 338 342 345 346 345 342 338 341 347 345 343 342 341 341 340 342 343 346 348 349 348 348 347 346 346 346 345 344 342 341 339 339 339 338 337 335 334 334 333 332 332 333 335 335 334 332 328 325 322 318 314 310
335 336 336 336 334 334 335 334 334 336 336 334 339 343 346 345 343 341 342 343 345 346 344 342 341 341 343 345 346 344 344 343 344 346 346 345 344 344 344 342 340 337 336 337 336 335 333 333 331 330 331 330 332 333 334 332 329 325 322 320 318 317 315
333 335 336 336 338 338 335 334 334 336 336 335 338 342 344 342 342 342 343 343 342 342 341 340 340 340 341 342 343 343 344 342 344 344 343 343 343 342 341 340 338 335 333 333 334 332 331 330 329 328 329 329 330 333 333 331 328 325 323 321 320 318 316
332 332 333 334 333 336 337 339 338 338 338 337 340 342 344 344 343 343 343 344 346 345 341 339 337 340 344 345 347 345 344 344 343 342 338 325 315 310 316 334 337 329 322 316 318 333 333 331 330 330 329 330 330 333 332 331 328 327 318 324 316 320 320
333 332 333 337 336 334 335 337 336 338 338 338 340 342 343 343 343 345 346 344 343 343 342 341 344 347 347 347 346 344 344 343 341 336 329 325 320 317 312 305 300 313 324 318 311 307 314 319 329 328 328 327 322 327 334 333 333 318 310 308 307 308 310
332 336 336 338 337 336 337 337 340 339 338 339 339 341 344 343 342 342 342 340 340 342 341 343 343 344 345 345 344 342 343 341 337 331 328 325 324 321 317 314 309 297 297 303 303 300 297 296 297 303 315 327 322 313 311 320 315 308 307 305 305 304 305
330 334 336 336 335 336 336 335 335 337 338 341 342 343 343 346 346 345 346 347 347 346 345 344 343 342 342 343 341 339 340 340 335 331 329 327 326 323 320 317 314 312 299 295 299 298 295 295 295 297 301 310 316 317 318 312 307 305 304 304 303 303 303

ECMWFFLT1_sfc_thetae_012.txt.gz
Theta_e
326 327 329 332 334 336 337 337 338 339 340 341 342 343 343 344 346 346 347 348 348 349 351 352 353 353 352 352 354 354 354 354 353 352 351 350 351 350 350 351 351 352 352 353 352 352 352 353 352 352 350 347 345 344 342 342 341 341 339 338 337 337 334
326 327 328 331 333 336 337 338 338 339 340 342 342 343 344 344 345 346 347 348 349 349 350 352 353 353 353 353 354 354 354 354 354 354 353 351 352 351 352 351 352 352 352 353 353 353 352 352 352 350 348 347 344 342 340 340 340 339 337 337 335 335 334
326 328 328 330 332 334 337 338 339 340 341 342 343 343 344 344 345 346 347 348 349 349 351 351 352 353 354 353 353 353 354 354 354 354 352 351 351 351 352 352 352 352 352 352 352 352 353 351 351 349 347 345 343 341 340 339 339 338 337 337 335 334 334
326 327 329 330 332 334 336 338 339 340 341 343 343 344 344 345 346 347 348 349 349 350 350 351 352 353 354 353 353 353 353 354 354 354 354 353 352 352 352 352 351 351 350 350 351 352 352 351 349 348 351 344 342 341 339 338 338 337 337 336 334 334 334
326 327 329 330 331 332 334 336 339 340 341 343 344 345 345 346 347 348 349 350 350 350 351 352 353 354 354 355 354 354 354 354 354 355 355 354 353 353 351 351 351 350 350 351 350 351 351 350 348 347 346 342 341 340 338 338 337 337 336 335 334 334 333
326 326 328 330 331 332 333 335 338 340 341 342 343 344 345 346 347 348 349 351 351 352 353 353 353 354 353 355 355 355 355 355 355 355 355 355 353 352 352 351 351 350 350 350 351 350 351 349 348 346 345 341 340 339 338 338 337 336 335 335 334 334 333
326 327 327 329 331 332 333 334 337 339 341 342 344 345 346 346 346 348 349 351 352 351 352 353 354 354 354 355 355 355 354 354 355 355 356 355 354 353 352 351 351 351 350 350 350 350 350 349 348 346 345 340 340 338 337 337 337 336 335 334 333 334 333
326 327 328 329 331 333 334 335 336 338 340 342 342 344 345 346 346 347 348 351 352 353 353 354 354 355 355 355 355 355 355 355 355 356 356 355 354 353 353 352 351 351 351 350 350 349 349 348 348 346 344 341 339 338 338 338 337 336 336 334 333 333 335
326 328 329 330 331 333 334 335 336 338 339 340 341 343 345 345 346 346 348 350 352 352 353 355 355 356 356 355 355 355 355 355 355 355 355 355 354 353 353 353 351 351 350 350 349 350 348 348 347 346 344 341 340 339 338 338 337 337 336 335 334 333 334
325 326 329 330 332 333 334 335 336 338 339 340 341 342 344 345 346 346 347 350 352 352 354 355 356 356 356 355 355 355 355 355 355 355 355 354 354 354 353 353 352 352 351 350 350 349 348 347 346 345 343 341 340 339 338 338 337 336 336 336 335 334 334
325 326 328 329 330 332 333 334 335 337 339 339 340 342 343 344 345 345 346 349 351 352 354 356 357 356 356 355 354 354 354 354 355 354 354 354 355 354 354 353 353 352 350 350 349 349 348 346 345 344 343 341 340 339 338 338 337 336 336 336 336 336 335
325 325 326 327 329 330 331 333 335 336 338 339 340 341 343 344 345 345 346 348 351 352 354 355 357 357 356 356 355 354 353 353 354 354 354 354 354 354 354 353 352 352 351 350 349 348 348 346 345 343 342 341 340 339 338 338 338 337 336 336 335 335 336
324 325 326 327 328 330 331 332 333 335 336 339 340 341 343 344 344 345 346 347 350 352 354 355 356 356 356 355 355 354 353 353 353 354 354 355 355 355 354 353 353 352 351 350 349 348 347 346 345 344 342 341 340 339 339 338 338 338 337 336 336 335 335
331 325 326 327 328 329 330 331 333 334 335 337 339 340 343 345 345 345 345 346 348 351 353 355 355 355 355 355 354 354 353 354 354 354 355 355 355 355 354 354 353 352 351 350 348 347 347 346 345 344 343 342 340 340 339 338 338 338 337 337 336 335 334
322 323 325 326 327 329 330 331 332 334 335 337 338 339 340 343 345 346 346 347 348 350 352 354 355 355 355 354 354 354 354 354 354 354 354 355 355 354 353 353 353 352 351 350 348 348 347 347 345 344 343 342 341 340 340 339 338 338 338 337 336 336 335
322 324 324 325 327 329 330 332 333 334 335 337 338 338 340 342 344 345 346 346 348 349 352 354 354 354 354 354 354 354 354 354 354 354 354 353 353 353 354 353 352 352 350 349 348 347 347 346 345 344 343 342 341 340 340 339 339 335 327 331 337 337 336
323 324 324 325 327 329 330 332 333 334 335 336 338 339 340 341 343 345 346 347 348 349 351 353 353 353 353 353 354 354 354 354 354 354 353 353 353 353 353 353 352 351 350 349 348 347 346 346 345 344 343 342 341 340 340 340 339 328 325 328 332 337 337
324 324 326 327 328 328 328 331 333 334 335 337 338 340 341 342 343 344 345 346 347 348 350 351 352 352 353 354 354 354 354 353 353 353 353 353 352 353 353 352 351 350 349 348 347 347 346 345 345 345 344 343 342 341 340 340 331 325 325 327 328 332 337
325 326 328 330 330 331 331 332 334 335 337 338 339 341 343 344 343 344 345 346 347 348 348 349 350 351 352 353 353 353 353 353 353 353 352 352 353 353 352 352 350 349 347 346 347 347 346 345 346 345 344 343 341 341 341 341 329 324 324 326 327 329 334
326 328 329 331 332 332 333 335 336 337 338 339 340 342 345 346 345 345 346 347 347 347 347 347 348 350 351 352 353 353 353 353 352 352 352 353 352 352 352 351 350 349 347 347 346 346 346 346 346 346 345 344 342 341 341 341 327 323 322 324 325 328 332
326 328 329 330 331 333 333 334 335 336 338 340 341 342 344 345 346 346 346 347 346 346 346 346 347 348 349 350 352 353 353 353 352 352 352 352 352 352 351 351 350 348 347 346 346 345 345 346 346 346 346 345 344 342 341 342 323 321 320 321 321 325 330
318 322 328 330 332 333 333 334 335 336 338 342 342 343 344 345 347 346 346 347 346 346 346 346 346 347 349 349 351 352 353 353 352 351 351 352 352 351 351 351 350 349 348 347 347 346 346 347 347 347 346 345 344 343 341 341 319 320 319 319 320 324 334
316 317 322 329 333 333 334 335 335 337 339 340 342 343 344 345 347 347 346 346 346 346 346 345 345 346 347 349 350 351 352 353 352 351 351 351 351 351 351 351 350 350 349 347 347 346 346 346 347 347 347 345 344 343 342 336 320 318 317 318 318 324 334
322 317 320 325 329 332 335 334 335 338 338 339 341 343 344 345 346 346 346 345 346 345 345 345 345 345 346 348 349 351 352 353 352 351 351 351 351 351 351 352 352 351 350 348 347 346 346 346 346 346 346 344 343 344 341 335 319 315 315 317 317 325 333
327 327 325 317 323 330 334 336 335 335 337 337 339 342 344 344 345 345 345 345 345 346 345 345 345 345 346 347 349 350 351 352 352 352 351 351 352 352 351 351 351 351 351 350 349 348 347 346 345 343 343 344 344 342 340 333 318 313 315 316 316 326 334
334 332 332 335 341 338 329 338 341 341 340 340 341 343 344 344 344 344 344 345 345 344 344 345 346 347 347 347 348 350 351 351 351 352 352 352 352 353 353 353 352 351 350 350 349 348 347 345 343 341 341 341 341 341 340 332 324 320 314 315 315 320 335
337 337 335 338 340 347 338 331 339 343 344 346 348 348 346 345 343 343 343 344 344 343 345 346 347 347 347 347 347 348 349 351 351 351 352 353 353 354 354 353 352 351 350 349 349 348 346 344 343 341 340 339 339 339 338 334 326 321 312 314 314 316 324
334 335 336 337 342 342 342 342 339 341 341 342 345 348 349 349 343 342 342 342 343 344 346 346 347 347 347 346 345 346 347 349 350 352 353 354 354 354 353 354 353 351 350 349 347 346 344 343 342 341 338 338 339 339 338 337 326 326 313 313 312 313 317
332 332 332 333 335 337 340 338 339 339 341 343 344 346 348 348 347 345 343 341 343 345 343 345 346 345 345 345 344 344 345 347 348 350 354 354 355 354 353 353 352 349 348 347 345 344 343 341 340 339 336 337 338 338 337 336 330 321 320 311 310 310 312
334 334 334 333 334 335 337 336 338 339 341 344 344 343 344 343 340 341 342 342 348 351 350 348 345 342 341 341 343 344 345 347 349 352 354 355 355 355 353 352 350 347 344 342 340 338 336 336 338 337 337 337 336 336 336 333 330 320 317 316 310 308 310
334 335 334 332 333 334 334 334 335 338 341 342 342 342 342 342 340 338 339 340 345 351 352 352 351 349 349 350 350 350 351 352 353 353 354 355 355 353 351 346 342 340 341 341 339 338 337 337 336 335 337 336 335 334 333 331 328 325 321 316 311 310 310
333 335 334 334 334 333 332 333 335 338 340 341 341 340 341 342 342 339 339 342 343 345 349 349 348 348 348 348 349 349 348 347 347 347 347 346 346 344 343 341 340 339 338 338 337 338 338 335 335 335 335 335 335 334 333 330 326 323 321 319 315 315 312
328 330 330 331 333 334 333 333 335 337 338 337 339 340 339 337 339 340 340 340 341 340 340 342 345 345 346 346 346 345 345 344 344 344 343 342 342 341 341 340 338 336 335 337 339 337 335 335 334 334 334 334 334 334 333 330 326 322 320 318 317 317 318
327 328 331 330 332 334 334 335 336 337 337 336 338 339 339 339 339 340 341 341 342 343 343 342 342 343 344 345 345 345 345 343 344 342 339 339 339 337 338 337 337 336 337 338 336 334 333 334 334 333 333 333 333 332 331 328 325 322 320 318 318 317 318
329 329 331 332 332 333 335 336 337 338 339 338 339 338 337 337 338 339 340 341 342 342 341 340 339 340 340 340 341 343 342 343 341 339 338 336 334 332 333 338 339 337 331 325 335 337 335 333 333 333 334 334 333 332 330 327 325 325 316 321 315 317 318
329 330 331 333 335 335 336 338 337 337 338 337 336 336 337 337 338 339 340 340 340 340 339 339 340 340 340 341 339 339 340 339 338 335 330 326 320 314 309 305 301 313 330 327 323 324 321 320 332 334 334 334 334 334 331 328 329 317 309 307 306 307 310
326 328 330 332 333 334 335 336 339 339 338 338 337 334 336 335 337 337 339 339 339 339 339 339 339 340 340 339 337 336 334 332 330 329 327 324 322 319 317 315 310 298 298 305 306 304 307 311 314 316 321 333 332 327 321 321 314 306 305 303 303 303 304
325 327 330 331 331 332 333 334 335 335 336 338 340 337 335 335 336 334 338 338 339 338 338 339 338 338 338 337 336 334 332 332 329 327 325 324 323 322 323 323 319 313 299 295 300 300 297 297 303 308 311 316 321 321 321 311 304 305 303 302 302 302 302

ECMWFFLT1_sfc_thetae_015.txt.gz
Theta_e
326 327 330 332 332 333 333 334 335 336 337 338 339 340 341 342 344 345 345 345 345 345 346 347 348 350 350 350 350 351 351 351 351 350 349 349 348 347 347 348 348 348 349 349 350 351 352 353 353 354 354 353 351 349 346 345 343 343 339 338 337 337 336
323 326 328 331 332 333 334 335 335 336 337 338 339 339 341 342 343 344 345 346 346 346 346 347 348 348 350 351 351 351 351 351 351 352 350 349 350 349 348 349 349 348 349 350 351 352 352 352 353 353 352 352 351 349 346 344 342 340 338 337 335 335 335
321 324 327 329 332 333 333 334 335 336 337 338 339 339 340 341 343 343 344 345 345 346 347 347 349 348 349 350 350 351 351 351 351 351 350 349 349 349 349 349 349 349 350 351 351 352 353 352 352 352 352 350 349 347 345 342 341 340 338 336 336 335 332
321 323 325 328 331 333 334 335 335 336 337 338 339 339 340 341 343 344 345 345 345 346 346 347 348 349 349 349 349 350 351 351 351 351 351 350 349 350 349 348 349 349 349 350 352 353 353 352 351 351 354 348 347 346 344 342 340 339 338 336 334 334 333
322 323 324 326 329 331 333 334 335 336 337 338 339 340 340 341 343 344 344 345 346 346 347 348 349 350 350 350 350 350 351 351 351 351 351 351 351 350 349 348 349 349 350 350 351 352 352 351 350 350 350 347 346 344 343 340 339 338 337 336 334 333 333
323 323 323 325 327 330 332 334 335 336 336 337 338 339 341 341 342 343 344 345 345 347 348 348 349 350 350 350 350 350 351 351 352 352 352 352 351 350 349 349 349 349 349 350 351 351 351 351 350 349 348 347 345 343 341 338 338 337 336 335 334 333 332
323 324 324 325 326 328 331 333 335 336 337 338 339 340 341 341 342 343 344 344 346 345 346 347 348 349 350 351 350 351 350 350 351 351 352 352 352 351 350 350 350 350 350 350 349 350 350 350 349 348 348 346 345 343 340 337 336 335 335 335 333 332 332
323 324 325 326 326 328 329 332 334 336 338 338 338 339 340 341 342 342 343 344 345 346 346 347 348 349 350 351 351 350 350 351 351 352 352 352 352 351 350 350 350 350 350 349 349 350 350 349 349 348 347 345 344 343 340 337 336 335 334 334 333 332 333
324 324 325 326 327 328 329 330 333 335 337 337 338 339 340 341 342 342 343 344 345 346 346 348 348 349 350 350 350 351 351 351 351 352 351 351 351 351 351 351 351 351 350 349 349 349 349 349 348 347 346 345 343 342 340 338 336 335 334 334 333 332 332
323 323 325 327 328 329 329 330 331 333 335 337 337 338 339 341 342 343 343 344 345 345 347 348 349 349 350 350 350 351 351 351 351 351 351 351 351 351 352 351 351 351 350 349 349 348 349 349 348 347 345 344 342 341 340 338 337 335 334 334 333 332 332
323 323 324 325 326 328 329 329 330 331 334 336 337 338 340 341 342 342 343 344 345 346 347 348 349 349 350 350 350 350 351 351 351 351 351 351 352 351 352 352 352 351 350 349 348 348 348 348 348 346 345 344 342 340 339 338 337 336 334 334 333 333 333
322 323 324 325 326 326 327 329 330 331 333 336 337 338 340 341 342 343 344 345 346 346 347 348 349 350 350 350 350 350 350 351 351 351 351 351 352 352 352 352 352 351 351 350 348 348 348 347 347 347 345 344 343 341 339 338 337 336 335 334 334 333 333
320 322 323 324 326 327 327 328 330 331 332 335 337 338 340 341 342 343 343 344 346 347 348 349 349 350 350 350 350 350 350 351 351 351 351 352 352 353 353 352 352 351 350 350 349 348 347 346 346 346 346 344 343 342 340 338 337 336 336 335 335 334 333
326 321 323 324 326 326 326 327 330 331 332 334 336 338 339 341 343 343 343 344 346 347 349 350 350 350 350 350 350 350 351 351 352 352 352 353 353 353 353 353 352 352 351 350 349 348 347 346 345 345 346 345 343 342 341 339 338 337 336 335 335 335 334
315 319 321 322 324 325 326 327 329 331 332 334 336 337 338 341 342 343 344 344 346 347 348 350 350 350 350 351 350 351 352 352 352 353 353 353 353 352 352 352 352 352 351 350 349 349 348 347 346 344 343 344 343 342 341 340 338 338 337 335 335 335 334
315 317 320 321 323 324 326 327 329 331 332 334 335 336 338 340 341 342 343 343 345 346 349 350 350 350 351 350 351 352 352 352 353 353 353 352 352 352 352 352 352 351 350 350 349 348 348 347 346 345 343 342 342 341 341 340 339 334 326 329 336 335 335
315 316 319 321 322 323 325 327 329 331 332 334 335 337 338 339 341 342 343 344 345 346 348 350 350 350 351 351 352 352 353 352 352 352 352 352 352 352 352 352 352 351 350 349 348 348 347 347 345 345 344 342 341 340 340 340 339 328 325 326 329 334 335
315 316 318 321 322 323 325 327 328 330 332 333 335 337 338 339 341 342 342 343 344 346 349 350 350 350 351 351 352 352 352 352 352 352 352 352 352 352 352 352 351 350 349 348 348 347 347 346 345 345 344 343 342 340 340 340 331 326 325 325 326 330 336
318 317 318 320 322 324 324 326 328 330 332 334 335 337 339 340 341 341 343 343 345 346 347 349 349 350 350 351 352 352 353 352 352 352 351 351 352 352 352 351 351 350 349 348 348 347 346 345 345 344 344 344 342 341 340 340 330 325 323 324 325 327 332
321 322 322 321 321 323 325 327 329 331 333 334 336 338 339 341 341 343 344 344 345 345 346 347 349 349 350 351 351 352 352 352 352 351 351 352 351 351 351 351 350 350 350 349 348 347 346 345 344 344 344 343 342 342 341 340 329 323 322 322 323 325 331
320 321 322 323 324 324 325 327 329 331 332 334 336 337 339 339 341 343 344 344 344 345 345 347 347 348 349 350 351 352 352 352 352 351 351 351 351 351 350 350 350 350 350 349 348 347 346 345 344 344 344 344 343 342 342 342 328 321 320 319 320 322 331
317 320 321 323 325 326 326 327 329 331 332 336 337 338 338 339 341 341 342 344 344 344 345 345 346 347 348 349 350 351 352 352 351 351 351 351 351 350 350 350 350 350 350 349 348 348 347 346 345 344 344 344 343 342 341 343 325 321 320 318 318 322 336
321 321 318 319 327 329 329 332 331 332 335 335 337 338 338 340 340 341 341 342 343 344 344 344 344 345 347 348 349 351 352 352 352 351 351 351 350 350 350 349 350 350 350 348 348 347 346 346 345 345 345 344 344 342 342 342 328 320 318 316 316 324 337
333 331 332 334 330 326 331 330 331 333 334 335 336 338 339 340 340 340 340 341 342 343 343 343 344 345 346 347 349 350 351 352 352 351 351 351 350 350 350 350 351 350 350 348 347 346 346 346 346 346 346 344 344 344 343 343 329 316 316 315 316 325 335
334 334 333 335 338 338 338 330 331 332 335 335 336 338 339 340 341 341 340 340 341 342 342 342 343 344 345 347 349 350 351 352 352 351 351 350 350 351 350 350 350 351 350 349 348 347 347 346 346 345 346 346 345 339 341 343 328 314 315 313 315 328 335
330 331 332 334 336 338 339 338 333 330 332 332 335 337 339 339 341 341 341 341 341 341 341 342 344 345 346 347 348 349 350 352 352 352 351 350 351 351 351 351 351 350 349 349 349 347 346 346 345 345 345 346 346 345 343 342 331 321 313 312 315 322 335
332 332 331 332 334 339 337 336 332 332 331 333 334 335 338 339 339 339 341 341 341 341 342 344 345 345 346 346 347 348 349 351 352 351 352 352 351 352 351 351 351 350 349 349 348 347 346 345 344 344 344 344 345 345 344 341 331 323 311 311 314 319 323
334 334 334 334 337 336 337 338 336 336 337 338 339 340 339 339 339 339 339 340 341 342 344 345 345 345 345 345 346 347 348 349 351 352 352 352 352 350 350 351 351 351 350 349 348 346 345 344 342 342 339 340 341 342 342 339 326 326 312 311 311 316 320
332 332 332 332 333 334 336 334 336 337 337 340 340 344 342 339 339 338 338 339 341 343 342 343 343 344 345 344 344 345 346 348 349 350 352 352 351 350 350 350 350 350 349 349 347 346 344 342 340 337 336 337 338 340 340 333 328 319 319 311 310 312 316
332 333 333 334 334 333 335 334 337 338 340 339 339 340 343 342 339 338 338 339 341 344 341 341 342 343 343 343 343 344 345 347 348 349 351 351 351 350 349 349 349 349 349 348 346 344 340 338 337 336 336 337 337 336 334 331 329 319 316 316 310 311 312
330 331 332 333 333 334 334 334 336 338 339 338 336 337 338 340 341 340 339 339 339 344 343 341 340 341 342 342 342 342 342 343 345 347 349 350 350 349 349 349 349 348 347 347 345 342 339 337 337 337 337 336 334 333 331 332 332 329 322 317 312 311 310
328 330 332 334 334 334 334 336 337 338 338 337 337 337 336 336 338 339 342 343 344 347 344 342 340 340 340 341 341 342 342 342 343 346 348 349 350 350 350 349 348 347 344 344 342 340 338 337 337 337 336 335 333 331 330 330 331 329 325 323 318 316 312
328 330 332 332 334 335 335 335 336 336 335 336 337 337 338 335 336 337 340 342 344 347 346 343 342 341 342 343 343 343 343 343 344 345 347 348 350 351 350 350 348 345 342 342 341 339 338 337 337 336 335 334 332 331 330 329 328 325 322 320 318 318 317
327 328 331 333 335 336 336 336 336 336 336 335 336 338 337 335 335 336 337 338 340 342 344 343 342 343 343 344 344 344 344 344 345 346 347 349 350 349 349 348 347 344 341 341 341 339 338 338 336 335 334 333 332 330 330 328 325 322 320 318 318 318 318
325 326 329 332 334 336 336 337 337 337 336 336 337 337 337 336 336 336 336 338 340 340 339 339 338 341 342 343 343 343 342 340 340 343 346 348 349 349 349 348 346 344 343 345 345 344 341 338 336 334 335 334 332 330 328 328 324 323 315 319 314 318 320
325 327 328 330 333 333 335 337 338 337 336 336 336 336 337 337 337 337 339 338 338 339 339 339 338 337 338 339 339 339 340 340 339 337 337 339 335 330 319 311 304 318 342 340 329 326 324 325 334 335 335 334 334 333 331 329 330 314 308 307 306 307 311
325 327 328 330 331 332 333 335 336 335 334 334 336 336 336 336 337 336 338 339 338 338 337 338 338 338 336 336 337 337 338 335 332 331 332 332 334 333 326 322 315 299 296 311 324 320 315 315 316 319 324 334 333 330 322 319 310 305 305 303 304 304 304
325 326 328 330 331 332 333 333 334 333 333 333 334 334 335 335 337 336 336 338 339 339 338 337 335 334 333 333 333 332 331 331 330 329 328 327 329 330 329 327 319 313 301 297 304 310 310 309 311 313 315 318 323 324 323 309 304 303 302 302 302 303 302

ECMWFFLT1_sfc_thetae_018.txt.gz
Theta_e
327 328 330 331 332 333 333 334 335 335 336 336 337 338 339 341 342 342 342 343 343 343 344 345 345 346 347 347 348 348 348 349 349 348 348 348 348 348 347 348 348 348 349 348 349 350 353 355 355 356 356 356 355 354 354 354 352 350 347 345 344 342 341
324 326 329 330 331 332 333 334 335 336 336 337 337 338 339 340 342 342 342 343 343 343 344 345 346 346 347 347 348 348 348 348 349 350 349 349 349 349 349 349 349 349 349 350 351 352 353 354 355 355 355 356 355 355 353 352 351 349 345 343 341 341 341
322 325 327 329 330 331 333 334 335 335 336 337 337 337 338 340 342 343 343 343 343 344 345 345 346 346 347 348 348 348 348 348 348 349 348 348 348 348 349 349 349 349 350 351 351 352 354 354 354 355 355 355 355 354 353 351 350 347 345 342 341 341 340
321 323 325 328 330 332 333 334 335 335 336 337 338 338 338 340 341 343 344 344 343 344 344 345 346 346 347 348 348 348 348 349 349 349 349 349 349 350 349 349 349 350 350 350 351 352 353 354 354 354 357 354 354 354 352 350 348 347 345 342 341 340 340
320 322 324 325 328 330 331 333 334 335 335 337 338 340 340 340 341 342 343 345 345 344 345 345 346 347 348 349 349 349 349 349 349 350 350 351 351 351 349 349 349 349 350 351 352 353 353 353 353 353 354 354 353 353 351 349 347 346 344 342 341 340 339
320 320 321 324 326 328 331 332 334 335 335 336 337 338 339 340 340 341 343 344 345 346 346 346 346 347 347 348 349 350 350 350 351 351 351 351 351 350 350 350 349 349 349 350 352 352 353 353 352 353 353 353 352 352 350 348 346 345 344 342 341 339 339
321 321 321 323 325 327 329 332 333 335 336 337 338 339 340 340 340 341 342 343 344 344 345 345 346 347 347 348 349 350 350 350 350 351 351 351 352 351 350 351 350 350 350 351 351 352 352 352 352 352 353 352 352 351 349 347 345 344 343 341 340 339 339
321 321 322 322 323 326 328 331 333 334 336 337 337 337 338 339 340 340 341 342 343 344 345 345 346 347 347 348 348 349 350 350 351 351 352 351 351 351 351 351 351 351 351 350 351 352 352 352 352 352 352 352 351 351 349 347 346 343 343 341 340 339 338
321 323 323 323 323 324 327 330 332 334 335 335 336 337 338 339 339 339 340 342 343 343 344 346 346 347 348 348 349 349 349 350 351 351 351 351 351 351 351 351 351 351 350 350 350 352 352 352 352 352 352 351 351 350 349 347 345 344 342 341 340 339 337
320 321 322 324 325 324 326 328 331 333 334 335 335 336 337 338 339 339 340 341 342 343 344 345 346 347 348 348 348 349 349 349 350 350 350 350 351 350 351 351 351 352 351 350 351 350 352 352 352 352 351 350 350 349 348 346 345 343 342 341 341 340 338
319 321 322 322 324 325 325 326 328 331 333 334 335 336 337 338 338 339 340 341 342 343 344 345 346 347 347 348 348 349 349 349 349 349 350 350 351 351 351 351 351 351 351 351 350 350 351 351 352 351 350 349 349 348 348 347 345 343 341 341 341 340 338
319 320 321 322 323 324 324 325 327 330 332 334 335 336 336 337 338 339 340 341 342 342 344 344 346 346 347 347 347 348 348 349 349 349 349 350 351 351 351 352 352 351 351 351 350 350 350 350 350 350 350 350 350 349 348 347 345 343 342 340 340 339 338
318 320 321 321 323 324 326 326 326 328 331 333 334 336 336 337 338 339 340 341 342 343 344 345 345 346 346 347 347 348 348 349 349 350 350 351 351 352 352 352 352 351 351 352 351 350 349 350 349 350 350 350 350 349 348 347 345 344 342 341 339 338 337
326 320 319 322 324 324 324 326 327 327 329 331 333 336 336 337 338 339 340 340 342 343 344 345 345 346 346 347 347 347 348 349 350 351 351 351 352 352 352 352 352 352 352 352 351 350 350 349 349 349 350 349 349 349 348 347 345 344 343 341 339 338 337
311 313 316 318 321 323 324 325 327 328 328 330 333 335 336 337 338 339 340 341 342 343 343 345 345 345 346 346 346 347 349 350 351 351 352 352 352 352 352 352 352 352 352 352 351 351 351 350 350 349 349 349 349 348 348 346 344 343 342 341 340 339 337
309 311 313 316 319 322 324 325 327 328 329 330 332 334 335 337 338 339 340 340 342 343 344 345 345 345 345 346 346 348 349 350 351 351 352 351 351 351 352 352 352 352 352 351 351 351 351 350 350 349 348 348 348 348 347 345 345 336 327 331 340 339 338
313 312 312 314 317 320 323 325 326 328 329 330 331 333 335 337 338 339 340 341 342 343 344 345 345 345 345 346 347 348 349 350 350 351 351 351 351 352 352 352 352 352 352 351 351 351 351 350 349 348 348 348 347 346 346 345 344 328 325 327 330 337 339
317 317 315 314 315 319 321 324 325 326 328 330 331 333 335 337 338 339 340 341 342 343 345 345 345 345 346 347 348 349 349 350 350 350 351 351 351 352 352 352 352 352 351 351 351 351 351 350 349 349 348 348 347 347 346 346 332 326 324 325 326 330 340
316 318 318 317 318 320 320 322 324 327 328 330 331 333 335 337 338 339 340 341 343 344 345 345 345 346 346 347 348 349 350 350 350 350 350 351 351 352 352 352 352 351 351 351 351 351 350 349 349 348 348 347 346 346 346 346 331 325 323 324 324 327 333
317 320 321 321 320 320 321 323 325 327 328 331 333 334 336 338 338 340 341 343 344 344 345 345 345 346 347 348 348 349 350 350 350 350 350 351 352 352 352 351 351 351 352 352 352 350 350 349 349 349 348 347 347 346 346 346 330 323 321 321 323 325 331
316 319 321 322 322 322 322 323 324 326 328 329 332 335 336 337 339 340 341 343 343 344 344 345 346 346 347 348 349 350 350 351 351 350 351 351 352 352 351 351 352 352 352 352 351 350 349 349 348 348 348 348 347 346 345 346 328 321 319 319 320 323 328
324 324 324 325 323 323 324 324 324 325 327 334 335 335 336 337 338 339 340 342 343 343 344 345 346 346 347 348 349 350 351 351 351 351 351 351 351 351 351 351 351 351 352 352 352 351 351 350 350 349 348 348 348 346 345 346 324 319 318 318 319 322 335
331 330 330 332 334 332 328 327 326 327 332 332 333 335 336 337 339 339 340 341 342 343 344 344 345 346 347 348 349 350 351 352 351 351 351 352 351 351 351 351 351 352 353 351 351 350 350 350 349 350 349 348 348 346 346 347 327 317 316 316 317 322 337
332 332 332 332 334 336 337 334 331 332 332 332 333 335 337 338 339 340 340 341 342 342 343 343 344 346 347 348 349 350 351 352 352 351 351 352 351 351 351 352 352 352 353 351 350 350 350 351 350 350 349 348 347 347 346 347 327 314 314 315 316 325 338
331 331 332 332 334 335 336 336 336 332 334 334 333 336 338 339 339 340 340 341 341 342 342 342 344 345 346 348 349 351 352 352 352 352 352 352 351 352 351 351 352 353 353 352 352 351 352 351 350 349 349 349 348 337 343 347 324 313 313 314 315 327 339
330 331 332 334 337 338 338 337 332 332 334 333 335 336 338 338 339 339 339 341 341 341 341 342 344 346 347 348 350 351 352 353 353 353 352 352 352 352 352 353 352 353 352 352 352 351 351 350 350 349 348 348 348 347 345 346 330 320 312 313 314 322 339
332 332 332 334 335 339 338 339 338 336 337 336 336 340 338 338 338 338 339 340 340 341 342 344 345 346 347 348 349 350 351 352 353 352 353 353 353 353 353 353 352 352 352 351 352 351 351 350 349 349 349 348 348 348 347 346 336 322 311 311 314 319 326
331 332 333 335 337 337 338 339 338 339 339 340 339 341 342 339 338 338 338 338 338 341 344 346 348 348 348 347 348 349 350 351 353 353 353 354 354 353 352 353 353 352 352 351 351 350 349 349 348 348 348 348 348 348 348 344 328 323 312 312 313 317 321
330 330 331 332 333 335 336 336 337 338 338 338 338 339 340 341 339 339 339 339 340 342 344 344 345 346 346 346 346 347 349 350 351 351 353 353 353 353 352 352 352 352 351 351 350 349 348 348 348 347 346 347 347 348 348 347 330 317 318 311 312 314 318
331 332 332 333 334 334 335 335 336 337 337 337 337 338 338 339 338 339 339 340 343 344 345 344 345 345 344 344 345 346 347 349 350 352 353 353 353 352 352 351 351 351 350 350 349 348 347 347 347 346 345 344 345 345 346 342 334 317 314 316 313 314 316
331 332 332 332 333 334 335 335 335 335 336 336 337 338 337 337 337 338 337 339 342 343 344 344 344 344 344 344 344 345 346 347 349 350 351 352 352 351 351 350 351 350 350 350 349 348 347 347 346 345 344 344 343 342 340 338 333 323 317 314 313 314 315
332 334 334 334 334 335 336 336 336 335 335 336 337 337 338 337 337 335 336 339 342 344 345 344 343 343 343 344 344 344 345 345 346 349 350 351 352 352 351 351 350 350 350 349 349 348 347 346 345 344 344 343 343 340 338 337 331 324 321 320 317 318 316
330 332 333 334 335 336 336 336 335 335 335 334 336 338 338 338 338 338 338 339 340 341 342 343 342 342 343 344 344 345 345 344 345 346 348 350 351 352 351 351 351 350 348 348 348 348 347 347 344 343 343 342 342 339 336 334 332 325 322 323 323 325 324
328 330 332 334 336 337 337 337 335 335 335 335 336 337 338 338 338 339 339 340 341 341 341 341 340 341 341 342 343 343 344 344 344 345 346 348 350 350 350 351 351 350 348 348 349 348 346 346 343 343 343 342 341 337 335 334 331 325 323 323 323 325 325
329 329 331 332 334 336 337 337 336 336 336 335 337 337 337 337 338 339 339 340 340 341 341 340 340 341 341 342 342 342 343 343 344 345 346 347 348 350 351 350 350 349 350 351 352 351 349 347 346 345 346 345 340 335 332 331 329 327 319 324 316 321 324
329 330 330 332 334 335 335 336 335 335 334 334 334 335 335 335 337 337 339 340 341 341 340 340 341 341 341 341 341 341 342 342 344 344 343 346 347 347 348 333 307 317 344 350 337 331 329 330 346 348 347 344 341 338 334 332 333 316 312 308 307 308 311
328 329 330 332 332 333 333 334 335 335 334 333 334 334 335 334 336 336 337 339 341 341 340 340 340 338 337 336 335 334 337 338 339 339 339 342 344 346 345 343 327 304 298 306 327 324 318 312 320 322 326 339 337 331 320 320 312 307 306 305 305 305 306
327 329 331 332 332 332 332 333 333 333 333 334 335 335 335 335 336 337 338 340 341 341 340 340 338 335 335 334 333 332 333 333 333 333 335 337 339 341 341 341 336 326 306 298 305 315 310 310 308 310 314 318 325 326 328 315 308 306 304 304 303 304 304

ECMWFFLT1_sfc_thetae_021.txt.gz
Theta_e
336 337 338 339 340 340 341 343 345 344 345 346 347 347 348 349 350 351 352 353 353 354 356 356 356 356 356 356 357 358 359 359 359 357 356 356 357 357 358 357 357 359 358 357 359 360 364 366 366 366 366 367 366 367 367 367 366 365 365 364 362 361 360
334 335 336 338 339 340 342 344 345 344 345 346 346 347 347 348 350 350 351 353 354 353 355 355 355 355 355 356 357 358 358 358 359 358 358 358 358 359 359 359 358 359 360 360 361 363 365 365 365 365 365 366 366 367 366 367 366 365 364 363 361 360 359
332 334 336 337 338 339 341 343 345 344 345 345 346 346 346 348 351 351 351 352 353 354 355 355 355 355 356 356 357 357 358 358 358 357 357 356 357 355 358 359 359 359 359 361 362 362 363 363 364 365 365 365 364 366 366 366 366 365 364 363 361 359 359
331 332 335 338 339 341 342 343 343 343 344 345 345 345 347 349 351 352 352 351 351 353 353 354 354 354 355 356 356 357 356 357 358 357 356 356 357 357 358 359 359 359 359 359 360 360 361 362 363 364 364 364 365 365 365 365 365 365 364 362 360 360 359
330 332 334 336 338 340 340 341 342 343 343 344 345 347 348 349 349 349 351 351 351 351 352 353 352 353 355 356 355 355 356 357 357 357 357 357 359 359 358 356 357 357 358 359 361 361 362 362 361 362 363 364 364 365 365 365 364 364 363 362 359 359 357
328 330 332 334 336 337 339 340 341 342 342 342 344 345 346 346 346 347 348 350 350 351 353 354 353 354 354 354 354 355 357 357 358 358 357 358 359 357 357 357 357 357 356 359 360 360 361 361 360 361 361 362 361 362 364 364 363 363 362 360 359 357 356
329 330 331 332 334 336 338 339 340 341 343 343 344 345 345 345 345 346 347 348 349 350 350 351 351 352 354 354 354 356 356 356 357 357 357 357 358 358 357 358 358 358 358 360 359 360 360 360 361 362 361 361 362 362 363 364 362 362 362 360 358 358 357
332 331 332 333 333 335 336 339 340 341 342 344 343 343 344 344 344 345 345 347 348 349 349 349 350 353 353 354 354 354 355 355 356 356 356 356 356 357 357 358 358 359 360 359 360 361 359 361 361 362 362 361 362 363 364 364 364 361 360 359 357 357 355
331 335 333 331 332 333 335 338 340 341 342 343 343 344 344 344 343 344 345 346 347 347 348 349 350 352 355 354 355 355 355 355 356 356 356 355 355 355 355 357 359 359 359 358 357 361 360 360 361 362 363 362 362 364 363 364 363 361 359 358 358 356 354
330 334 336 334 333 331 335 337 341 343 343 345 345 345 344 344 345 344 345 345 346 347 348 349 350 351 354 354 354 355 355 356 356 355 354 354 354 355 355 355 357 359 358 357 357 358 360 361 361 362 363 361 362 363 363 363 362 361 359 358 358 357 355
329 335 337 333 334 334 336 335 338 341 343 344 345 343 344 345 345 344 345 345 345 346 348 350 351 351 352 352 352 353 354 354 355 354 354 354 354 354 355 355 356 358 357 357 357 359 360 361 362 362 362 360 361 362 362 362 362 360 358 358 358 357 355
330 332 335 337 339 337 334 337 340 342 344 344 345 343 346 346 345 344 345 346 346 346 348 349 351 351 352 351 351 352 353 354 354 354 354 354 355 355 355 355 356 357 357 357 357 358 359 360 361 361 361 362 362 362 362 362 362 361 359 357 357 356 356
328 333 335 333 338 339 342 342 340 341 343 343 342 344 344 344 344 344 347 347 347 347 348 349 350 352 351 351 351 353 353 353 354 355 355 356 356 357 357 356 356 356 357 357 357 357 358 359 360 361 361 362 362 361 362 362 361 361 360 358 357 356 355
328 326 329 333 334 336 339 342 342 343 344 343 342 345 344 344 344 345 347 346 347 347 348 349 351 352 352 353 352 353 353 354 356 357 357 357 358 358 358 357 358 358 359 359 358 357 358 358 359 360 361 361 361 361 362 362 361 361 360 358 357 356 355
322 323 328 329 337 339 339 339 342 343 342 344 343 343 343 344 345 347 349 347 348 347 347 351 352 353 353 353 353 354 356 357 357 358 359 358 359 359 359 359 359 359 360 360 359 358 358 359 359 359 359 360 360 360 361 360 359 360 359 357 356 356 354
323 324 324 327 333 335 340 340 342 343 344 345 343 345 343 344 346 345 345 346 347 348 348 350 352 353 351 352 354 357 358 359 359 360 360 359 359 360 360 359 360 360 360 360 359 359 359 360 359 358 358 358 358 359 358 358 359 346 333 338 355 355 354
326 326 326 328 332 333 337 340 341 343 344 345 344 345 345 344 345 345 344 345 346 348 348 350 353 351 351 351 354 356 359 359 358 359 358 359 359 360 360 360 360 360 360 360 360 359 360 359 358 357 357 357 357 357 357 356 355 333 329 331 334 350 354
329 335 335 333 331 330 332 334 339 340 341 340 341 343 344 346 345 345 343 344 345 346 348 349 349 349 352 354 357 359 358 357 358 358 358 359 359 359 360 360 359 359 360 359 359 359 359 358 358 359 358 357 357 356 356 356 338 328 327 329 329 334 353
327 328 332 337 335 334 330 329 332 340 338 339 340 340 342 345 344 345 345 346 347 349 348 347 348 351 353 354 355 357 358 359 358 358 359 359 359 359 359 359 359 359 359 358 359 359 358 359 358 358 357 357 355 355 355 356 335 327 325 327 327 328 339
326 326 328 330 333 334 337 337 334 333 337 341 341 340 342 344 344 347 347 348 351 350 351 351 350 351 354 357 357 358 358 358 357 357 358 359 359 360 359 359 358 358 359 359 359 358 357 357 358 358 357 356 355 355 356 356 331 325 323 324 325 326 332
335 334 335 338 339 337 338 339 340 339 338 336 337 341 342 342 344 347 347 348 348 350 352 353 352 354 355 356 357 358 358 358 358 357 358 359 359 359 359 358 359 358 359 358 357 357 356 356 357 356 357 356 356 355 354 355 326 323 321 321 321 323 327
337 338 338 342 343 345 347 345 342 338 338 339 339 339 341 341 342 343 343 346 347 349 353 353 355 353 356 356 356 357 357 357 358 358 359 358 359 358 358 358 359 358 359 359 358 358 358 357 357 357 357 356 356 354 353 354 323 322 320 320 319 321 338
340 341 341 342 342 343 346 347 347 346 342 339 337 338 339 340 341 342 343 344 346 353 352 352 354 353 356 355 355 355 356 357 357 358 358 358 358 358 357 358 359 360 360 358 358 356 356 355 355 357 357 356 356 354 353 355 330 320 318 318 317 323 342
339 340 341 342 344 345 347 348 348 347 342 338 338 339 341 341 343 346 348 347 347 349 350 352 351 353 355 354 355 355 357 358 358 358 357 358 357 357 358 358 359 359 360 358 357 355 356 356 356 357 357 355 355 355 354 355 333 316 316 316 315 325 343
339 340 341 342 343 344 345 347 348 346 342 341 337 342 347 347 347 348 349 350 349 351 352 350 351 352 353 354 356 359 360 359 359 358 358 358 358 358 358 358 359 359 360 358 358 357 358 357 356 356 356 356 356 342 350 355 336 314 316 315 313 328 346
339 340 342 343 344 346 348 349 348 345 341 340 349 349 350 349 349 348 350 350 349 347 348 350 352 355 356 356 358 360 359 358 358 359 358 358 358 359 358 360 359 359 358 358 358 358 357 356 355 355 356 356 356 356 354 354 351 326 314 313 313 319 346
338 338 339 340 342 346 349 349 348 347 346 349 352 347 349 351 348 349 351 352 350 348 348 352 356 358 359 360 357 357 360 361 361 360 360 360 360 359 359 359 358 359 359 357 357 357 356 356 356 355 355 355 356 356 355 355 353 332 312 312 313 315 327
335 337 339 341 342 345 347 346 346 346 346 348 349 349 348 350 351 352 352 351 350 353 353 355 356 357 358 359 357 357 359 360 361 361 361 361 361 361 359 360 360 359 358 357 357 357 357 357 356 356 355 356 356 356 356 348 337 338 314 312 311 313 319
333 334 336 338 342 344 345 343 341 341 343 344 347 349 349 347 351 351 351 352 355 355 354 355 356 358 358 359 357 358 359 361 362 361 362 362 362 361 360 361 361 361 361 360 359 357 355 356 357 356 355 356 358 358 357 358 347 323 324 312 311 312 315
335 336 336 338 339 341 342 341 341 340 341 342 344 346 350 354 351 351 352 349 353 357 355 355 357 359 358 358 358 359 359 360 361 362 362 362 361 360 360 360 360 360 360 360 358 356 355 357 357 356 354 353 354 355 357 359 355 322 317 318 312 312 314
335 335 336 336 337 339 340 339 339 339 340 341 343 344 345 347 347 346 343 345 350 355 357 355 356 357 357 356 356 358 359 360 361 361 361 362 361 360 360 360 361 359 360 360 357 357 355 355 355 355 354 353 354 355 357 357 350 334 322 314 312 313 313
336 337 338 338 338 339 339 340 340 340 339 340 342 342 343 343 344 342 343 347 349 353 357 356 354 354 356 358 359 359 359 359 359 361 361 362 362 362 361 361 360 359 359 358 357 356 354 353 354 354 354 354 353 354 356 355 341 333 328 319 315 316 314
335 336 337 337 338 339 340 340 339 339 338 338 341 342 342 342 343 343 346 347 350 353 355 356 355 353 354 354 355 355 356 357 358 359 361 362 362 361 361 361 361 360 358 358 356 355 354 354 353 353 353 352 354 355 354 352 338 332 329 327 326 328 325
334 335 337 339 341 341 341 340 339 338 338 338 340 341 341 342 343 345 346 348 350 352 352 350 352 354 354 354 354 354 354 353 349 350 354 357 358 357 358 359 360 358 358 356 356 355 354 354 352 351 352 352 353 356 354 351 339 333 332 330 329 328 329
333 335 336 338 339 341 340 339 338 337 337 337 340 340 340 342 343 345 347 348 350 351 349 348 349 351 351 353 354 352 355 354 355 353 353 354 357 357 359 358 358 358 359 361 361 359 357 357 356 356 357 356 356 354 349 347 340 337 327 332 321 326 329
333 334 335 338 340 341 340 339 337 336 336 338 340 340 340 341 343 344 345 347 351 352 352 352 352 352 352 352 353 353 354 355 355 356 355 354 353 354 357 349 327 338 354 357 341 326 319 318 350 360 359 357 358 358 352 348 348 323 312 311 311 313 316
332 334 335 337 338 338 338 338 338 338 337 338 339 339 340 340 341 342 343 346 348 348 349 350 348 347 347 347 347 344 349 349 348 350 350 351 352 353 354 355 355 310 309 319 321 314 306 304 304 307 314 345 358 352 330 329 315 305 309 308 309 309 310
333 334 335 336 336 336 337 337 338 339 340 342 342 340 340 339 340 342 343 345 346 347 347 347 346 344 344 344 344 343 344 346 345 345 344 345 347 348 348 348 349 352 312 305 312 312 309 307 305 306 311 313 327 341 355 320 305 308 306 308 307 307 307

ECMWFFLT1_sfc_thetae_024.txt.gz
Theta_e
340 342 344 346 347 347 348 350 353 353 353 355 356 356 356 357 358 360 360 361 362 363 365 365 364 362 361 361 363 364 364 365 367 365 364 365 364 364 364 363 363 364 362 361 363 363 366 368 366 368 369 370 369 368 369 370 369 367 367 368 367 364 364
336 339 341 344 346 347 349 352 354 353 354 355 356 358 357 358 358 359 360 362 363 363 365 364 364 363 362 362 361 363 364 364 365 365 365 366 366 365 365 366 364 365 365 363 363 366 367 368 368 367 368 370 369 370 368 369 369 368 364 367 365 363 363
335 338 341 343 345 347 350 351 354 354 355 354 355 356 356 358 359 360 360 360 362 363 365 364 365 363 362 362 363 363 363 364 364 364 364 364 365 363 366 367 366 364 364 365 365 364 367 368 370 369 369 368 367 368 368 369 369 367 367 367 366 363 364
336 337 340 344 347 350 350 351 352 353 353 355 355 356 357 359 361 361 360 361 362 363 363 363 364 363 363 363 363 364 364 365 365 364 365 365 365 365 365 366 366 366 364 365 364 364 365 368 369 370 370 368 368 367 367 367 366 367 367 368 365 364 364
336 338 339 342 345 347 348 350 351 353 352 353 355 357 358 359 359 360 361 361 360 361 362 362 362 363 364 364 363 364 365 364 363 365 367 365 366 367 365 363 364 364 363 365 366 366 366 368 367 368 369 369 367 368 367 368 366 367 367 368 365 364 363
332 336 338 341 343 345 347 348 349 351 352 352 354 356 357 358 358 358 358 359 359 361 363 363 363 363 363 362 362 362 365 366 366 367 366 366 365 364 364 364 364 365 362 364 366 366 367 367 366 366 367 367 365 364 366 367 365 365 367 367 366 363 362
329 336 338 340 342 344 347 348 348 349 352 351 353 355 356 356 356 356 357 357 358 360 359 360 360 361 362 362 362 364 363 364 365 365 366 365 365 365 365 365 365 364 365 366 365 366 366 367 367 367 366 366 367 364 366 367 366 366 367 367 365 365 366
329 335 340 341 341 342 344 348 348 349 351 352 351 351 353 353 354 354 355 356 357 357 358 358 358 361 362 363 362 362 363 363 364 365 365 364 364 364 364 364 364 366 366 364 366 366 364 367 367 367 366 366 367 367 366 368 369 366 366 366 365 366 366
329 339 341 340 340 340 343 347 349 349 350 351 351 351 352 353 352 353 354 355 356 355 355 356 357 359 362 362 362 362 363 363 363 364 364 362 362 361 361 363 365 366 364 363 363 367 366 366 367 368 368 367 367 368 367 368 370 368 367 367 367 366 364
332 342 344 341 341 339 342 344 348 351 349 350 351 352 351 351 352 352 353 353 354 354 354 355 356 358 360 361 360 361 362 363 362 361 361 360 360 361 361 361 363 364 363 363 362 363 366 367 367 368 368 367 367 368 368 368 369 369 368 368 368 367 365
337 343 344 340 340 340 342 342 346 350 351 354 353 350 352 351 352 351 352 353 352 353 354 355 357 357 358 359 359 359 361 360 360 360 361 360 359 360 360 361 361 363 363 363 362 363 365 367 367 368 369 366 367 367 368 368 369 369 368 367 368 367 364
343 340 343 343 343 341 340 344 347 352 353 354 352 350 353 353 352 351 351 352 352 352 354 355 355 356 357 358 357 358 359 360 360 358 359 359 359 359 359 359 360 361 362 363 362 363 363 366 366 366 368 369 368 368 368 369 370 370 369 366 366 366 365
337 340 342 340 344 343 345 346 346 350 354 352 350 351 351 351 351 351 352 353 352 353 353 355 356 357 356 357 357 358 358 358 359 360 358 360 360 361 359 359 358 359 360 362 362 362 362 363 366 366 367 369 369 367 368 369 369 369 370 368 366 366 365
339 332 339 342 342 346 347 347 349 351 354 352 350 351 351 352 351 351 352 352 352 352 352 354 356 356 357 357 358 359 357 359 361 362 361 361 363 362 360 360 360 361 362 363 363 361 362 362 365 366 367 368 369 368 369 369 368 369 370 370 367 365 366
327 325 327 340 345 348 350 349 351 351 351 351 349 349 350 350 351 352 353 354 354 351 352 354 355 356 355 357 358 360 361 362 363 363 363 362 363 363 362 362 363 363 363 364 364 363 363 363 364 366 366 366 368 368 368 367 367 368 368 368 367 366 364
320 321 321 324 341 350 352 351 353 353 352 353 349 349 348 349 352 351 351 351 352 353 352 354 355 357 356 356 358 361 363 363 364 364 364 363 363 364 364 362 363 363 363 363 364 365 365 365 365 364 365 365 367 367 366 366 367 352 337 343 366 367 364
321 321 322 325 340 345 351 355 354 355 353 354 353 350 349 350 351 351 350 351 351 353 353 353 356 356 357 358 360 362 364 364 364 364 364 365 365 365 365 364 364 364 364 364 365 366 366 365 364 363 364 365 365 365 365 365 362 337 332 334 338 359 366
322 325 324 324 331 343 347 348 352 354 353 351 352 353 351 352 351 351 349 350 351 351 353 353 354 355 358 358 362 363 364 364 365 365 365 366 365 365 366 366 365 365 365 364 364 366 366 364 364 365 364 365 365 364 364 364 341 332 330 331 332 339 364
322 323 324 328 334 348 341 338 342 352 349 349 348 348 351 353 350 351 351 352 353 355 353 351 352 356 360 360 362 364 365 367 366 365 366 366 366 367 367 366 365 365 364 364 366 366 366 366 364 365 364 364 365 364 364 364 337 331 328 329 330 331 345
325 325 324 325 331 336 342 347 344 343 347 350 349 346 349 353 351 351 353 352 354 353 355 354 354 357 360 362 363 365 367 368 367 366 366 367 367 367 367 366 365 365 365 365 366 365 364 363 364 363 362 364 363 364 365 365 338 327 325 326 327 329 337
326 327 333 336 337 335 342 353 355 354 349 345 345 348 349 348 350 352 352 352 351 353 359 357 357 358 361 362 363 365 367 367 366 365 367 367 367 367 366 366 366 365 365 364 363 364 362 361 362 363 361 361 361 360 360 362 335 324 323 323 324 326 330
325 327 328 334 345 356 359 355 355 353 352 352 349 346 346 347 348 348 348 351 350 352 355 358 357 356 359 362 362 364 366 365 366 366 366 366 366 365 365 365 365 365 365 364 363 364 363 362 361 360 361 361 360 360 359 361 332 323 321 321 322 324 344
328 335 346 350 348 349 356 359 357 356 359 358 352 347 345 345 346 347 347 349 349 354 354 356 357 357 359 362 363 362 365 366 365 364 364 365 365 365 364 364 365 365 366 364 363 362 361 361 359 361 360 359 360 359 359 360 341 320 319 320 320 326 351
342 343 344 348 353 354 357 358 359 359 358 357 356 351 348 346 347 349 350 350 350 352 354 355 356 358 361 362 363 363 365 366 365 364 364 365 364 364 364 364 366 366 366 364 362 360 361 362 362 362 360 360 359 359 359 359 342 317 317 318 318 330 352
345 346 349 351 351 351 353 357 359 357 358 358 351 351 350 350 349 349 349 350 351 353 354 355 356 358 359 361 363 364 365 365 364 364 364 364 364 365 365 364 365 365 366 364 364 363 364 363 362 361 362 360 358 343 353 359 342 316 317 315 316 331 355
347 348 349 349 351 353 356 359 360 357 352 349 354 355 353 350 349 350 349 350 349 349 352 355 357 359 360 361 362 363 364 364 365 365 365 365 365 365 365 365 364 365 364 364 363 363 362 361 361 360 359 359 358 360 359 357 362 336 315 315 315 320 352
346 347 347 348 349 351 355 356 356 354 354 359 359 354 355 352 349 350 353 353 352 350 352 357 360 360 361 362 361 361 364 365 365 365 366 366 366 365 363 363 363 363 364 362 362 363 362 362 361 360 360 359 361 360 358 358 359 350 312 314 313 316 328
344 346 348 350 351 351 354 352 354 355 353 357 357 354 355 355 353 353 355 354 353 354 354 357 361 362 363 364 362 360 363 365 366 367 366 367 367 366 363 364 365 364 363 362 363 363 363 364 361 358 358 358 359 362 360 351 340 362 315 314 311 314 317
343 344 345 346 350 351 350 352 350 351 353 353 356 354 353 353 355 355 357 355 357 357 357 357 360 363 364 365 362 362 364 367 367 366 367 366 366 365 364 364 364 365 365 365 364 363 362 363 362 360 358 359 359 360 362 363 359 334 332 312 311 312 315
343 344 344 345 345 346 347 348 348 350 353 353 357 360 359 354 357 358 358 364 365 364 363 364 364 366 364 365 364 363 364 366 366 367 367 366 366 365 365 364 364 364 365 365 364 362 361 360 360 359 357 355 356 357 359 363 364 338 323 323 310 312 313
341 341 342 343 342 345 347 347 348 348 349 351 354 357 360 362 362 362 361 361 363 362 360 361 362 363 362 362 362 363 363 364 366 367 367 367 366 365 363 365 365 363 365 364 361 360 357 358 358 358 357 357 357 357 359 361 363 366 335 317 313 313 312
341 342 343 344 344 346 348 348 347 347 347 349 351 351 354 356 357 356 357 360 362 364 363 361 361 361 361 362 363 363 364 364 365 367 367 367 366 366 366 366 365 363 364 362 360 360 359 358 356 356 357 357 357 356 358 360 361 365 353 324 318 316 314
341 341 343 343 344 346 347 347 345 345 345 346 348 350 351 353 353 354 356 358 361 363 365 362 360 360 361 362 362 363 364 363 361 363 365 367 365 365 365 365 364 364 361 360 359 359 357 357 357 356 356 355 356 358 359 360 361 364 357 342 337 333 330
339 341 344 345 345 345 345 345 344 345 345 344 347 350 351 353 354 357 358 359 361 361 361 361 362 361 362 363 363 363 364 362 360 361 362 363 364 362 361 361 361 360 359 358 359 358 357 357 356 356 356 355 356 357 357 359 360 362 361 349 343 340 339
339 341 343 343 344 344 342 341 342 343 343 343 346 347 349 349 351 353 355 356 359 361 360 358 357 361 360 358 358 356 359 358 361 358 358 362 364 363 365 362 360 358 359 362 362 361 358 359 358 358 360 359 358 357 356 359 358 361 339 355 328 340 344
339 340 341 342 343 343 342 341 341 342 342 344 345 346 346 347 347 350 352 353 355 356 356 357 360 360 360 360 360 360 357 359 357 357 356 357 356 360 362 353 335 350 362 360 347 335 328 331 359 365 365 361 360 363 359 359 362 337 325 319 316 317 321
337 339 340 341 341 342 342 342 343 343 342 342 342 342 344 345 347 349 350 351 353 355 355 357 355 355 355 356 357 355 359 359 359 362 362 362 361 361 358 358 365 322 317 324 328 321 314 310 308 308 312 341 359 359 335 328 323 322 313 314 312 312 312
336 337 338 340 342 342 343 344 344 344 343 344 344 344 345 344 347 348 347 351 351 353 355 355 352 351 349 349 350 351 354 354 354 355 355 356 356 357 356 355 355 360 328 310 313 314 308 306 304 304 305 307 317 332 357 340 319 313 308 310 310 309 309

ECMWFFLT1_sfc_thetae_027.txt.gz
Theta_e
330 335 341 345 347 347 349 352 355 354 355 356 357 355 356 357 359 361 362 364 365 366 367 367 366 367 366 365 366 366 365 364 365 363 361 361 362 362 362 364 366 366 362 360 363 363 364 365 362 363 364 367 367 366 367 368 368 368 368 368 367 364 363
332 332 336 342 346 348 350 354 356 354 355 356 358 358 357 358 360 361 362 365 367 367 367 368 367 367 366 365 364 366 367 366 366 366 365 364 365 365 363 365 365 366 366 362 362 366 366 364 363 363 364 366 367 369 366 368 369 369 365 366 365 364 363
332 331 335 337 338 347 350 352 355 355 356 356 358 357 357 359 360 362 363 364 366 368 369 368 369 367 367 366 366 366 367 366 366 366 365 363 364 362 364 366 366 365 366 365 363 363 366 366 367 365 365 366 367 369 368 367 369 368 366 366 364 362 364
330 328 331 335 340 350 351 352 355 356 356 356 357 358 359 361 362 363 364 365 366 367 368 368 368 366 365 366 366 366 366 367 368 365 365 365 365 365 364 365 366 366 365 366 363 361 363 367 367 367 369 366 367 368 368 366 366 368 367 366 364 364 364
331 332 332 334 338 347 350 351 353 356 356 357 358 361 361 361 361 362 364 365 366 366 367 367 365 365 366 366 365 365 366 367 367 367 366 365 368 368 364 363 365 366 365 366 367 365 365 366 366 368 367 368 368 367 366 366 364 367 367 367 365 364 362
327 330 332 332 334 341 350 351 353 354 355 355 357 359 359 360 360 360 362 364 365 366 368 368 366 366 366 366 365 365 366 367 368 368 367 368 367 364 365 366 365 366 364 365 365 365 365 364 365 367 367 366 366 363 364 365 364 364 367 366 365 364 361
327 330 331 333 334 336 347 352 352 354 356 355 357 360 360 359 359 359 360 361 363 364 365 365 365 366 367 366 366 366 365 364 366 366 367 368 366 366 367 368 367 366 366 366 365 366 365 365 366 367 368 367 367 364 365 367 366 365 366 367 366 366 364
330 331 333 334 336 340 348 352 352 353 355 356 356 357 358 358 359 359 359 360 361 362 363 362 363 366 367 367 365 364 365 365 366 366 367 366 366 367 366 367 367 368 368 364 366 366 365 367 367 367 367 367 368 367 364 367 368 365 364 365 366 366 364
330 333 333 333 335 337 339 349 352 352 355 356 355 356 358 359 358 358 358 359 360 358 360 361 362 364 368 367 366 366 366 365 366 367 367 365 363 364 364 366 368 368 366 364 363 367 366 366 368 369 369 368 368 369 366 368 367 367 366 365 366 366 364
331 332 335 333 335 335 338 346 352 355 354 355 356 357 357 358 359 359 358 358 359 358 359 359 359 362 366 366 365 366 365 365 365 365 364 362 362 363 364 364 366 368 366 364 363 364 368 368 369 370 370 368 368 369 368 367 367 367 366 366 366 366 366
333 341 340 336 339 342 343 343 351 356 356 361 359 354 357 357 357 358 358 358 357 358 358 359 360 360 364 365 363 363 364 364 364 363 364 362 361 362 363 362 362 366 365 364 362 362 366 368 369 370 370 367 367 368 368 367 367 369 368 367 366 367 366
336 340 343 340 341 340 341 350 355 360 361 362 356 354 358 361 357 357 357 358 358 358 358 358 359 359 361 364 362 363 363 364 362 362 363 363 362 362 362 361 359 362 364 365 363 362 361 367 367 368 370 371 369 369 369 370 369 369 368 366 364 366 367
331 338 342 341 344 344 349 354 355 358 360 355 353 354 354 355 356 356 358 359 358 357 358 359 359 360 360 362 361 362 362 362 362 363 363 364 363 363 362 360 358 358 360 364 364 362 360 363 368 369 370 371 370 369 370 370 369 370 370 369 367 366 367
338 337 341 343 345 346 348 351 353 357 359 355 352 354 354 354 354 356 357 356 357 357 357 358 360 360 361 363 362 363 362 363 365 366 366 366 368 366 362 362 360 360 361 365 365 363 362 361 365 368 368 370 371 371 371 370 370 371 371 370 368 366 367
325 326 334 339 346 350 350 349 354 355 356 355 354 354 354 353 354 357 358 357 358 356 356 359 360 360 360 362 363 365 366 367 366 368 368 367 369 368 365 365 366 366 364 368 367 365 364 364 364 367 368 369 371 371 370 369 369 369 369 370 369 367 365
322 323 325 333 344 349 352 353 355 356 358 360 356 356 353 353 356 354 354 355 355 357 355 358 360 361 360 360 363 366 368 370 370 369 369 367 369 370 369 365 366 365 367 367 366 368 367 368 365 365 367 368 369 370 369 369 369 356 341 347 369 368 365
322 323 324 327 339 348 352 352 355 359 360 362 360 356 355 355 355 354 353 353 354 356 356 355 362 359 359 361 363 366 370 370 369 370 369 369 368 370 370 369 366 367 369 367 367 368 371 367 364 363 365 367 367 368 368 368 366 341 335 337 343 364 368
323 325 326 326 328 331 353 349 352 357 358 357 359 358 356 358 355 354 352 353 353 354 354 354 356 357 362 361 366 370 370 369 369 369 369 370 369 369 370 369 367 367 367 365 364 368 366 365 366 367 364 365 366 366 367 368 346 334 333 334 335 344 368
324 325 327 330 330 330 328 337 353 355 351 350 352 353 354 356 353 355 355 356 355 356 354 353 353 357 364 362 365 369 370 370 369 369 369 370 370 370 370 369 368 366 365 364 366 365 367 368 366 366 365 365 366 365 366 367 342 332 330 333 333 335 350
326 328 328 328 329 329 333 335 336 341 340 347 349 343 349 358 352 354 355 354 356 355 358 357 355 358 362 366 367 369 370 371 370 369 370 371 371 370 369 368 367 366 365 366 366 365 366 366 367 367 367 366 366 368 367 368 341 329 328 329 330 333 342
329 330 330 331 332 337 356 355 355 352 352 347 340 342 346 346 353 354 353 354 354 356 365 364 363 364 365 365 367 369 369 371 370 370 371 372 371 370 369 368 369 367 365 364 365 365 365 365 367 367 367 366 365 366 366 366 337 326 325 326 326 330 335
325 326 326 329 339 347 349 350 353 348 348 356 352 345 344 343 345 350 352 353 353 354 359 364 365 362 365 365 365 366 368 369 371 371 371 371 371 369 368 369 369 368 367 366 364 366 366 367 367 366 366 368 367 364 362 362 334 323 324 324 324 327 349
322 325 331 341 341 344 355 357 354 354 358 356 354 347 343 342 343 345 349 352 352 359 356 358 361 360 365 365 364 364 367 370 370 370 370 371 370 369 368 368 369 370 369 366 365 364 365 365 364 366 364 365 365 362 362 362 343 322 321 321 322 328 356
346 345 345 349 352 351 354 356 361 361 361 360 359 357 354 349 347 351 356 354 353 353 354 356 356 359 362 361 365 366 368 371 371 371 370 370 369 370 369 369 370 370 369 366 364 362 364 365 364 365 364 362 362 362 362 362 346 319 319 319 319 331 357
345 347 348 347 348 348 354 359 361 359 357 356 350 357 361 360 355 351 354 357 355 355 355 355 357 358 358 360 365 370 370 370 371 371 371 371 371 371 369 368 369 370 369 367 366 365 365 365 364 364 365 364 364 347 357 362 349 318 318 316 317 332 359
346 346 345 345 346 356 356 357 360 361 359 357 362 362 361 358 356 355 354 354 353 352 353 356 358 361 361 362 364 369 370 370 373 372 371 371 371 371 370 370 369 369 367 367 366 365 364 363 364 364 364 364 362 362 361 361 365 342 316 316 316 321 357
346 346 346 347 351 356 354 356 359 358 356 361 364 363 363 361 355 354 357 356 356 353 354 358 361 363 366 366 363 365 370 371 371 371 372 372 371 369 368 369 368 367 368 365 365 365 364 364 363 362 363 363 364 363 362 362 362 358 314 315 314 316 331
344 346 346 351 354 356 355 354 359 358 357 361 359 361 358 359 358 356 357 355 354 356 357 361 364 364 366 366 365 364 367 370 371 372 371 372 371 370 368 369 369 368 367 365 366 366 366 367 365 363 363 364 364 366 365 356 342 364 318 314 312 315 318
343 344 346 348 351 353 350 352 354 355 357 357 360 363 365 357 358 358 357 357 359 358 360 360 363 365 366 367 365 368 367 369 371 371 371 370 370 370 368 368 368 369 370 369 368 367 365 366 365 364 362 364 365 365 367 368 363 334 338 313 312 312 315
345 347 347 348 349 350 349 352 355 356 358 356 359 362 366 365 359 359 359 360 364 363 363 363 364 368 365 366 366 366 365 366 368 371 371 370 370 369 370 368 367 368 369 369 367 365 364 364 365 363 361 358 360 361 362 366 367 340 327 326 311 313 312
343 344 344 346 347 350 350 351 352 353 354 355 358 361 364 367 364 362 364 369 369 369 367 363 363 365 365 366 366 367 366 366 369 370 371 371 370 369 367 368 368 366 368 369 365 364 361 361 361 362 360 359 358 357 359 361 369 367 340 320 313 312 312
343 345 346 347 348 350 351 350 350 351 350 352 356 357 358 360 362 362 362 364 365 369 367 367 367 367 367 369 370 368 368 366 368 370 371 371 370 370 369 369 367 365 366 363 361 363 363 361 358 359 360 359 358 360 361 365 363 366 363 328 320 316 313
343 344 345 346 347 348 350 351 348 349 349 350 353 355 356 357 357 358 361 362 364 367 368 366 366 364 365 367 367 369 369 367 367 367 368 370 369 368 366 364 363 363 363 363 359 360 359 359 360 359 357 357 359 360 360 361 361 362 364 358 343 336 331
343 344 346 347 347 348 349 349 348 348 349 349 352 355 356 357 358 360 360 362 364 365 366 364 363 363 364 365 365 366 367 365 364 364 365 366 367 365 364 365 365 363 362 360 360 360 358 358 357 356 357 356 357 359 359 358 360 360 361 364 354 347 344
343 344 345 346 346 346 346 346 346 347 347 348 350 351 353 355 357 358 359 361 362 364 363 363 362 365 366 366 364 362 366 365 365 364 364 365 366 364 365 363 361 361 360 362 363 363 360 361 361 361 360 360 360 360 360 360 359 363 342 368 338 348 352
343 344 345 344 345 345 344 344 345 346 346 347 348 349 351 351 353 355 356 358 360 364 363 362 363 362 361 363 362 362 359 362 360 361 360 361 361 362 364 359 336 353 370 365 347 329 313 324 356 358 357 361 364 368 361 360 364 320 311 312 315 317 323
340 342 343 344 343 344 344 344 345 344 344 345 345 346 348 351 352 354 353 355 357 358 358 360 360 361 360 361 360 357 363 361 360 364 364 362 362 361 358 359 365 329 322 326 332 324 316 310 309 309 317 342 355 353 331 325 318 313 311 309 309 305 309
340 342 344 345 346 346 346 346 345 345 345 347 347 348 349 347 348 350 350 352 353 355 357 356 355 354 353 355 357 357 358 358 358 358 358 359 360 360 358 356 359 365 334 316 322 320 315 313 310 309 307 308 318 328 350 335 317 305 303 303 302 303 301

ECMWFFLT1_sfc_thetae_030.txt.gz
Theta_e
327 337 339 338 339 339 340 343 346 347 349 352 355 354 354 355 357 359 359 360 359 359 361 362 362 362 362 362 363 363 363 364 364 363 363 362 360 359 360 363 363 364 362 362 363 363 365 365 364 363 365 366 366 367 368 368 370 369 370 371 369 368 364
327 334 336 338 340 341 343 345 350 350 350 354 355 356 354 355 357 358 359 361 361 361 361 362 363 362 362 363 363 364 363 363 364 364 364 363 362 361 362 363 365 366 366 364 365 367 367 366 365 364 364 366 365 367 367 368 368 368 367 369 367 368 366
326 329 340 339 340 341 343 342 345 348 350 351 355 355 355 357 358 358 359 360 362 363 362 362 363 363 363 364 363 363 363 363 364 365 362 360 361 358 361 363 365 366 367 367 367 367 367 366 365 366 364 364 363 367 367 368 369 368 369 369 367 365 365
330 328 330 339 341 342 343 343 343 346 349 351 356 355 356 359 360 360 361 360 360 362 363 362 362 361 363 363 363 363 363 363 363 362 361 360 360 360 360 361 364 365 367 365 365 365 364 365 365 365 368 364 364 366 367 365 366 368 368 368 366 366 366
331 330 330 339 341 342 342 343 346 351 347 353 357 359 358 360 358 359 361 360 361 362 363 363 361 362 364 364 363 363 363 363 363 362 362 361 362 361 359 358 361 361 363 366 366 364 365 366 365 364 365 366 366 367 368 367 366 368 368 367 364 364 365
332 330 330 337 336 337 339 341 342 348 352 353 355 357 356 356 356 356 360 362 362 363 365 364 363 364 363 364 364 364 364 364 364 363 363 363 363 361 360 360 360 361 359 365 366 365 363 366 365 365 363 364 364 364 366 367 365 367 368 367 364 363 362
330 329 331 337 337 337 336 338 342 348 354 355 353 358 357 355 355 356 358 362 363 364 364 363 363 362 364 365 365 365 364 363 364 363 363 363 363 363 362 362 361 362 362 365 365 365 363 362 365 366 366 362 362 362 364 366 364 365 367 366 364 364 364
331 331 333 334 335 335 338 346 346 344 348 355 351 355 356 356 356 355 357 361 363 363 364 363 364 364 365 366 364 362 363 362 363 364 362 361 362 362 362 363 362 363 365 364 365 366 364 363 362 366 367 365 364 364 366 367 366 365 365 365 364 364 364
335 334 332 331 333 334 335 339 339 342 345 345 347 352 357 356 355 356 358 360 361 362 363 364 364 364 366 366 364 363 364 364 363 363 362 358 359 359 359 362 364 364 364 363 363 366 365 364 362 364 367 366 366 366 366 366 366 364 364 365 364 363 361
332 332 332 332 337 335 342 343 346 345 345 346 348 356 357 356 357 356 357 358 360 361 363 364 364 364 364 364 363 362 363 363 363 362 360 360 361 359 358 361 362 364 364 363 363 364 365 366 365 364 365 366 367 368 366 366 366 365 364 365 365 364 363
335 335 336 334 338 342 344 345 345 346 346 350 357 356 358 359 357 356 357 358 359 360 363 364 364 363 363 362 361 360 362 361 362 363 363 361 360 360 360 360 360 362 362 361 362 364 365 365 367 367 366 365 366 368 367 365 366 365 363 364 366 365 364
338 336 335 336 337 341 340 343 345 346 347 355 358 356 359 360 357 357 357 357 359 360 361 362 363 362 363 363 361 361 361 361 360 360 361 360 358 360 359 359 359 363 364 363 362 363 364 364 365 367 367 366 366 367 368 367 366 366 364 363 364 365 365
342 343 339 339 342 345 347 348 348 347 352 358 356 355 357 358 357 357 360 359 359 359 359 362 362 363 361 363 362 362 360 361 360 360 360 361 359 360 360 360 360 360 362 364 363 362 361 364 364 366 368 367 367 366 367 368 366 366 366 365 364 364 365
341 334 339 342 344 343 346 347 357 360 356 357 355 356 356 357 358 359 361 359 359 358 358 359 361 362 362 364 363 363 360 361 363 362 362 362 362 362 360 360 360 360 363 365 364 362 360 362 364 365 367 368 367 367 367 367 367 366 367 366 366 365 365
329 331 336 338 350 353 345 343 351 362 362 360 356 355 355 355 357 360 362 360 360 358 358 360 360 361 360 363 364 364 364 364 364 364 363 363 363 362 361 361 362 362 363 365 365 363 362 361 365 365 365 367 369 368 367 366 366 366 366 366 366 366 364
325 326 328 334 343 345 361 359 368 364 364 362 357 358 353 356 359 359 359 359 358 361 359 361 361 361 359 361 364 365 366 365 365 365 363 363 363 363 362 362 363 363 362 363 365 365 364 362 361 364 365 364 367 368 367 366 366 354 341 347 364 365 363
324 327 330 336 350 344 355 358 362 367 367 365 363 361 357 357 359 358 356 356 357 360 360 360 363 361 360 360 364 366 367 367 366 366 364 364 364 365 364 363 363 363 363 362 364 365 365 365 362 359 363 364 365 366 367 366 364 342 335 337 343 360 363
324 333 332 335 344 348 353 353 359 359 361 358 358 362 359 361 359 354 354 355 355 356 358 358 361 361 362 362 366 368 368 367 367 367 366 365 364 365 366 364 363 363 364 362 362 365 366 364 364 362 361 365 365 365 367 367 346 336 334 335 336 344 363
324 324 326 337 339 350 345 347 355 358 354 355 355 354 355 361 355 356 357 357 358 358 356 355 355 362 364 363 365 368 369 369 368 367 367 367 366 366 367 366 364 363 363 361 362 363 365 365 364 364 363 363 365 364 366 367 344 334 331 333 334 336 349
324 325 327 328 330 331 346 356 353 356 353 359 358 352 353 356 355 358 357 356 361 358 358 358 357 360 365 364 366 369 369 369 368 367 368 369 368 366 366 366 364 363 363 363 363 363 364 365 364 364 364 363 364 365 366 366 344 331 328 329 330 333 341
327 329 329 335 340 336 354 358 358 358 353 342 341 351 356 354 352 357 356 357 356 359 363 362 360 360 367 364 366 369 370 370 369 368 369 370 370 368 366 366 366 366 364 362 362 362 363 363 364 364 364 363 363 365 366 365 340 328 325 326 327 330 335
322 324 327 331 353 357 357 350 350 342 357 358 347 344 341 342 351 351 350 352 353 356 361 365 363 360 368 366 365 367 370 370 370 369 369 370 370 368 366 366 367 367 366 363 361 362 363 365 364 364 364 365 364 362 362 364 335 327 324 324 325 327 344
345 344 345 346 347 350 360 360 359 360 363 358 355 348 343 342 339 343 349 350 350 358 359 362 363 360 363 367 365 366 369 370 370 370 370 370 370 369 367 366 368 369 368 364 363 362 362 362 361 363 364 365 365 363 362 362 343 324 322 322 323 327 349
345 344 344 344 351 355 359 357 356 354 352 349 348 348 351 351 353 361 376 356 355 357 356 358 360 363 363 367 367 366 369 370 371 370 370 371 370 370 370 369 369 369 369 365 361 359 360 362 361 362 362 363 364 364 363 362 348 321 320 319 320 330 352
344 344 344 346 352 350 350 353 353 356 361 361 360 365 362 360 363 365 364 371 359 356 356 356 358 362 363 366 369 369 370 370 371 372 371 371 372 372 370 368 369 369 370 365 363 361 362 363 363 363 363 362 364 349 359 363 351 323 318 317 318 329 354
342 343 344 344 351 349 353 359 359 360 355 357 360 364 366 365 367 364 367 367 357 352 356 358 360 364 365 367 370 370 370 369 372 373 373 372 372 373 372 371 369 369 368 366 364 362 361 362 363 364 363 364 364 364 363 363 365 349 317 316 316 320 352
342 343 342 343 346 356 353 353 358 357 356 361 364 361 362 362 359 364 367 367 365 360 356 361 365 368 367 367 366 370 371 371 372 373 374 374 373 371 370 369 369 368 368 366 365 364 364 362 362 362 364 364 365 364 364 364 364 358 316 314 314 316 328
343 344 346 347 351 354 350 350 354 355 354 358 359 361 365 368 363 365 368 365 363 366 363 377 369 370 370 370 366 366 371 370 373 375 374 375 375 374 371 372 372 370 369 366 367 366 366 365 363 362 362 364 365 365 365 359 344 364 322 314 312 314 316
343 344 345 346 349 351 348 349 352 353 356 357 357 357 361 365 368 364 365 365 365 368 376 377 377 372 372 372 367 367 371 373 374 374 374 374 375 374 371 372 371 371 371 369 368 368 367 367 366 364 363 365 366 366 368 369 362 335 343 313 312 311 313
342 343 343 345 345 348 347 350 354 353 356 355 356 359 361 365 367 361 360 361 372 369 373 375 376 375 373 371 372 370 370 374 373 376 375 375 375 374 373 372 371 371 372 371 369 368 368 368 368 366 364 362 363 364 365 371 371 343 329 327 311 312 312
341 343 344 344 346 350 349 349 351 351 351 353 356 358 361 363 366 366 364 367 373 373 373 373 369 378 373 371 371 373 371 374 375 375 374 374 374 373 372 372 371 370 372 372 370 369 368 369 367 367 364 363 362 362 365 368 372 371 342 322 314 312 311
341 343 344 344 347 347 347 349 351 349 349 351 354 356 358 360 360 363 363 366 367 371 371 372 372 375 375 374 375 374 375 373 373 374 373 373 373 373 374 372 370 369 372 371 370 369 367 367 365 363 364 363 363 362 364 369 372 372 368 329 320 315 313
341 343 344 344 347 348 348 349 348 348 349 351 353 355 355 358 360 361 361 364 365 366 369 369 369 372 373 374 377 377 377 373 375 373 373 375 375 375 373 373 372 370 368 368 366 366 365 364 363 362 360 360 362 363 365 364 365 365 367 359 343 336 330
342 343 345 347 348 348 348 348 348 348 349 349 351 354 355 357 359 361 363 361 363 364 364 364 364 368 366 368 371 374 372 370 368 371 368 370 367 366 366 367 367 365 367 364 365 362 363 362 360 360 359 358 360 362 363 363 364 366 348 344 347 352 346
342 343 344 346 347 346 346 346 347 348 347 348 350 352 353 355 357 357 360 361 362 365 365 365 363 367 364 363 363 361 368 365 370 366 365 366 368 369 370 365 363 365 365 365 365 365 359 360 362 362 365 366 367 369 365 365 361 329 311 318 309 321 341
342 344 345 346 346 345 344 344 346 346 346 347 351 352 352 353 354 356 357 360 364 364 365 364 364 364 366 367 364 364 365 365 361 363 363 363 364 366 371 356 341 359 372 354 326 319 322 332 353 353 356 358 361 359 353 347 328 304 299 298 300 300 302
341 343 344 344 343 344 344 343 344 344 344 347 350 351 353 353 355 357 353 359 362 362 366 367 364 364 362 362 360 360 366 364 370 370 371 374 372 375 370 364 345 305 314 326 328 312 304 303 303 306 316 341 349 333 307 307 301 299 298 298 298 298 298
341 342 343 345 346 345 344 344 344 344 344 347 349 348 351 346 348 353 349 357 357 356 356 357 365 362 360 357 357 362 363 364 365 365 363 363 365 365 363 364 365 354 314 311 316 312 305 302 300 301 304 309 317 330 336 314 302 299 299 298 298 297 297

ECMWFFLT1_sfc_thetae_033.txt.gz
Theta_e
336 337 338 339 340 341 341 342 342 342 344 346 347 348 349 349 349 350 350 350 350 350 351 352 352 354 352 352 353 354 355 355 355 355 353 353 354 355 353 354 353 354 355 355 356 356 357 359 357 357 359 360 360 361 362 362 362 362 361 361 358 357 357
333 335 337 338 339 341 342 342 342 343 343 347 348 348 349 349 349 349 350 350 350 350 352 352 352 353 354 353 353 354 354 355 356 357 355 354 355 355 356 355 354 353 355 356 355 358 359 359 358 357 359 360 360 361 362 361 361 362 361 362 359 356 356
332 334 335 336 338 340 341 342 342 343 343 347 349 349 349 349 349 350 350 351 350 351 352 353 353 353 354 354 353 354 355 356 356 356 355 354 354 354 356 357 356 355 355 357 358 358 361 360 358 357 358 359 360 360 361 361 361 362 361 362 360 358 356
331 333 334 336 338 340 342 342 343 343 344 346 349 349 349 350 350 351 352 352 351 351 351 353 354 353 354 354 353 354 355 356 356 356 356 356 355 354 353 355 357 357 356 356 360 360 360 360 358 357 361 358 359 359 360 360 360 361 361 361 360 358 358
331 333 334 335 336 337 341 343 343 343 344 346 348 349 350 351 352 353 353 354 353 352 353 354 355 355 355 355 355 355 355 355 356 357 357 357 357 355 353 352 355 358 359 358 359 360 359 359 358 357 357 357 358 358 359 359 360 360 360 361 359 358 358
330 332 333 334 335 336 338 341 343 344 344 345 347 349 351 352 353 353 354 355 354 354 354 355 355 356 354 355 355 355 356 356 356 357 356 356 356 355 353 352 353 356 358 359 360 360 360 359 359 358 357 357 357 358 359 358 360 360 360 361 359 358 358
330 332 333 334 336 337 337 339 342 344 345 346 347 349 351 353 352 353 355 355 355 354 354 354 355 356 356 356 355 355 355 355 355 356 357 356 355 355 354 353 353 354 356 360 359 359 359 359 358 358 357 358 357 357 358 358 358 360 360 360 359 358 358
329 332 332 334 336 337 338 338 340 343 345 346 348 351 351 352 353 353 353 355 356 356 355 355 355 355 356 356 356 355 355 355 356 356 356 356 355 354 354 353 353 353 354 355 360 360 358 357 359 359 357 357 357 357 359 359 359 360 360 359 358 357 358
326 332 332 334 336 337 338 339 339 341 343 344 345 349 352 353 353 353 353 354 356 356 356 356 356 356 356 356 356 355 356 356 356 355 355 355 355 354 354 354 353 354 354 354 357 360 359 357 357 359 358 356 357 357 358 360 360 360 360 359 358 357 357
325 328 333 334 335 337 338 339 340 341 342 343 344 345 349 352 353 353 354 354 355 355 356 357 358 357 356 356 356 357 356 356 356 355 355 354 355 354 354 355 354 354 354 354 355 358 360 358 356 357 359 357 356 356 357 359 360 360 360 359 359 358 356
326 328 333 333 334 335 337 338 339 340 342 343 344 346 349 352 353 353 353 354 355 356 357 358 359 358 357 356 356 356 356 356 356 355 355 354 354 354 355 355 355 355 354 355 355 356 358 359 357 355 358 359 357 356 356 358 360 360 359 359 360 359 358
326 326 332 333 334 334 334 336 339 342 344 346 346 346 349 351 353 353 352 353 356 358 358 359 360 359 357 357 356 356 356 356 356 355 355 354 354 354 355 355 355 355 355 355 355 356 358 358 358 356 354 358 359 358 357 357 359 360 359 359 359 359 359
326 326 331 332 333 334 335 336 337 341 344 346 346 344 347 350 352 353 352 352 355 359 360 361 360 360 358 357 356 356 356 356 356 356 355 355 354 354 354 354 354 355 356 356 356 356 357 358 358 358 356 356 359 360 359 358 358 359 359 358 358 359 358
335 326 329 330 331 333 334 336 337 340 342 343 344 344 345 349 352 353 352 352 354 358 360 362 361 361 360 358 356 356 356 356 356 356 356 355 354 353 353 353 353 354 356 357 355 355 356 358 358 358 358 356 356 359 360 360 359 359 359 359 358 358 358
326 327 330 329 331 332 334 335 337 338 340 341 343 343 344 349 352 354 354 354 355 356 358 361 361 360 360 359 357 356 356 356 356 356 356 356 355 354 354 354 354 354 355 356 356 356 356 357 358 358 358 358 357 357 359 360 360 360 359 358 357 358 358
330 332 332 331 333 334 335 337 339 339 340 341 342 344 347 350 352 354 354 354 355 355 357 359 360 360 359 359 358 357 357 356 356 355 355 356 355 355 354 354 355 354 354 355 356 356 356 356 357 358 357 358 358 357 358 359 361 351 339 343 357 357 358
330 332 332 334 335 335 336 339 341 340 341 343 345 348 350 353 354 354 355 355 355 355 356 357 358 359 359 358 359 358 357 356 355 355 354 355 356 355 354 354 354 354 353 355 357 357 356 356 355 356 357 357 358 358 358 358 358 340 334 335 339 354 357
326 330 334 337 341 342 341 344 348 345 343 345 349 350 350 351 354 354 354 355 356 356 356 356 356 357 358 358 359 359 359 357 356 356 355 354 354 355 355 354 353 353 353 354 356 358 358 357 355 356 357 357 357 358 359 359 343 335 333 333 333 339 357
329 338 341 344 345 347 349 352 353 354 352 351 352 352 351 352 353 353 354 355 356 357 356 355 355 355 357 357 358 359 359 358 357 356 356 355 354 355 355 354 353 352 353 353 355 358 357 357 356 355 356 357 356 356 358 359 342 334 331 331 331 332 343
322 326 338 341 342 343 344 347 350 353 352 352 352 354 353 354 352 353 355 355 355 355 355 355 354 355 355 356 357 359 360 359 358 357 357 357 355 355 355 354 353 353 354 354 354 355 357 357 356 356 355 356 357 357 357 358 343 332 329 328 329 331 336
339 339 338 342 342 342 343 345 347 348 347 349 349 350 350 351 352 353 352 352 353 353 353 353 354 353 355 355 356 358 360 359 358 357 357 357 356 355 354 355 354 353 353 354 354 353 355 356 356 356 356 355 356 357 358 358 339 330 327 325 325 329 332
339 346 348 350 350 350 351 351 350 353 353 352 349 344 346 349 350 350 351 352 351 352 353 352 352 352 356 355 355 357 360 360 359 358 358 358 357 356 355 355 355 354 354 354 354 355 354 355 357 356 356 356 355 355 356 359 335 328 326 324 324 326 341
342 346 346 346 346 346 347 347 348 351 349 346 344 342 343 344 345 349 349 350 349 349 352 353 352 351 354 357 356 357 360 360 359 359 358 359 358 357 356 355 356 356 356 354 354 354 354 354 355 356 357 356 356 355 354 356 340 326 323 322 322 326 346
340 343 345 343 344 345 346 348 349 353 355 353 355 356 356 356 352 352 358 357 347 347 349 351 352 353 353 358 358 358 360 361 360 359 359 359 358 358 358 358 358 358 359 356 354 353 354 355 355 356 356 356 357 357 356 355 344 322 320 320 320 329 348
339 339 341 342 343 345 348 352 354 355 356 353 353 355 355 357 357 357 356 359 359 347 346 348 351 353 353 358 360 359 361 362 362 361 360 359 360 360 360 359 359 359 360 359 358 356 355 355 355 355 356 357 357 348 354 357 347 322 318 317 318 328 349
338 339 339 340 346 348 349 353 352 352 350 351 351 358 359 361 358 356 360 362 358 356 348 347 349 354 355 358 361 360 361 363 362 362 361 361 361 362 362 362 361 361 361 361 360 358 357 356 355 355 355 356 356 357 357 357 358 346 315 315 315 319 346
341 341 340 342 347 352 346 349 351 349 348 351 355 355 355 358 361 360 355 357 355 354 356 352 351 354 357 357 362 361 361 362 363 363 363 363 363 364 364 364 362 362 361 361 361 359 358 357 356 356 356 356 357 356 357 358 358 354 317 312 313 315 325
339 340 342 345 354 348 344 348 349 348 351 351 353 353 353 355 358 361 360 354 354 356 358 362 354 355 357 358 361 361 361 362 363 365 365 365 365 364 364 365 364 363 362 362 361 359 357 356 355 355 355 357 358 358 358 356 345 360 324 313 311 313 314
337 339 340 341 343 346 345 346 347 348 350 351 352 352 354 357 356 358 361 355 360 365 365 366 362 356 357 358 360 361 361 362 363 364 367 366 366 365 364 365 364 363 362 361 360 359 358 357 356 355 354 354 356 358 360 360 356 335 345 315 312 311 312
337 338 339 341 345 345 347 344 350 348 348 350 353 353 354 356 354 363 359 356 362 364 365 363 365 360 358 356 358 361 361 362 364 366 367 367 366 365 364 364 364 363 362 362 360 359 358 358 357 356 355 354 355 358 360 361 361 341 330 330 313 313 312
336 338 340 340 344 345 345 344 348 345 347 348 350 350 354 356 355 356 355 356 361 363 363 363 364 362 359 358 357 362 363 363 365 366 367 368 367 365 364 364 364 362 362 362 361 359 359 358 359 357 356 355 355 355 357 360 360 362 339 323 315 313 312
337 339 340 342 343 344 345 345 345 345 345 347 349 349 352 356 355 351 352 359 360 360 360 362 363 363 361 360 359 361 365 364 365 366 367 367 368 367 366 365 364 362 363 363 361 361 359 359 359 359 358 357 357 356 357 358 358 360 351 330 321 315 311
335 337 338 340 344 346 344 344 344 345 346 345 346 348 352 351 354 355 357 358 359 360 360 361 365 363 363 363 362 362 364 365 364 365 365 367 367 368 368 367 366 363 362 363 363 362 360 360 358 358 357 357 358 358 357 358 357 347 340 341 337 330 327
333 336 339 341 344 345 342 342 342 344 343 343 345 347 350 351 351 352 354 355 357 359 358 363 360 361 361 364 365 364 363 366 376 368 364 366 367 367 366 366 367 365 362 362 363 361 361 359 357 356 356 355 356 356 357 355 332 328 332 331 333 338 335
335 336 338 340 342 344 340 340 342 342 343 342 345 347 347 347 348 353 359 358 357 357 357 359 366 362 358 361 360 361 361 363 365 363 363 363 363 364 363 363 365 363 358 345 349 360 361 361 357 356 358 357 355 355 349 337 331 325 308 316 308 324 333
335 336 338 341 343 342 340 342 341 340 339 341 344 345 345 347 350 353 353 355 356 356 358 356 355 358 357 359 360 358 358 359 359 361 361 361 359 356 344 328 310 330 349 340 323 315 316 325 343 348 344 329 324 332 343 334 326 306 299 301 300 298 301
336 336 337 339 342 342 340 339 342 342 341 341 344 345 347 349 350 348 351 351 352 352 351 350 358 355 354 353 353 353 356 358 358 358 359 361 359 352 344 340 328 303 302 315 316 308 303 303 306 313 321 328 321 314 309 308 301 297 298 297 298 300 300
337 337 338 340 341 343 342 341 341 340 342 343 343 342 342 342 344 346 348 350 349 349 350 350 355 353 351 351 351 351 353 356 355 355 355 355 358 353 345 339 332 328 306 299 304 305 303 303 304 305 307 313 318 319 313 301 297 296 295 296 296 298 298

ECMWFFLT1_sfc_thetae_036.txt.gz
Theta_e
334 335 336 338 338 339 339 339 339 340 341 340 341 342 343 343 344 344 344 346 346 345 346 348 348 349 349 349 349 349 349 349 349 350 349 349 349 348 347 347 348 347 348 349 350 352 354 355 355 355 357 359 359 360 360 360 359 360 359 358 357 356 354
332 334 336 338 338 338 339 339 339 340 341 342 342 343 343 343 344 344 344 346 346 346 346 347 349 348 348 348 349 349 349 349 350 351 351 349 349 349 348 348 348 349 349 351 352 353 354 355 355 355 355 359 359 359 360 360 359 358 358 357 356 355 354
332 334 336 337 338 338 338 339 340 341 342 342 343 343 343 343 344 345 345 345 346 346 346 347 349 348 348 348 348 349 349 349 349 350 350 350 349 349 350 349 349 350 351 352 353 353 355 355 355 355 355 356 358 359 359 359 360 359 358 357 357 355 354
332 334 336 338 338 339 339 339 340 341 342 343 343 344 344 345 345 346 346 346 346 347 346 347 348 349 349 348 348 348 349 350 350 350 350 351 350 350 351 350 350 349 351 352 354 355 356 356 355 355 358 355 356 358 359 359 359 359 359 358 357 355 354
333 335 337 337 338 338 339 339 340 340 341 344 344 345 345 346 347 347 347 347 347 347 348 348 349 350 351 350 349 349 350 350 351 351 351 352 352 351 351 351 351 350 350 353 354 355 356 355 355 355 355 355 355 356 357 358 359 359 358 358 357 356 354
332 334 336 337 338 338 339 340 340 341 341 342 344 345 346 347 347 347 348 348 348 348 349 349 348 350 350 351 350 350 350 351 352 352 352 352 352 351 351 352 352 351 351 351 355 355 356 356 356 355 354 355 355 356 356 357 358 358 358 358 357 357 355
333 334 336 337 338 338 339 340 341 341 342 343 345 346 347 348 347 348 348 348 348 347 348 349 349 349 350 351 351 351 350 350 351 352 353 353 353 352 351 352 353 353 352 352 352 356 355 356 356 355 355 354 355 355 355 355 356 357 357 356 356 356 356
333 334 335 337 338 339 340 340 341 342 342 343 345 346 346 348 348 348 348 349 349 349 348 349 349 350 350 351 351 351 351 351 352 353 353 352 353 352 352 352 352 354 354 353 353 354 356 355 356 356 355 354 354 355 355 356 355 356 356 355 355 355 356
333 334 335 336 337 339 340 340 341 341 341 342 344 346 346 347 348 348 348 349 349 349 349 350 350 351 351 351 351 351 352 352 352 352 352 352 352 352 353 352 351 352 354 355 354 355 355 356 355 355 355 354 354 354 354 355 355 356 356 355 355 355 355
331 332 334 336 337 338 340 341 341 341 340 341 343 345 346 347 348 348 349 349 350 349 350 350 351 352 351 351 351 351 352 352 352 352 352 352 353 352 353 353 353 352 351 354 356 356 356 356 356 356 355 354 354 354 354 354 355 355 355 355 355 355 355
330 331 332 334 335 336 338 340 340 340 340 341 342 344 346 347 348 349 349 350 350 350 351 351 352 352 352 352 351 351 351 351 352 352 352 352 353 353 353 353 353 352 351 351 352 355 356 356 356 356 356 355 354 354 354 354 354 354 355 355 356 355 355
329 330 331 332 334 334 335 338 340 340 340 341 342 343 345 346 348 349 350 350 352 351 352 352 352 352 352 352 351 351 351 351 352 352 352 352 352 353 353 353 353 352 352 351 350 351 354 356 355 355 355 356 355 354 354 355 355 355 355 355 356 356 356
329 329 330 332 333 334 334 335 337 339 340 341 342 343 345 346 347 348 349 350 352 353 353 353 353 352 352 352 352 351 351 351 351 352 352 353 353 353 353 353 353 352 351 352 351 350 350 354 355 355 354 355 356 355 354 354 355 355 355 356 356 356 356
336 329 330 332 332 332 333 334 336 338 339 341 342 344 345 347 348 349 349 350 352 353 354 354 354 353 352 352 351 351 352 352 352 352 353 353 353 353 353 353 353 352 352 352 351 350 350 351 354 355 355 354 355 356 356 354 354 355 356 356 356 356 356
328 328 329 330 331 332 333 333 334 336 338 340 341 342 345 347 348 349 350 351 352 353 354 355 354 354 353 352 352 351 352 353 353 354 353 354 353 353 352 352 352 352 352 352 351 351 351 352 352 354 355 355 354 354 356 355 355 355 355 356 356 356 355
327 328 328 329 330 331 332 334 335 336 337 339 340 341 343 346 348 349 350 351 352 353 354 355 354 354 354 353 353 353 353 353 354 354 354 353 353 352 352 352 352 352 351 351 352 351 351 351 352 353 354 354 354 353 354 355 357 348 336 340 355 356 356
325 326 327 328 329 330 332 333 335 336 337 339 340 341 342 344 347 350 351 351 352 353 355 355 354 354 354 354 354 354 354 353 353 354 353 353 353 353 352 352 351 351 351 351 351 351 351 351 351 352 353 353 354 353 353 354 354 338 333 333 336 351 356
323 326 327 328 329 330 332 333 334 336 338 340 342 342 343 344 346 348 350 351 351 352 356 356 356 355 355 355 355 355 354 354 354 353 353 353 353 353 353 352 351 350 350 350 350 351 352 351 351 351 352 353 354 353 354 354 340 334 332 331 331 336 354
323 326 327 328 330 331 332 333 334 337 339 342 343 343 343 345 346 348 350 351 352 353 353 356 357 356 356 356 356 356 356 355 354 353 353 353 353 353 353 352 351 350 349 349 350 350 351 351 351 351 352 353 353 353 354 354 339 332 330 330 330 330 339
336 336 336 335 333 333 335 337 336 337 339 341 343 345 345 346 347 349 351 352 353 352 352 353 355 357 357 357 357 357 357 356 355 354 353 354 353 353 352 352 350 350 350 350 350 349 350 351 351 351 351 351 352 353 354 354 340 330 327 327 328 329 332
340 341 340 340 341 342 343 344 344 342 342 341 342 343 345 347 348 349 351 352 352 352 352 352 353 355 357 357 358 358 357 357 355 354 354 354 353 353 352 352 352 351 351 350 350 349 349 350 350 351 351 351 352 352 352 354 337 329 325 324 324 327 329
337 339 339 340 340 341 343 344 343 342 341 343 342 343 348 349 351 351 351 353 353 353 353 352 352 352 354 356 357 358 358 357 356 355 354 354 353 352 352 352 352 351 351 351 351 351 351 351 352 352 352 352 352 351 351 353 333 327 324 323 323 325 337
340 341 343 344 346 346 347 351 351 351 352 352 353 353 352 347 346 352 352 352 352 352 353 352 352 351 352 354 356 357 358 358 357 356 355 354 353 352 351 351 352 352 353 351 350 350 350 351 352 353 353 353 353 352 352 353 338 325 322 321 321 324 341
342 344 345 346 348 348 348 348 348 350 350 351 352 354 355 356 355 353 353 349 349 350 351 351 351 352 352 352 355 356 357 358 358 356 355 354 353 353 352 352 352 352 353 351 350 349 350 351 351 352 354 353 354 354 353 352 343 323 319 319 320 327 344
341 342 343 344 345 345 346 347 349 351 351 349 348 350 353 357 357 356 354 356 352 345 347 349 350 351 351 352 354 355 357 358 358 357 357 355 355 355 354 353 352 353 353 353 352 351 351 351 351 351 352 353 354 348 351 354 344 321 319 317 318 327 345
338 341 342 343 345 346 346 348 348 348 347 346 346 350 352 354 357 359 358 356 354 353 345 344 347 350 352 352 354 355 355 357 358 358 357 356 356 356 355 355 354 353 353 353 353 352 351 351 351 350 351 352 353 354 353 354 354 337 317 317 317 320 344
338 340 342 343 344 350 345 345 346 346 346 346 347 349 351 353 354 354 355 355 349 349 353 353 348 347 350 351 354 355 355 356 358 358 358 358 357 357 357 357 355 354 354 353 353 353 352 351 351 351 351 351 352 353 353 355 354 346 315 315 315 316 325
338 339 341 344 349 347 343 345 344 344 346 347 349 350 350 351 352 354 355 349 351 356 362 361 359 351 349 351 354 355 355 356 357 358 359 358 358 357 356 357 357 356 355 355 354 353 352 352 351 351 351 351 352 352 352 353 345 355 318 315 313 314 314
335 336 338 339 341 345 344 342 343 343 344 346 347 348 349 351 350 354 354 349 352 357 359 360 360 354 349 351 354 355 356 356 357 358 359 359 358 357 356 357 357 357 356 355 354 354 353 353 352 351 351 351 351 352 353 353 351 336 336 314 312 312 312
334 336 338 341 342 343 344 342 342 342 345 345 346 346 347 349 349 354 353 348 353 356 357 358 358 353 350 350 352 355 356 357 358 359 360 359 359 358 357 357 358 358 357 356 355 354 354 353 353 352 352 351 351 352 353 354 355 337 329 327 312 312 311
333 334 336 337 340 344 342 341 342 343 343 343 343 344 346 347 347 349 348 350 354 354 355 356 358 355 350 350 352 355 356 357 358 359 360 360 360 358 358 358 359 357 357 357 356 355 354 354 353 353 352 351 351 350 351 355 356 356 338 324 316 313 312
333 334 336 337 339 342 340 341 342 342 341 341 342 343 346 346 346 345 346 350 353 354 354 355 356 358 351 350 352 355 357 357 358 360 361 361 361 361 360 360 359 358 357 357 357 356 355 354 353 353 353 352 352 351 352 353 355 348 336 329 325 320 313
332 333 334 335 338 341 338 338 338 340 340 340 340 341 343 344 344 346 347 350 352 352 353 355 357 358 354 350 353 356 357 358 359 360 361 361 361 362 362 362 361 359 357 358 357 356 355 355 353 353 353 353 353 354 353 354 346 337 338 336 329 328 325
330 333 334 335 337 341 336 335 335 338 337 337 338 340 342 343 343 345 347 350 352 352 354 355 357 356 353 353 355 358 357 359 369 363 361 362 362 362 362 362 362 360 358 358 359 357 356 356 355 354 355 354 355 355 355 345 333 333 333 332 335 332 327
328 331 333 334 336 341 337 335 337 336 336 337 339 340 340 342 343 346 347 348 348 349 351 353 360 358 352 353 357 358 360 361 364 360 361 356 333 319 315 317 337 356 350 335 328 353 361 359 358 358 358 357 356 356 347 339 335 331 318 319 308 325 334
327 328 331 335 337 338 339 339 338 337 337 338 339 339 339 339 340 343 346 347 347 348 347 347 353 350 350 351 352 355 360 361 361 361 360 350 336 331 324 316 303 308 327 325 320 309 310 334 353 354 342 330 322 327 345 344 334 309 301 301 298 297 297
327 328 330 334 334 335 339 338 341 339 338 338 339 339 339 339 339 341 344 345 345 347 346 347 350 348 348 348 348 348 355 356 358 359 358 350 341 334 328 324 319 302 301 309 311 307 302 301 303 312 321 330 322 314 306 307 301 298 298 296 297 297 297
328 329 331 333 334 335 339 339 337 337 336 336 337 337 337 338 339 340 342 342 344 348 348 347 347 346 347 348 348 348 350 351 354 355 351 345 341 337 332 329 325 323 308 301 304 304 301 301 301 302 304 309 314 316 315 304 298 297 297 297 297 297 296

ECMWFFLT1_sfc_thetae_039.txt.gz
Theta_e
330 332 333 335 335 336 336 336 337 337 338 339 340 341 342 343 344 345 345 346 346 346 347 349 349 349 349 349 349 350 350 349 349 348 347 347 348 347 346 346 345 344 346 347 349 350 351 352 353 353 354 355 356 356 356 357 357 358 357 357 356 355 354
328 331 333 335 335 336 337 337 337 337 338 339 340 340 342 342 344 344 345 346 346 346 347 348 349 349 349 349 349 349 349 349 349 350 349 348 349 348 347 347 346 344 344 347 349 350 351 352 353 353 353 355 356 356 357 357 357 357 357 356 355 354 354
328 330 333 334 335 336 337 337 337 338 338 339 340 340 341 342 343 344 345 345 345 346 347 348 349 349 350 349 349 349 349 349 348 348 348 347 347 348 348 347 347 346 345 346 348 349 352 351 352 353 353 353 355 356 356 356 357 357 356 356 355 355 353
328 330 332 335 336 337 338 338 338 338 339 339 340 340 341 342 344 345 345 345 345 346 345 347 348 349 349 349 348 348 348 348 348 348 348 348 347 348 347 347 347 347 346 345 348 350 352 352 352 352 356 353 354 355 356 356 357 357 356 355 355 355 354
328 330 332 334 335 336 337 338 338 338 338 339 340 342 341 343 344 344 345 345 346 345 346 347 348 349 349 350 349 349 348 348 348 348 349 349 349 348 347 347 347 347 347 348 348 350 351 351 351 352 352 353 353 354 355 356 356 356 356 356 354 354 354
327 329 331 333 335 336 337 338 339 339 339 339 339 340 341 342 343 343 344 345 345 346 346 347 347 348 348 349 349 349 349 348 349 349 348 349 349 348 347 348 347 347 347 348 350 350 351 351 351 352 351 352 352 353 354 355 356 356 356 356 355 355 354
327 329 331 332 334 336 337 338 339 339 340 340 341 341 342 342 342 343 344 344 345 345 345 345 346 347 347 348 348 348 347 347 348 348 349 348 349 348 348 348 349 348 348 348 349 351 350 351 351 352 352 352 352 352 353 353 354 355 355 355 354 355 354
327 328 331 333 334 336 337 338 339 339 340 341 341 341 341 342 342 343 343 343 344 345 345 345 345 346 347 348 348 347 347 347 348 348 348 348 348 348 348 348 349 349 349 347 348 351 351 351 352 352 352 352 351 352 352 353 353 354 355 354 354 354 355
327 329 331 333 334 336 337 338 339 339 339 340 340 341 341 342 342 342 343 343 344 344 345 346 346 347 347 347 347 347 347 347 348 348 348 348 348 348 348 349 349 350 349 349 348 350 352 352 352 352 352 352 352 351 352 352 352 353 354 354 353 353 354
326 328 330 333 335 336 337 338 339 339 338 339 340 340 341 342 342 343 343 344 344 344 345 346 346 346 347 347 347 347 347 347 348 348 348 348 348 348 349 349 349 351 350 350 350 349 351 352 353 353 352 352 351 351 352 352 353 353 353 353 353 353 353
327 328 330 332 333 335 336 337 337 338 338 339 340 341 342 342 343 343 343 344 344 345 346 346 347 346 346 347 347 347 347 347 347 347 347 348 348 349 349 350 350 350 350 351 351 351 350 351 352 352 352 352 352 351 351 352 352 352 353 353 354 353 353
327 329 330 332 333 334 335 336 338 338 338 339 340 341 342 342 343 344 344 345 346 345 346 346 347 347 347 347 347 347 347 347 347 347 348 348 349 349 350 350 350 350 351 351 351 351 352 351 351 352 352 352 353 352 352 352 352 352 352 353 353 353 353
328 329 330 332 334 335 336 336 337 337 338 339 340 341 342 343 343 344 345 345 346 347 347 347 347 347 347 347 347 347 347 348 348 348 348 349 349 350 350 350 351 351 350 351 350 351 351 352 351 352 352 352 352 352 352 352 352 352 352 352 352 352 352
334 329 331 332 334 334 335 336 337 337 338 339 339 341 342 343 344 345 345 345 347 347 348 348 348 347 347 347 347 347 347 348 349 349 350 350 350 350 350 351 351 351 351 351 350 349 350 351 352 353 353 353 353 353 353 352 352 352 352 352 352 352 352
327 328 329 331 332 334 335 335 336 337 338 339 339 340 342 343 344 345 346 347 347 348 348 349 348 347 347 347 347 347 348 349 349 350 350 351 350 350 350 351 351 351 351 351 350 350 350 350 351 352 353 353 353 353 354 353 352 352 352 352 352 352 352
326 327 329 330 332 334 335 336 337 337 338 338 339 340 341 343 344 345 345 346 347 348 349 349 348 348 348 347 348 349 349 349 350 350 350 350 350 350 350 350 351 351 350 350 350 350 350 349 349 349 350 351 352 352 353 353 354 346 335 338 352 352 353
326 327 328 330 331 333 335 336 337 338 338 338 339 339 341 343 344 345 346 347 348 348 350 350 349 348 348 348 349 349 350 350 349 350 349 350 350 350 350 350 350 350 350 350 350 350 349 350 348 348 348 348 349 350 352 352 352 337 331 331 334 349 353
325 326 328 329 331 332 333 334 336 337 338 338 339 340 341 342 344 345 345 347 348 349 351 350 350 349 349 349 349 350 350 350 350 350 350 350 350 350 350 350 350 349 349 349 349 349 350 349 348 348 348 348 348 348 350 351 338 332 330 330 329 333 352
325 326 328 329 330 332 332 333 335 337 339 339 340 340 341 343 343 344 345 347 348 350 350 350 350 350 350 350 350 350 350 350 350 350 350 350 350 350 350 350 350 349 349 349 350 350 349 348 348 348 348 348 347 347 349 350 337 331 328 328 328 328 335
325 326 327 329 330 331 332 333 335 337 339 340 341 342 343 344 344 345 347 348 349 349 349 350 351 351 351 351 351 351 351 351 350 350 350 351 351 351 350 350 349 350 350 350 350 349 348 348 348 348 348 348 347 347 348 349 337 330 326 326 326 326 329
326 325 325 326 328 329 330 331 333 334 335 338 340 340 341 343 345 346 347 348 348 349 349 350 350 351 351 351 352 352 352 351 351 351 351 351 351 351 350 350 350 350 350 350 349 348 348 348 348 348 349 348 349 348 348 349 335 328 325 323 322 324 326
334 335 334 333 333 333 333 333 334 335 336 341 342 341 341 342 344 345 346 349 349 349 349 350 351 351 351 352 352 353 353 353 352 351 351 351 351 351 350 351 350 350 351 350 350 350 349 349 349 348 348 349 349 348 347 349 333 327 324 322 321 323 334
343 342 343 342 341 340 339 339 340 343 346 343 343 342 341 342 344 344 345 346 348 348 349 350 350 351 352 353 353 354 354 354 353 352 352 352 351 350 351 350 351 351 352 350 350 349 348 348 348 348 348 348 348 348 348 349 338 326 322 321 320 322 337
342 343 344 345 346 347 347 348 349 351 350 351 352 353 352 345 345 344 344 345 347 348 348 348 349 351 353 353 354 355 355 355 354 353 353 352 351 351 351 352 352 352 352 350 349 349 349 349 348 348 349 348 348 348 348 348 341 325 320 319 319 325 340
341 342 344 345 345 345 345 345 346 348 349 349 349 350 354 353 346 346 345 347 346 347 347 348 349 350 351 354 356 356 356 356 356 355 354 353 353 353 352 352 352 353 353 352 351 350 350 350 349 348 349 349 348 344 346 349 342 324 321 318 317 325 341
339 341 342 344 345 345 345 347 347 346 346 346 347 350 353 356 357 357 353 352 348 346 347 348 350 351 351 353 355 357 357 357 357 356 355 354 354 354 354 354 353 352 352 352 352 351 350 350 349 348 348 349 349 350 349 349 350 342 319 317 316 318 341
338 340 342 343 343 348 344 345 345 344 345 346 348 350 353 356 356 355 356 352 352 352 353 351 349 348 350 351 352 354 356 357 357 357 357 357 356 356 355 355 353 353 352 351 352 351 350 350 349 349 348 349 349 350 350 351 351 348 319 315 315 315 322
337 339 341 345 348 346 342 342 342 342 343 344 347 349 351 352 353 351 349 349 350 352 358 358 357 355 349 349 350 352 354 355 357 358 358 358 357 355 354 355 354 353 352 352 351 350 349 349 348 348 348 348 349 349 349 351 343 353 322 316 314 314 313
333 335 336 339 340 344 342 340 340 340 340 342 344 346 347 349 349 349 347 346 347 350 352 354 354 354 351 348 348 350 352 353 355 356 358 357 357 356 354 355 354 353 352 351 350 349 349 349 348 348 347 347 347 348 349 350 349 333 340 317 313 313 312
333 334 336 339 340 341 342 339 339 338 339 340 342 343 344 344 346 348 345 341 345 347 351 350 351 351 348 347 347 349 351 352 354 355 356 357 357 356 355 354 354 353 353 352 350 349 348 348 348 347 347 346 346 347 348 349 350 337 328 331 314 313 312
331 332 334 335 338 341 340 338 336 337 337 338 339 340 341 341 342 343 341 341 345 348 347 348 351 350 351 345 346 348 350 352 353 353 355 356 356 355 354 353 353 352 352 351 350 350 348 348 348 348 348 347 347 347 348 350 351 351 336 324 319 313 312
328 331 333 335 337 338 336 337 337 336 336 336 338 339 341 340 341 341 338 342 346 345 345 348 349 351 351 348 344 347 350 351 352 353 354 355 356 356 355 354 353 353 352 352 351 351 349 349 348 348 348 348 348 348 349 350 351 352 340 334 328 320 312
325 328 330 331 336 338 333 335 335 335 336 335 336 338 340 340 341 342 342 345 345 345 346 349 352 352 350 349 344 345 349 351 352 353 354 354 355 355 356 355 354 353 352 353 352 351 350 350 349 348 348 348 349 350 350 350 350 345 336 333 335 335 330
324 326 329 332 334 338 334 333 333 334 334 334 334 336 338 339 339 340 342 343 344 344 345 350 352 350 346 347 346 348 350 351 361 357 354 353 355 354 354 355 356 354 353 353 353 352 351 352 351 349 350 350 350 351 350 349 342 339 340 334 332 330 328
324 324 327 330 332 337 335 331 334 333 334 333 333 335 336 336 338 340 341 342 343 343 345 349 354 349 345 346 349 349 351 353 358 355 344 329 321 313 310 313 321 345 344 329 325 343 356 355 353 353 353 354 353 352 349 342 342 340 318 323 319 329 329
324 324 326 329 332 333 335 336 333 333 333 333 334 335 336 336 337 339 340 342 344 344 345 346 347 345 345 346 344 349 351 355 354 347 341 335 327 323 319 313 303 306 325 325 320 311 308 327 353 356 353 339 320 324 345 350 341 304 300 298 298 298 299
323 323 326 329 330 332 335 335 337 335 334 333 335 335 335 336 336 337 339 340 343 344 343 343 343 343 344 345 345 343 352 354 352 344 339 334 330 329 327 325 318 302 300 306 307 301 298 298 304 318 330 341 328 313 303 305 300 297 296 296 296 297 297
324 324 326 328 329 330 334 333 333 332 331 331 333 333 333 335 336 336 338 340 342 344 344 343 342 341 341 343 345 347 349 352 350 343 338 335 333 332 330 328 325 322 306 300 302 301 298 298 299 300 304 310 315 316 313 302 297 296 296 296 297 297 296

ECMWFFLT1_sfc_thetae_042.txt.gz
Theta_e
330 331 332 333 333 333 334 335 335 336 337 338 339 341 342 343 344 345 345 345 345 345 346 348 349 349 349 349 350 350 350 350 350 349 349 348 349 348 347 347 347 347 348 349 350 351 353 355 355 355 356 356 356 358 359 360 359 360 360 360 360 359 358
328 330 332 333 333 334 334 335 336 336 337 338 339 341 341 342 343 344 345 345 346 346 346 347 349 349 349 350 350 350 350 350 350 351 350 349 350 349 349 348 348 347 347 350 351 352 353 354 355 354 355 356 356 358 358 359 359 359 359 359 359 358 358
327 329 331 332 333 334 335 335 336 337 337 338 339 340 341 342 344 344 345 345 345 346 347 347 349 349 350 350 350 350 350 350 350 350 349 348 349 349 349 349 349 348 347 349 351 351 353 353 354 355 355 355 356 357 358 358 359 359 359 359 359 358 357
326 328 330 332 334 335 336 336 336 337 338 338 339 340 341 342 344 345 345 345 345 346 345 347 348 348 349 349 349 350 350 350 350 349 349 349 349 350 349 349 349 349 347 347 349 351 353 353 353 354 357 354 355 356 357 358 358 359 359 359 358 358 358
326 328 329 331 332 334 335 336 336 337 337 338 339 341 342 343 344 345 345 346 346 345 346 347 348 349 350 350 350 350 350 350 350 350 350 350 350 350 349 348 348 348 348 348 349 351 352 352 352 353 354 354 354 355 356 357 358 359 359 359 357 357 357
325 326 328 330 332 333 335 336 337 337 337 338 338 340 341 342 343 344 345 346 346 347 347 347 348 349 349 349 350 350 350 350 351 351 350 350 350 349 348 349 349 348 348 348 349 349 351 352 352 352 352 353 354 354 355 356 357 357 358 358 358 357 356
325 326 328 329 331 333 334 336 337 338 338 339 339 341 341 342 342 343 345 345 346 346 346 346 347 348 349 350 350 350 349 349 350 350 350 350 350 349 349 349 350 349 349 350 349 349 349 350 352 352 352 352 353 353 353 354 355 357 358 357 357 357 357
326 326 328 329 331 333 334 336 337 338 339 339 339 339 340 341 342 343 343 345 346 346 346 346 347 348 349 350 350 349 349 349 350 350 350 349 349 349 349 349 349 350 350 348 349 350 349 350 351 352 352 352 352 353 353 354 355 356 357 356 356 356 357
325 327 328 329 331 332 334 336 337 338 338 338 338 339 340 341 341 342 343 344 345 345 346 347 347 348 349 349 349 349 350 350 349 350 349 349 349 349 349 349 349 350 349 348 349 351 350 350 350 351 352 352 352 353 353 353 354 355 356 356 356 355 356
324 325 327 329 331 333 334 336 337 338 337 338 338 338 339 340 341 342 343 343 344 345 346 346 347 348 349 349 349 349 349 349 349 349 349 348 348 348 349 349 349 350 350 349 349 349 351 352 351 352 352 351 352 352 352 353 353 354 355 355 356 356 356
323 325 326 328 329 331 333 335 336 337 337 338 338 338 340 340 340 341 342 343 343 344 346 347 348 347 348 348 348 348 348 348 348 348 348 348 348 348 349 349 350 350 350 350 349 349 350 352 353 352 352 351 351 352 352 352 353 353 354 355 356 356 356
321 324 325 327 329 330 332 334 336 337 338 338 338 338 339 340 341 341 342 343 344 344 345 346 347 347 347 347 347 347 347 348 348 348 348 348 348 348 349 349 349 350 350 351 350 350 350 350 352 352 352 352 352 353 353 353 353 353 353 354 355 355 355
320 322 325 326 328 330 333 334 336 337 338 338 338 339 339 340 340 341 342 343 344 344 345 346 346 347 346 346 346 347 347 347 347 348 348 348 348 349 349 349 349 349 349 351 351 350 350 350 350 352 353 353 353 353 353 353 353 353 354 354 355 355 355
327 322 324 326 328 330 331 334 336 336 337 338 338 339 340 340 341 341 342 342 343 344 345 345 346 346 346 346 346 346 346 347 348 348 348 349 349 349 349 349 349 350 350 351 350 350 350 350 350 351 352 353 353 354 354 354 354 354 354 354 354 354 354
318 321 322 324 327 330 332 333 335 336 337 338 339 339 340 340 341 342 342 343 344 344 344 346 345 345 345 345 345 346 347 348 348 349 349 349 349 349 349 349 350 350 351 351 351 351 351 352 352 351 351 352 352 353 354 354 353 354 354 353 354 354 354
316 321 322 324 327 330 332 334 335 336 337 338 338 339 339 340 341 341 342 342 343 344 345 346 345 345 345 344 345 346 347 348 349 348 349 348 348 349 349 349 350 350 350 351 351 351 352 352 352 352 351 351 352 352 353 353 354 346 335 338 353 354 354
317 322 323 326 328 330 332 334 335 336 337 338 338 339 340 341 341 342 342 343 343 344 345 346 345 345 345 345 346 347 347 348 348 349 348 349 349 349 349 349 350 350 350 350 351 351 352 352 350 350 351 351 352 352 353 353 352 336 330 330 334 350 354
320 323 325 327 329 330 332 334 335 336 337 337 338 339 340 341 342 342 342 344 344 345 346 346 345 345 345 346 347 347 347 348 348 348 349 349 349 349 350 350 350 350 350 350 350 351 352 351 350 350 350 350 351 351 353 353 339 332 329 329 328 333 353
322 324 326 328 329 331 332 334 335 336 337 338 339 339 341 342 342 342 344 344 345 347 346 346 346 346 346 347 347 348 348 348 348 348 348 349 350 350 350 350 350 350 350 349 351 351 351 351 351 350 351 350 349 349 350 352 336 330 328 328 327 327 337
322 325 327 329 331 332 334 336 336 338 338 339 340 341 342 344 343 344 345 346 347 347 347 347 347 347 347 347 348 348 349 349 349 348 349 349 350 350 350 350 349 350 351 351 351 351 350 350 350 351 351 350 350 350 350 350 335 328 325 325 325 326 330
321 325 325 327 330 332 334 336 337 338 338 339 340 341 342 343 344 345 346 347 346 347 347 348 348 347 348 348 348 349 349 349 349 349 349 350 350 350 350 350 350 350 351 351 350 350 350 350 350 350 350 350 351 350 349 350 333 326 323 322 322 324 327
326 324 325 328 330 332 333 335 336 337 338 341 342 341 342 342 345 345 345 347 347 347 348 348 348 348 348 348 349 349 350 350 350 350 350 350 350 350 349 350 350 350 351 351 351 351 351 351 351 350 350 351 351 350 349 350 331 325 323 321 320 322 336
339 331 327 329 330 331 334 336 337 339 342 341 341 341 341 343 345 345 345 346 346 348 348 348 348 348 349 349 349 350 350 350 350 350 350 351 350 350 350 350 350 351 352 351 351 350 350 350 350 351 351 350 350 349 350 350 337 324 321 320 319 322 340
342 342 338 333 333 333 335 336 339 342 340 340 340 341 342 343 345 345 345 345 346 347 347 348 348 349 350 350 351 351 351 351 351 351 351 351 350 350 351 351 352 351 352 351 350 350 350 351 351 351 352 350 350 350 350 350 341 324 320 318 318 325 342
340 341 342 342 338 337 338 338 340 341 341 340 339 340 342 344 344 344 345 347 346 347 347 347 348 350 350 351 352 353 353 353 352 352 351 351 351 351 351 351 352 353 353 352 352 352 352 352 351 351 352 351 351 344 348 350 342 325 320 317 316 326 344
338 340 342 344 345 346 346 348 346 343 342 341 342 342 343 343 344 345 345 346 346 346 346 348 349 351 352 353 353 354 354 354 354 353 353 352 352 353 353 353 353 353 353 353 353 353 353 352 352 351 351 352 351 351 350 350 351 345 320 317 315 318 343
338 340 341 342 343 348 345 346 347 346 347 348 350 347 343 343 343 345 346 346 345 346 347 349 351 352 353 354 354 354 355 355 355 354 355 355 354 354 354 354 354 353 353 353 353 353 352 352 352 351 351 352 352 351 351 351 351 348 321 315 314 314 323
335 337 340 342 345 344 342 343 344 346 348 350 353 352 347 345 346 348 348 346 345 348 354 354 352 351 352 353 354 355 355 356 356 356 356 356 356 355 354 355 355 355 354 354 353 352 352 352 351 351 351 352 352 352 352 350 342 352 326 316 313 312 313
331 333 335 337 338 340 340 339 340 341 343 346 350 352 352 351 350 350 351 349 351 354 357 359 358 355 352 352 352 354 356 357 357 356 357 356 357 356 354 355 355 355 355 354 353 352 352 352 352 351 351 351 352 352 353 353 351 332 344 319 313 312 311
330 332 335 337 338 339 340 337 338 339 340 342 344 347 350 350 348 349 349 347 349 352 356 357 356 357 355 352 351 352 354 356 358 358 358 358 357 357 356 355 356 355 355 354 353 352 351 351 352 351 350 350 350 351 352 353 354 337 328 333 314 313 311
327 330 332 334 336 339 337 336 337 338 339 340 342 343 345 349 348 348 346 345 350 351 353 353 355 355 353 352 352 351 352 354 356 357 358 359 358 356 356 356 356 354 355 354 353 352 351 351 351 350 350 349 349 350 351 352 352 353 337 324 320 313 312
325 328 331 334 336 337 336 337 337 338 338 339 341 343 345 346 348 347 345 347 350 349 351 353 355 354 354 352 349 350 351 351 352 354 357 358 359 358 357 357 356 355 354 354 353 352 351 351 350 350 350 349 350 350 351 352 352 353 352 336 330 322 314
324 326 328 330 335 337 334 336 336 336 337 337 338 340 342 342 344 345 347 348 347 349 351 356 356 357 352 350 350 349 350 350 350 351 353 355 357 358 358 358 356 355 353 354 353 352 351 352 350 349 349 349 350 351 351 352 353 354 353 348 345 342 336
323 324 327 331 333 338 334 334 334 335 335 335 336 338 340 340 341 342 343 344 346 348 355 359 358 352 349 349 350 349 349 350 355 354 352 354 355 356 356 356 356 355 354 353 353 352 352 352 351 350 350 350 351 352 352 353 353 353 351 347 346 346 343
323 323 325 328 331 336 335 334 334 334 334 334 335 337 338 338 339 341 342 344 345 347 353 355 355 349 346 347 350 352 353 352 358 353 343 331 322 315 314 318 330 352 354 336 339 355 355 353 354 353 354 354 353 352 352 353 352 353 336 348 331 340 340
322 323 324 327 331 333 335 337 335 333 333 333 335 337 337 338 339 340 342 345 345 347 349 349 347 346 346 347 347 353 354 353 350 341 336 334 328 323 318 311 301 304 331 334 322 311 310 331 354 357 357 353 329 330 352 355 354 306 304 305 306 309 313
321 322 323 326 328 330 333 335 337 335 334 333 335 336 337 337 337 339 341 343 345 345 345 345 345 344 344 346 348 351 353 349 344 341 338 336 334 335 332 328 319 300 298 305 306 300 297 300 312 326 331 344 330 311 301 302 299 298 298 298 298 299 299
322 323 325 326 327 329 330 333 333 333 333 332 334 334 335 336 336 336 338 341 343 345 345 344 344 343 342 344 349 352 350 347 343 339 337 336 337 336 334 334 331 323 305 297 300 300 297 297 297 304 313 315 317 315 312 301 297 297 297 298 298 298 297

ECMWFFLT1_sfc_thetae_045.txt.gz
Theta_e
338 338 339 340 340 339 340 341 342 342 344 345 346 346 347 348 349 351 351 352 352 353 354 355 355 354 354 354 356 357 357 357 358 356 356 356 356 357 357 356 357 359 358 358 360 361 365 366 365 366 367 367 366 367 368 368 367 367 368 368 367 365 365
335 337 338 339 339 340 341 342 343 342 344 345 346 347 347 348 349 351 351 353 353 353 354 354 355 355 355 355 356 357 357 357 358 358 358 358 359 360 359 359 358 360 361 360 361 364 365 365 365 366 366 367 365 367 367 368 368 368 367 367 363 362 363
334 336 338 339 339 339 341 342 343 342 343 344 346 346 346 349 351 351 352 352 353 354 354 354 356 355 356 356 356 357 357 357 357 357 357 356 357 355 358 360 359 359 359 361 363 362 363 364 365 366 366 365 364 366 367 367 368 367 368 368 365 362 363
333 335 337 339 341 341 342 342 342 342 342 344 345 346 348 351 352 353 353 352 352 353 353 354 355 355 355 356 356 357 357 357 358 356 356 356 357 357 358 359 359 359 359 359 360 360 361 363 364 365 365 365 365 366 366 366 366 368 368 368 365 364 364
333 335 336 338 339 341 341 341 342 343 342 343 345 347 348 350 350 351 352 352 351 352 352 353 353 355 356 357 356 356 356 357 357 357 357 357 359 360 358 357 357 357 358 358 360 362 363 363 362 363 364 365 364 365 366 367 366 368 368 367 364 364 362
330 334 336 337 339 340 340 341 342 342 342 342 343 346 347 348 348 349 350 351 351 352 354 354 353 355 355 356 356 356 358 358 359 359 358 359 360 358 357 357 357 357 356 358 359 359 361 361 360 361 361 361 361 361 363 364 364 366 367 367 365 364 362
330 333 335 337 338 339 340 341 341 342 343 343 344 346 347 347 347 348 349 350 351 351 351 352 353 354 356 356 356 358 358 357 358 358 358 358 359 358 358 358 359 358 358 360 358 359 358 360 361 362 361 360 362 361 362 364 364 365 366 366 365 364 364
332 333 336 337 337 339 340 341 342 342 343 344 343 344 344 345 347 347 348 349 350 351 351 351 352 354 356 356 356 357 357 357 358 358 358 357 358 358 358 358 358 359 360 359 359 359 357 359 360 361 361 360 361 363 362 364 365 364 364 365 364 364 363
332 335 335 336 337 338 340 342 342 342 343 343 343 344 344 345 346 346 348 349 350 350 351 351 352 354 356 356 357 357 357 357 358 358 358 356 356 356 356 357 358 359 358 357 357 359 358 358 358 361 362 361 361 363 363 364 364 363 363 364 364 364 363
332 335 337 336 337 338 340 342 344 344 344 343 344 345 344 345 346 347 347 348 349 349 350 351 352 353 356 356 356 356 357 357 357 356 356 355 356 356 356 356 357 359 358 357 357 357 359 360 359 361 362 361 362 363 363 363 362 362 363 363 364 364 364
332 337 338 336 337 338 340 341 343 345 345 346 346 344 345 345 346 346 347 348 348 349 350 351 353 353 354 354 354 354 355 355 356 356 356 355 355 355 356 356 356 357 357 357 356 357 358 359 360 361 361 359 360 361 362 362 363 362 361 362 363 364 363
332 336 338 337 338 339 339 342 344 347 348 348 345 344 346 347 346 346 347 348 349 350 350 351 352 353 353 353 353 354 354 355 355 355 355 355 355 355 356 356 356 356 357 357 356 357 357 359 359 359 360 360 360 361 362 363 363 363 362 360 361 363 363
327 332 336 336 338 339 343 345 346 347 349 345 344 344 345 346 346 346 348 349 350 350 351 352 352 353 353 353 353 354 354 354 355 355 355 356 356 356 356 356 356 356 356 357 357 356 356 357 359 360 360 361 361 360 361 362 362 363 363 362 362 362 363
328 328 332 337 339 340 342 345 347 348 347 345 344 345 345 346 346 346 348 348 349 350 351 352 353 353 353 353 353 354 354 355 357 357 357 357 358 358 357 357 357 357 358 358 357 356 356 356 357 359 359 360 360 361 362 362 362 363 364 363 362 362 362
324 319 327 331 337 342 342 342 345 347 346 345 345 345 345 345 346 348 350 350 350 350 351 353 353 353 353 353 354 355 356 357 357 358 359 358 359 358 358 358 358 358 358 359 358 357 357 357 357 358 358 359 359 360 361 360 360 361 361 361 362 362 360
330 325 321 326 333 337 342 343 344 348 349 348 345 346 345 346 347 347 348 348 349 350 352 353 353 353 353 352 354 356 357 358 359 359 359 358 359 359 359 358 359 358 359 359 358 359 359 359 358 357 357 357 358 360 359 359 360 352 338 344 360 362 360
335 328 324 323 333 336 340 342 344 347 348 348 347 347 345 346 347 347 347 348 348 350 351 353 354 353 352 353 355 356 358 359 359 359 358 359 359 359 359 358 358 358 358 358 358 358 359 359 357 357 357 356 357 357 358 358 357 338 332 333 337 355 362
339 336 329 323 323 332 338 340 344 346 346 345 346 347 346 348 347 346 345 347 348 349 350 352 352 351 353 353 356 357 358 357 358 357 358 358 358 359 359 359 358 358 358 357 357 358 358 357 357 358 357 357 357 356 357 358 342 332 330 330 330 337 359
339 341 336 329 324 331 335 337 342 345 344 345 345 345 346 349 346 347 347 348 348 350 350 349 350 351 353 354 356 358 357 358 357 357 357 358 358 358 359 358 358 357 357 356 358 358 358 358 357 357 358 357 357 356 357 357 339 330 328 329 328 328 341
340 343 339 332 327 326 333 340 342 345 346 347 347 347 348 348 347 348 348 349 351 350 350 351 350 352 353 354 355 357 358 358 357 356 357 358 358 358 358 357 357 357 357 356 357 358 357 357 358 358 359 358 358 358 358 357 340 328 326 326 326 327 332
340 342 343 335 331 329 338 343 345 346 347 346 347 348 348 348 348 350 349 350 349 350 352 352 352 353 354 355 356 357 357 357 357 356 357 358 358 357 357 356 357 356 356 355 356 357 357 356 357 357 358 358 357 357 356 356 336 326 324 323 323 325 329
340 342 342 339 335 336 342 340 344 344 346 347 347 347 348 348 349 348 348 349 349 349 352 353 353 354 354 354 354 355 356 356 356 357 358 357 357 357 356 357 357 357 357 356 356 357 358 358 357 357 358 358 358 356 356 357 332 325 323 322 322 324 343
341 343 344 341 338 341 347 346 346 345 349 347 346 347 347 348 348 348 348 348 348 351 351 351 352 352 354 354 354 354 355 355 355 356 356 357 356 356 356 356 357 358 359 356 356 355 356 357 356 358 358 358 358 357 357 358 339 323 321 320 320 325 351
343 345 346 342 343 346 348 347 347 349 346 347 347 347 348 349 349 349 349 348 349 350 350 351 351 352 354 353 354 355 355 356 356 356 356 357 356 356 356 357 358 358 359 356 355 354 356 357 357 358 359 357 358 357 357 357 343 321 320 318 317 329 352
340 343 346 346 343 342 344 347 347 347 348 348 346 348 350 350 350 350 350 350 350 350 350 351 351 353 353 353 355 357 357 357 357 357 357 357 356 356 356 356 357 358 359 357 357 356 358 358 357 358 359 358 358 350 354 358 345 320 320 318 316 329 353
337 341 344 348 348 347 350 352 351 347 346 345 348 350 352 350 351 352 351 351 350 349 351 351 353 355 356 356 356 358 359 358 359 358 358 358 358 358 357 358 358 358 358 358 357 357 357 357 358 357 358 359 358 358 356 357 359 347 318 317 315 318 351
336 340 343 345 348 353 349 350 347 345 345 348 352 349 350 352 350 352 354 354 352 351 351 354 356 358 358 358 357 358 358 358 359 359 359 360 359 358 358 358 358 358 358 357 357 357 357 357 358 357 358 358 359 359 358 358 358 360 316 315 313 314 325
334 338 343 347 348 350 352 350 351 348 347 354 351 351 352 353 352 355 355 352 351 353 354 357 359 360 361 361 359 358 359 359 360 360 360 361 361 360 359 360 360 359 359 357 358 358 358 359 358 358 358 359 359 360 360 357 346 359 323 315 312 312 313
330 334 338 342 345 347 349 352 352 351 350 348 349 350 351 350 354 354 355 353 355 356 358 360 359 360 360 360 358 360 360 361 361 361 361 361 361 361 360 361 360 361 361 360 360 359 359 360 359 358 358 360 360 361 362 362 358 334 348 316 313 311 311
328 332 336 340 343 346 348 349 352 353 355 351 350 351 351 352 355 356 355 356 361 358 360 361 362 362 360 361 360 361 361 361 362 362 362 363 362 361 361 361 361 361 361 361 359 359 358 359 359 359 358 357 358 360 361 364 364 341 330 336 312 312 310
325 327 332 336 340 344 348 349 350 351 353 355 358 358 357 358 357 357 357 363 366 365 363 362 363 362 361 360 361 362 362 362 363 363 363 363 362 362 361 362 362 361 363 362 360 359 358 358 359 358 357 357 358 359 361 362 362 364 343 326 319 313 311
323 326 329 335 338 341 344 348 350 350 351 353 357 359 362 361 360 359 362 363 366 368 367 366 364 363 362 362 363 363 364 364 363 364 364 364 364 364 364 363 362 360 361 360 359 359 359 359 358 357 357 356 359 359 361 363 363 363 363 339 332 322 313
320 324 326 330 336 340 341 344 345 347 349 349 353 356 359 362 363 362 362 364 366 368 369 368 367 365 365 365 365 365 365 364 363 363 365 366 365 364 364 364 364 363 361 361 359 359 358 358 358 357 356 356 358 360 361 362 362 362 362 362 356 351 342
318 323 326 330 335 339 340 341 342 343 345 346 349 353 355 356 357 360 363 363 365 367 369 369 369 367 367 367 366 364 364 363 363 363 363 365 364 363 362 363 364 362 362 360 360 360 359 358 357 356 357 357 359 361 361 359 361 362 361 361 360 358 357
317 321 323 327 332 337 338 341 342 344 344 345 348 350 353 355 356 358 361 363 367 369 366 364 364 368 368 368 367 365 364 362 361 360 360 363 364 342 336 346 365 364 364 365 367 365 363 362 360 360 362 361 361 361 361 362 360 363 342 368 341 356 361
317 318 321 325 330 334 338 341 342 344 346 347 349 350 351 353 354 355 357 359 363 368 366 365 363 363 364 367 368 367 364 363 363 362 361 357 348 338 326 309 299 307 342 360 325 316 313 327 364 368 365 362 364 351 362 364 367 324 325 322 319 321 327
314 315 320 324 328 330 333 337 341 343 344 346 348 349 349 350 351 353 353 358 359 362 363 364 362 362 363 364 365 362 365 364 361 358 355 351 347 343 338 335 323 300 296 303 307 301 299 304 310 316 333 361 356 322 302 302 299 302 305 307 309 309 308
313 314 317 322 326 328 330 333 336 339 341 344 347 348 349 348 348 350 350 354 356 358 361 363 363 362 362 362 361 357 360 361 357 354 351 349 349 348 345 343 338 328 303 296 299 299 296 294 294 304 317 326 333 330 327 303 296 297 298 298 299 300 299

ECMWFFLT1_sfc_thetae_048.txt.gz
Theta_e
338 340 343 345 347 347 348 350 352 351 352 353 354 354 353 354 355 357 357 359 360 361 362 363 361 361 360 360 361 362 362 362 362 360 360 359 359 360 360 358 357 358 356 355 358 358 363 365 364 366 367 369 367 368 370 370 370 367 366 367 366 365 365
335 337 340 343 345 347 349 351 352 352 352 353 354 355 354 355 356 356 357 360 361 361 362 362 362 361 361 361 361 363 362 362 363 362 362 361 362 361 361 362 360 360 360 358 358 363 364 366 366 365 366 367 367 367 367 369 370 368 364 366 364 363 364
333 336 338 342 344 346 348 350 351 351 353 353 353 354 354 356 357 358 358 359 360 362 362 362 363 361 362 362 362 362 363 362 362 362 361 360 361 359 362 364 362 361 362 362 362 362 366 367 369 367 366 365 363 365 367 368 369 367 367 367 365 362 364
332 334 337 341 345 348 349 349 350 351 351 352 353 354 355 357 358 359 359 359 360 361 361 361 362 361 361 362 362 363 363 363 363 362 362 361 362 361 361 363 364 363 363 363 362 362 363 366 366 367 368 365 364 363 366 365 365 368 367 368 364 363 364
331 334 335 339 343 346 347 348 348 351 350 352 353 355 356 356 356 357 359 359 359 359 360 360 360 361 361 362 361 361 363 364 363 363 363 362 363 364 362 361 362 362 362 364 365 365 365 365 364 366 367 368 364 364 365 366 365 367 367 368 364 363 361
326 331 333 336 341 344 346 347 348 349 349 350 351 353 354 355 355 355 357 358 359 359 361 361 360 361 360 360 361 361 363 364 365 364 363 363 363 362 362 362 362 363 360 363 365 364 365 365 364 365 364 364 362 360 361 363 363 363 365 366 365 362 359
326 330 331 332 337 342 345 347 347 348 350 350 351 354 354 354 354 354 355 356 357 358 358 358 358 359 360 361 361 362 362 362 364 362 363 362 362 363 363 363 364 363 363 365 365 365 365 365 366 366 365 363 363 360 362 364 363 363 365 366 365 364 364
328 329 332 333 332 338 342 347 348 349 350 350 350 351 352 352 353 353 354 355 356 356 356 356 357 359 360 361 360 360 361 362 363 363 363 361 361 362 363 363 364 365 365 363 365 366 365 366 366 365 365 364 364 365 363 365 368 363 363 364 365 365 362
327 330 332 333 334 334 339 347 349 348 349 350 349 350 351 352 351 352 354 354 355 354 355 356 356 358 361 361 361 361 361 362 362 363 363 360 360 360 361 363 364 365 364 362 363 366 365 365 365 366 367 366 365 366 366 367 367 366 364 364 365 366 362
327 331 338 336 335 335 341 347 350 350 349 349 349 351 351 351 352 353 353 353 354 353 354 355 356 357 360 360 360 361 361 362 362 361 361 359 359 360 361 361 362 364 364 363 361 363 366 365 365 366 368 366 366 366 367 367 366 366 366 366 367 367 366
327 335 339 336 336 339 343 345 348 349 349 351 350 349 351 351 351 352 353 353 353 353 354 355 357 357 358 360 359 359 360 360 360 360 361 360 359 359 360 360 360 363 363 363 361 362 365 366 366 366 367 366 366 366 367 367 368 368 365 365 366 367 365
335 336 342 343 342 342 342 345 349 351 352 352 350 349 351 352 352 352 352 353 354 353 354 355 356 357 358 359 358 359 359 360 360 359 360 360 359 359 360 360 359 360 363 363 362 362 362 365 365 365 367 368 367 367 368 369 368 368 367 363 364 365 365
326 333 339 342 344 343 347 350 351 351 353 350 349 349 350 351 351 351 353 353 353 354 355 356 356 358 357 359 358 359 359 360 360 360 360 361 360 360 360 360 359 359 361 363 362 361 361 362 366 366 367 368 368 366 368 368 367 368 369 366 365 364 365
337 326 334 338 340 342 345 348 351 352 352 351 349 350 350 351 351 351 353 353 353 354 355 355 357 357 358 359 359 360 358 360 362 363 362 362 364 363 361 361 360 361 362 364 363 360 360 361 364 366 366 367 367 367 367 368 367 369 369 368 365 363 365
338 332 329 332 340 344 345 345 351 353 353 351 350 350 350 350 351 353 354 355 355 354 355 357 357 357 357 359 359 360 362 363 363 363 364 363 364 364 363 362 363 363 363 365 364 362 361 362 362 364 365 365 366 366 366 365 365 366 367 367 367 365 362
339 340 339 334 336 340 346 347 352 355 355 354 351 351 350 351 352 351 352 352 353 354 355 356 357 357 357 358 360 361 363 363 365 365 365 364 365 365 365 364 364 364 364 364 364 365 364 364 363 363 364 364 365 365 364 364 365 359 344 350 366 366 362
341 343 345 347 351 338 344 347 349 355 356 355 352 351 350 351 352 352 352 352 353 354 355 356 357 357 357 358 360 362 364 364 364 365 365 365 365 366 366 365 365 365 365 365 365 365 366 365 363 362 362 363 363 363 363 363 362 343 335 336 341 362 367
340 343 344 346 349 352 349 341 346 350 353 352 351 351 351 352 352 351 351 353 353 353 354 356 357 357 359 359 362 363 364 363 365 365 365 366 366 367 367 366 366 365 366 365 365 366 365 364 364 364 362 362 363 362 362 363 348 334 332 333 334 343 365
338 340 343 347 348 350 350 347 341 348 351 351 350 349 351 353 352 352 352 354 355 356 354 355 356 358 360 360 362 364 365 366 365 365 366 366 366 368 367 367 366 365 364 363 365 366 366 366 364 365 364 362 363 361 362 363 342 331 330 331 331 332 346
333 337 341 344 347 349 351 351 345 341 350 352 352 349 352 354 352 353 354 355 356 355 356 356 357 360 360 361 362 365 366 366 365 365 367 367 367 367 367 366 365 365 365 364 365 365 365 364 365 365 366 364 363 364 363 363 341 328 327 328 328 330 337
330 333 336 341 346 348 351 353 349 341 344 350 350 352 352 353 353 355 353 355 354 355 358 358 359 360 361 361 363 365 366 366 366 366 366 367 367 367 366 365 365 364 364 362 363 364 364 364 364 365 365 364 363 362 361 361 335 326 324 324 324 327 333
327 329 333 340 345 348 351 351 348 340 339 350 351 350 351 352 353 353 352 354 354 354 356 359 359 359 361 361 363 365 365 365 366 366 367 366 366 366 365 365 366 365 364 363 362 364 365 365 364 364 364 364 364 361 361 362 332 323 323 322 323 325 349
322 326 334 343 347 348 353 353 349 344 342 346 349 348 350 352 353 352 352 352 353 356 355 357 359 360 362 361 362 363 364 365 364 365 365 366 365 364 364 364 365 365 365 363 361 361 361 363 362 365 363 364 364 362 363 362 342 322 321 320 320 328 356
323 327 338 346 349 351 354 351 347 345 344 349 349 349 351 353 352 352 353 352 353 354 354 356 357 359 361 360 362 363 365 365 365 364 364 365 364 364 364 364 365 364 365 362 360 358 360 362 363 364 364 363 363 362 362 362 346 320 319 318 318 333 358
321 327 340 346 348 349 352 354 350 345 347 350 348 349 353 353 352 352 352 353 353 354 354 355 357 359 360 361 362 364 365 364 364 364 364 365 364 364 363 363 364 364 365 362 362 360 362 362 362 362 363 362 362 354 359 363 349 319 319 317 316 334 360
318 326 341 346 348 351 353 356 352 346 348 349 350 352 355 353 352 354 353 353 354 353 355 356 358 360 362 362 363 364 364 364 365 365 364 364 365 365 364 364 363 364 363 363 362 360 360 360 361 361 362 363 362 362 362 362 366 346 317 317 315 321 358
318 328 339 344 347 351 354 355 351 348 347 350 353 351 353 353 352 353 355 355 354 354 355 358 360 362 363 363 361 362 363 364 364 363 365 365 365 364 363 363 363 363 363 361 361 361 360 359 360 359 361 362 364 363 363 363 364 362 316 315 314 316 328
318 328 337 344 349 351 352 352 352 350 347 353 353 355 354 354 354 355 356 354 353 356 357 359 361 362 363 363 362 361 362 363 364 364 364 365 366 365 363 364 364 364 363 361 361 362 362 363 361 360 361 363 363 365 365 363 352 367 321 315 313 314 315
316 321 330 338 346 350 350 355 351 348 349 351 352 351 352 354 355 356 357 354 358 358 360 360 361 363 363 363 361 362 363 364 364 364 365 364 365 364 362 364 364 364 365 364 363 363 362 364 363 363 361 364 364 365 367 368 365 338 347 316 313 311 312
316 320 325 334 344 349 352 353 357 358 352 353 354 354 356 356 357 359 357 358 362 361 360 362 363 365 364 363 362 362 363 364 364 366 365 365 365 365 365 363 363 364 365 365 363 362 362 362 364 363 361 360 361 363 364 368 369 345 334 334 312 313 311
315 319 321 327 337 345 352 351 354 356 356 354 356 357 359 359 360 361 360 363 365 363 362 363 364 364 364 363 362 364 365 366 365 366 366 365 364 364 363 364 365 363 366 367 365 363 362 362 363 361 360 360 360 362 364 367 367 369 347 327 317 313 311
315 318 319 324 332 341 348 352 352 354 356 359 358 357 360 360 362 363 363 365 365 364 365 365 366 366 366 366 365 365 366 365 365 366 366 366 366 366 366 366 364 364 365 364 362 362 361 362 361 360 361 360 362 362 364 366 368 368 367 339 328 320 313
315 315 316 320 328 339 343 352 352 352 354 357 360 361 361 361 363 366 366 369 366 365 369 369 368 365 366 366 366 367 367 367 366 365 366 368 366 367 367 366 367 366 364 364 363 363 362 362 362 360 359 359 361 362 363 365 366 367 368 363 354 348 337
315 313 315 320 327 336 340 344 350 352 353 354 359 362 364 366 368 369 371 369 369 369 370 368 367 366 366 366 366 365 366 366 366 366 366 366 366 365 365 366 367 366 365 364 364 364 362 362 360 359 361 360 361 362 363 362 364 366 367 367 364 361 357
313 313 315 318 324 332 337 342 344 349 351 353 357 359 361 364 366 369 370 369 369 370 369 367 365 366 365 365 365 364 367 365 366 365 365 367 368 369 353 365 369 367 367 369 369 367 365 366 363 363 364 364 363 363 364 365 365 368 346 378 347 365 365
313 312 313 317 322 329 335 340 342 345 349 353 357 358 359 360 362 364 365 367 369 371 368 367 366 365 365 364 363 363 364 364 363 364 363 366 366 353 333 308 300 311 340 363 326 311 307 329 368 373 367 365 367 363 369 365 375 321 326 325 324 326 332
312 312 312 316 319 323 331 337 340 342 346 349 352 353 355 357 359 362 363 367 369 369 369 370 366 364 365 366 364 361 366 364 363 367 367 367 367 362 352 348 333 300 296 305 309 303 295 294 300 311 322 369 365 332 305 304 302 308 314 315 315 317 314
314 314 314 316 318 323 329 334 338 340 344 347 349 350 351 352 355 357 359 362 364 368 369 368 365 363 362 362 366 370 372 370 369 369 368 367 368 365 361 358 353 342 305 296 299 299 296 295 294 296 308 323 343 346 345 308 297 297 298 298 299 299 298

ECMWFFLT1_sfc_thetae_051.txt.gz
Theta_e
334 335 343 344 345 344 345 349 353 353 354 355 355 354 353 353 355 356 357 360 363 364 364 365 364 364 362 361 362 362 360 359 358 356 354 352 351 351 355 356 355 353 350 351 356 353 358 360 360 362 363 365 365 365 367 369 369 366 367 368 367 366 364
335 334 339 342 345 346 349 352 353 354 354 355 355 356 354 355 357 356 358 361 363 364 364 364 365 364 363 363 362 363 363 362 363 361 359 358 358 356 356 359 357 356 357 353 355 358 358 359 359 361 362 365 365 366 365 368 370 368 364 366 366 366 365
335 335 337 338 341 340 343 349 353 354 355 355 356 356 355 357 357 359 359 360 363 365 366 365 366 365 364 365 364 364 363 363 363 361 359 356 358 355 358 360 358 356 356 355 357 356 358 360 362 362 362 363 364 365 366 367 368 368 366 366 365 363 366
334 334 336 340 345 343 348 350 351 354 354 356 357 357 357 358 359 360 360 361 362 364 365 365 365 364 364 364 364 365 364 364 364 362 359 357 359 358 358 358 361 359 358 357 355 355 355 360 362 363 365 363 363 362 363 363 364 366 366 366 364 363 364
334 335 336 338 339 345 348 346 350 355 354 355 358 359 358 358 358 359 360 362 363 363 364 364 363 364 364 364 362 363 364 364 364 363 361 359 362 362 358 357 359 360 358 359 360 359 361 361 362 363 363 364 362 362 362 364 363 365 366 366 364 362 361
329 333 334 336 339 340 349 347 345 353 354 354 356 358 358 358 358 358 359 361 362 364 365 365 363 364 364 363 362 362 365 366 366 366 364 363 361 360 358 359 360 361 357 359 360 359 360 361 361 363 362 361 359 357 360 362 362 362 365 365 364 362 359
326 330 333 336 338 340 343 344 345 351 355 354 356 358 358 357 357 358 359 359 361 363 363 362 362 363 364 363 362 364 364 363 366 364 363 362 361 361 362 362 362 361 361 361 360 360 360 361 363 363 362 361 360 357 360 363 362 362 363 365 364 364 363
324 326 332 336 338 340 341 347 350 349 346 354 354 356 356 356 357 357 358 359 360 361 362 361 361 363 364 364 362 362 363 364 366 365 364 362 361 362 362 362 362 362 363 359 361 361 359 362 361 362 363 361 361 360 358 363 364 360 360 362 363 364 361
324 328 331 333 337 339 340 340 343 345 349 349 353 355 355 357 356 356 358 358 359 360 361 361 361 362 364 363 362 362 364 364 364 364 362 361 360 359 360 362 363 363 363 359 358 363 361 362 362 364 365 364 362 362 360 364 362 361 361 362 363 363 361
325 326 330 333 337 338 340 342 347 350 349 353 353 355 355 355 356 357 357 358 359 359 360 360 360 360 363 362 361 362 363 363 364 362 361 359 358 359 358 359 361 363 363 361 357 358 362 362 363 364 367 365 363 363 362 362 361 363 362 361 362 363 363
324 329 330 330 335 337 341 339 341 349 350 355 354 353 356 356 356 356 356 358 358 358 360 360 360 359 361 361 359 360 362 361 360 360 360 358 357 357 358 357 358 361 362 362 359 357 361 364 365 366 367 364 364 364 364 363 364 364 362 361 362 363 363
325 327 332 332 335 335 335 340 345 352 357 356 352 352 355 357 356 356 356 358 359 358 359 358 359 359 360 360 359 359 360 360 358 359 360 358 357 356 357 357 357 358 361 361 360 358 357 362 363 364 367 368 367 366 366 367 366 366 365 360 360 362 363
329 327 332 332 335 335 342 349 353 356 358 352 352 352 353 355 355 355 357 358 357 358 358 359 358 359 360 360 358 359 358 358 357 359 360 359 357 357 357 357 356 356 358 360 360 358 356 359 364 364 366 369 368 366 367 368 367 369 368 364 361 361 363
333 330 330 333 336 338 340 352 354 355 355 352 352 352 352 354 354 355 357 356 357 358 357 358 357 358 359 360 359 359 357 359 359 360 361 361 362 361 358 358 357 357 357 361 360 358 357 356 361 364 365 367 368 368 369 369 368 369 370 368 363 361 361
329 329 334 336 342 345 348 344 354 356 354 354 353 352 352 353 354 356 357 358 358 357 357 359 358 358 358 360 360 361 361 363 361 361 363 362 364 363 361 360 361 360 359 363 362 360 358 357 357 362 363 364 367 368 367 366 367 367 368 369 367 364 360
337 338 335 335 339 338 345 346 351 356 357 358 354 353 351 353 355 354 355 356 356 357 358 358 358 358 358 359 360 362 364 367 367 365 365 365 367 367 364 361 362 361 361 361 362 364 362 361 358 358 362 362 365 366 365 365 366 361 348 354 368 365 361
339 341 342 344 347 347 350 345 348 354 358 358 357 354 352 353 355 355 354 356 356 357 357 357 359 358 358 360 362 364 366 367 366 367 367 368 368 368 367 366 363 363 365 364 364 366 368 363 357 356 358 361 362 363 363 363 362 346 338 340 348 364 365
334 337 340 342 344 349 352 350 349 350 354 355 355 354 353 355 354 354 353 355 356 356 356 357 358 358 361 361 364 367 367 366 367 368 368 369 368 368 368 366 364 366 365 362 362 367 365 362 361 362 358 359 361 360 361 363 350 335 335 337 338 349 367
334 335 337 339 341 343 347 347 349 352 350 354 355 353 353 354 353 355 355 356 356 357 356 356 357 359 362 362 364 367 367 368 367 367 367 368 369 369 368 368 367 364 362 361 364 365 366 367 363 362 361 360 361 360 360 361 342 332 333 335 335 336 352
333 334 335 337 339 341 345 350 354 356 358 357 356 355 354 356 354 355 355 356 358 357 358 358 359 360 361 364 366 368 368 368 368 367 369 369 369 370 369 367 366 365 364 363 365 366 366 365 364 364 366 363 363 364 361 362 339 330 329 331 331 333 341
329 331 333 335 337 339 343 348 352 355 356 355 354 355 356 353 354 356 355 356 356 357 362 360 361 362 362 364 366 367 368 368 368 368 369 370 369 370 369 367 367 366 365 364 364 366 366 365 364 365 365 363 362 362 362 360 333 328 326 327 327 331 336
326 329 330 333 335 337 341 345 350 352 354 358 357 351 354 351 353 353 354 354 355 356 358 361 363 361 362 363 365 366 367 368 368 369 370 370 370 369 369 368 369 368 367 365 363 366 367 367 365 364 365 365 363 361 361 362 326 326 325 325 326 328 353
325 327 329 332 333 334 341 347 351 354 357 357 355 352 350 354 353 352 353 353 354 358 356 358 360 361 363 363 364 366 367 367 368 369 370 370 369 369 368 368 369 368 368 365 363 362 364 366 364 366 365 365 365 362 360 362 336 323 322 322 323 331 359
324 325 327 329 331 334 340 347 352 355 354 357 355 351 350 354 353 353 355 353 354 355 355 356 357 360 363 362 364 366 368 369 368 369 370 370 369 369 368 369 369 368 369 365 361 359 362 365 365 364 365 364 365 363 362 362 346 318 320 320 320 337 361
321 323 325 327 329 332 338 344 351 353 353 355 355 350 349 354 354 352 355 355 354 356 356 356 358 360 362 363 365 368 369 369 369 369 369 370 369 368 368 368 369 368 369 366 363 360 362 363 364 364 364 363 364 359 361 361 345 317 319 318 317 338 364
319 320 322 325 329 332 336 342 348 353 354 353 355 351 349 353 354 355 354 354 354 354 355 357 359 362 366 366 366 369 370 370 370 370 370 371 370 370 370 370 369 369 367 365 363 362 359 359 362 362 362 362 362 364 363 362 363 338 317 316 316 324 363
318 320 321 323 325 330 333 340 348 352 354 356 356 350 349 353 353 354 358 356 356 355 356 358 362 365 368 368 366 368 370 370 371 370 371 372 371 369 369 368 367 367 367 364 362 361 360 357 359 359 361 360 361 361 363 363 364 348 314 315 315 318 334
317 319 322 324 325 327 329 334 344 353 354 357 353 352 353 356 357 360 360 356 354 357 358 361 364 365 368 367 366 367 369 369 371 371 370 372 371 370 368 368 368 367 366 363 363 364 363 362 360 357 359 360 360 363 362 362 354 367 317 315 313 316 320
314 316 318 320 321 324 326 332 341 350 358 352 352 352 352 352 358 359 359 356 360 359 362 362 363 366 368 368 366 368 368 370 371 370 370 370 370 369 367 367 367 367 369 367 366 364 362 364 362 360 358 360 361 362 364 369 366 344 337 315 313 313 315
314 314 316 318 319 321 325 331 342 352 357 360 355 353 353 356 361 360 358 360 365 362 363 364 366 368 367 367 366 367 368 369 369 370 371 370 370 369 368 367 367 367 367 367 364 363 363 363 364 362 359 357 358 359 361 367 369 345 332 327 312 313 313
313 313 314 316 317 320 323 329 337 350 357 358 357 355 358 359 359 362 360 363 368 369 364 365 366 366 366 365 365 366 368 368 370 369 370 369 368 368 366 366 366 365 367 368 365 364 363 363 363 363 360 359 359 359 360 364 368 371 343 324 315 313 312
313 313 314 316 317 319 322 328 339 353 355 359 358 356 363 360 359 362 363 365 367 368 369 367 368 367 367 367 367 367 368 367 367 368 368 369 369 369 368 367 365 364 365 365 364 364 363 362 361 360 362 360 361 360 361 366 366 369 365 335 324 319 314
312 313 313 315 317 321 321 325 337 352 357 358 358 355 355 360 363 366 368 368 366 366 370 369 368 366 368 367 366 368 368 368 366 366 367 369 368 368 367 366 365 365 364 364 363 363 361 362 361 360 359 359 361 362 364 364 365 366 368 360 349 343 333
312 313 314 316 320 320 321 324 334 350 356 358 358 364 359 361 363 366 367 368 366 365 368 368 367 366 368 366 366 365 366 366 367 366 365 366 365 365 365 365 365 363 363 363 362 361 361 360 359 359 360 359 361 362 363 362 365 366 368 367 359 355 349
312 313 314 316 319 320 319 323 331 349 354 356 358 365 367 367 366 368 368 368 368 370 369 368 367 368 368 365 365 363 367 366 366 365 365 365 366 368 376 375 365 364 364 366 366 365 364 362 361 362 363 363 363 365 363 365 364 368 347 376 342 358 359
312 312 314 316 320 320 321 324 329 345 354 356 359 361 362 365 368 369 365 366 365 369 369 369 367 368 367 366 365 364 364 364 363 365 364 364 362 352 335 309 298 312 360 364 327 312 308 331 369 373 366 368 368 367 368 367 374 324 331 325 325 325 329
312 312 313 315 318 318 319 321 327 346 352 355 358 360 359 359 363 366 363 366 367 368 369 369 365 364 365 365 363 361 364 362 364 366 367 366 365 359 353 350 339 301 296 306 311 303 297 295 297 306 320 366 367 337 306 313 310 310 312 313 317 318 318
314 313 314 315 317 319 318 320 324 342 347 350 351 356 358 358 360 363 363 366 366 367 368 367 364 362 362 363 363 368 368 365 366 366 366 366 367 364 361 360 355 346 306 297 300 299 296 295 296 296 301 324 346 348 347 313 303 304 305 306 307 309 310

ECMWFFLT1_sfc_thetae_054.txt.gz
Theta_e
337 341 342 344 344 344 344 345 350 350 353 353 353 350 348 349 352 353 354 356 357 357 357 356 357 358 355 353 354 355 354 352 352 350 350 350 349 351 355 353 353 355 352 354 356 357 361 363 363 362 365 367 367 369 372 373 373 369 373 373 371 370 369
339 339 338 337 339 342 347 349 352 351 350 350 350 352 351 350 352 353 355 358 359 358 358 356 358 358 355 353 353 355 354 353 352 352 350 351 352 353 356 358 356 357 358 355 359 359 363 361 364 363 364 366 365 369 368 371 372 371 369 372 370 372 370
337 338 338 339 342 344 346 348 351 350 350 351 351 350 349 351 353 355 356 358 360 360 359 357 358 359 356 356 353 354 354 354 353 351 349 348 349 346 351 357 359 359 356 356 361 359 359 360 362 365 363 362 361 367 368 369 371 371 371 372 369 367 370
337 338 339 339 342 345 345 348 349 347 346 347 347 349 352 354 356 356 357 358 359 360 360 358 358 357 357 356 354 355 355 355 354 351 347 346 348 346 348 352 358 357 357 353 352 356 354 357 360 363 366 364 365 365 365 365 366 370 370 370 368 367 370
339 338 337 340 341 342 347 349 348 351 352 353 354 355 354 354 355 354 356 357 359 360 361 360 357 358 358 357 353 355 354 353 354 352 350 348 350 349 347 346 353 354 355 355 354 356 362 360 359 360 363 365 365 367 366 367 366 369 369 369 367 366 366
338 334 341 341 342 346 347 347 349 348 348 349 350 352 353 354 354 353 354 356 360 362 363 362 360 361 359 356 356 356 358 355 355 356 353 352 354 350 349 351 351 353 352 356 356 355 358 362 358 359 360 361 361 361 362 363 362 364 368 368 366 364 361
329 334 339 340 342 342 342 344 343 348 352 351 352 353 354 353 352 352 353 355 359 360 361 361 360 360 360 360 359 359 359 357 357 355 356 353 355 355 354 354 355 355 355 357 357 357 355 359 360 361 361 359 360 359 360 362 361 363 365 366 366 366 367
331 331 342 340 340 341 340 340 343 347 350 350 349 351 355 353 353 355 354 355 358 360 361 361 360 361 361 361 358 357 359 358 357 358 357 354 353 355 356 356 356 358 359 356 358 359 356 357 359 362 362 361 361 361 361 363 365 362 363 364 365 364 362
329 336 336 340 341 340 341 343 344 347 349 349 348 353 351 351 350 350 351 357 357 360 360 361 361 361 363 361 360 360 360 359 359 358 356 353 352 351 352 356 357 358 359 356 355 360 359 358 357 361 364 362 362 362 361 363 363 363 362 363 364 363 362
328 333 336 346 342 340 346 348 349 349 348 347 348 351 351 351 349 349 353 357 358 359 361 362 361 362 362 361 359 358 361 361 361 357 355 355 353 351 352 355 355 358 358 358 356 357 360 361 359 362 364 363 363 363 360 363 361 361 361 362 363 363 363
326 330 332 332 333 342 345 346 345 347 347 348 347 349 351 352 351 351 353 354 354 358 362 362 362 362 362 361 359 357 359 358 358 357 356 355 354 354 353 355 356 357 356 357 356 357 359 361 362 363 364 362 363 364 360 362 361 360 359 360 362 362 362
328 332 328 331 336 343 344 343 344 345 347 349 347 346 351 352 351 349 350 351 355 358 361 362 363 362 361 361 359 357 359 358 358 358 357 356 355 355 355 355 357 358 358 358 357 358 358 360 361 362 363 363 363 365 363 362 362 362 360 358 359 361 361
332 340 330 330 335 340 343 345 344 347 351 349 347 346 347 351 353 352 352 352 353 356 360 362 362 362 360 361 358 358 358 359 356 359 359 358 357 356 356 356 357 357 357 358 359 357 356 358 361 362 364 365 365 364 364 362 362 363 363 361 360 360 361
342 324 332 335 336 340 345 345 346 350 349 348 347 348 350 353 354 353 354 354 356 357 360 362 361 361 362 361 359 359 358 358 359 361 361 359 358 358 357 357 356 358 360 361 359 357 355 356 359 363 363 365 365 365 366 365 362 364 365 364 362 361 361
336 338 327 329 347 356 344 346 347 349 349 349 348 348 349 350 351 355 357 357 358 358 359 362 362 360 360 361 360 360 359 361 361 361 362 360 360 359 357 358 358 359 360 362 360 359 358 356 358 360 360 362 364 365 365 364 363 363 364 364 363 362 359
332 334 335 338 342 344 349 353 352 353 351 350 348 350 349 352 355 356 356 357 357 359 360 362 361 361 360 360 360 361 361 362 362 361 362 362 361 360 359 359 360 359 360 362 361 361 361 358 359 360 360 360 364 366 364 363 363 358 347 352 363 362 357
332 332 333 336 338 340 347 350 349 349 357 356 353 352 351 355 356 356 355 355 356 359 359 360 361 360 360 360 361 361 362 363 362 362 361 362 362 361 361 360 360 360 361 362 362 361 363 361 358 358 360 360 361 363 363 362 361 347 338 340 348 361 361
330 331 333 334 337 339 341 344 348 352 347 346 350 354 355 360 356 354 353 355 356 357 358 358 360 358 360 361 362 364 363 362 363 362 361 363 363 362 362 361 361 361 361 361 360 361 362 361 359 359 360 361 362 363 363 363 351 336 335 337 338 349 364
328 330 332 334 335 337 339 340 343 347 350 350 351 351 350 352 351 352 355 356 357 358 357 357 357 359 361 361 363 364 364 364 363 362 362 363 363 364 362 362 362 361 360 360 361 362 361 360 360 359 359 360 361 359 362 362 345 332 333 335 336 337 354
327 329 331 332 333 334 337 338 341 344 347 352 356 353 351 351 351 354 355 355 359 359 358 358 358 359 361 362 364 365 365 364 364 362 363 363 364 364 363 362 361 361 361 359 360 362 361 361 360 360 360 359 361 361 361 362 343 328 330 332 333 335 342
324 326 328 329 331 332 334 336 338 341 344 348 354 355 355 348 346 352 355 354 353 357 362 361 361 361 361 363 365 367 366 365 365 364 364 364 365 365 363 362 362 362 360 357 357 360 362 360 359 360 360 359 360 363 359 360 335 326 326 328 329 333 339
323 324 325 327 329 331 332 334 336 338 341 347 350 352 352 353 348 347 349 352 352 355 358 362 364 364 361 364 365 367 367 366 365 366 365 365 365 364 364 363 362 362 361 358 356 358 364 364 361 361 361 360 358 357 358 358 328 325 325 326 327 331 349
322 323 324 327 328 329 332 334 335 337 341 342 345 350 352 352 350 344 344 350 350 352 355 359 364 362 362 363 365 366 367 366 366 366 366 366 365 364 364 363 363 363 363 359 357 357 358 361 360 363 361 361 361 359 359 360 331 323 323 324 325 331 355
321 322 323 325 328 329 331 332 334 336 338 341 345 349 353 355 349 347 348 349 348 349 353 351 359 363 363 362 364 366 367 367 367 367 367 367 365 365 364 365 364 363 364 361 358 356 357 361 363 363 363 361 361 360 361 361 340 318 321 322 322 336 357
320 321 322 323 324 326 327 329 332 335 338 340 342 348 355 356 357 345 348 351 349 349 348 351 358 362 362 362 363 366 368 368 367 367 368 367 366 365 365 364 364 363 364 361 359 359 361 363 362 362 363 361 361 357 360 360 346 315 321 318 319 335 359
317 319 321 322 323 324 326 330 331 331 333 336 340 345 351 356 356 355 349 350 351 348 348 352 356 361 364 363 364 367 369 368 369 369 368 369 368 368 369 368 365 363 361 361 360 359 359 361 361 362 362 361 362 363 362 359 361 329 318 316 317 324 359
317 319 319 320 321 324 324 326 327 329 332 335 340 343 349 356 358 355 356 353 351 349 350 356 359 362 365 365 363 365 369 369 369 369 370 370 369 368 368 367 366 365 363 361 361 360 358 358 359 360 362 361 362 361 362 362 362 340 314 315 316 319 335
316 317 319 320 321 321 321 322 325 327 330 334 337 342 346 353 357 358 358 355 353 354 355 358 361 363 366 366 364 364 367 368 370 370 370 371 371 369 368 369 369 368 365 362 362 361 359 358 358 359 361 362 362 362 362 361 352 350 316 315 314 317 323
314 315 315 317 318 319 320 320 322 325 328 331 335 340 345 350 356 355 361 357 356 356 359 362 363 365 367 367 365 366 368 369 370 369 370 370 371 369 367 368 368 368 367 365 364 363 360 359 359 358 359 361 362 362 364 365 361 338 331 314 313 314 318
314 314 315 317 317 318 319 319 321 323 326 329 334 340 347 354 359 358 362 361 361 359 362 365 365 367 368 366 366 367 368 369 369 371 370 370 370 369 368 368 368 369 368 367 365 362 360 360 360 359 357 357 358 359 360 364 369 338 327 324 312 314 316
312 313 314 314 315 317 318 318 320 322 325 329 334 339 347 359 363 364 365 365 365 363 365 365 365 366 367 366 366 367 368 369 370 370 369 370 370 368 367 368 368 367 369 368 366 364 361 361 360 358 357 356 356 357 358 363 370 357 333 321 315 314 314
312 313 313 314 315 316 318 319 320 321 324 327 332 336 346 362 365 364 367 370 367 366 370 367 367 365 367 367 367 368 369 369 368 369 369 369 369 369 369 368 367 366 368 366 364 364 362 361 359 359 358 356 356 357 359 364 366 365 347 328 322 318 315
312 312 313 314 315 318 316 317 318 320 323 325 330 334 344 361 369 372 372 370 368 367 372 369 368 364 367 367 367 369 369 368 366 367 368 369 368 370 370 368 367 367 366 365 363 363 362 361 359 359 357 357 357 358 360 361 363 366 356 342 335 332 329
313 313 314 315 316 316 315 316 317 320 322 324 328 334 344 359 370 376 374 371 368 368 372 368 366 365 367 367 367 367 368 367 365 364 365 367 366 365 364 366 366 364 365 363 362 361 360 360 359 359 358 358 358 359 360 360 361 363 366 350 343 341 338
314 314 315 316 316 316 314 316 318 319 322 324 328 336 350 361 367 375 372 371 369 368 371 367 363 365 366 365 364 363 363 365 365 365 365 366 365 364 371 367 365 363 364 365 366 364 362 361 361 361 362 362 360 359 359 360 359 363 346 356 334 344 346
314 314 316 317 317 316 315 316 317 320 322 324 329 343 357 360 358 356 361 366 368 368 370 369 366 365 365 364 362 362 362 363 363 363 362 362 361 348 330 310 300 315 366 363 333 324 328 340 363 365 364 362 364 369 362 363 364 343 329 322 321 322 325
314 314 315 317 316 314 314 316 319 320 321 324 333 346 352 354 356 359 360 357 351 351 358 364 365 364 364 363 362 360 362 362 363 363 364 364 361 351 345 343 335 302 296 309 314 306 301 304 312 326 337 362 369 337 311 322 329 321 316 313 316 317 317
315 315 316 317 316 314 314 315 317 319 320 325 337 344 347 351 350 348 350 353 353 349 343 340 345 357 361 361 362 359 360 363 363 363 364 365 363 357 354 353 348 339 307 298 301 300 298 297 298 299 311 329 342 348 350 321 312 309 309 312 313 314 313

ECMWFFLT1_sfc_thetae_057.txt.gz
Theta_e
338 338 339 340 340 340 340 340 340 340 342 344 345 346 346 347 348 348 348 347 346 346 347 350 350 348 346 346 348 347 346 348 346 345 346 345 345 341 343 343 346 345 350 350 352 353 354 355 353 357 359 359 358 362 363 362 364 365 362 363 362 364 362
336 337 338 339 340 340 341 341 341 341 341 344 345 346 346 346 348 348 348 348 347 346 347 348 351 349 347 346 348 348 346 346 347 347 345 345 347 343 343 343 343 346 347 351 350 352 354 355 354 354 358 359 358 360 363 362 362 361 361 362 359 358 359
335 337 338 339 339 340 340 340 342 342 342 343 346 346 346 346 347 348 348 349 347 347 347 346 350 350 348 346 346 347 347 346 346 345 343 343 344 346 344 345 343 345 347 349 351 351 355 354 355 354 357 357 358 359 361 362 362 362 361 361 360 360 358
335 336 338 339 340 341 341 341 342 343 344 345 346 347 346 346 347 348 349 350 348 348 347 346 347 349 348 346 346 346 346 345 345 344 343 342 343 344 347 347 345 346 347 348 352 352 352 353 354 355 362 357 357 358 360 362 362 362 362 362 359 360 360
335 337 337 337 339 340 341 342 343 344 345 346 348 348 347 347 348 349 349 350 350 349 349 347 347 348 349 348 346 347 346 345 344 343 343 342 343 341 345 348 348 347 348 349 350 353 350 351 352 355 356 357 356 357 359 360 361 363 362 362 359 359 360
334 334 336 338 340 341 342 344 345 345 346 346 347 348 347 347 348 348 349 351 351 351 351 350 347 348 348 348 347 346 346 346 345 344 342 341 341 340 340 345 349 349 350 349 349 349 351 349 351 352 355 356 356 358 358 359 360 362 362 361 359 358 359
333 334 336 339 340 342 343 344 346 346 347 347 348 349 349 348 347 348 349 351 352 351 351 350 349 348 348 349 347 346 345 345 345 343 343 341 341 340 339 340 345 349 350 351 348 347 346 352 350 351 354 355 356 357 358 357 358 361 361 361 359 357 357
334 335 337 338 339 341 343 344 346 346 347 347 347 348 348 348 348 348 349 350 353 353 353 352 350 349 349 350 348 345 345 345 345 345 343 341 340 340 339 339 340 344 348 349 350 348 346 347 353 352 353 354 355 356 357 358 357 358 360 359 358 358 359
336 337 337 337 338 340 342 344 346 346 346 345 346 346 348 348 348 347 348 351 353 354 354 354 353 352 351 350 349 347 345 345 345 345 344 342 340 340 340 340 340 342 345 347 349 350 348 346 350 353 352 353 354 355 355 356 357 357 357 358 358 357 358
335 336 337 337 339 341 341 343 346 346 345 344 345 345 347 348 348 348 349 350 353 354 355 355 355 354 352 352 351 349 347 345 345 345 344 343 342 341 341 341 341 343 345 347 348 350 351 349 348 353 353 352 353 354 354 355 356 356 356 357 358 357 357
335 336 336 337 338 339 341 343 344 344 345 346 347 348 348 348 348 348 349 350 352 354 357 357 358 356 355 354 352 351 348 347 346 344 344 343 343 342 343 343 343 344 345 348 348 349 351 351 350 351 354 354 353 354 354 355 356 356 356 356 358 357 357
330 335 335 336 337 339 340 342 343 344 345 346 347 348 349 349 349 349 350 350 351 354 357 358 359 358 357 356 354 352 350 349 348 346 344 344 344 343 344 345 346 346 347 349 349 350 351 352 351 351 354 355 355 355 355 355 356 356 355 356 357 357 357
332 331 335 336 337 339 340 340 340 342 345 346 347 349 350 349 349 349 349 349 350 352 356 358 359 359 358 357 355 354 352 351 350 349 347 346 345 346 346 345 347 348 349 350 351 350 351 352 352 352 353 355 356 356 356 355 355 355 355 355 355 356 356
336 333 335 337 339 338 337 338 340 342 344 345 346 348 349 350 349 349 349 348 350 351 353 356 358 358 358 357 356 354 353 353 352 351 350 348 348 347 347 347 347 349 350 351 350 351 351 352 353 353 354 355 356 357 358 356 355 355 354 354 354 354 355
329 331 332 333 335 340 344 338 341 343 344 345 345 346 348 348 349 349 349 349 350 351 352 355 356 358 358 357 356 355 355 354 354 353 352 351 349 349 348 348 347 349 351 352 351 352 352 353 354 354 354 355 356 356 358 357 355 356 355 354 353 353 354
326 327 328 330 331 334 337 342 346 346 345 344 344 345 346 347 348 349 348 349 350 351 352 354 355 357 357 357 357 357 356 355 355 354 354 352 350 350 350 349 349 350 352 352 352 352 353 353 354 354 354 354 355 356 358 358 357 352 343 347 354 353 354
323 324 326 328 328 330 332 334 338 342 346 345 345 347 347 347 348 349 349 349 350 351 352 353 354 356 357 357 358 358 357 355 354 354 353 353 352 351 350 350 351 351 352 353 353 353 353 353 353 354 355 355 355 355 356 358 358 343 335 338 344 354 355
320 321 323 325 327 328 330 331 332 336 340 345 347 348 346 345 351 349 348 350 350 351 352 352 354 355 356 357 358 358 357 355 355 354 353 354 353 352 351 351 351 351 352 353 354 354 354 353 352 354 354 355 355 356 357 357 349 336 334 335 336 345 356
317 319 321 323 325 327 327 330 332 333 337 340 347 346 345 347 350 349 347 347 350 349 350 352 352 355 357 358 358 358 357 356 355 354 354 354 354 353 352 351 351 351 351 353 355 354 354 353 352 353 354 355 354 355 357 357 344 333 332 333 334 336 350
317 317 319 320 323 324 326 328 332 332 333 335 337 342 355 351 350 346 348 351 351 352 352 350 347 346 353 358 357 358 357 356 355 355 355 355 355 354 352 351 351 352 352 353 355 354 354 354 353 353 354 355 354 355 358 358 345 331 329 329 330 333 340
315 316 317 318 320 321 324 325 326 331 333 335 337 339 342 347 347 347 354 353 350 349 350 350 349 347 346 354 357 358 357 356 355 355 355 355 355 354 353 352 351 352 352 353 354 354 353 353 353 353 354 355 356 355 357 360 340 329 326 326 327 330 336
314 315 316 317 318 319 321 322 324 325 328 336 337 340 342 343 346 353 350 352 351 348 347 348 348 347 348 353 357 357 357 357 355 355 355 355 355 354 353 352 351 351 352 353 353 355 355 354 354 353 353 354 356 356 355 359 334 327 325 325 326 329 344
313 314 316 317 318 319 321 321 323 325 328 330 333 334 339 345 346 345 350 348 348 347 347 348 348 348 349 354 357 358 358 357 356 355 355 355 354 354 354 353 352 352 354 352 352 353 354 354 354 354 354 353 354 356 356 357 337 326 324 323 324 329 348
314 314 315 317 318 320 319 320 322 324 326 327 329 332 334 338 341 340 343 349 347 347 347 347 348 349 351 354 357 358 358 358 357 356 356 355 354 354 355 355 354 353 354 353 351 351 353 354 354 354 354 353 353 353 354 356 339 322 322 322 322 332 349
313 313 314 316 316 316 317 319 321 322 324 325 326 329 331 335 339 339 340 346 350 346 345 347 348 350 351 355 357 358 359 358 357 356 356 355 355 355 355 355 355 354 355 354 353 352 353 355 354 354 354 354 354 352 352 354 342 318 322 320 320 331 350
313 312 312 314 316 317 318 320 319 319 319 321 323 327 329 331 334 336 340 343 347 350 348 346 349 351 354 356 358 359 359 359 358 357 357 356 356 356 356 357 356 355 354 354 354 352 352 354 354 354 354 355 355 355 354 353 353 330 318 318 318 322 348
315 312 312 312 314 319 316 316 317 317 319 321 323 325 327 329 331 334 337 341 343 346 350 350 348 349 353 357 358 359 360 360 359 358 358 358 358 358 358 358 357 356 355 354 354 353 351 352 354 354 355 356 356 356 356 355 354 338 315 315 316 317 330
315 314 313 314 316 316 315 316 317 317 318 320 322 324 325 327 329 332 335 338 341 346 351 354 349 348 350 357 358 359 360 360 360 360 360 360 360 358 357 358 359 357 356 355 354 352 351 352 353 354 355 356 357 357 357 355 347 351 316 314 313 315 318
315 314 312 311 311 314 316 315 315 316 317 319 321 323 324 325 327 329 333 335 340 347 353 356 354 348 349 355 357 358 360 361 360 360 361 361 361 359 358 359 359 358 357 355 353 352 351 352 354 354 355 356 356 357 357 358 354 339 334 314 312 312 314
315 314 313 313 313 313 316 315 315 315 317 318 320 322 323 324 325 328 330 333 339 345 353 359 357 350 348 353 356 357 359 361 361 362 362 362 362 361 359 359 359 359 358 356 354 352 351 351 353 353 354 354 355 357 357 357 358 337 329 325 312 312 313
313 314 313 312 312 315 316 315 314 315 316 318 319 321 323 324 325 327 328 333 339 344 353 360 357 350 348 351 356 357 359 361 362 362 362 363 363 361 360 360 360 359 358 357 354 353 352 351 351 351 352 353 354 355 356 357 358 354 334 323 316 313 312
314 315 315 314 313 314 316 316 315 315 315 317 319 320 323 324 325 325 328 333 338 346 356 362 358 351 351 352 354 357 359 361 362 362 363 363 364 363 362 361 361 360 359 358 356 355 353 352 351 350 350 352 354 354 355 356 357 356 347 330 323 317 314
313 314 313 313 313 317 316 316 314 314 315 315 318 320 322 323 325 327 330 334 342 353 359 361 358 353 352 355 356 357 359 360 361 362 363 363 364 364 363 363 362 361 359 359 358 356 354 353 351 350 349 350 352 354 355 355 355 356 351 342 335 330 327
313 313 314 314 314 317 316 315 314 314 315 316 318 320 321 323 324 327 330 339 354 354 353 356 356 354 354 356 357 357 359 360 359 360 362 362 363 363 363 363 363 361 360 360 359 357 355 354 352 350 350 349 350 351 352 352 353 356 352 343 339 337 334
312 313 314 313 314 317 315 314 314 315 316 317 319 320 322 323 326 331 338 350 352 350 349 355 354 354 356 357 358 357 358 360 360 362 362 362 362 363 364 363 362 361 362 364 364 361 358 356 355 354 353 352 350 349 349 350 351 356 337 345 330 337 338
311 313 314 314 315 316 314 314 315 315 316 318 320 321 323 326 333 339 348 350 350 350 347 350 356 355 356 358 358 358 358 360 361 362 361 362 361 361 353 327 315 335 361 363 351 341 337 335 355 357 356 353 353 352 350 350 354 335 324 320 317 317 320
311 312 313 314 315 314 313 313 315 316 317 318 321 324 327 330 333 339 347 350 351 349 347 347 347 353 355 357 358 356 358 359 360 361 361 362 361 361 353 344 329 303 298 307 334 332 322 320 325 330 335 351 354 348 333 336 328 313 316 313 312 312 313
312 313 314 315 314 314 313 313 314 314 316 319 323 324 325 328 333 337 342 349 350 351 347 346 345 344 346 350 347 341 341 346 346 347 350 358 361 358 351 346 342 335 310 299 302 315 320 319 320 319 320 327 338 344 341 326 317 309 311 312 311 311 310

ECMWFFLT1_sfc_thetae_063.txt.gz
Theta_e
334 335 335 336 336 336 337 338 338 338 338 338 338 336 335 336 337 340 341 342 342 342 344 344 345 345 344 344 344 344 343 342 342 340 339 338 340 342 343 345 347 348 349 349 350 351 351 353 353 354 355 356 356 356 356 357 356 357 354 355 353 354 353
334 335 335 336 336 336 337 338 338 339 339 339 339 338 336 336 337 339 341 342 342 342 344 344 346 345 345 345 345 344 342 342 343 344 341 339 341 340 341 343 346 347 348 349 350 351 351 352 353 353 354 356 356 356 356 356 356 355 354 353 352 351 352
334 335 335 336 336 336 337 337 338 339 339 339 339 339 336 336 337 338 340 341 341 342 344 345 346 345 345 345 344 343 343 342 342 342 340 339 338 339 340 340 344 346 347 349 349 350 351 350 352 352 353 354 355 355 355 355 355 355 353 352 353 353 351
334 335 336 337 337 338 338 338 338 338 339 340 340 340 338 337 338 338 341 342 341 342 342 344 346 346 345 344 344 344 342 342 342 342 342 341 338 338 340 338 340 343 345 347 349 350 352 350 350 351 357 353 354 354 355 356 355 355 354 352 352 352 352
334 336 336 336 336 337 337 337 337 338 338 340 340 342 340 338 338 338 339 342 342 342 343 344 346 346 346 345 345 345 343 341 341 342 343 342 340 338 339 339 339 340 344 346 348 350 349 349 349 350 351 352 352 353 353 355 355 355 355 353 352 351 350
333 334 335 336 337 337 338 338 338 338 338 339 340 341 341 340 339 338 339 341 342 343 344 344 345 347 345 345 345 345 344 342 341 342 342 342 340 338 337 339 340 340 340 344 348 348 349 349 349 349 349 351 352 352 352 353 355 355 355 354 353 353 352
330 334 335 336 337 337 338 338 338 338 339 340 341 342 342 341 340 339 339 339 342 342 342 343 345 346 346 345 344 344 343 342 341 340 342 342 341 338 337 338 341 340 341 343 345 347 347 348 349 349 349 349 351 352 351 351 352 355 355 353 353 352 352
327 333 335 336 337 338 338 338 338 338 339 340 340 341 341 342 342 341 340 340 341 342 342 343 344 345 345 345 344 343 343 343 341 341 341 342 342 340 338 337 339 339 340 340 343 346 347 347 349 349 349 348 349 350 351 351 351 353 355 354 353 353 354
323 329 334 335 336 337 338 338 338 338 338 338 339 340 341 342 342 342 341 341 341 341 341 343 344 345 346 345 344 343 344 343 342 340 340 340 341 341 340 338 338 339 338 339 341 345 347 347 347 348 348 348 348 349 350 350 351 352 353 354 353 353 353
319 322 326 331 335 338 339 338 338 338 337 338 339 339 340 342 342 343 343 342 342 341 342 343 344 345 346 345 344 344 343 343 343 341 340 339 340 341 341 341 339 340 338 338 339 341 345 346 346 346 346 347 347 348 349 349 350 351 352 353 353 353 353
317 318 320 322 325 329 333 336 338 337 337 337 338 340 341 341 342 343 343 344 343 343 343 343 344 344 345 346 345 344 343 342 343 341 340 339 340 340 341 341 341 340 339 338 337 338 340 344 345 344 343 344 345 346 347 349 350 350 351 353 354 354 353
315 316 316 317 318 321 324 326 328 332 336 337 338 339 340 341 342 343 344 345 345 344 344 344 345 344 345 345 345 344 343 342 342 342 341 340 340 339 340 340 341 341 341 341 338 338 338 338 341 344 343 343 343 344 346 348 349 350 351 352 353 354 354
314 314 315 315 316 317 319 320 322 325 328 332 338 338 340 341 342 343 344 344 346 346 346 345 345 345 344 345 345 345 344 343 342 342 342 342 341 340 340 339 339 339 339 341 341 339 338 338 338 341 342 343 344 344 344 345 348 350 350 351 352 353 353
317 313 314 314 315 315 316 317 319 321 323 328 331 334 339 341 343 343 345 344 345 347 347 347 346 344 344 344 344 344 344 344 343 343 342 342 342 341 340 339 339 338 338 339 339 341 341 340 340 340 341 341 343 344 345 345 346 348 350 351 351 351 352
311 311 312 313 313 314 315 316 317 319 321 323 326 329 331 335 341 343 344 344 345 347 347 348 346 345 344 344 343 344 345 345 345 344 343 343 342 341 340 340 339 338 338 337 337 339 340 341 342 341 341 341 341 342 345 346 346 347 348 349 350 351 351
310 310 310 311 313 314 314 316 317 318 320 321 322 324 328 331 335 340 343 344 345 346 347 348 347 346 345 344 343 344 344 345 345 344 343 342 341 341 341 340 339 338 337 336 336 335 336 336 339 340 341 342 342 341 342 344 346 346 338 341 350 350 351
309 309 310 311 312 313 314 315 316 317 318 320 321 322 324 328 332 336 340 344 345 345 347 348 347 346 346 345 345 345 344 344 344 344 343 342 342 341 341 341 340 339 338 337 336 335 335 336 334 335 337 339 341 342 343 343 344 337 332 333 337 348 350
309 309 309 310 312 313 313 314 315 316 317 319 320 321 323 325 328 330 332 335 343 345 347 348 347 347 347 347 347 346 345 344 344 344 343 343 342 341 341 341 340 339 339 337 336 336 336 335 335 335 335 336 338 339 341 343 339 331 330 331 331 338 351
309 310 310 310 311 313 313 313 315 315 317 319 320 321 323 325 325 326 328 332 336 343 347 347 348 348 347 348 348 347 347 346 345 344 344 343 343 342 342 341 340 339 339 338 338 337 336 335 335 335 336 336 336 337 340 341 335 330 328 329 330 330 341
311 311 311 311 312 312 313 314 316 316 318 319 321 322 323 325 325 325 328 331 333 337 345 347 348 348 348 349 349 349 348 348 347 346 346 346 345 344 342 341 340 340 340 340 339 338 337 337 336 336 336 337 337 338 339 341 335 328 327 327 327 329 333
313 312 312 312 311 311 311 313 315 316 318 320 322 322 322 322 323 324 326 328 330 333 338 345 346 348 350 350 350 350 350 349 349 348 348 347 347 346 344 343 342 341 341 340 339 338 337 337 337 337 338 338 339 339 339 342 333 327 324 324 324 327 330
313 314 313 313 313 312 311 312 313 315 317 323 321 321 323 322 322 323 324 328 330 332 335 338 344 346 347 350 352 352 352 352 351 350 350 349 349 348 346 345 344 343 343 342 341 341 340 339 339 339 339 340 340 340 340 342 330 326 324 323 322 325 336
312 314 316 315 316 315 314 314 314 315 319 319 319 319 321 322 324 323 323 326 328 330 331 333 337 342 345 348 349 352 354 354 353 352 352 351 350 349 349 348 347 346 346 344 343 341 341 340 340 341 341 341 342 341 342 343 335 325 322 321 321 325 338
310 312 315 316 318 316 316 315 315 316 317 317 317 320 320 321 323 323 322 325 327 327 329 330 332 337 342 346 347 348 350 353 355 354 354 353 352 351 351 351 350 349 349 346 345 343 343 342 342 342 343 342 343 344 343 343 338 324 321 320 320 328 339
308 310 312 315 317 317 316 316 317 316 316 315 316 318 320 320 321 321 322 324 325 326 327 328 330 333 335 338 341 346 349 349 351 353 355 354 354 353 352 352 351 351 351 349 348 347 346 346 344 344 344 344 345 344 344 345 340 324 321 319 318 327 341
306 307 309 311 315 318 319 319 316 315 315 314 315 318 320 320 320 320 321 323 324 324 325 327 329 331 333 334 336 340 344 349 350 350 352 354 355 355 354 354 353 352 351 350 350 348 348 347 346 345 345 346 347 347 346 346 347 340 320 318 316 320 342
306 307 308 309 311 317 318 317 316 315 315 316 316 317 318 319 318 318 320 322 322 324 326 327 329 330 331 333 335 336 340 345 348 349 350 352 354 356 356 355 353 353 352 351 350 349 348 347 347 346 346 347 348 348 348 349 348 345 320 316 315 316 326
305 306 308 310 312 314 314 315 316 316 316 316 317 317 316 317 317 319 319 320 321 323 326 327 328 330 331 332 333 335 337 341 347 350 351 351 353 354 355 355 355 354 353 352 351 349 348 348 347 347 347 347 348 349 349 349 342 350 324 317 314 314 316
303 304 305 306 308 311 312 312 313 314 315 316 317 316 316 315 315 317 319 319 321 324 325 327 328 330 331 332 334 335 338 341 346 350 352 351 352 352 353 355 354 354 353 352 350 349 348 348 347 347 346 347 348 349 350 350 349 334 341 318 314 313 313
303 304 305 306 308 310 312 311 312 313 315 317 317 317 316 315 315 316 318 319 322 323 325 327 329 331 332 334 335 337 339 342 347 352 355 353 352 352 352 353 354 354 353 352 351 349 348 348 347 347 346 346 346 348 349 350 351 337 329 331 314 314 312
302 303 304 305 307 310 311 309 310 311 314 316 316 317 315 315 314 316 317 320 322 323 324 327 330 333 335 335 336 339 342 346 351 355 357 356 353 352 352 353 353 352 352 352 351 350 348 348 347 346 346 346 346 347 348 350 350 351 336 325 319 314 313
302 303 303 305 306 307 308 309 309 310 311 314 317 317 317 315 314 314 317 320 322 322 324 327 330 333 336 339 341 342 346 349 350 351 353 355 355 354 354 353 353 352 352 351 351 350 349 348 347 346 346 346 346 346 348 349 349 350 349 333 327 320 314
301 302 302 303 304 307 306 308 308 309 310 311 315 316 316 315 315 316 318 320 321 321 324 327 329 332 333 335 339 345 348 347 347 348 351 353 355 355 355 354 354 353 351 351 351 350 349 348 347 347 346 346 346 347 347 348 348 349 350 346 340 336 329
300 301 302 303 304 307 306 307 307 308 310 311 314 316 316 315 314 316 318 320 321 321 323 325 327 329 330 332 335 340 345 347 347 347 348 351 353 353 353 354 354 353 352 351 351 350 349 349 348 347 347 346 346 346 347 346 348 349 349 349 345 341 337
300 301 301 302 303 306 305 306 308 308 310 312 314 315 315 314 314 317 319 320 321 321 321 323 326 329 329 330 333 338 344 346 346 347 348 350 352 354 354 353 353 353 353 354 355 354 352 351 350 350 350 349 348 346 345 346 346 348 334 348 332 341 342
300 300 301 302 304 304 305 307 308 308 310 312 315 315 314 314 314 317 320 321 321 321 321 323 325 327 328 330 333 337 342 345 346 346 347 349 351 352 352 347 336 343 354 353 343 336 333 333 349 352 352 350 350 350 348 347 349 333 324 322 320 320 323
299 300 300 302 302 303 304 305 309 310 311 313 315 315 314 313 314 317 319 320 320 320 321 323 324 327 328 330 332 335 341 344 344 345 345 348 350 351 351 350 344 320 320 327 335 328 320 317 322 326 332 347 350 345 331 331 327 324 316 316 315 313 314
300 300 302 303 303 304 305 307 309 311 313 314 315 313 312 313 315 318 319 319 319 321 322 323 325 326 327 329 332 335 340 344 344 343 343 346 350 351 351 350 348 345 320 312 319 322 316 314 314 315 317 322 332 342 347 327 316 316 311 312 311 311 310

ECMWFFLT1_sfc_thetae_066.txt.gz
Theta_e
333 332 333 334 335 336 337 338 339 338 337 337 337 336 336 337 338 340 341 343 344 343 344 345 345 346 346 346 346 346 345 344 343 341 340 340 343 346 348 349 349 350 351 352 352 353 354 357 356 357 358 359 359 359 360 360 360 360 359 360 359 359 358
332 333 333 334 334 336 337 339 339 339 338 338 337 337 336 337 338 339 340 342 343 343 344 344 346 345 346 346 346 346 345 344 344 345 342 341 343 345 348 349 349 349 351 352 353 354 355 355 356 356 356 358 359 359 359 359 360 360 359 358 358 357 357
325 332 334 334 334 335 336 338 339 340 339 338 338 337 336 337 338 339 340 342 342 344 344 344 346 345 346 346 345 345 345 344 344 343 341 340 340 342 346 348 349 350 350 352 353 354 355 354 355 356 356 357 358 358 359 359 359 359 359 358 358 357 356
320 322 331 335 336 336 337 338 339 340 340 339 339 338 337 337 338 339 340 342 342 343 343 344 345 345 345 345 345 345 345 345 344 343 343 341 340 341 343 345 347 349 349 350 352 353 354 354 354 355 359 356 357 358 358 359 359 359 359 358 357 357 357
319 322 327 334 335 336 336 337 338 339 339 340 340 340 338 338 338 338 340 342 342 342 343 344 345 346 346 346 345 345 345 344 344 344 344 343 342 341 341 341 343 346 348 350 351 353 354 353 353 354 355 356 356 357 358 358 358 359 359 358 357 356 356
317 318 321 330 335 336 336 337 338 339 339 339 339 339 339 338 338 337 339 341 342 343 344 344 345 346 345 346 346 345 345 345 345 345 344 344 342 340 340 341 341 343 345 348 351 351 352 352 352 352 353 354 355 356 356 357 357 358 359 358 358 357 356
316 317 318 321 334 336 336 337 338 339 340 340 341 341 341 338 337 337 338 340 342 342 342 343 344 345 346 346 346 346 344 344 344 343 344 344 343 341 340 341 342 341 343 347 348 350 350 351 351 352 353 354 355 355 355 356 356 358 359 358 357 357 357
316 316 317 318 322 332 339 337 338 339 340 340 340 340 340 339 338 337 338 339 341 342 342 342 344 345 346 346 346 345 345 345 344 344 344 343 343 343 341 339 341 342 343 342 345 349 349 350 351 352 352 352 353 354 355 355 355 356 357 357 357 356 355
315 316 317 317 319 321 324 334 342 338 338 339 339 340 340 340 338 338 338 338 340 341 341 343 344 345 346 346 346 345 346 345 344 343 343 342 342 342 342 340 340 342 342 341 342 346 348 349 350 351 351 351 352 353 354 354 354 355 356 356 356 356 356
313 314 315 317 319 319 321 323 325 329 336 342 339 339 340 340 340 339 338 338 339 340 342 342 344 345 346 346 345 346 345 345 345 343 342 341 342 342 342 342 340 341 341 341 342 343 347 348 349 350 350 350 350 351 352 353 353 354 354 355 356 356 356
313 314 314 315 316 318 320 320 321 323 326 330 336 341 340 341 341 341 340 339 339 340 342 343 344 344 345 345 345 345 345 344 344 343 342 341 341 341 342 342 341 340 340 340 341 342 344 348 349 349 349 349 349 350 350 351 353 353 353 354 355 356 356
312 313 313 314 314 316 317 318 320 322 322 324 326 331 338 342 341 342 344 342 341 340 341 342 344 344 344 345 345 345 344 344 344 343 343 342 341 341 342 342 342 341 341 340 340 340 342 345 347 348 347 349 350 350 350 351 352 352 353 353 354 355 356
312 312 312 313 314 315 316 317 318 320 321 322 323 326 330 333 338 342 343 342 342 341 341 342 343 344 344 344 344 344 344 344 344 344 343 343 342 342 342 342 342 342 341 341 340 339 339 341 344 347 347 347 349 349 350 350 351 352 352 353 353 354 355
314 312 312 312 312 312 313 315 317 318 320 321 322 324 325 328 331 334 341 343 343 343 342 342 343 343 343 344 344 344 344 345 345 345 345 344 344 343 342 342 342 342 343 343 341 340 339 339 340 343 346 347 347 347 349 349 349 351 352 352 353 353 353
309 310 310 311 311 312 312 313 315 316 318 320 321 322 323 325 326 328 331 334 340 345 344 344 343 343 342 343 344 344 345 346 346 346 345 346 345 344 342 342 342 342 342 343 343 343 341 341 340 340 341 344 345 346 347 346 346 347 349 351 352 353 352
309 309 310 310 311 311 313 313 314 315 317 318 320 320 321 323 324 325 326 328 332 336 346 346 344 343 343 342 343 345 346 347 347 346 345 345 344 344 344 343 342 341 341 341 341 342 343 343 342 341 340 340 342 343 344 345 346 344 337 340 350 351 351
309 309 310 311 311 311 312 313 314 314 315 317 318 319 320 321 323 324 325 327 328 331 333 341 346 344 344 343 344 345 346 347 346 347 345 345 345 345 344 344 343 342 341 341 340 340 341 342 341 342 342 341 341 341 342 343 344 337 331 331 335 347 351
309 310 310 310 312 312 312 312 313 314 315 316 318 319 318 320 322 322 323 325 327 329 333 337 343 346 345 345 345 346 346 346 347 346 346 346 345 345 345 344 344 343 342 340 339 340 340 339 339 340 341 342 342 342 342 343 337 330 329 330 330 336 350
307 309 310 310 311 312 312 312 313 313 314 316 318 318 318 320 320 321 322 325 327 330 333 334 338 345 347 346 346 346 346 346 346 346 346 346 346 345 345 344 343 343 342 340 341 340 339 338 338 338 338 339 339 340 342 343 335 328 327 328 328 329 339
306 307 309 310 311 312 313 314 314 315 315 316 318 318 319 320 320 320 323 325 327 330 331 332 334 340 347 348 347 347 347 346 346 346 346 347 346 346 345 344 343 343 343 342 342 341 339 338 338 338 338 337 337 338 339 339 333 327 325 325 326 327 331
306 306 307 308 308 311 313 314 315 315 315 316 318 318 319 318 319 320 321 323 325 328 329 330 332 336 345 349 348 348 348 347 346 346 346 346 346 346 345 344 344 343 343 343 342 341 340 339 338 338 338 337 337 337 337 337 329 323 322 322 322 325 329
305 306 306 308 308 309 310 313 315 315 316 320 318 318 318 318 319 319 319 322 325 328 328 329 331 333 337 344 352 349 349 348 347 346 346 346 346 345 344 344 344 343 344 344 343 343 343 342 341 339 339 339 338 337 337 338 326 322 321 320 321 323 336
305 306 308 309 309 310 311 312 315 317 319 318 317 317 318 319 320 319 319 320 323 326 328 328 330 331 333 336 337 344 352 350 348 348 347 347 346 345 345 344 344 344 345 343 343 342 342 341 341 342 341 340 340 338 338 338 331 321 319 318 319 323 338
305 306 307 309 310 310 310 311 314 317 317 317 316 318 318 319 319 318 318 320 321 322 325 327 327 330 331 331 333 336 338 344 352 350 349 349 347 347 346 346 346 346 346 344 343 342 342 342 342 342 343 341 340 340 339 339 334 321 317 317 317 326 339
304 305 306 308 308 308 308 310 313 314 316 315 315 317 318 319 319 317 318 319 320 321 322 324 326 327 328 329 332 334 335 338 343 351 352 350 350 349 348 348 348 348 348 346 346 345 345 345 343 343 343 342 342 340 341 341 336 321 318 316 315 325 340
303 304 305 306 307 308 310 312 311 311 312 312 314 317 318 319 318 318 318 318 319 320 321 323 325 327 327 329 331 333 335 337 340 343 350 355 353 352 351 352 351 351 350 349 348 347 347 347 346 344 344 344 344 343 343 342 343 340 318 316 314 318 341
304 305 304 305 306 311 308 308 309 309 310 312 314 314 317 318 317 317 317 318 317 318 321 324 325 325 328 328 330 332 334 336 337 339 344 349 355 356 355 354 353 353 352 351 350 350 349 348 348 347 346 346 346 345 345 345 344 343 320 314 313 314 325
303 304 305 307 308 308 306 306 308 309 309 311 312 313 315 317 316 317 317 316 316 319 321 323 324 326 326 327 329 332 335 337 338 339 341 346 351 354 356 357 357 355 354 353 352 351 350 350 349 348 348 349 348 348 347 346 338 347 326 316 312 312 316
302 302 302 303 304 305 306 305 306 306 307 309 311 312 313 314 316 316 317 316 317 319 321 322 323 324 325 327 331 334 337 340 342 342 343 345 349 351 352 356 357 356 356 355 353 352 351 351 351 350 349 349 350 350 350 350 348 331 341 319 312 311 312
302 302 302 303 304 304 307 305 306 306 307 307 309 311 312 314 315 316 316 316 319 319 321 322 323 323 323 325 330 335 338 340 342 342 343 345 349 352 352 352 354 356 356 355 354 353 351 351 351 350 349 348 349 350 351 351 351 337 327 333 314 312 311
301 301 302 302 302 305 306 305 305 305 305 307 308 311 312 314 315 316 316 317 319 319 320 321 322 322 322 324 328 332 336 339 342 344 346 348 351 352 354 353 352 352 355 355 354 353 352 352 351 350 350 349 349 350 351 351 352 352 338 324 321 313 311
301 302 302 302 302 303 305 305 305 304 304 306 308 310 313 313 314 314 316 318 319 319 320 321 322 322 322 324 327 330 333 335 340 346 348 350 353 354 356 355 354 352 353 354 353 353 352 352 351 350 350 350 350 350 351 352 352 352 352 335 327 320 314
300 301 301 301 302 306 304 304 303 304 304 304 307 309 310 312 314 316 318 318 318 318 319 321 322 323 322 323 325 328 331 332 335 342 347 349 349 350 351 353 355 354 352 352 352 353 352 352 351 350 350 349 350 351 351 352 351 351 352 351 345 340 331
300 300 301 302 302 304 303 303 302 303 304 304 306 308 310 311 313 315 317 318 318 318 319 320 321 321 321 322 325 327 330 331 335 338 343 347 348 348 349 351 354 353 352 352 352 352 351 352 351 350 350 350 350 351 351 351 351 351 351 352 349 345 342
300 300 301 301 302 304 302 303 304 304 304 305 306 307 309 310 313 315 317 318 318 318 318 319 321 321 321 322 324 326 329 331 333 337 341 344 346 348 350 351 352 354 355 356 356 355 354 353 353 353 353 353 352 351 350 350 350 351 334 350 333 342 346
300 300 301 302 303 302 302 304 304 304 305 305 307 308 309 311 313 316 317 317 317 318 318 319 319 319 320 322 323 326 328 331 333 337 340 343 344 345 346 341 329 339 355 355 341 334 331 331 351 355 355 354 354 355 351 351 353 334 323 320 318 318 322
299 299 300 301 301 301 301 302 304 305 305 306 309 309 311 312 314 315 316 317 317 317 318 319 319 319 320 322 324 326 329 331 333 336 340 342 344 344 343 345 346 317 315 327 337 327 320 316 319 324 330 349 354 349 332 332 327 321 315 313 313 313 314
299 300 301 302 301 301 302 303 304 305 305 307 309 310 310 311 313 314 315 316 317 318 318 318 318 318 320 321 324 326 328 330 332 334 337 341 343 344 343 343 344 348 323 314 317 319 314 311 311 312 315 318 330 344 353 328 317 314 312 311 311 311 310

ECMWFFLT1_sfc_thetae_072.txt.gz
Theta_e
338 340 344 343 346 347 347 348 349 350 352 351 351 352 351 353 354 356 357 360 362 364 366 367 367 366 366 365 366 367 365 364 363 361 361 360 360 360 359 358 358 359 356 354 360 359 364 364 366 367 368 366 365 366 368 370 371 370 372 375 371 370 371
334 336 337 340 343 345 347 350 350 349 350 351 352 354 353 353 355 355 357 361 362 364 365 366 366 366 366 366 366 367 367 365 365 364 362 361 362 362 361 361 359 359 360 358 359 363 364 364 365 365 366 367 364 366 365 367 369 371 369 371 369 370 369
332 334 336 338 339 341 348 349 351 349 351 350 351 351 353 355 355 357 357 359 361 363 365 365 366 365 366 367 366 366 367 365 364 362 361 358 360 358 361 362 361 358 359 359 360 361 363 363 366 366 365 364 361 365 366 366 367 367 368 370 369 367 368
330 332 334 337 340 343 345 348 350 351 351 353 348 351 352 354 355 357 358 359 360 361 362 363 364 363 364 366 366 366 367 366 365 361 359 357 358 359 359 360 361 360 358 358 358 358 357 360 362 367 367 364 364 364 365 364 364 366 366 368 365 367 368
328 330 332 335 337 341 343 346 348 352 350 350 352 353 354 353 353 354 356 358 357 359 360 361 361 362 364 365 363 364 365 365 364 362 360 358 359 360 358 357 358 359 357 358 361 361 361 361 360 362 366 366 364 364 365 365 364 366 367 367 365 365 364
323 326 329 333 335 338 342 344 346 348 348 348 351 352 351 352 352 352 354 356 355 356 360 360 359 361 362 362 363 361 365 366 367 365 361 360 360 358 358 359 357 359 355 358 359 359 362 361 359 360 361 362 359 359 361 362 361 363 365 367 365 363 361
320 323 325 329 333 335 338 340 342 345 348 350 351 352 353 352 351 351 352 352 353 354 353 353 356 358 360 362 362 363 363 363 364 363 361 359 359 360 359 360 360 357 357 359 359 359 359 360 359 361 361 359 360 358 361 363 361 362 363 365 365 365 365
320 321 323 326 330 332 333 336 339 341 343 345 347 349 351 351 351 350 350 351 351 352 353 352 353 355 360 361 358 361 361 362 362 363 362 359 358 360 358 358 359 360 360 357 360 360 357 359 358 359 360 359 360 361 360 363 365 361 361 362 364 364 361
320 321 322 324 327 329 331 333 336 337 338 338 341 345 355 350 350 350 352 352 351 351 352 352 354 355 357 360 359 360 361 360 361 362 361 358 356 355 354 356 359 360 359 356 355 360 359 356 357 359 361 360 360 363 361 363 362 361 360 361 363 363 360
320 320 321 324 326 327 329 330 332 333 333 332 334 339 342 348 348 352 356 357 353 350 354 354 353 354 356 356 357 358 359 360 360 359 359 357 355 354 355 353 355 359 358 357 354 353 359 358 357 358 362 362 361 363 364 362 361 360 360 361 363 364 364
320 321 321 321 323 324 326 326 327 328 329 329 330 331 336 343 352 349 350 353 349 349 353 353 354 353 354 355 355 355 357 358 358 357 358 357 354 354 354 353 352 356 357 356 353 352 354 359 359 359 362 361 360 361 363 362 363 362 359 359 361 362 361
320 320 320 321 321 321 321 323 325 326 327 327 327 327 330 335 343 350 350 347 348 349 350 352 352 352 352 352 353 356 357 357 357 356 357 357 356 354 353 353 352 353 356 356 354 353 351 355 358 358 360 363 361 360 363 364 363 363 362 357 358 359 360
319 319 320 320 320 321 321 321 322 324 326 325 325 325 325 328 332 340 349 348 347 347 349 351 351 352 351 352 353 356 356 356 356 357 356 357 357 356 355 354 353 352 353 356 354 353 351 351 357 359 359 362 362 358 360 363 362 363 364 361 358 358 360
319 318 318 318 318 318 319 320 320 321 322 323 323 324 324 326 328 332 338 344 346 347 347 349 350 351 351 352 352 355 353 355 357 358 359 358 360 359 357 356 355 355 355 357 356 353 353 351 352 357 358 358 359 360 360 361 362 364 365 364 359 357 358
316 316 316 316 316 317 317 317 319 320 320 321 322 322 323 323 325 328 332 337 341 344 344 348 349 349 349 351 352 354 356 357 357 358 360 360 360 360 359 358 358 358 358 358 358 355 355 354 353 354 355 356 356 357 356 355 357 359 361 363 362 359 355
313 314 315 315 315 315 316 317 317 318 320 321 321 321 321 321 323 324 327 331 334 337 342 345 347 349 349 348 350 353 356 358 360 359 359 361 361 362 361 359 359 358 359 358 358 359 359 358 356 354 354 355 356 356 353 353 352 355 345 350 360 360 354
312 312 313 314 316 315 316 316 316 317 318 320 321 320 320 320 321 323 325 327 330 334 339 341 344 346 348 350 351 353 357 359 360 360 359 362 363 363 363 361 360 359 360 359 359 359 361 358 356 354 354 353 354 355 353 351 350 342 335 336 341 357 360
311 312 312 313 314 315 315 315 315 315 315 317 320 320 321 321 320 322 322 324 326 330 334 339 343 346 350 351 353 355 355 357 359 361 361 361 363 364 364 363 361 360 360 359 358 360 359 357 357 357 355 353 354 353 353 353 343 332 332 333 334 342 356
311 312 312 313 313 314 314 315 315 315 314 316 319 319 320 321 320 321 323 324 325 329 331 335 340 346 350 353 353 354 356 358 357 358 360 360 361 364 364 364 362 360 359 357 359 358 359 360 357 357 356 355 354 353 353 353 340 330 329 331 331 331 344
311 312 312 313 314 314 316 316 316 316 316 317 318 318 320 322 319 320 323 325 327 329 330 333 339 345 346 350 352 354 356 358 357 357 359 359 362 363 363 363 362 360 359 358 359 359 358 358 359 358 359 357 356 356 355 354 342 328 326 327 327 329 335
312 312 312 313 313 313 315 316 317 317 317 317 317 318 319 318 318 320 322 324 325 327 330 331 335 340 341 343 346 349 352 355 356 356 358 360 360 361 360 361 362 361 359 357 357 358 358 357 358 358 359 357 357 356 354 354 336 327 323 323 323 326 331
312 312 312 312 313 314 315 314 315 316 317 319 318 318 317 317 318 319 319 322 325 326 328 329 333 334 335 338 341 341 344 346 353 356 358 358 360 360 360 360 362 361 361 359 356 358 358 358 358 357 357 358 357 356 355 356 333 326 322 321 321 324 344
312 313 313 313 313 313 315 316 315 316 317 317 318 318 318 319 319 318 319 321 323 326 327 327 329 330 332 335 336 338 340 342 346 353 355 357 357 358 357 360 359 361 363 360 358 356 356 357 357 360 358 357 358 357 357 356 341 324 321 319 319 326 348
312 313 313 314 314 314 315 315 315 316 316 316 316 318 319 319 319 318 319 320 321 323 325 326 327 328 329 330 334 338 340 342 343 345 351 354 355 356 361 358 358 359 362 360 358 357 356 357 358 359 359 358 357 356 356 357 347 323 319 317 317 330 351
311 312 313 313 313 312 313 315 316 316 316 316 314 317 318 319 318 317 317 319 320 322 323 325 327 327 327 329 332 337 339 340 342 343 344 349 353 354 356 356 354 356 356 358 360 357 360 360 359 358 359 358 357 353 354 356 349 322 319 317 316 330 352
311 311 312 312 313 313 314 316 316 315 314 313 315 317 318 317 318 318 318 317 318 319 322 325 327 329 329 329 331 334 337 340 341 341 343 345 349 352 353 354 351 350 354 352 353 355 360 357 358 358 358 358 358 357 356 355 358 355 317 316 314 318 351
311 311 310 310 311 313 312 313 313 312 313 315 316 316 317 317 316 317 319 319 317 318 320 324 327 329 330 331 331 331 335 339 340 341 344 346 347 348 351 352 352 349 350 354 353 352 355 358 358 358 359 358 359 358 358 358 357 359 317 314 313 314 325
309 309 310 311 312 312 311 311 312 313 313 315 315 315 316 316 316 318 318 318 318 319 320 323 326 328 330 331 331 332 333 337 341 342 343 346 348 348 349 351 352 353 351 352 354 354 356 357 355 355 356 358 359 360 359 359 349 359 325 314 311 312 313
308 308 308 309 310 310 310 310 310 311 312 313 314 315 315 316 316 317 318 318 320 321 321 321 323 327 329 331 331 333 334 336 339 341 343 345 348 347 346 348 347 348 350 351 353 356 356 355 355 355 354 358 359 360 362 362 363 336 350 316 311 310 310
310 309 309 309 309 309 310 310 311 311 313 313 315 316 317 317 317 317 318 319 322 322 322 322 323 326 328 330 330 331 332 334 335 338 341 343 345 347 347 347 347 347 350 352 353 355 356 355 357 357 355 355 356 358 360 364 363 346 330 339 311 311 309
308 308 308 309 308 310 310 310 310 311 312 313 314 316 317 318 317 318 318 320 322 322 321 321 322 324 325 328 329 331 331 333 335 336 338 341 342 344 344 346 348 347 349 350 351 354 355 356 356 355 355 355 357 359 361 362 364 366 348 326 318 311 310
309 310 310 309 309 310 310 310 311 311 311 313 315 315 317 317 317 317 318 320 321 322 322 322 323 323 326 328 329 330 332 331 332 335 337 340 341 343 344 346 346 347 348 350 351 353 356 356 356 356 357 356 357 359 361 362 365 366 369 341 330 320 312
309 310 309 309 310 311 310 311 310 311 312 313 315 316 316 317 318 319 320 320 321 321 321 321 322 323 325 326 328 330 331 331 331 333 336 337 338 340 342 343 346 347 347 348 350 352 355 355 356 356 356 356 357 358 363 363 362 364 366 369 359 349 339
309 309 310 311 311 312 312 311 311 311 312 313 315 316 317 317 317 318 319 320 320 320 320 320 320 321 323 325 326 327 328 328 329 331 332 334 337 338 339 341 344 344 346 347 348 349 351 353 352 356 354 355 354 356 359 359 360 361 363 366 367 364 357
309 309 309 309 310 311 310 310 310 311 311 311 313 315 315 317 318 318 319 319 320 320 320 320 321 323 323 323 324 325 328 328 328 329 331 334 337 337 340 341 342 343 344 347 349 350 350 352 355 353 353 355 357 353 352 353 357 361 338 353 336 360 369
307 308 309 309 310 310 310 311 311 311 311 312 313 314 315 316 317 318 318 319 319 319 320 321 321 321 322 323 324 324 326 328 327 328 330 331 332 335 336 335 322 331 341 341 337 327 319 318 338 346 347 346 350 355 353 355 361 326 312 317 316 319 323
306 307 307 309 308 308 309 309 310 310 310 311 313 313 314 315 316 318 318 319 320 319 320 321 320 319 319 321 322 324 326 326 327 328 330 332 333 334 334 336 340 313 310 318 325 321 316 313 312 312 314 332 343 343 329 325 320 315 316 313 312 309 310
307 307 307 308 308 308 309 309 309 309 310 311 312 312 313 313 315 317 317 319 319 319 320 320 319 318 318 319 322 324 326 326 327 328 329 331 333 334 333 334 334 340 321 310 313 314 310 309 309 309 310 311 318 329 344 331 319 313 311 312 310 309 307

ECMWFFLT1_sfc_thetae_075.txt.gz
Theta_e
342 343 342 344 347 347 347 349 350 348 351 353 354 353 353 353 353 356 357 360 365 365 365 365 363 364 363 362 362 362 361 361 361 360 359 360 360 359 357 355 356 358 357 355 358 359 363 365 365 365 367 365 364 365 369 371 371 368 374 373 368 370 365
338 341 344 342 344 346 348 348 351 350 350 352 355 355 354 353 354 354 357 362 363 363 364 366 366 365 364 363 362 364 363 361 362 362 360 360 361 360 358 359 357 358 360 357 358 361 365 360 363 365 365 366 364 366 364 367 370 372 369 372 368 369 370
335 338 342 341 341 343 348 349 351 352 351 352 352 353 353 355 356 358 356 359 360 362 365 366 367 364 367 365 364 365 364 362 360 359 358 356 359 356 359 361 359 357 357 359 361 360 361 363 363 363 363 364 361 363 365 365 366 366 369 373 367 364 370
333 334 337 340 344 347 347 348 349 350 351 353 352 354 355 359 359 359 358 360 361 362 365 366 366 365 364 366 365 365 365 364 362 358 357 355 355 356 357 358 360 358 357 356 356 358 358 360 361 363 364 363 363 362 362 363 362 365 366 369 369 366 371
333 335 338 339 342 345 345 346 351 351 355 350 352 355 354 357 355 355 356 358 357 361 360 362 363 363 365 368 365 364 366 365 362 359 358 356 356 358 355 354 356 356 355 356 358 358 360 361 359 360 362 364 362 362 362 363 362 364 365 365 364 362 364
328 330 334 338 342 342 343 345 348 354 353 354 354 350 350 356 355 353 354 354 356 358 358 357 358 363 361 363 363 362 367 367 366 364 359 357 356 354 354 355 355 356 353 355 356 356 357 358 359 359 359 359 359 358 359 360 360 361 363 364 364 361 359
327 329 332 334 337 339 340 343 345 351 352 352 356 353 352 352 353 353 355 358 357 355 356 358 359 362 364 363 362 364 364 364 366 363 359 356 356 354 355 356 357 355 354 356 356 357 356 358 359 360 359 358 359 356 359 362 360 360 362 364 364 363 363
325 326 330 332 333 335 336 339 342 346 351 352 351 352 353 354 357 353 352 352 354 355 357 357 360 361 364 365 364 363 362 363 365 366 362 356 355 355 353 355 355 356 356 353 355 357 356 358 357 358 358 358 358 359 356 360 363 358 359 360 361 362 359
326 327 327 329 332 333 336 338 339 339 340 341 341 344 354 354 350 350 354 355 353 354 355 356 355 356 358 360 363 364 362 363 363 363 361 356 353 352 351 352 355 356 355 352 352 356 357 357 357 359 359 359 359 360 358 361 360 360 358 359 359 360 358
325 325 326 327 329 332 335 335 336 337 337 337 338 340 339 350 351 355 354 354 356 356 357 355 353 356 358 359 359 361 360 360 363 360 359 355 352 352 351 349 351 355 354 353 350 351 356 357 357 358 360 358 359 359 360 359 359 360 359 359 359 360 361
323 324 325 326 326 328 331 332 332 334 334 335 336 337 339 343 350 350 354 354 351 352 354 353 355 354 354 356 356 358 358 358 364 360 359 358 353 351 351 349 348 351 353 352 349 348 352 356 357 359 359 356 358 359 360 360 360 361 358 358 358 360 358
322 323 323 324 324 324 325 328 330 332 333 333 333 333 335 336 339 342 350 349 353 354 351 353 353 354 354 354 354 356 354 355 358 359 356 355 353 352 350 349 348 348 351 352 349 349 347 351 354 355 357 359 360 360 361 362 362 362 361 357 355 356 358
322 322 323 323 324 324 324 325 328 329 330 330 331 332 334 335 336 338 341 348 352 352 350 353 353 354 352 355 354 354 353 353 356 359 358 357 356 354 353 350 349 347 348 350 350 348 346 347 353 355 355 358 359 359 360 360 360 363 363 361 358 354 356
323 321 322 322 323 323 322 323 325 327 328 328 328 330 331 332 333 335 337 337 342 347 350 350 352 351 352 353 353 353 353 356 357 360 361 361 362 358 356 353 351 350 349 350 349 348 347 346 347 353 355 355 357 360 360 360 360 362 364 363 360 355 354
319 319 319 319 321 322 322 321 322 323 324 325 326 327 328 329 330 333 335 336 338 339 342 347 350 350 350 352 352 354 356 358 360 361 361 360 362 362 360 358 355 354 353 353 350 348 347 346 345 349 353 355 356 358 356 353 355 358 361 360 361 358 353
317 317 318 318 319 320 321 321 321 322 323 324 324 325 325 326 327 329 330 332 334 336 337 341 347 350 350 350 351 354 356 359 361 364 361 360 364 366 363 360 359 356 354 353 351 354 354 353 349 346 348 351 354 354 353 352 351 355 348 352 360 360 353
316 316 317 318 319 319 320 320 320 321 322 323 323 324 325 325 325 326 328 330 332 335 337 339 344 347 348 349 351 353 356 357 358 361 361 363 363 366 365 363 361 359 362 358 356 358 362 356 351 348 347 347 350 351 349 348 347 344 336 338 344 358 358
316 316 316 317 317 318 319 319 320 320 320 320 320 322 323 324 323 324 325 327 329 332 335 339 342 346 351 351 353 356 356 358 357 359 361 363 362 364 365 363 363 363 361 358 356 360 356 354 355 357 351 348 348 347 348 347 343 332 332 334 335 345 359
315 316 316 317 317 318 318 318 319 319 319 320 321 320 320 321 321 324 325 327 329 332 333 336 339 344 347 350 354 354 354 354 356 356 357 362 362 364 361 357 355 356 357 357 359 358 360 361 357 358 357 354 352 348 348 347 339 328 329 332 333 334 348
315 316 316 317 317 318 319 319 319 320 320 322 321 321 321 321 320 322 323 325 331 332 333 334 337 343 342 343 346 349 352 353 352 353 356 359 359 359 357 356 355 357 356 356 358 360 358 358 359 358 361 359 357 357 353 350 342 327 326 328 329 331 339
315 316 316 316 317 317 318 320 320 320 320 321 321 323 322 320 321 320 322 324 326 328 331 332 335 337 337 339 343 347 348 349 350 351 352 353 357 355 354 354 355 355 357 357 356 356 359 359 358 359 360 359 358 358 355 353 339 326 323 324 325 328 335
316 315 315 315 316 317 318 317 318 318 320 323 322 322 322 321 322 320 319 322 323 326 328 331 334 334 335 336 337 339 341 344 347 349 351 353 353 353 354 355 356 355 357 355 359 356 358 361 360 359 359 359 360 357 356 356 335 327 322 321 322 326 347
316 316 316 316 316 316 319 319 318 318 320 320 321 322 322 323 323 321 320 320 320 324 327 328 331 333 337 335 335 337 340 342 346 348 349 349 350 351 352 353 355 357 358 355 354 355 359 356 357 356 358 359 361 359 359 358 344 326 321 319 320 328 352
315 317 316 316 317 316 318 318 318 318 318 319 319 321 322 323 323 322 322 321 319 319 322 324 327 330 332 334 336 334 335 340 344 345 346 347 347 349 352 353 354 355 358 357 357 356 355 357 355 356 358 359 359 359 359 359 350 325 319 318 318 334 355
314 314 315 315 315 315 315 317 318 318 319 319 317 320 320 321 322 321 320 322 321 319 319 320 323 326 327 330 333 334 334 334 338 342 344 346 347 348 350 350 352 354 356 356 357 354 355 356 356 356 356 355 357 359 358 359 352 325 319 317 316 333 358
313 313 314 314 315 315 316 317 317 316 315 315 317 319 320 319 320 321 321 322 321 319 319 320 322 324 326 329 331 334 336 336 336 339 343 344 347 350 353 352 351 351 353 355 356 354 353 354 356 356 356 355 356 357 358 356 360 357 318 317 315 320 357
313 313 312 312 313 315 314 314 314 314 314 316 318 317 318 319 318 319 321 322 322 321 321 322 323 324 326 327 329 331 333 334 336 338 341 344 348 351 352 354 351 351 349 348 349 351 354 354 355 356 358 357 358 357 357 357 356 363 318 315 314 315 328
312 312 312 314 315 314 313 312 313 314 314 316 316 317 318 319 319 320 321 321 321 322 323 324 325 324 324 326 328 329 332 334 337 338 339 342 345 347 350 353 353 351 350 350 351 352 352 354 356 356 356 358 358 358 358 359 355 359 324 315 313 313 314
312 311 312 312 313 313 312 312 312 312 314 314 315 316 317 317 318 320 321 321 323 324 325 325 325 325 325 325 326 328 331 335 337 338 338 339 342 342 343 346 345 350 350 348 350 351 352 352 355 356 356 357 359 359 360 363 363 342 351 316 312 311 312
313 313 312 312 312 312 312 312 313 313 314 314 316 316 317 318 318 319 320 321 325 325 326 326 326 326 325 325 325 325 327 329 332 334 335 336 337 338 341 342 344 347 350 350 350 349 350 352 353 353 353 355 357 356 357 361 364 353 341 337 311 312 311
312 312 312 313 312 314 313 313 312 312 313 314 316 317 318 319 318 319 320 322 325 325 325 325 325 325 324 325 325 326 326 328 330 332 333 335 336 337 338 341 342 343 348 350 349 348 347 349 353 353 353 354 356 355 360 357 366 365 355 331 316 312 311
313 314 314 314 314 314 314 313 313 313 313 314 316 316 318 318 319 319 321 323 323 324 325 325 325 325 325 325 325 327 327 327 327 329 331 332 335 338 340 340 340 341 342 343 346 347 348 349 350 351 352 354 359 351 352 353 352 352 357 359 333 320 312
313 313 313 313 314 314 314 314 313 314 314 314 316 317 317 319 320 321 322 323 323 323 324 323 324 324 324 323 324 326 328 330 330 330 331 333 333 334 335 337 339 342 343 344 345 346 346 346 349 351 352 358 351 348 348 350 352 351 358 364 366 358 345
312 312 313 314 314 314 314 314 314 314 314 315 316 317 318 318 319 320 322 322 323 323 323 322 322 322 323 323 323 323 323 323 327 328 328 329 328 327 330 334 337 339 341 343 345 346 346 348 348 352 354 356 353 349 347 345 347 350 354 361 365 362 359
312 312 312 312 313 313 312 313 313 314 314 314 315 317 317 318 319 320 320 321 322 323 322 322 322 323 322 323 323 323 325 324 325 326 326 327 329 328 332 335 337 337 339 342 342 343 343 342 341 344 351 353 352 350 349 350 350 356 324 336 319 335 349
311 311 311 312 312 313 313 313 313 313 314 314 316 316 317 317 318 319 319 320 321 321 321 322 321 321 321 322 323 324 324 323 323 324 326 327 328 329 329 333 321 331 335 335 334 326 318 317 337 340 340 338 341 346 346 348 354 329 315 314 312 310 314
309 309 309 311 311 311 311 312 313 313 313 314 315 315 315 316 317 318 318 320 321 321 322 322 321 321 321 323 323 323 324 323 323 325 327 328 329 329 327 326 331 312 310 317 324 320 315 312 312 313 315 330 336 336 325 323 319 314 311 309 311 310 308
309 309 309 309 310 310 310 311 311 312 312 313 314 314 315 314 315 317 317 318 319 319 320 320 320 319 320 320 322 323 324 323 323 325 327 328 329 330 329 329 329 333 319 308 311 312 309 308 308 308 309 310 314 324 334 324 314 308 307 308 307 306 305

ECMWFFLT1_sfc_thetae_078.txt.gz
Theta_e
340 343 344 344 348 349 349 350 350 349 349 347 349 348 348 351 354 359 357 360 359 360 361 363 363 363 362 360 362 363 362 363 363 361 361 364 363 362 360 356 357 363 359 358 360 363 367 369 368 367 368 368 368 370 371 370 369 369 372 372 369 371 367
340 341 344 347 347 348 348 350 352 352 352 355 352 352 350 350 355 354 360 361 362 361 361 362 364 363 362 362 362 365 364 363 364 363 361 365 367 368 362 361 361 363 368 361 364 364 366 363 365 366 366 367 365 370 368 371 372 370 370 372 370 372 370
338 340 341 343 346 344 347 349 350 350 352 351 352 351 350 354 352 354 359 361 362 363 360 362 364 363 363 363 363 363 362 361 362 359 358 356 359 357 359 363 361 359 357 361 367 361 362 362 368 369 367 365 361 369 369 370 371 369 371 373 371 365 371
338 337 341 343 344 347 346 348 350 350 351 351 351 352 353 350 349 351 355 355 356 355 357 359 361 360 361 363 362 363 362 363 361 358 356 356 357 357 359 361 362 359 359 357 355 357 356 363 363 367 367 367 367 364 365 366 365 368 369 373 373 368 371
333 341 338 339 343 344 346 348 351 354 353 354 354 354 351 350 352 351 354 356 350 347 357 359 362 361 363 363 359 359 361 360 360 359 358 357 360 360 358 355 357 356 358 355 360 365 370 364 360 364 365 369 365 367 366 367 365 368 369 369 369 366 365
331 336 339 342 343 342 346 347 349 353 354 352 354 354 353 350 350 350 355 355 353 354 362 364 364 361 357 361 357 358 362 364 364 363 360 360 359 355 355 356 356 357 354 356 356 357 362 363 360 360 360 358 359 359 359 361 361 363 367 367 366 364 360
330 334 336 337 339 341 344 347 350 348 353 356 355 352 350 350 352 352 354 356 356 356 360 359 361 363 362 363 365 366 360 360 360 359 358 355 355 355 356 356 358 355 355 358 356 357 355 359 362 362 361 359 360 358 361 365 363 363 367 367 368 368 369
329 332 335 335 336 335 336 340 347 349 350 352 354 352 349 353 356 354 352 352 352 355 354 354 354 353 361 365 363 363 360 356 356 357 359 355 352 353 354 355 355 359 358 354 358 358 353 358 356 360 361 358 360 361 360 365 368 359 361 364 365 364 359
330 331 332 333 334 334 335 336 339 343 342 344 348 350 351 353 355 354 356 356 356 356 357 358 355 354 361 361 362 361 361 356 357 356 357 354 353 350 350 353 354 357 356 352 352 357 357 357 355 361 364 361 363 365 362 366 362 361 362 363 364 363 359
328 328 329 331 333 334 335 335 337 338 338 339 341 348 350 353 354 354 355 355 354 355 358 358 358 357 356 354 356 358 357 357 358 356 358 353 351 351 349 350 352 355 353 352 351 351 357 359 358 361 364 362 365 366 364 367 361 361 360 365 364 362 363
324 327 328 329 330 331 332 332 333 334 336 337 338 339 344 348 350 350 355 355 353 355 355 354 355 356 356 353 354 360 364 357 362 360 360 359 353 350 350 349 350 352 352 352 350 351 353 357 362 364 364 357 360 363 363 362 364 364 359 358 359 362 360
323 323 325 327 328 328 328 329 330 332 334 337 336 337 340 342 346 348 352 353 353 353 355 355 353 355 354 353 353 354 355 355 355 356 357 361 358 355 349 348 347 348 351 352 352 353 351 355 355 357 364 361 360 361 363 364 363 365 363 358 357 359 359
324 323 323 324 324 325 327 327 327 328 331 331 333 335 336 337 338 340 343 345 351 354 351 356 354 355 353 353 353 354 355 357 356 356 356 359 357 356 353 350 347 346 347 350 351 350 348 351 355 356 359 363 361 359 361 363 362 365 365 362 361 360 359
326 324 323 322 322 323 324 325 325 326 328 329 330 333 332 334 336 338 340 342 341 340 341 343 348 352 354 353 354 352 356 354 357 357 357 359 364 362 357 354 351 349 350 352 351 349 348 346 351 355 355 358 358 360 363 364 362 365 366 364 361 359 359
319 320 321 321 321 321 322 322 323 324 325 326 327 327 332 334 332 336 339 339 342 340 340 343 344 348 350 352 352 353 355 358 356 359 360 360 363 364 362 361 362 361 357 357 351 348 348 348 346 350 352 353 356 358 358 357 357 358 361 362 363 362 358
318 318 318 319 319 319 320 321 322 322 324 325 324 324 324 326 329 330 332 333 335 337 341 343 344 346 350 351 354 354 353 354 352 352 356 354 352 352 355 360 358 356 356 357 354 356 356 354 352 348 350 352 355 356 354 354 355 357 349 353 360 361 357
317 317 317 318 319 319 319 320 320 321 322 322 322 322 323 324 326 327 329 331 333 334 337 341 349 349 348 350 351 354 353 350 350 353 355 358 358 357 360 359 359 360 359 357 360 361 364 358 352 347 346 348 350 352 351 352 353 346 337 339 347 360 361
316 316 317 317 318 318 318 318 319 320 319 319 319 319 321 325 323 324 326 329 330 332 336 339 342 345 343 344 347 350 349 349 350 353 353 351 349 351 356 358 356 357 354 351 354 355 354 354 357 357 353 347 346 347 350 351 348 335 332 335 336 347 360
315 316 316 317 318 318 317 317 318 320 320 320 323 320 320 321 321 326 327 330 330 332 334 337 340 340 339 342 343 344 350 352 350 349 349 348 349 350 354 355 353 353 355 356 356 355 358 356 352 352 356 354 355 350 347 349 341 331 329 332 333 335 349
316 316 316 317 318 318 319 318 318 319 320 321 322 320 321 324 320 322 324 328 333 334 335 336 338 337 335 337 339 341 342 345 350 350 351 350 350 352 354 354 353 356 358 358 359 358 357 356 358 357 356 354 356 358 357 353 344 329 326 328 330 332 338
316 316 316 316 316 317 318 319 320 321 322 321 322 322 321 321 321 321 323 324 322 325 334 335 338 336 332 332 335 337 339 342 346 350 350 351 351 350 350 351 352 354 356 357 359 358 357 357 357 358 357 355 354 354 355 354 340 330 322 323 325 329 335
316 315 314 315 316 317 318 316 317 318 321 324 326 322 321 321 321 321 321 321 320 323 326 332 336 334 333 331 330 333 336 338 342 345 347 349 349 349 349 349 349 350 355 359 360 359 359 358 357 356 354 355 354 354 356 356 336 332 321 320 322 327 344
316 316 315 316 316 316 318 318 317 318 320 320 322 322 322 324 324 321 322 321 320 330 329 327 329 330 333 334 333 332 334 337 340 342 346 347 347 346 348 351 352 354 357 355 356 355 356 357 356 356 355 354 354 353 355 357 345 332 323 317 319 326 344
316 316 315 315 316 316 317 316 317 318 318 318 318 319 322 324 325 322 323 322 321 320 324 322 322 323 327 331 335 337 336 338 338 338 342 343 344 346 348 352 353 354 357 354 354 354 355 356 357 357 357 355 353 353 354 355 351 333 325 317 317 330 345
314 314 314 314 314 313 313 315 317 317 317 316 316 317 319 319 322 322 321 323 321 321 320 320 322 322 323 323 326 331 335 337 335 334 334 338 342 342 346 349 350 351 353 353 352 353 355 356 355 354 355 356 356 358 355 355 351 335 326 316 315 327 348
313 312 313 313 314 313 314 317 316 315 313 314 315 317 318 318 319 322 321 321 321 321 320 322 323 325 324 324 325 328 331 333 340 339 337 335 338 339 341 344 345 348 347 349 350 350 350 350 352 353 354 355 355 355 356 355 357 356 332 316 313 317 348
313 313 312 312 313 316 314 314 314 313 313 315 317 316 317 318 317 319 321 321 321 322 322 324 325 326 327 328 325 324 327 330 333 337 339 340 344 341 341 345 346 348 350 346 344 347 349 349 350 351 352 354 356 356 357 357 355 353 328 316 312 312 324
313 312 313 315 315 315 313 313 313 313 313 315 315 316 316 317 319 320 321 320 320 321 323 325 326 327 327 327 325 325 325 327 332 334 336 340 342 343 348 348 347 348 347 344 344 346 346 348 348 347 349 353 354 355 359 354 345 349 334 325 313 309 308
312 311 312 312 313 314 313 312 312 313 313 313 315 315 316 316 318 319 320 319 322 323 325 325 326 327 327 327 325 327 329 332 333 333 334 337 341 339 339 343 343 344 350 350 349 347 347 348 349 348 347 349 353 355 357 350 354 338 347 330 314 310 309
314 313 313 313 313 314 314 314 314 313 314 314 316 317 317 318 317 319 319 321 324 324 324 324 324 326 325 326 326 326 326 326 325 327 326 328 331 335 337 339 340 343 347 348 348 348 348 350 350 350 348 347 348 351 358 352 352 347 337 340 316 309 309
312 313 313 313 313 315 315 313 313 313 314 316 317 318 319 319 318 318 319 321 324 324 324 323 324 324 324 325 326 326 325 325 327 327 327 327 327 330 333 334 336 338 343 346 343 345 347 348 348 347 347 347 348 351 361 356 353 352 347 335 329 319 311
314 314 314 314 314 314 314 314 314 314 314 315 317 317 319 319 318 318 319 321 322 323 323 323 323 323 323 323 324 325 326 325 324 325 328 330 331 333 334 334 337 338 341 341 342 343 344 346 347 347 347 347 351 356 359 359 356 353 353 351 350 341 322
313 313 313 313 314 314 313 314 312 313 313 314 316 316 316 317 318 320 321 321 321 321 324 323 323 323 324 325 325 326 327 326 324 325 327 330 330 330 330 332 335 335 337 338 339 341 343 343 344 345 345 350 351 352 355 355 355 354 354 355 357 357 344
312 312 313 313 313 314 313 313 312 312 313 313 315 316 316 317 317 319 320 320 320 320 321 321 321 321 321 321 322 323 323 323 326 326 323 323 323 324 325 327 326 324 330 334 336 341 341 340 340 342 344 345 348 349 350 350 352 353 352 354 355 359 360
312 312 312 312 312 313 312 312 312 312 312 312 314 315 316 317 317 318 319 319 320 321 320 319 321 321 321 321 322 321 324 322 323 323 323 324 326 326 330 329 327 328 331 333 339 338 333 334 334 337 336 334 338 342 340 340 341 350 323 331 317 329 336
311 311 311 312 312 312 312 312 312 312 312 313 314 314 315 316 316 317 317 317 318 318 318 318 318 318 318 319 320 321 321 322 322 323 324 323 322 323 325 331 319 322 329 327 329 323 316 315 331 333 332 330 333 337 336 334 339 326 312 309 308 308 309
310 310 310 311 310 310 311 311 311 311 312 312 314 313 314 314 315 316 316 318 318 317 318 319 317 316 316 318 318 319 321 321 322 324 326 325 324 324 323 323 326 312 311 313 317 313 310 310 310 311 313 329 332 333 324 322 318 313 310 308 309 308 308
310 309 309 309 310 311 310 310 310 310 311 312 312 312 313 312 313 315 314 316 316 316 317 317 316 315 315 315 317 319 320 318 320 323 324 325 326 326 327 326 326 329 317 309 309 310 307 306 307 307 308 310 315 325 335 323 313 308 307 307 306 306 307

ECMWFFLT1_sfc_thetae_081.txt.gz
Theta_e
340 342 342 344 344 348 348 349 349 344 348 348 345 343 348 348 348 351 350 350 352 351 353 355 354 355 354 354 355 355 355 354 358 356 358 357 357 355 356 357 356 355 357 358 356 358 359 359 358 360 361 362 359 362 362 363 362 368 366 364 361 364 362
341 342 343 344 344 346 348 348 351 347 345 345 347 345 346 349 348 350 353 350 353 352 353 356 355 355 355 354 356 356 356 355 357 359 358 358 361 357 357 356 354 355 355 356 356 360 361 360 363 360 361 362 362 363 362 363 362 364 365 363 359 362 363
338 341 342 343 345 346 345 343 352 350 346 347 347 347 347 347 348 350 354 353 353 353 354 355 357 356 356 356 355 356 356 356 356 356 355 356 358 360 357 356 355 355 357 356 356 359 361 360 360 361 362 359 361 363 364 364 365 364 364 364 363 365 363
337 339 341 344 346 346 347 348 349 350 350 350 348 347 347 348 349 351 354 355 355 356 354 356 358 357 357 356 355 356 356 356 356 356 355 354 356 356 356 355 356 356 353 354 360 357 360 358 357 361 367 358 358 362 362 363 364 363 364 364 363 361 363
336 337 338 341 343 343 345 347 352 348 348 348 350 349 348 350 350 351 353 354 355 355 355 356 359 360 359 358 357 357 357 356 356 355 354 353 355 355 354 353 355 353 353 353 354 356 355 357 356 361 361 359 360 360 361 360 361 363 362 364 361 361 359
335 336 338 339 340 343 345 349 346 345 345 346 348 350 348 350 351 352 353 353 352 354 355 355 357 357 357 360 358 357 357 356 356 356 354 353 354 354 353 353 353 353 353 352 353 353 360 355 356 359 358 359 359 359 358 360 360 361 361 364 362 361 360
332 333 334 336 339 342 344 346 342 345 347 347 349 352 349 349 349 351 354 352 351 348 351 353 353 357 355 358 356 357 359 357 356 356 356 355 354 353 352 353 354 353 352 353 351 352 356 355 355 356 357 357 357 355 356 356 356 359 359 361 360 359 359
330 332 337 334 333 336 341 344 344 344 345 350 350 350 348 350 353 354 355 353 350 348 350 354 356 357 357 357 356 354 358 358 357 356 355 355 353 352 351 351 352 353 353 352 351 351 352 354 356 355 356 354 354 354 355 356 355 356 358 358 358 358 361
327 328 332 330 331 334 336 338 342 341 344 345 347 348 348 350 353 353 354 355 353 352 356 357 355 352 355 358 357 357 359 358 356 354 353 353 353 350 350 351 351 353 352 351 351 352 351 351 352 355 355 354 354 354 354 356 357 356 356 357 357 357 356
327 327 327 328 329 330 333 334 338 341 341 343 344 346 351 352 353 353 354 355 355 357 356 353 353 352 350 353 357 358 358 356 354 353 353 353 355 353 350 349 350 352 352 351 349 351 352 352 351 352 356 354 354 354 353 357 356 356 355 356 357 356 355
326 326 326 326 325 326 328 332 333 336 338 339 342 345 349 349 351 353 352 354 355 355 357 353 352 354 355 354 352 352 354 353 354 353 353 352 351 346 346 348 346 350 350 350 348 349 350 353 352 351 353 355 355 358 355 358 356 354 354 356 358 357 356
324 324 323 323 323 324 324 327 330 332 336 339 340 341 341 342 343 344 346 350 354 353 353 352 355 353 352 351 349 348 348 348 348 350 349 351 351 351 353 349 348 348 349 349 348 347 349 349 353 353 353 353 353 355 357 356 357 355 353 353 354 356 356
323 322 322 322 323 323 324 325 327 329 329 330 332 337 338 338 339 340 339 338 340 343 346 356 355 355 351 351 352 349 349 351 351 350 351 353 353 353 353 352 352 350 350 349 348 348 347 349 350 355 355 354 353 353 355 356 356 356 356 354 353 352 353
323 321 321 322 322 321 321 323 324 325 328 329 329 330 331 334 336 336 337 338 339 340 342 344 346 351 353 352 352 352 351 352 354 353 352 353 352 352 353 353 351 353 355 355 348 347 347 348 349 349 356 355 354 353 354 355 355 355 357 356 355 354 353
319 319 319 319 320 321 320 321 321 322 327 330 330 330 330 329 330 333 334 336 338 340 342 345 348 349 349 349 348 349 350 350 351 353 352 352 351 350 350 353 353 356 357 356 353 349 347 346 349 349 349 354 354 354 355 355 355 355 356 357 355 354 353
318 318 317 318 318 319 320 319 321 321 321 324 326 327 330 330 328 329 330 331 334 336 339 346 347 347 347 347 349 349 348 348 352 354 353 350 350 349 350 351 357 358 357 356 355 353 352 351 347 348 348 348 352 353 354 354 356 357 349 353 357 355 354
315 316 316 316 317 317 318 318 319 320 319 320 322 321 324 324 326 328 328 329 332 336 340 344 342 342 344 345 348 349 349 349 351 352 350 353 355 354 356 358 358 357 356 352 352 353 353 352 350 349 346 348 348 350 352 353 354 348 337 339 346 357 355
314 314 314 315 316 316 317 317 318 317 316 317 318 320 320 320 325 330 328 328 330 334 337 337 337 337 338 339 341 345 348 348 349 348 348 348 347 348 350 354 353 351 350 351 353 352 354 352 352 351 352 350 348 347 349 351 349 337 334 335 336 346 356
313 314 314 315 315 315 316 316 317 318 317 319 319 319 319 321 323 325 327 329 330 335 335 333 332 333 334 336 338 340 343 347 348 348 348 348 348 349 351 352 352 352 353 356 356 355 353 351 352 351 352 352 351 352 352 348 342 332 331 332 332 334 347
313 314 314 315 316 316 317 318 319 320 319 318 318 319 320 325 322 322 325 329 333 334 334 331 330 329 329 330 333 337 339 343 345 348 348 348 349 348 347 350 350 352 355 356 355 353 354 354 353 353 351 352 352 350 351 351 349 333 326 326 328 331 337
312 313 314 313 313 315 318 321 323 323 320 320 321 320 319 318 318 319 319 321 322 330 333 331 329 328 328 327 329 333 334 337 341 344 348 347 348 348 347 347 346 348 350 355 356 354 353 353 352 353 353 352 352 351 351 352 341 334 327 321 321 325 332
311 312 313 313 313 313 313 315 318 319 321 324 322 322 321 319 318 318 318 319 321 325 330 332 330 330 329 328 328 331 333 333 336 339 341 345 346 345 346 348 349 349 352 354 355 356 355 355 354 353 352 352 352 351 351 352 336 331 330 323 318 323 333
313 312 313 314 313 312 315 316 316 319 321 318 319 320 324 323 322 321 320 319 321 322 322 321 324 330 332 332 332 333 336 339 338 339 341 344 343 343 344 346 349 351 353 351 352 352 353 353 354 354 354 353 353 351 350 351 342 332 323 322 321 323 332
314 313 312 312 311 312 314 316 315 316 314 313 314 314 322 324 323 321 320 320 319 320 320 320 320 323 323 321 325 337 336 339 339 337 337 336 338 340 341 342 343 346 349 349 350 349 350 352 353 354 355 355 354 354 352 351 346 320 325 323 319 326 333
310 310 310 310 309 309 312 315 317 314 314 312 312 313 316 319 320 320 319 320 319 319 320 320 322 322 321 322 323 324 328 332 336 335 334 333 333 339 338 339 340 342 345 347 347 348 349 351 350 351 352 353 353 357 355 354 344 323 326 328 319 326 337
309 309 309 310 310 312 315 314 311 310 310 312 313 313 316 317 319 323 321 320 319 318 319 320 322 325 324 325 322 322 326 325 332 337 338 335 335 337 336 340 340 341 343 343 343 343 346 348 348 347 348 350 351 354 353 351 351 345 323 323 318 320 342
309 309 308 310 314 318 310 310 311 310 310 312 313 313 316 319 319 319 320 319 318 319 320 323 324 325 326 326 324 323 322 324 325 327 330 333 335 339 340 337 336 337 338 341 344 340 338 339 340 341 342 344 347 349 352 351 350 348 329 321 315 313 326
310 309 311 318 319 316 311 311 311 310 310 311 314 315 314 315 318 319 318 318 318 318 321 322 321 324 325 324 324 324 325 325 327 330 330 330 334 333 334 339 341 341 340 341 342 341 341 343 344 344 345 346 347 347 350 354 352 351 338 324 315 310 314
309 309 310 310 311 314 313 310 310 311 311 313 314 315 315 316 318 318 319 317 318 320 321 321 322 322 322 324 324 326 326 326 326 325 326 325 326 325 326 330 333 337 342 342 342 342 342 342 343 343 345 346 347 348 350 352 354 342 346 331 317 310 308
310 310 310 311 312 312 315 311 312 312 313 315 316 316 317 317 317 319 318 315 319 321 322 322 321 322 322 324 323 324 325 325 325 323 322 323 325 325 324 325 328 332 335 337 339 339 339 341 344 345 345 346 346 347 351 353 352 348 340 340 324 312 308
310 310 310 311 311 314 312 310 310 311 312 313 314 315 316 316 315 318 316 316 321 319 319 321 321 321 321 320 320 321 322 323 323 323 323 323 323 323 326 325 325 324 326 329 330 335 338 338 341 342 344 344 344 345 350 355 352 352 348 337 329 318 311
310 310 310 310 310 312 311 310 311 311 311 312 312 313 316 316 315 315 315 318 320 318 319 320 320 321 322 322 322 322 323 322 322 322 323 324 324 325 326 327 328 328 328 329 332 333 334 334 336 337 340 342 346 349 349 352 352 352 353 351 348 338 324
310 310 309 309 311 313 311 311 310 311 310 311 312 312 314 315 316 316 317 317 317 317 318 318 320 321 320 318 319 320 321 321 321 321 323 322 322 322 325 326 326 326 328 328 327 328 331 335 339 340 336 338 339 344 346 346 349 350 350 350 351 350 347
309 309 310 309 311 311 310 310 308 309 310 310 311 312 314 314 314 315 315 316 317 317 318 319 319 317 315 316 316 318 319 320 325 324 320 320 321 320 320 321 323 322 322 323 324 324 323 322 323 323 328 328 327 326 327 331 336 338 340 346 346 345 344
308 309 309 309 310 311 309 309 309 309 310 310 311 312 312 312 313 314 313 314 316 316 315 317 318 317 315 315 315 316 321 321 318 318 318 319 320 320 320 320 321 320 320 320 321 323 323 320 318 320 319 320 320 320 320 323 326 330 331 335 324 330 334
308 308 308 309 310 309 309 311 309 309 310 310 311 311 311 311 312 313 313 313 313 314 313 315 315 313 312 313 314 315 316 317 316 316 318 318 319 320 321 327 316 315 319 320 325 320 312 309 315 319 319 318 319 322 322 323 326 322 315 308 306 306 308
308 308 308 307 308 308 307 308 311 311 310 309 311 310 311 310 310 310 312 312 313 313 312 312 313 314 312 315 314 315 317 317 316 317 316 317 317 318 319 320 321 310 309 311 315 312 307 306 306 307 310 318 317 320 317 316 312 308 307 307 307 306 306
307 307 308 308 306 307 308 309 309 309 309 309 310 309 309 309 309 309 311 311 312 312 311 312 312 310 311 311 312 315 315 313 314 316 316 315 316 316 317 317 317 318 312 308 308 308 306 305 304 303 303 305 309 315 319 315 310 308 307 307 306 305 303

ECMWFFLT1_sfc_thetae_084.txt.gz
Theta_e
342 341 342 343 343 342 340 335 334 335 335 337 338 338 340 341 344 345 344 346 346 347 350 349 348 351 351 350 351 351 349 350 354 352 350 349 350 351 350 353 353 352 354 355 354 355 357 359 358 360 359 360 359 358 357 359 359 363 360 359 358 358 358
338 340 342 344 344 346 346 345 344 338 336 340 340 340 342 343 345 345 344 346 346 346 350 350 348 350 351 352 352 352 350 350 354 357 353 353 356 353 352 353 354 353 354 354 354 357 358 358 357 358 358 361 358 358 357 359 358 358 361 358 355 356 358
336 339 341 340 340 341 341 338 341 342 344 343 340 340 342 344 346 346 345 346 347 346 350 352 350 350 352 352 352 352 352 351 352 355 354 353 355 353 354 354 354 354 354 356 355 357 359 358 357 358 358 359 357 358 357 358 358 359 360 358 356 357 357
337 339 340 342 340 342 342 342 343 345 345 345 346 341 341 344 346 348 347 347 348 347 348 352 351 351 352 352 352 352 352 352 352 354 354 354 355 355 354 354 353 353 354 353 355 358 360 358 358 358 364 358 359 359 358 358 360 360 360 359 357 357 358
336 336 336 338 341 342 343 343 342 342 343 346 346 348 344 345 347 349 349 349 350 349 349 352 353 352 353 353 353 354 353 353 352 353 353 354 355 356 354 353 353 352 353 354 354 356 357 357 357 357 360 356 357 359 360 359 360 361 359 360 358 357 358
331 332 333 336 340 341 344 344 344 344 344 345 346 347 347 347 347 349 351 351 351 352 351 353 354 354 353 354 353 354 354 354 354 354 353 352 352 353 353 353 353 353 352 351 354 354 355 356 355 357 358 357 356 359 359 359 360 360 359 360 359 359 358
332 333 334 337 340 341 343 345 346 345 346 346 347 350 349 348 349 351 354 353 353 352 351 353 355 356 354 355 355 355 354 354 354 354 353 352 352 352 352 352 353 353 352 352 350 351 354 354 354 356 357 357 356 357 358 357 357 358 358 359 358 357 357
326 327 331 340 341 342 341 344 345 346 347 348 349 349 348 350 349 349 351 353 353 352 353 353 354 354 351 347 343 343 344 346 348 350 353 352 351 352 351 352 352 352 351 351 351 350 354 353 354 355 356 356 355 356 356 356 356 357 357 357 357 357 359
325 325 326 329 334 339 341 342 342 344 346 346 347 347 348 350 348 349 349 349 350 349 349 350 346 347 347 349 348 347 347 346 345 345 346 348 347 347 350 351 352 352 351 350 350 350 350 353 353 354 355 355 355 354 354 355 355 356 356 356 357 356 356
323 323 324 326 329 332 336 341 341 342 343 343 344 345 346 350 350 350 350 347 348 348 348 350 349 349 347 348 349 351 349 348 349 349 348 348 347 346 345 345 346 352 351 351 350 350 350 351 353 354 353 353 353 352 352 353 353 353 355 355 355 355 354
322 323 323 323 324 326 329 333 336 337 340 340 342 347 346 346 348 348 349 349 348 347 350 349 348 349 347 347 348 350 349 348 350 348 349 349 351 350 349 346 345 346 347 349 349 350 349 350 350 352 353 352 352 351 351 352 353 353 353 354 355 355 354
321 322 321 321 322 323 325 326 327 328 332 336 339 339 339 339 341 342 345 347 348 349 349 347 350 350 348 348 347 346 347 348 349 349 348 350 351 351 352 349 347 346 347 349 349 347 349 349 349 349 351 352 352 352 352 351 353 353 353 353 354 354 354
320 320 320 319 319 321 323 324 325 327 328 329 332 338 339 340 340 340 340 343 345 348 348 348 348 349 349 346 346 346 346 348 349 350 351 352 351 352 352 351 350 349 347 349 352 349 345 348 349 350 348 350 352 352 353 353 353 353 352 352 352 354 354
321 319 318 318 318 318 319 321 323 325 326 328 329 329 330 333 336 338 339 341 343 345 347 351 350 349 350 348 346 345 345 347 350 351 351 351 351 350 351 352 352 351 349 351 352 352 348 345 348 349 349 349 350 351 353 353 353 353 353 352 351 351 353
317 316 317 316 316 317 318 319 320 321 324 326 327 327 328 329 329 332 336 339 343 347 348 350 348 347 348 349 348 348 349 350 350 351 352 351 349 348 349 351 350 351 353 354 354 356 352 347 346 347 350 350 349 349 350 351 352 353 353 353 352 350 349
315 315 315 315 315 316 317 318 319 321 322 324 325 325 327 327 328 331 334 339 344 345 347 348 346 345 346 346 346 347 347 348 351 351 349 348 347 346 347 349 353 354 354 354 355 353 353 351 345 346 347 350 351 350 350 350 351 354 347 351 354 352 352
314 314 314 314 315 314 315 316 317 318 320 322 324 326 327 329 330 333 335 337 339 340 342 344 343 344 345 345 347 348 348 348 348 347 347 349 350 350 351 352 354 354 353 351 351 350 351 352 349 349 345 346 349 351 351 351 352 346 337 337 344 354 351
313 314 314 314 314 314 314 315 316 316 316 318 321 324 326 326 328 330 332 333 334 336 337 339 338 338 338 340 342 345 346 346 346 345 346 346 345 346 347 350 350 349 349 349 351 351 354 352 351 349 350 349 347 347 350 351 349 337 333 334 334 343 353
311 312 313 314 315 316 316 315 316 315 315 317 319 321 324 325 325 326 331 332 331 331 331 331 332 333 333 336 338 341 342 344 346 346 345 346 345 345 347 347 349 349 351 352 353 354 351 350 351 350 350 350 348 349 351 351 342 335 331 331 331 331 343
312 313 314 315 315 316 316 316 315 316 317 317 318 320 323 323 321 323 329 334 331 328 328 327 327 327 328 331 334 335 338 341 344 344 343 346 346 346 346 346 345 347 349 352 352 351 351 352 350 349 348 349 349 348 350 349 347 335 329 325 325 327 330
310 312 313 313 314 316 318 319 317 317 317 319 321 319 319 320 322 324 325 329 330 330 328 327 326 326 326 327 329 333 334 336 337 340 342 344 345 345 345 345 346 348 350 352 352 351 351 351 349 349 351 351 350 349 349 351 339 332 332 326 321 322 328
311 312 312 312 312 313 315 317 317 318 320 325 320 320 320 319 319 319 323 330 331 330 331 331 330 330 330 329 330 330 332 334 335 337 339 342 344 343 343 344 345 344 346 348 349 351 351 351 352 350 350 351 351 350 349 351 334 332 332 328 324 323 332
311 311 311 312 312 312 314 317 318 319 316 315 317 321 321 321 320 319 319 319 320 321 321 321 323 325 326 325 327 333 334 336 335 335 335 337 337 339 339 340 339 340 344 344 343 342 345 347 349 351 352 352 351 350 350 351 338 327 325 323 323 326 334
311 311 311 311 310 311 311 312 312 315 313 314 316 318 321 321 320 319 319 319 319 320 320 319 318 319 321 320 321 322 323 329 331 333 335 333 333 336 338 338 340 339 341 344 342 341 341 344 347 348 350 351 352 353 351 352 347 326 319 318 319 329 335
308 308 308 308 309 309 310 312 313 313 313 313 314 317 319 321 320 319 319 319 318 319 319 320 322 322 321 321 320 321 322 322 325 327 330 331 332 335 337 336 336 339 341 343 343 342 342 343 344 345 346 348 349 355 353 352 348 329 320 322 315 325 335
306 307 309 309 310 310 311 312 311 310 310 311 312 316 317 317 318 322 318 317 318 318 318 319 321 322 323 322 322 322 323 323 325 326 325 324 325 328 332 338 338 335 337 339 341 341 342 344 340 339 341 342 342 343 345 349 350 344 325 322 319 319 340
308 309 309 311 313 317 309 309 310 310 311 311 312 313 316 318 318 317 319 317 316 317 318 318 320 322 321 321 322 323 324 324 324 325 324 322 323 326 328 329 332 335 336 337 337 339 340 340 339 339 339 340 342 343 344 348 349 348 330 322 319 317 323
311 312 314 318 318 314 310 310 310 311 312 313 314 316 316 318 318 317 315 315 315 317 318 320 319 319 319 321 322 324 324 323 325 326 324 324 324 321 321 323 326 331 335 338 338 337 338 339 340 340 341 342 344 345 346 350 351 350 336 325 318 316 312
307 308 308 309 311 315 312 310 310 311 311 313 314 314 315 318 317 316 314 313 314 317 318 320 318 318 318 320 321 321 321 322 323 324 323 324 324 321 321 321 322 323 327 329 333 335 337 337 338 339 340 342 344 346 348 349 351 343 347 335 324 317 311
308 308 309 310 312 312 315 310 310 310 311 312 313 313 313 314 316 316 314 311 315 316 318 317 318 318 319 321 320 320 321 322 323 322 322 323 323 323 321 321 322 323 325 325 326 327 328 330 334 337 339 341 343 345 347 348 350 347 343 342 329 317 311
308 308 308 309 310 313 311 309 309 309 309 310 311 312 313 312 314 314 311 311 316 316 314 316 318 318 319 318 318 319 319 319 319 320 321 321 321 321 322 321 322 322 323 325 324 324 325 327 330 332 333 336 339 342 346 350 351 350 347 340 332 322 314
307 307 308 308 308 310 309 309 309 309 309 309 310 311 314 312 312 312 311 313 316 315 313 316 317 318 317 315 315 315 316 317 318 319 320 320 320 321 321 321 323 322 322 323 323 323 323 325 327 328 325 323 329 332 334 338 335 333 341 348 349 340 326
305 306 306 307 309 311 308 308 308 309 310 309 309 309 312 310 312 313 313 315 314 315 314 316 318 317 314 312 313 314 315 315 317 317 315 315 316 318 320 319 319 319 320 318 316 316 318 320 322 321 320 322 322 322 324 323 325 328 328 331 336 341 341
305 305 306 307 309 308 307 306 306 307 309 308 308 309 311 311 310 311 311 311 313 312 313 316 317 314 311 311 312 313 315 316 321 318 314 315 316 316 316 317 319 319 318 318 317 317 318 319 319 318 318 317 318 318 319 319 318 320 323 325 330 335 335
305 304 305 306 307 308 305 306 307 307 309 309 308 308 308 308 309 310 309 310 311 310 311 313 314 314 311 311 311 311 317 317 315 314 314 314 314 315 315 316 317 317 317 318 321 322 320 317 316 320 317 316 316 316 316 317 318 321 319 327 318 324 328
304 304 304 306 308 306 307 308 306 307 308 306 306 307 308 307 307 308 309 309 310 310 311 313 314 312 310 311 311 312 313 315 313 312 315 313 312 313 314 320 314 313 316 316 322 317 310 307 312 315 315 314 315 317 316 316 319 316 309 305 303 303 304
303 304 305 306 304 304 304 305 310 309 307 306 308 308 308 308 307 307 309 309 309 310 309 309 312 312 310 312 310 313 315 314 312 312 312 312 312 312 313 313 314 306 306 309 313 309 304 302 303 304 307 316 313 315 312 311 308 304 303 301 301 301 301
304 304 305 304 303 305 305 306 306 306 306 305 306 306 306 308 307 306 308 309 309 310 308 308 310 308 308 309 310 314 314 312 313 314 313 312 312 312 312 312 311 313 308 305 306 305 303 302 302 302 303 305 308 311 313 310 306 303 301 301 300 300 300

ECMWFFLT1_sfc_thetae_087.txt.gz
Theta_e
336 337 337 339 339 333 330 331 332 333 333 333 334 335 337 339 341 341 342 344 344 342 344 346 345 347 347 347 347 347 349 349 348 348 347 345 346 348 348 349 349 349 350 351 351 353 355 357 358 359 358 357 357 357 356 356 356 360 356 356 356 356 352
335 337 336 338 337 337 339 332 332 334 334 334 334 335 336 339 341 341 341 344 344 343 344 346 346 347 348 347 348 347 346 348 351 353 350 349 351 349 349 351 351 350 350 353 352 353 355 356 357 357 357 357 357 357 356 356 356 355 357 355 352 352 354
336 334 338 338 338 339 340 339 338 335 334 334 335 335 335 338 341 341 341 343 343 344 344 346 347 347 348 348 347 347 347 347 350 352 349 348 349 350 350 352 352 351 352 353 354 354 356 356 356 356 357 357 357 356 355 355 356 355 356 356 354 353 352
335 337 338 340 340 341 342 342 341 341 338 336 336 336 336 338 342 342 342 343 343 344 344 345 346 347 348 348 347 347 348 347 349 352 353 350 350 351 351 350 352 352 352 353 355 356 357 356 356 355 362 356 356 356 355 355 355 355 356 357 354 353 354
335 337 338 339 340 340 342 342 341 342 341 342 341 339 338 339 342 343 343 344 344 344 346 347 347 347 349 349 349 349 349 349 348 350 352 352 352 352 351 351 351 352 352 353 354 355 356 356 355 355 356 356 356 356 356 355 355 356 356 357 355 354 354
334 334 336 338 339 340 342 344 345 344 343 342 343 343 342 343 343 343 344 345 345 346 347 348 348 348 348 350 350 351 351 350 349 350 351 352 352 353 351 351 351 351 351 352 354 353 354 355 355 355 355 356 356 356 357 356 355 357 356 356 356 356 355
332 334 336 337 338 340 343 345 346 346 347 347 346 348 346 345 348 351 350 348 349 346 348 349 350 350 350 352 351 352 351 351 351 350 351 351 352 353 352 352 353 352 352 352 351 352 352 354 354 354 355 356 355 355 356 356 355 356 356 356 355 355 355
331 332 335 338 340 342 345 346 346 347 347 347 347 346 346 348 348 348 347 347 347 348 349 350 350 350 350 349 349 350 349 348 347 348 350 351 349 350 351 351 352 352 352 351 350 350 351 352 354 354 354 355 355 354 355 356 355 356 356 355 355 355 357
328 330 333 339 341 341 342 342 344 345 346 345 346 346 347 345 345 347 347 347 346 347 348 350 350 350 350 348 348 348 347 347 347 347 348 348 347 349 350 350 350 351 351 351 351 350 350 351 352 353 353 354 354 354 354 354 355 355 355 354 354 354 355
324 324 327 330 334 338 340 339 340 340 341 342 343 345 346 343 345 345 346 347 346 347 348 349 349 350 350 349 349 348 347 347 347 348 348 348 346 346 345 346 346 349 350 350 350 350 350 350 351 351 352 353 353 353 353 353 354 354 354 354 354 354 354
322 323 324 325 326 330 334 336 336 337 338 339 343 344 344 343 343 344 345 346 346 347 348 349 349 348 349 350 349 348 347 347 347 347 347 348 348 347 347 346 344 346 347 348 349 349 348 349 350 350 351 352 352 352 352 352 353 353 353 353 354 354 354
320 321 321 323 325 326 327 329 330 331 332 334 337 339 341 344 344 344 344 345 346 346 347 348 349 349 348 349 349 348 347 347 347 347 347 348 348 349 349 348 346 345 345 346 347 347 348 347 348 350 350 351 351 352 352 352 352 352 352 352 353 353 353
318 319 320 322 323 324 325 325 326 328 330 331 334 338 339 340 343 345 344 345 345 346 347 348 348 348 347 348 348 347 347 347 347 347 348 349 349 350 350 350 349 347 345 347 347 345 345 346 347 348 349 351 351 351 351 351 351 351 351 351 351 351 352
319 316 317 319 320 320 321 322 324 325 327 328 329 332 334 338 341 342 343 343 345 345 346 347 348 346 346 346 345 345 346 347 348 349 349 349 349 350 351 351 350 349 348 347 346 349 348 344 345 346 348 348 350 351 352 351 350 350 350 351 351 350 350
314 314 315 316 317 319 320 321 322 323 325 327 330 330 331 333 336 339 342 344 345 346 347 347 346 345 345 344 344 344 345 345 348 349 349 351 349 348 348 349 348 349 348 349 349 351 351 350 346 345 346 347 347 349 351 351 351 351 351 350 350 350 350
312 313 314 315 316 317 318 319 321 322 324 326 328 330 332 333 335 340 342 343 344 345 346 346 346 347 347 346 346 346 347 346 348 349 348 347 346 345 345 346 347 349 348 350 351 351 351 349 349 345 345 346 346 347 348 349 351 354 347 350 352 350 350
311 311 312 313 314 315 316 317 319 321 323 325 327 329 331 332 334 336 339 341 343 343 345 346 345 345 346 345 346 347 347 347 347 348 347 348 348 347 348 348 347 348 350 350 350 348 347 350 347 347 344 344 346 347 347 348 349 345 337 337 343 353 349
311 311 312 312 313 313 314 316 317 319 321 323 325 327 329 330 333 333 332 333 335 340 344 343 343 341 343 344 345 345 346 346 345 345 346 345 345 346 348 350 350 347 345 346 348 348 351 350 348 347 347 346 344 346 348 348 347 337 333 333 333 343 352
311 312 312 313 314 313 312 314 316 318 319 321 322 322 325 330 331 329 329 328 329 332 333 335 337 338 339 340 340 341 343 344 343 343 343 344 344 345 346 347 346 346 347 348 350 350 347 346 347 347 348 348 345 344 345 348 343 336 334 332 331 331 342
312 313 313 313 313 313 313 314 315 317 318 319 320 323 325 329 330 329 328 327 327 327 327 328 329 330 331 334 335 337 338 340 342 341 342 343 343 343 344 345 345 347 348 350 351 350 349 349 347 347 345 346 346 345 347 347 346 335 331 329 328 329 333
311 313 313 313 313 314 314 314 315 316 317 319 322 322 322 322 325 328 328 327 326 327 327 327 327 327 328 328 330 332 334 335 336 337 340 342 342 341 341 342 342 342 343 347 347 347 348 350 349 348 350 350 349 347 349 350 339 333 329 324 322 324 329
310 311 311 313 314 315 315 315 314 316 319 324 321 320 319 319 323 325 324 326 327 327 325 323 322 321 321 321 323 324 327 330 332 333 334 335 338 338 337 338 340 341 342 346 342 341 342 343 346 347 348 349 350 348 348 351 336 330 328 326 324 323 333
309 309 310 312 314 313 314 314 315 318 319 318 318 318 319 320 320 319 319 319 319 319 319 319 319 320 320 320 321 323 323 326 327 330 331 330 329 330 334 337 338 339 343 343 342 341 341 339 342 344 345 346 347 347 347 349 342 333 327 324 323 327 334
309 309 309 310 311 312 313 314 316 318 317 317 318 318 319 319 320 319 318 318 319 319 319 320 319 320 321 320 321 321 322 324 325 325 324 323 323 326 328 331 335 337 340 341 340 340 341 342 342 342 342 341 343 345 345 345 342 326 324 321 322 327 337
307 307 308 309 310 311 313 314 315 315 316 316 316 317 319 319 318 317 317 317 316 317 316 317 319 319 319 320 321 321 322 323 325 324 322 321 322 325 325 327 331 335 338 337 338 339 338 342 341 341 341 342 341 344 344 344 343 329 324 321 320 329 337
306 307 308 309 310 311 312 314 314 313 313 313 314 318 318 319 319 320 316 316 316 315 316 316 317 317 318 320 321 321 323 322 324 324 322 320 321 322 324 328 326 326 330 333 336 337 338 340 340 338 339 341 344 343 344 344 345 344 329 322 321 319 334
307 308 309 310 312 317 311 312 312 312 313 314 316 318 318 317 315 315 317 315 313 314 315 316 317 317 318 319 320 321 321 320 321 322 321 321 321 323 324 322 322 322 325 327 331 334 335 337 339 340 340 341 343 345 344 346 347 346 329 324 319 316 319
310 311 313 316 317 314 310 310 310 311 311 313 316 317 315 314 314 313 313 312 312 313 315 316 316 317 318 319 319 320 320 320 322 323 322 323 323 320 319 321 321 322 323 324 326 327 329 332 336 337 338 340 343 343 343 347 349 348 335 326 320 314 311
307 308 309 309 311 314 311 309 309 310 310 311 313 314 316 315 314 313 311 310 311 314 314 316 316 317 318 319 317 319 319 320 320 321 321 322 322 320 319 319 320 321 323 322 323 323 324 326 328 331 333 335 338 341 344 346 349 343 343 331 323 320 315
307 308 308 310 310 311 312 308 308 309 309 311 312 312 313 314 313 314 313 308 312 314 315 315 316 316 316 317 315 315 317 319 320 319 318 319 319 320 318 318 319 320 321 320 320 319 319 321 324 325 323 322 323 325 329 331 334 334 332 333 325 318 316
307 307 308 308 309 312 309 307 307 307 308 308 310 311 311 312 313 313 310 309 314 314 312 315 317 315 313 312 312 314 314 315 316 316 315 316 317 317 318 317 318 317 318 318 316 316 316 318 321 320 319 320 320 320 322 325 327 327 330 330 328 322 319
308 308 308 308 308 309 308 308 307 307 307 307 309 310 312 310 310 310 309 311 313 312 313 316 316 315 312 311 312 311 313 313 314 314 313 315 315 317 316 316 317 317 316 315 315 316 316 318 319 319 318 318 318 319 319 321 321 322 323 330 332 329 325
306 306 307 306 308 309 306 307 307 307 308 307 307 309 309 308 308 309 309 311 310 311 313 314 315 314 311 309 310 311 312 312 313 312 312 312 312 313 315 314 314 314 316 314 313 314 317 316 318 317 316 317 316 316 318 318 318 318 320 322 324 326 326
304 304 306 307 307 307 305 305 305 307 307 306 305 307 307 307 306 306 307 308 309 309 312 314 315 311 308 309 310 311 314 313 318 315 311 311 312 311 311 312 315 313 313 313 313 314 314 314 316 314 315 313 314 314 315 315 316 317 318 320 321 319 318
304 304 305 305 305 306 303 304 306 307 308 306 304 305 305 305 306 307 306 307 308 309 311 313 313 311 308 309 308 309 315 315 312 311 312 310 311 311 311 312 313 312 312 313 316 318 316 313 312 317 313 312 312 312 313 315 315 318 315 317 309 310 311
304 304 304 305 306 303 305 306 305 307 306 303 303 304 304 304 305 306 307 307 308 309 311 311 311 307 307 308 308 310 313 313 311 310 313 311 310 310 311 316 311 310 311 312 319 315 307 306 310 313 312 310 312 313 312 313 316 313 304 301 300 300 300
303 303 304 304 303 302 304 305 308 307 306 304 306 306 306 305 305 304 306 307 307 308 308 308 309 308 306 309 308 312 314 312 311 311 310 309 309 309 310 309 310 305 305 307 310 306 301 299 300 301 304 313 310 313 311 310 305 301 300 300 300 299 299
304 304 305 303 303 305 306 305 305 304 305 303 305 304 304 306 305 304 306 307 306 306 305 307 308 306 306 307 307 311 311 309 309 311 310 309 307 308 309 308 308 309 305 304 304 304 302 300 299 299 299 301 305 308 310 309 305 301 300 300 300 299 298

ECMWFFLT1_sfc_thetae_093.txt.gz
Theta_e
338 339 341 339 337 337 339 340 342 343 344 345 346 346 348 349 352 354 353 355 356 357 358 359 359 361 360 359 361 361 361 361 361 360 360 360 360 361 360 359 360 363 361 360 361 363 366 369 368 368 370 370 369 370 371 371 370 367 368 369 367 367 366
337 338 339 339 337 337 339 341 342 343 344 345 346 348 348 349 352 352 353 356 356 357 357 358 359 359 360 361 360 362 361 361 362 363 361 363 364 363 361 362 362 364 365 364 364 367 367 366 367 368 368 369 369 371 369 370 370 369 366 368 366 366 366
337 339 342 341 338 337 340 341 342 343 344 344 345 346 348 350 352 353 354 354 355 357 358 358 359 358 359 361 361 361 361 360 360 359 359 356 359 356 360 363 362 361 361 364 366 364 365 365 368 369 368 367 366 370 371 370 371 369 369 369 367 363 366
340 341 343 344 342 340 340 341 342 343 344 345 345 346 348 351 353 354 355 355 355 356 356 356 357 357 358 359 359 360 360 361 360 357 357 357 358 359 361 362 363 363 362 361 361 363 361 365 366 368 369 369 369 369 369 368 368 369 369 370 368 366 366
338 342 343 343 343 340 338 339 341 342 343 345 347 348 349 351 352 353 354 354 356 355 356 355 355 357 358 358 356 357 358 358 359 359 359 359 361 361 359 357 360 361 361 362 365 366 367 367 365 367 367 370 368 369 369 370 369 371 370 370 367 367 363
336 337 340 343 345 344 342 340 341 342 343 344 345 347 348 350 349 349 351 352 354 356 357 355 355 357 356 356 356 355 358 359 362 362 360 361 361 358 358 359 359 360 358 361 363 363 366 366 365 365 364 364 364 364 366 367 366 367 369 369 368 365 362
336 336 335 337 340 343 344 346 344 343 345 345 345 346 346 347 347 349 350 351 354 354 353 353 353 356 357 356 357 358 357 356 358 357 359 359 360 359 360 361 362 360 360 364 363 364 363 365 367 367 365 364 365 363 366 369 368 368 370 370 369 368 367
338 335 337 340 341 340 342 344 347 348 345 344 344 345 346 346 349 350 349 350 352 350 353 353 354 357 358 358 358 357 357 357 357 357 359 358 359 359 360 360 362 363 365 361 364 365 362 365 363 365 365 364 365 367 366 369 371 367 367 367 367 366 362
338 339 339 342 343 344 347 349 350 348 346 345 345 346 346 347 348 350 351 352 352 352 355 356 357 358 360 360 359 359 359 359 358 357 356 355 356 355 355 357 359 363 362 359 359 364 363 363 362 366 368 365 366 368 367 369 368 368 368 367 368 366 363
338 338 341 344 344 346 347 348 349 348 347 348 348 348 347 348 351 352 353 354 354 353 357 358 359 359 359 359 358 359 361 360 360 358 355 354 354 354 354 354 357 361 359 358 358 359 364 364 364 365 368 365 366 367 367 367 366 366 367 368 368 366 366
338 340 340 341 341 343 345 345 344 345 346 347 348 347 349 350 353 353 353 354 353 354 357 358 361 359 357 356 355 357 357 359 361 359 360 359 360 356 355 355 355 358 357 357 357 359 361 364 365 366 366 362 364 365 366 366 366 367 365 366 367 367 365
337 338 338 339 339 340 340 341 342 342 344 346 348 349 351 352 351 350 351 352 355 355 355 356 359 359 357 355 352 353 356 358 359 360 360 361 361 361 358 356 356 357 358 358 358 360 358 360 362 362 364 364 364 365 366 367 367 367 366 364 365 366 366
332 332 333 334 335 336 337 340 341 342 343 345 346 348 350 351 351 350 351 354 356 357 357 357 355 354 353 351 352 353 356 357 358 359 361 362 363 363 361 359 358 357 356 358 358 358 357 357 361 362 362 363 363 362 364 365 364 367 368 366 365 365 366
330 330 331 332 334 335 335 337 339 340 341 344 346 348 347 347 349 350 351 353 354 356 355 353 352 353 354 352 352 351 354 356 356 355 356 358 359 361 361 360 358 358 358 358 357 356 357 356 357 359 360 361 361 363 364 365 364 366 367 366 365 364 364
329 329 330 332 333 334 334 335 332 333 335 338 342 344 345 346 347 349 350 352 353 353 353 354 353 352 352 352 351 349 351 351 351 349 347 348 352 354 356 358 359 359 359 359 358 356 357 357 356 356 357 358 360 361 361 359 359 360 363 364 365 364 362
327 328 329 330 331 332 333 332 332 333 335 337 338 339 340 343 346 347 346 347 350 351 351 352 350 350 350 348 348 347 347 346 347 347 348 348 348 348 350 354 356 357 358 358 358 360 360 361 360 357 356 356 357 358 356 356 357 362 354 355 361 363 361
326 327 327 328 330 329 332 333 333 335 336 336 337 339 340 342 343 344 344 345 346 348 348 347 345 345 345 345 346 347 348 347 347 346 345 348 348 348 350 352 353 354 354 356 358 360 361 360 359 358 357 356 356 355 354 354 354 347 342 339 340 356 360
324 325 325 326 328 331 332 332 332 332 334 334 335 336 337 338 339 340 341 343 345 347 348 348 347 346 346 347 347 347 346 346 346 345 346 346 347 348 351 353 353 353 353 354 354 357 357 357 359 360 359 358 358 356 355 355 340 332 334 335 335 345 357
325 326 325 327 328 329 330 330 330 330 330 331 332 332 334 335 334 334 336 338 341 343 345 346 347 346 347 348 350 349 347 347 346 346 347 347 349 350 352 353 352 352 353 354 355 356 356 358 358 358 359 360 360 358 358 355 335 329 329 331 331 334 348
325 326 327 327 327 326 326 330 331 330 328 328 329 330 331 332 331 329 329 329 331 333 334 335 336 337 338 340 342 344 346 347 347 345 346 348 349 349 350 349 348 350 352 354 356 354 353 354 355 356 357 358 359 361 359 351 335 328 327 327 329 331 341
323 324 325 325 325 324 327 328 328 328 328 328 327 325 324 324 325 325 325 326 327 328 329 330 330 331 331 332 333 333 333 332 332 335 338 341 344 345 344 345 345 347 348 349 350 350 349 348 347 349 353 355 357 358 354 345 328 326 325 324 327 328 340
321 323 325 325 323 324 326 326 327 328 327 327 325 324 324 323 323 323 322 325 326 327 327 327 328 328 328 327 328 328 328 328 330 331 332 333 335 338 340 342 342 343 345 346 348 351 350 348 345 345 348 351 353 354 353 347 325 324 324 324 328 335 357
321 322 322 323 323 324 326 327 326 326 326 325 323 323 323 324 322 321 321 322 322 325 325 324 324 324 326 327 329 329 328 328 328 329 329 330 329 330 331 334 337 342 345 345 346 346 348 347 344 345 344 345 349 350 350 351 334 322 321 320 323 344 358
320 321 321 322 324 324 325 325 325 325 323 322 321 322 322 323 322 322 322 321 321 321 322 322 322 323 324 325 328 329 330 330 329 328 328 329 329 329 331 333 336 339 342 344 343 344 345 347 347 347 345 342 342 345 346 347 333 319 318 318 318 339 356
318 320 321 322 323 323 325 326 326 324 324 322 320 321 322 322 322 321 320 321 322 323 322 323 323 322 322 324 326 328 327 328 329 328 329 330 330 331 332 333 334 336 341 343 342 343 345 345 346 346 346 346 345 345 346 342 331 318 317 317 318 338 354
318 319 320 321 324 325 326 327 325 323 322 322 322 322 323 322 322 321 320 320 320 320 321 322 325 325 323 323 324 325 327 327 328 329 329 330 330 331 331 333 333 334 336 337 340 341 343 343 343 343 344 341 337 335 333 332 333 325 314 314 316 322 349
320 320 320 321 322 325 324 324 323 321 321 321 322 321 322 321 320 320 321 321 320 320 321 323 323 324 326 324 323 323 323 326 327 326 327 328 329 329 330 331 331 332 332 331 332 334 336 339 338 334 332 332 333 334 334 335 334 328 312 311 311 314 328
318 320 321 323 324 323 322 321 322 321 321 322 321 321 321 320 319 319 319 318 317 318 321 322 323 324 323 322 322 323 323 323 324 326 325 327 328 328 327 328 330 330 329 329 331 332 332 332 330 328 328 329 329 331 334 334 332 335 317 311 309 308 314
319 318 319 320 321 321 320 319 319 319 320 320 321 321 321 321 321 320 319 317 317 319 320 321 322 322 321 322 321 322 322 323 324 324 325 326 326 326 325 326 327 328 330 330 330 330 329 330 330 329 328 328 328 329 331 333 333 330 331 314 309 308 308
318 319 318 319 319 320 320 318 318 317 318 319 321 322 323 322 321 320 318 319 321 320 320 320 321 321 320 321 320 319 320 321 321 322 323 324 324 324 325 325 326 326 327 328 328 328 328 328 329 330 326 325 325 326 329 332 333 329 326 324 312 309 307
316 317 317 318 317 319 319 317 316 316 316 317 319 321 323 322 320 319 318 320 322 321 320 320 320 319 319 319 319 319 319 320 320 320 320 321 322 322 322 323 325 324 326 327 326 326 326 326 326 326 326 324 324 324 327 329 331 330 328 324 321 312 310
316 318 318 317 317 318 318 317 316 315 314 315 316 317 320 320 320 318 319 321 321 321 321 320 319 320 319 320 320 320 319 318 318 319 319 320 321 321 321 320 321 322 322 322 322 323 323 322 322 322 324 323 324 324 326 328 329 328 327 327 325 323 317
316 316 316 316 318 318 317 317 316 315 314 314 315 315 316 318 318 320 321 321 320 320 320 319 318 318 319 319 319 320 321 319 318 317 318 319 318 318 318 319 318 319 320 320 319 319 319 319 320 320 320 321 322 323 325 326 326 324 324 324 323 323 324
316 316 317 318 317 319 319 318 317 316 315 314 316 316 316 317 317 319 319 319 318 318 319 318 317 316 316 316 317 317 316 316 316 316 315 315 315 315 316 316 317 316 317 317 317 317 316 317 318 319 319 319 320 322 323 322 323 322 320 320 319 320 322
317 317 316 315 316 318 318 317 316 316 314 314 315 316 316 316 317 318 318 318 319 319 318 316 315 315 314 314 315 315 316 315 315 314 314 314 315 315 317 316 316 317 317 318 319 317 316 318 318 319 319 319 319 320 321 322 321 321 311 317 306 312 317
317 316 317 317 317 317 317 318 317 316 315 315 316 316 316 316 316 317 315 317 317 317 316 316 315 314 314 314 315 315 314 313 313 313 313 312 312 315 316 315 310 312 317 316 316 313 304 305 316 316 318 319 321 322 318 318 319 308 299 298 297 298 298
316 316 316 316 315 315 317 316 316 316 315 315 316 315 316 316 316 316 316 317 317 316 316 315 314 313 313 314 315 314 314 313 313 314 314 314 314 314 314 315 316 305 303 306 311 305 299 297 297 299 303 315 318 320 314 310 305 299 297 296 296 296 296
317 317 316 316 316 316 315 314 314 315 315 315 315 314 315 313 315 317 315 317 317 316 316 314 313 312 312 313 314 314 315 313 314 314 314 313 313 314 314 314 314 316 307 304 303 302 300 299 298 297 297 299 306 313 319 313 305 298 296 296 297 297 296

ECMWFFLT1_sfc_thetae_096.txt.gz
Theta_e
343 344 345 345 345 344 344 345 347 346 347 348 351 350 351 350 353 355 355 358 359 360 362 364 364 363 363 362 363 363 363 362 363 361 360 362 362 363 362 361 362 363 361 359 362 362 366 366 367 367 368 369 370 373 374 374 369 368 370 372 370 368 368
340 343 344 345 344 345 345 347 347 347 348 349 351 353 352 352 354 356 358 362 362 361 362 361 363 362 362 363 362 364 364 362 363 362 361 363 364 364 363 363 363 363 364 364 363 366 367 366 367 367 366 369 368 372 371 371 370 370 368 371 367 368 369
339 342 345 346 345 345 346 347 347 347 349 349 350 350 353 355 359 361 362 362 362 363 363 361 363 361 362 363 363 363 363 362 362 360 359 357 360 359 361 362 362 361 362 363 366 363 364 366 366 368 368 367 366 371 371 373 372 369 369 368 367 365 369
342 341 342 347 348 347 348 348 348 348 349 351 350 350 355 358 361 362 363 363 362 362 362 359 359 358 360 362 362 362 362 362 362 359 358 357 357 358 360 361 361 362 361 361 361 361 360 364 366 367 366 368 368 369 371 370 370 370 370 370 367 367 366
340 341 342 344 347 346 346 347 348 350 350 352 353 354 356 359 360 362 362 362 363 362 361 358 354 355 358 360 359 358 360 360 360 360 359 358 361 360 359 358 358 359 359 360 363 364 365 365 364 366 367 369 368 368 369 370 369 370 371 371 369 368 364
340 339 342 345 346 346 346 346 348 350 351 352 354 354 355 359 358 358 360 361 362 363 363 360 354 355 355 356 357 356 359 361 362 362 360 359 359 357 358 358 358 360 357 359 361 362 363 363 362 363 363 364 363 364 366 368 367 367 370 371 369 367 363
343 345 345 344 347 347 347 347 347 350 352 353 354 355 355 357 357 358 359 359 362 361 359 358 355 356 357 355 355 356 357 358 359 358 359 357 358 358 358 358 360 358 359 362 361 362 362 362 363 364 363 363 365 363 367 369 368 368 370 370 370 369 366
341 344 345 347 348 347 346 347 346 349 351 351 352 354 356 356 356 357 354 354 358 357 360 360 360 361 363 360 357 357 357 357 357 359 357 355 355 356 355 356 358 360 361 359 361 360 361 363 362 363 364 363 364 365 366 368 369 366 367 369 368 369 364
342 343 344 345 344 343 344 349 348 346 347 349 349 352 353 353 352 354 355 356 357 357 360 361 362 364 367 364 362 361 359 358 356 356 355 352 352 351 351 353 356 359 358 355 354 360 361 361 361 363 367 365 366 367 368 368 368 367 367 368 367 367 365
342 343 343 344 343 341 341 343 343 345 345 345 348 350 351 350 352 352 355 356 358 358 359 361 363 365 366 366 364 365 362 360 359 356 352 349 349 349 350 350 351 355 355 353 351 353 362 363 364 366 368 367 367 368 368 367 367 367 368 367 367 367 367
340 343 343 344 343 345 347 347 345 345 347 351 351 348 348 348 350 353 354 357 357 358 360 361 363 364 365 365 365 364 364 362 361 359 359 359 356 351 349 349 348 350 352 351 349 350 358 364 365 366 368 364 365 366 367 367 367 367 365 366 367 367 366
340 341 342 343 343 343 343 344 346 347 348 348 347 346 347 352 353 355 356 356 358 358 359 361 362 361 361 362 362 363 362 359 357 358 360 361 361 360 355 352 350 350 350 352 351 352 353 359 362 362 365 366 366 366 367 367 368 368 368 365 364 365 365
340 341 342 341 343 343 345 344 344 346 348 349 349 348 348 350 351 353 352 352 356 358 359 360 360 361 362 360 357 357 355 353 357 358 361 363 364 364 362 357 353 351 351 353 352 351 351 353 357 360 361 362 362 362 365 366 365 367 368 367 366 365 365
340 340 341 342 342 343 343 343 345 344 345 345 348 350 350 351 352 350 349 348 351 356 357 358 358 358 359 359 357 357 356 357 358 360 363 366 366 366 365 362 358 357 358 358 356 353 353 352 354 356 358 358 358 360 364 366 366 368 368 367 365 364 364
335 336 337 337 338 339 338 338 341 343 345 346 347 347 347 348 350 352 352 351 351 354 354 354 355 355 355 357 356 356 358 359 358 360 362 363 363 363 364 365 363 361 361 361 359 356 355 354 353 355 357 357 358 358 361 360 361 362 364 364 363 364 362
335 336 335 334 336 336 338 340 339 342 343 344 346 345 345 346 346 348 349 351 353 353 354 354 354 354 354 353 354 356 357 358 359 358 357 357 357 358 360 360 361 361 362 361 360 360 360 359 358 357 356 357 359 358 357 357 358 364 360 362 363 365 362
334 334 333 334 336 337 338 338 338 339 340 342 343 341 342 345 346 347 349 351 352 352 353 354 353 355 354 352 353 353 355 355 356 355 353 352 352 355 356 356 358 359 360 360 361 362 364 362 360 357 357 356 356 356 353 354 356 345 346 346 350 359 360
334 333 334 335 336 337 336 337 337 338 339 339 338 340 342 344 344 345 345 346 349 352 354 354 353 352 352 353 354 354 352 352 354 354 355 354 353 352 353 354 355 357 357 358 358 361 362 363 363 364 362 359 358 357 355 356 334 333 334 340 341 350 360
332 335 336 335 336 336 336 336 336 337 336 336 337 338 340 342 342 341 344 346 348 350 351 351 352 352 352 352 352 353 353 353 353 353 354 355 356 356 356 355 353 354 355 355 358 358 360 363 363 363 363 363 363 361 360 360 333 331 333 333 335 337 352
334 334 335 336 336 335 335 334 334 334 334 335 336 335 334 336 337 337 339 340 341 341 341 342 342 343 345 347 349 351 353 355 353 352 353 354 354 354 354 354 353 355 357 357 358 357 359 362 362 363 364 363 363 364 362 357 335 330 330 331 331 333 340
334 333 333 334 335 335 334 333 333 332 332 332 331 331 330 329 330 332 334 335 334 334 334 335 334 335 335 336 337 340 344 346 346 347 348 350 351 352 353 353 353 352 353 355 357 356 358 360 360 361 361 360 360 360 356 345 328 327 328 328 329 331 340
332 332 332 333 335 335 335 334 333 330 328 329 329 329 329 328 329 329 329 329 329 329 329 330 330 331 331 331 332 333 335 338 339 341 342 345 349 350 348 349 350 351 354 354 357 357 357 357 357 357 357 358 358 357 348 341 322 325 325 324 325 332 356
332 330 331 334 335 334 335 334 333 330 328 327 327 326 327 329 328 328 327 327 326 326 326 325 326 327 329 330 331 333 334 335 334 335 337 338 338 339 341 344 345 348 350 353 354 354 353 354 353 355 354 355 356 356 350 343 325 318 319 320 322 340 363
330 332 331 332 334 334 333 330 330 330 328 326 325 326 326 327 327 326 324 324 326 326 325 326 323 325 328 329 331 332 334 336 338 338 335 334 333 334 338 340 341 344 348 348 349 351 350 351 350 350 351 350 351 352 344 336 323 314 315 316 318 338 361
324 326 328 330 331 331 331 330 329 327 326 324 323 324 325 324 325 323 322 321 321 323 324 325 324 324 325 326 328 331 331 333 333 333 335 336 336 337 338 338 339 342 345 347 348 347 350 352 349 348 349 349 346 344 341 337 329 314 313 313 314 336 359
322 324 327 329 330 331 331 330 328 325 323 322 323 325 326 324 323 323 322 323 324 322 321 324 325 325 326 327 329 331 332 330 332 333 333 334 334 336 338 339 339 341 343 346 349 352 349 350 345 342 344 345 345 344 339 334 331 324 311 311 313 317 350
323 325 326 327 327 329 327 326 326 324 324 325 325 323 323 324 324 324 325 324 323 320 321 324 326 329 329 329 326 325 328 330 329 329 331 332 333 333 335 336 336 336 339 343 340 344 344 343 339 339 341 342 343 343 342 338 332 325 310 309 310 311 326
324 326 329 329 329 327 325 324 324 324 324 326 326 325 325 326 326 325 323 322 322 324 324 323 324 326 328 328 329 328 327 327 329 329 330 332 333 332 331 333 336 335 334 337 337 338 337 336 336 334 336 338 339 341 338 336 333 331 316 310 308 308 312
323 324 326 328 327 327 325 324 323 323 324 323 323 323 323 324 324 323 323 322 323 325 327 326 326 324 325 327 327 328 328 328 327 329 330 330 332 331 330 330 332 333 335 336 337 336 334 335 333 333 333 335 337 338 338 335 332 329 327 313 308 307 309
325 325 324 326 327 327 326 327 325 324 325 324 325 325 325 324 322 322 321 321 324 325 326 327 327 327 325 325 324 325 325 326 326 328 327 327 328 329 330 329 330 332 333 335 335 334 335 334 335 334 332 331 332 334 337 337 332 327 326 324 312 309 308
324 324 324 324 324 326 326 324 323 322 322 323 325 326 327 326 324 324 322 323 325 325 324 324 325 325 324 324 323 324 323 323 325 325 325 324 325 326 326 328 329 327 330 332 333 333 332 332 333 332 331 330 330 331 334 336 337 334 328 324 321 314 313
325 325 325 325 325 324 324 323 322 321 320 321 323 324 325 324 324 323 323 324 325 325 325 325 324 324 323 324 324 323 323 322 321 321 322 323 324 324 324 323 324 326 327 327 327 329 331 330 330 329 331 329 330 330 332 333 334 334 332 329 327 325 318
326 326 325 324 325 324 323 322 320 320 319 319 320 322 323 324 324 324 324 324 324 324 325 325 324 323 323 323 324 324 324 323 322 321 321 322 321 321 322 321 322 323 325 325 324 324 324 326 327 327 327 328 329 330 331 332 331 329 328 327 326 327 329
326 325 326 326 325 325 324 322 321 320 320 320 321 322 322 323 323 324 324 324 325 324 324 324 323 323 323 322 322 322 322 319 316 319 318 318 319 319 319 320 321 321 322 323 322 322 322 323 324 324 325 325 326 327 328 328 328 325 322 322 322 323 324
326 327 327 326 326 325 324 323 322 322 320 319 320 321 321 322 322 323 323 323 324 324 322 320 319 320 319 319 319 318 320 319 319 318 317 318 320 318 319 320 322 323 323 321 320 319 320 324 323 324 324 324 325 325 327 328 326 320 308 316 305 313 320
325 326 325 325 325 326 324 324 323 322 321 321 322 321 321 321 322 322 321 322 322 322 322 321 320 320 320 321 319 318 318 319 317 317 317 316 317 321 320 313 309 314 321 320 316 309 301 305 319 318 322 325 326 325 323 322 318 302 297 296 297 297 298
324 323 323 324 324 324 323 322 321 321 320 321 322 320 320 320 320 320 319 321 322 321 321 321 319 318 319 320 319 316 318 317 318 319 320 318 318 319 318 320 316 301 303 311 313 305 297 297 297 299 304 316 323 321 309 306 300 296 296 296 297 296 296
324 323 322 323 323 323 322 321 320 319 319 320 320 320 320 318 319 320 319 321 321 321 320 319 318 317 317 318 319 319 320 319 318 319 318 318 319 321 319 318 320 320 304 302 306 305 300 298 296 296 297 300 307 318 323 311 301 295 296 297 297 296 295

ECMWFFLT1_sfc_thetae_099.txt.gz
Theta_e
343 339 341 343 345 344 344 344 345 346 347 347 347 347 348 348 351 352 353 355 357 358 361 362 362 363 363 363 364 363 364 363 362 363 363 362 360 361 361 359 361 360 357 355 358 361 360 367 365 365 368 367 370 371 373 371 368 366 367 371 366 366 364
342 341 341 342 343 344 345 347 348 348 348 347 349 350 350 350 350 352 353 355 356 357 360 360 362 362 364 364 364 366 364 364 363 363 362 363 364 365 362 362 360 361 366 361 361 363 367 363 366 366 367 368 366 373 370 368 370 371 368 368 365 371 370
341 343 342 341 342 342 347 347 348 348 349 349 349 349 350 352 352 354 354 354 355 357 359 358 361 360 363 365 365 365 363 363 363 361 361 359 361 360 362 363 362 361 359 362 364 360 364 366 365 369 368 364 363 367 372 372 369 365 369 370 366 363 366
345 346 347 347 343 346 347 348 349 349 350 351 350 352 350 353 355 355 356 357 354 355 355 354 356 357 358 362 363 364 364 362 363 360 357 358 356 360 361 361 362 362 359 361 360 360 357 361 364 368 366 367 367 367 367 367 366 366 368 369 365 367 365
344 346 346 346 345 344 345 346 347 350 350 352 352 353 352 354 355 357 356 356 356 353 352 352 351 352 355 357 359 360 361 361 360 361 360 359 360 360 358 358 357 358 358 359 362 361 364 364 363 365 365 368 368 368 371 369 366 370 369 367 365 366 367
343 345 346 349 346 346 343 345 347 349 350 351 352 351 354 355 353 352 356 357 357 356 355 353 350 351 352 355 357 357 360 361 362 362 359 361 358 357 357 357 357 357 356 358 359 361 361 360 361 362 363 363 362 363 363 366 364 366 368 368 365 363 359
344 346 346 347 348 346 345 345 347 348 350 351 352 352 354 354 355 356 357 358 360 358 354 352 351 352 352 353 356 358 358 357 359 358 358 356 358 358 358 358 358 358 357 358 358 360 360 360 362 363 362 362 361 360 364 367 366 366 368 369 370 365 365
343 344 344 345 349 349 349 349 348 349 350 351 351 350 351 355 357 355 356 357 358 356 357 355 353 355 356 355 354 356 356 358 358 359 357 354 353 354 355 356 357 359 360 357 359 360 360 362 361 363 363 360 361 363 363 367 369 367 365 366 368 367 363
342 343 345 346 348 348 349 351 352 352 350 351 351 350 351 351 351 356 358 359 361 361 360 360 357 357 357 355 354 353 353 355 355 355 354 352 351 350 350 352 354 357 357 354 357 361 358 360 360 361 363 362 361 364 364 370 369 366 365 366 368 368 363
342 346 348 348 348 348 349 348 350 348 347 350 352 354 354 355 354 356 360 361 362 361 363 363 362 359 359 357 355 354 354 353 353 351 351 350 349 348 349 348 349 353 354 353 353 352 358 358 360 361 367 363 365 369 365 367 364 365 366 366 368 366 364
341 346 345 346 345 345 345 345 343 346 351 350 351 352 353 351 352 353 356 359 360 361 363 363 366 367 367 366 359 356 354 354 353 351 353 353 350 347 348 348 348 350 351 352 351 350 353 359 360 363 367 362 363 365 364 364 365 365 365 366 365 364 361
340 341 343 342 345 344 342 342 339 344 344 345 352 353 352 352 353 355 357 359 361 361 362 364 365 370 370 368 365 363 359 356 354 354 354 354 354 353 348 347 347 348 350 351 352 350 348 354 359 361 366 365 364 364 365 365 366 367 365 364 364 364 364
339 340 341 341 343 343 346 346 346 345 343 345 349 351 355 356 358 358 358 359 359 360 361 364 365 367 365 365 363 364 362 359 357 355 355 358 359 359 357 351 347 347 347 350 350 350 348 348 357 361 363 365 364 363 364 367 365 367 367 365 365 364 364
341 340 342 342 344 343 344 346 347 348 350 349 350 351 351 349 355 358 358 357 357 359 361 362 362 363 363 363 362 361 361 360 358 359 361 360 361 361 360 356 350 349 349 349 350 349 348 347 349 356 359 362 362 363 364 366 366 366 368 368 364 363 363
339 339 340 340 342 345 346 346 347 346 347 348 349 350 352 353 354 355 356 356 354 354 357 361 361 360 359 362 362 360 362 361 359 362 365 365 367 367 366 363 357 353 352 352 350 349 351 349 347 350 354 356 356 358 357 356 358 361 363 362 363 362 360
339 340 339 340 343 341 344 345 346 346 346 347 347 348 349 350 349 350 352 354 355 355 357 358 359 359 358 357 360 362 363 363 364 364 365 365 365 368 368 366 365 362 359 356 355 357 357 356 351 349 351 353 355 355 352 352 353 365 364 364 364 362 359
339 338 338 340 341 341 342 343 344 345 346 346 347 348 348 349 350 351 352 352 352 352 353 354 355 357 356 357 360 361 360 359 359 360 361 363 363 363 363 362 362 361 361 361 362 361 361 356 354 351 349 350 353 355 352 351 356 349 344 346 354 361 363
337 335 334 333 337 340 340 340 341 342 343 343 344 344 346 349 351 350 349 351 352 354 357 357 357 356 356 355 356 356 356 356 357 357 357 357 357 358 359 360 359 359 362 362 360 363 360 356 356 357 354 352 353 352 351 349 335 333 336 341 342 356 363
334 335 334 335 337 338 339 339 339 339 340 341 343 344 346 348 347 348 350 350 352 355 355 355 355 354 353 352 353 354 354 354 354 353 354 356 356 356 356 358 358 358 358 357 359 359 359 358 356 357 357 354 355 354 354 353 333 331 333 334 336 338 356
334 337 337 337 337 336 336 337 337 339 340 340 340 340 341 341 340 341 343 345 349 351 350 349 348 347 346 347 350 352 353 354 353 353 354 356 356 356 355 355 356 357 358 357 358 358 359 358 357 359 361 359 359 362 355 353 332 328 329 331 332 335 343
333 338 337 336 335 335 335 336 337 338 336 335 335 337 338 337 337 336 335 337 340 343 343 341 339 339 341 341 342 346 348 350 351 351 350 352 353 352 354 359 357 356 357 360 361 359 357 357 353 357 356 359 358 355 348 340 325 325 327 326 327 329 342
334 336 335 336 336 335 334 334 335 334 334 335 335 334 333 332 331 330 329 331 332 334 336 336 335 335 338 339 341 341 342 343 344 346 347 347 348 350 351 354 353 357 360 360 356 352 354 358 357 353 350 349 350 351 351 337 317 320 321 322 324 330 353
336 334 336 337 336 334 335 335 332 331 332 333 332 331 330 330 329 329 329 329 329 329 329 330 331 332 334 336 339 341 342 342 341 341 341 343 345 345 345 345 347 348 352 354 356 353 353 351 352 355 351 347 348 346 346 337 322 316 317 318 319 339 357
335 335 334 334 334 335 336 335 333 332 330 329 329 329 331 331 330 329 328 327 327 327 327 327 326 329 330 332 334 338 339 340 340 339 338 338 338 339 341 343 346 347 349 349 350 351 350 349 353 351 348 348 344 346 337 334 323 313 314 315 316 333 352
334 336 334 333 333 332 332 333 332 330 330 329 326 328 329 329 328 325 323 324 324 325 324 324 325 326 327 330 333 333 335 337 337 337 338 337 337 338 339 339 343 346 349 349 348 348 350 352 352 353 349 348 346 344 339 336 330 314 312 312 314 333 353
331 334 335 335 335 334 332 333 332 330 328 327 327 328 327 326 325 326 325 325 325 324 324 327 327 329 328 329 333 333 333 332 335 335 335 337 337 337 337 339 342 343 346 348 349 349 348 348 351 346 346 345 340 338 336 335 332 324 311 311 312 314 344
331 332 331 331 330 333 330 328 327 325 324 326 325 323 325 327 326 325 325 323 322 322 324 325 324 324 329 333 331 330 330 330 330 333 335 335 335 336 338 339 339 342 344 345 345 343 342 343 347 347 345 345 342 339 336 335 332 326 310 309 309 311 324
330 328 329 332 331 331 330 327 328 326 325 325 324 325 325 325 325 325 324 322 319 319 322 328 329 327 326 328 329 326 325 327 327 331 333 334 335 335 336 338 340 339 339 339 342 338 335 339 342 341 344 344 342 339 335 334 333 331 317 310 309 309 312
329 328 328 329 330 328 326 325 325 326 326 326 324 325 325 324 324 324 324 324 326 327 327 324 322 326 328 329 328 327 326 329 330 331 330 331 333 332 332 333 336 337 336 339 338 333 333 337 338 338 338 340 340 338 336 334 332 331 329 315 309 309 311
329 330 329 329 328 327 327 327 326 325 325 324 326 325 324 324 324 325 324 324 327 327 328 328 327 326 323 324 325 328 328 327 323 325 330 329 331 331 332 333 335 336 337 337 338 335 335 336 336 337 335 334 334 334 335 334 331 327 327 326 314 312 311
327 329 328 327 326 328 327 326 325 325 326 327 327 327 325 324 324 323 322 324 327 327 326 326 327 327 326 326 325 325 323 326 328 327 324 322 328 330 330 329 331 332 335 335 335 333 333 337 334 334 333 333 333 333 336 338 335 332 330 326 325 316 315
328 329 328 327 328 328 326 325 325 325 324 325 325 325 327 325 325 324 325 326 326 327 327 325 324 325 324 325 325 324 324 324 322 322 325 326 323 322 326 325 326 327 329 330 331 332 333 332 331 332 333 332 333 333 334 337 338 338 335 334 332 328 319
328 328 327 327 328 327 325 324 321 322 322 323 325 325 325 326 325 326 327 327 327 327 327 327 325 324 325 324 324 324 325 324 324 322 323 324 324 325 323 322 323 326 332 329 328 327 328 329 330 330 330 331 331 333 333 334 333 330 328 327 326 327 331
328 328 329 329 327 326 326 324 322 322 322 323 325 326 325 326 325 327 328 327 326 325 327 327 327 326 326 324 324 323 323 318 314 322 320 319 323 323 322 323 323 323 323 324 324 323 328 325 327 329 330 329 329 331 330 329 323 322 321 319 319 320 323
329 328 329 328 327 327 326 324 323 324 323 322 323 324 325 325 326 326 326 326 326 326 324 321 321 324 321 321 321 316 321 321 320 320 319 321 323 320 320 319 323 326 325 321 321 319 318 324 327 328 328 327 329 328 330 326 320 316 307 314 305 311 315
329 330 329 329 328 328 327 326 326 325 324 324 325 324 324 323 323 324 323 324 324 324 324 323 323 323 322 323 322 321 320 322 320 319 321 320 321 324 320 314 308 313 323 320 315 307 303 306 318 317 322 327 326 324 323 320 315 303 298 297 298 298 298
328 329 328 329 327 327 327 326 326 325 325 325 325 323 323 324 324 325 323 325 325 324 324 325 323 322 322 321 319 314 321 321 321 322 322 322 319 322 322 320 316 301 305 313 313 304 296 295 297 301 306 318 323 315 306 305 298 295 297 297 297 296 295
329 329 327 327 328 327 326 325 325 325 324 325 325 323 323 320 321 323 322 323 325 324 324 324 321 320 321 322 322 320 322 322 321 322 323 323 321 324 320 321 321 317 304 302 304 301 298 298 296 294 295 299 307 321 319 306 298 296 297 297 296 297 295

ECMWFFLT1_sfc_thetae_102.txt.gz
Theta_e
340 340 340 341 339 339 339 340 342 342 344 344 344 344 346 346 351 354 355 358 360 360 362 363 362 363 361 360 362 365 362 364 361 360 360 364 363 364 360 360 359 365 361 360 364 367 365 366 366 365 370 368 367 369 372 374 372 363 371 376 368 379 370
338 338 340 340 340 341 340 342 343 343 344 345 345 348 347 347 352 352 355 358 359 359 360 361 363 362 361 363 361 365 365 365 364 366 362 365 369 368 363 363 363 366 366 370 369 366 367 363 366 365 368 368 367 370 368 370 372 372 371 372 370 375 374
339 339 340 341 342 342 343 345 343 344 345 345 344 344 346 351 354 357 357 357 359 360 359 358 361 360 361 363 362 362 362 363 362 361 359 358 359 360 360 364 362 360 363 364 367 361 366 361 369 368 368 367 362 370 371 371 371 369 371 374 370 366 370
340 341 342 344 345 346 345 345 346 346 346 347 345 344 349 355 354 358 357 357 355 358 359 356 357 356 359 362 361 362 361 362 362 359 358 358 359 359 363 363 365 362 361 359 359 358 358 364 362 370 369 368 369 367 367 368 365 368 369 371 369 370 373
341 341 342 346 351 348 345 345 346 348 349 349 350 350 351 355 354 356 355 354 356 356 356 354 354 356 358 359 356 357 358 357 358 356 357 358 361 360 359 357 357 357 362 357 363 366 365 363 363 365 365 368 366 369 371 368 367 371 372 371 370 368 370
340 344 343 345 342 342 343 344 346 347 348 350 351 351 351 353 348 349 352 353 355 357 359 355 353 356 354 356 356 355 359 362 364 365 359 360 360 356 355 357 355 355 357 357 360 355 362 361 362 363 360 359 359 361 362 366 363 365 368 370 369 366 360
342 344 340 345 352 346 348 344 343 348 351 356 352 352 352 352 350 351 352 352 356 356 351 350 350 354 355 356 359 360 357 356 358 356 357 354 356 356 358 357 358 355 353 359 358 359 358 360 361 362 362 359 363 359 366 366 367 366 371 371 369 371 371
343 344 346 348 347 348 344 347 344 347 349 347 349 350 353 351 353 353 351 350 351 348 351 350 353 355 357 357 356 356 357 357 356 356 357 354 354 355 354 353 355 359 359 354 358 359 356 361 355 359 361 357 361 363 363 366 372 363 365 368 369 365 358
345 345 345 346 347 347 349 344 349 346 344 350 348 351 352 352 355 355 358 366 360 356 357 356 358 361 361 361 360 358 358 357 357 357 354 352 351 350 351 352 354 357 355 353 353 357 359 358 356 365 365 363 365 366 362 366 365 366 365 366 368 366 361
340 342 341 342 343 346 346 347 349 348 349 352 350 348 347 347 353 359 360 363 359 358 361 361 364 364 363 360 358 358 359 357 359 355 354 351 350 349 349 349 351 355 353 353 352 353 359 361 360 366 370 363 366 367 367 369 367 366 363 367 366 367 369
338 340 339 341 344 346 347 350 349 346 348 348 348 349 350 347 343 351 357 356 357 354 352 361 363 363 364 360 357 356 356 354 356 353 357 359 356 349 349 348 347 349 350 351 351 351 353 361 362 364 369 358 361 364 368 365 366 366 360 364 363 367 362
336 338 339 342 341 341 341 342 346 347 348 349 349 351 353 354 352 354 357 357 358 356 357 357 366 365 363 361 357 358 354 350 349 352 354 357 358 356 348 347 346 346 347 348 350 353 350 354 354 356 366 366 364 363 365 366 366 367 365 360 362 362 363
338 336 338 338 337 340 340 341 342 346 348 347 349 350 354 356 356 356 357 359 361 362 358 359 364 368 367 365 360 359 356 351 351 351 353 359 362 361 355 349 346 344 345 347 349 349 348 347 355 360 360 366 363 360 363 365 362 367 367 364 362 363 363
338 338 339 340 339 338 338 339 341 342 346 350 353 353 352 355 354 356 357 359 361 363 359 359 357 364 368 365 364 365 362 360 358 361 364 366 365 365 363 358 354 352 352 355 349 346 346 347 347 352 355 359 361 363 365 366 364 368 368 366 363 359 362
338 337 338 338 340 340 339 341 343 343 343 347 351 350 353 353 356 357 357 358 359 356 358 362 361 361 360 363 363 364 365 365 367 367 368 368 367 365 365 363 358 358 357 357 352 345 347 347 346 348 351 355 361 363 360 356 360 363 363 361 366 362 359
337 338 338 339 341 342 343 343 345 346 346 349 349 348 350 352 354 353 356 355 355 356 359 363 363 362 362 362 364 365 366 366 366 365 365 367 367 367 367 364 364 361 363 363 363 360 360 363 359 349 347 350 353 356 356 354 353 358 365 363 363 364 360
335 336 338 340 342 340 342 343 345 345 346 347 347 349 349 350 350 351 350 353 355 356 360 360 359 360 360 361 362 364 365 365 363 364 364 365 365 366 367 366 366 365 364 364 364 367 366 365 359 353 349 345 346 350 349 349 344 335 339 348 358 362 364
332 335 338 340 340 341 341 343 343 344 345 345 346 347 348 348 350 350 350 351 352 354 357 356 353 354 355 356 359 362 361 361 361 361 360 361 361 362 362 363 363 362 362 361 360 364 360 358 359 360 356 349 349 349 351 345 333 330 333 336 337 352 365
330 333 336 338 339 340 340 341 342 343 343 344 343 344 345 343 340 340 343 348 351 353 353 352 354 354 354 353 351 351 355 357 357 356 357 358 358 360 360 360 360 360 359 355 356 359 359 357 357 359 353 348 349 352 351 345 329 329 330 331 333 337 356
330 334 337 336 336 337 338 338 338 338 339 340 340 340 339 338 336 336 338 341 343 345 345 346 347 347 347 348 350 352 354 353 354 352 354 354 356 359 359 358 357 358 357 356 357 358 359 358 361 361 354 351 352 354 349 343 329 326 328 329 331 334 347
334 337 334 335 335 335 336 335 335 335 335 336 337 336 334 334 335 335 335 337 338 339 339 340 340 340 342 343 345 347 348 349 350 349 350 352 354 354 354 354 354 353 355 357 357 356 357 360 360 356 351 352 355 355 349 333 321 323 324 325 328 333 351
336 334 333 334 334 334 334 334 334 334 333 335 334 334 333 332 333 332 332 333 334 334 334 334 334 336 340 341 342 342 343 343 343 344 346 348 349 349 350 350 350 350 353 353 353 355 358 359 357 353 351 350 352 351 350 333 318 318 320 322 325 333 357
337 336 335 334 334 333 333 334 334 334 334 333 333 332 332 333 333 332 331 330 330 331 332 332 332 332 334 337 339 341 343 343 343 343 342 343 342 342 343 344 346 348 349 347 350 353 353 354 351 352 351 349 350 349 341 332 320 316 316 318 321 342 357
333 334 335 335 335 333 333 332 332 332 331 332 331 331 331 331 330 328 326 325 327 328 329 329 329 331 332 332 334 338 340 343 343 342 342 341 340 341 343 345 346 347 347 345 344 347 351 352 349 351 348 348 347 345 336 330 321 314 314 314 317 335 353
333 334 335 336 335 334 335 334 332 330 329 329 330 329 329 328 327 325 324 325 325 325 325 326 327 329 329 331 333 335 339 340 340 342 342 340 339 340 340 342 344 347 349 348 347 347 350 352 348 348 348 349 346 343 337 332 326 314 312 313 314 331 350
332 333 333 333 333 333 333 335 333 328 326 326 326 325 326 327 327 327 326 326 325 325 325 326 327 329 330 331 332 334 334 333 337 338 337 337 339 341 341 343 345 347 347 347 348 345 345 347 347 346 346 346 342 340 334 329 326 320 311 311 313 317 344
331 331 330 331 331 334 332 331 328 323 322 323 326 327 327 326 323 322 323 323 322 320 321 325 328 330 330 329 327 325 326 327 330 331 333 335 337 338 341 346 345 344 343 341 338 338 341 341 346 344 341 340 339 338 337 332 326 322 310 310 310 313 328
330 329 329 331 332 329 326 323 323 322 322 324 324 324 324 326 325 325 321 320 322 325 326 326 326 326 325 325 323 323 326 327 331 331 331 333 336 339 340 338 339 341 337 334 333 334 337 341 344 345 341 340 338 336 333 334 331 325 316 311 310 310 316
328 328 327 327 326 326 325 324 323 322 323 324 324 324 325 326 326 326 326 324 323 322 323 325 327 329 329 327 324 327 329 331 329 331 333 334 334 335 335 338 336 337 341 339 334 333 337 339 342 344 342 337 334 332 330 330 329 328 326 316 310 310 312
329 329 328 327 326 326 326 324 324 323 323 323 324 325 327 327 325 325 325 324 329 327 326 325 324 326 324 327 329 328 325 322 322 327 328 328 334 334 332 333 335 337 339 341 338 339 337 338 341 342 339 336 333 331 329 328 328 329 329 325 315 314 313
328 328 327 326 325 327 326 325 324 323 324 324 324 325 326 326 324 324 323 326 329 329 329 329 328 328 325 324 322 322 324 327 326 324 328 327 326 328 328 325 327 329 328 330 337 337 334 337 339 340 338 336 333 332 332 331 331 330 331 327 324 317 316
329 330 328 327 326 326 325 324 325 325 323 323 324 324 326 325 325 323 324 325 327 327 327 327 327 328 328 327 327 327 325 324 320 322 325 325 325 326 328 324 325 326 328 328 326 327 331 336 336 334 332 334 333 335 337 338 335 335 333 333 331 329 324
328 330 328 326 327 326 324 324 322 321 322 322 325 325 325 325 326 327 327 326 325 327 328 327 326 326 327 326 327 327 327 324 324 325 325 327 323 323 324 324 325 323 328 329 331 328 330 329 332 334 333 333 333 334 336 327 325 325 321 321 321 321 324
329 328 329 330 329 330 326 324 323 323 324 324 325 325 324 324 325 327 328 326 325 326 328 328 327 325 325 323 324 324 321 317 319 325 319 317 320 319 319 321 322 323 323 322 320 321 324 326 332 329 328 328 331 334 329 322 319 316 316 314 315 317 319
328 329 328 326 326 328 326 324 323 324 323 324 325 326 326 327 328 329 328 325 326 326 323 322 323 325 321 321 317 313 327 320 319 319 321 326 323 319 317 315 317 322 319 317 317 317 317 321 322 322 322 323 320 322 324 320 315 313 307 312 305 312 313
328 329 327 326 327 327 326 326 325 324 324 324 326 326 326 325 324 325 322 323 324 325 323 324 324 323 323 322 318 319 321 322 320 319 320 320 321 320 315 314 307 312 322 318 314 308 305 309 314 315 319 324 317 318 322 320 314 305 298 298 297 297 298
328 327 328 327 326 326 326 326 326 326 325 325 325 323 323 323 324 325 324 325 325 324 325 326 325 323 319 320 316 317 322 321 321 325 324 325 322 324 322 319 316 300 303 313 313 302 295 295 297 301 307 321 315 309 307 305 299 296 298 297 297 296 295
329 329 328 328 328 329 327 326 326 325 326 326 325 323 324 323 325 326 322 324 325 324 325 325 324 327 323 321 320 322 323 324 323 323 325 324 323 327 323 323 322 317 303 298 303 301 296 293 292 292 295 300 310 320 311 303 296 296 296 297 296 296 296

ECMWFFLT1_sfc_thetae_105.txt.gz
Theta_e
337 336 335 334 334 334 334 335 336 337 337 339 340 340 343 348 349 352 352 354 353 353 355 355 355 355 355 358 360 360 359 359 359 357 358 359 359 358 359 358 360 359 360 356 358 357 360 367 361 363 364 366 365 366 366 366 365 369 367 368 365 370 365
337 336 336 336 335 334 334 335 337 338 339 341 339 340 342 347 350 351 352 354 354 355 356 355 355 354 356 356 359 358 357 357 359 360 358 360 363 361 359 357 358 359 360 362 361 360 361 361 363 361 363 366 364 365 365 367 364 364 363 365 361 365 365
337 337 336 336 335 334 334 336 337 339 339 340 340 341 345 348 350 351 352 354 354 355 356 356 356 354 355 355 358 357 358 359 359 360 357 356 359 361 358 358 358 359 359 360 359 362 364 362 362 360 364 363 364 364 365 364 363 364 367 363 365 365 361
336 337 338 338 337 336 335 337 337 340 341 340 341 341 345 349 350 352 354 355 354 355 354 356 356 356 355 355 357 358 358 360 359 360 359 357 358 357 357 358 357 360 358 354 360 359 361 360 362 360 371 362 364 364 365 364 363 364 365 365 364 364 364
337 339 338 337 339 337 336 337 338 340 340 340 341 343 347 348 351 353 354 356 355 355 355 356 356 356 357 357 357 358 358 359 358 357 356 356 357 357 357 356 354 356 358 356 356 359 361 359 359 361 363 361 363 363 364 364 361 362 365 364 361 362 364
337 338 338 337 342 344 340 339 340 340 340 340 341 343 348 348 352 352 354 355 355 355 355 354 354 354 355 357 356 356 357 359 357 356 356 355 355 355 355 356 355 354 357 355 357 358 358 356 359 358 361 360 361 362 363 363 362 364 364 364 360 359 364
337 339 339 338 340 341 340 339 343 344 343 344 346 348 348 349 351 352 353 354 354 353 354 353 352 353 354 356 354 356 354 355 356 355 355 355 355 353 353 354 357 353 354 356 357 355 355 356 356 357 359 358 358 360 359 362 360 362 362 361 360 361 362
336 336 338 338 342 340 340 344 347 344 343 344 344 346 347 347 349 350 351 352 352 354 353 351 350 353 353 354 354 354 354 354 355 355 355 354 354 353 353 353 354 354 353 354 355 354 356 358 355 356 358 357 358 356 358 360 361 362 363 361 361 362 365
336 338 339 340 340 339 341 341 342 345 345 346 345 345 346 346 351 354 349 350 350 352 351 350 350 352 352 353 352 353 354 353 354 354 353 352 352 352 353 353 352 353 353 353 353 355 355 356 356 354 356 354 356 357 357 359 361 362 360 360 361 361 361
337 338 339 341 341 341 344 343 343 343 343 344 344 344 346 348 349 353 354 351 353 351 350 350 351 351 351 353 351 352 353 352 353 353 352 350 349 349 349 350 351 353 351 351 350 352 354 354 354 354 356 354 357 358 357 357 358 362 360 358 361 361 361
338 338 339 339 338 340 342 342 342 342 342 341 344 344 345 346 347 349 355 354 352 353 354 356 355 350 351 353 350 351 352 353 352 351 351 350 348 347 348 347 347 351 350 349 349 347 352 354 354 355 359 355 358 358 358 360 361 362 361 361 361 361 361
337 338 338 339 340 340 341 341 342 343 343 343 345 344 344 344 345 350 353 353 352 351 352 353 358 356 352 352 350 350 351 351 351 350 351 351 351 352 348 345 344 346 349 348 347 348 349 351 350 350 359 356 356 357 360 361 362 361 359 359 359 360 360
335 337 338 340 340 340 340 340 341 343 343 346 348 348 347 344 344 350 354 354 354 354 352 355 361 362 353 351 349 349 348 348 348 348 350 351 351 352 349 349 350 348 345 347 346 346 345 352 349 350 357 357 359 359 360 361 360 359 360 360 358 358 357
335 337 336 337 339 340 339 340 342 342 342 341 342 345 348 348 348 351 354 354 356 357 354 357 356 355 360 353 349 350 350 347 347 347 347 351 353 352 352 355 355 354 355 354 352 344 344 344 349 350 355 360 359 359 359 360 360 360 362 362 359 358 359
333 334 334 335 337 337 338 339 341 341 340 339 341 346 351 352 353 354 354 356 357 355 355 354 352 353 354 355 353 353 354 354 355 355 353 357 353 353 353 354 356 355 357 359 359 359 357 354 347 348 351 358 359 359 359 358 354 353 354 356 360 359 357
332 333 335 336 336 337 338 339 337 339 343 344 346 348 349 349 349 349 351 347 348 347 350 358 354 354 354 350 348 347 348 347 346 347 353 356 356 355 355 356 357 361 360 360 360 360 361 358 356 351 348 348 354 356 353 348 350 352 347 349 357 359 358
333 332 334 335 336 337 339 340 341 341 341 341 342 343 344 346 345 345 346 347 348 350 353 353 347 349 349 346 346 347 348 346 346 345 343 345 346 354 360 360 360 358 357 358 360 358 357 356 356 353 348 348 348 348 348 345 339 335 335 338 347 363 357
333 334 335 335 336 337 338 339 339 339 339 340 341 342 342 341 342 343 345 348 348 348 350 351 349 347 347 347 345 347 343 345 348 346 346 349 348 349 352 357 358 356 355 356 357 356 356 354 354 350 348 350 349 348 345 339 331 329 331 335 337 349 362
331 332 334 335 335 336 337 337 337 338 338 338 337 336 337 337 337 338 341 343 345 346 346 346 347 346 344 347 348 346 345 346 347 346 347 349 353 352 355 355 355 355 355 354 354 359 354 353 355 349 349 351 350 347 343 337 328 328 330 331 333 338 359
333 334 335 336 336 335 336 337 338 338 337 335 336 336 336 336 335 335 337 338 339 340 339 340 341 342 343 345 346 347 348 348 348 347 348 350 351 353 353 352 351 352 352 353 352 352 354 355 357 353 350 351 351 346 340 333 326 326 328 328 330 333 347
333 333 335 333 332 333 332 331 331 331 331 331 332 333 333 332 333 334 335 336 335 336 336 337 338 339 340 341 341 342 344 345 346 345 345 346 348 349 349 349 348 348 348 349 349 348 350 352 354 352 352 353 350 341 333 328 322 323 325 325 327 330 349
333 333 332 333 332 332 331 331 331 330 330 333 332 331 331 330 331 331 332 333 333 333 333 334 334 336 337 338 340 341 341 342 341 340 341 342 345 345 345 345 345 344 347 348 348 347 349 353 352 350 348 350 351 340 331 326 318 319 321 322 324 333 356
334 333 333 332 333 332 333 332 331 331 331 331 331 330 330 330 330 329 329 329 330 330 330 330 329 329 331 333 335 339 341 342 341 341 340 340 340 341 342 342 342 344 345 343 343 346 348 349 350 349 347 348 347 336 329 326 319 316 316 318 320 339 356
334 334 333 333 333 332 332 331 331 332 331 330 329 329 329 327 327 326 326 326 326 326 326 327 327 329 330 330 332 334 336 340 341 339 340 339 339 340 341 342 343 343 344 341 341 342 344 347 348 349 346 346 339 331 327 324 320 314 314 314 317 336 350
333 333 333 331 330 329 329 329 330 329 329 328 328 328 328 327 326 325 324 325 324 324 324 325 326 326 326 327 328 329 332 336 338 339 338 337 338 340 340 341 342 344 344 343 343 342 342 347 347 345 344 344 338 337 327 325 323 314 313 313 316 333 345
330 331 330 330 329 329 329 331 329 327 326 326 326 327 325 326 325 325 324 325 324 323 324 325 326 325 324 325 325 327 328 329 331 332 334 336 338 339 339 342 342 343 342 339 338 338 340 342 340 342 343 340 334 329 326 323 322 320 312 312 317 327 343
331 330 328 329 329 330 322 321 322 322 323 323 324 326 327 326 325 323 322 321 321 322 324 326 326 324 323 323 323 325 326 328 330 331 332 333 335 339 337 341 341 340 336 334 335 338 339 337 335 334 334 335 332 329 327 325 323 321 312 311 312 317 326
327 328 329 331 332 325 320 321 321 321 320 321 323 322 320 320 321 322 321 319 319 320 324 326 325 324 322 321 322 325 327 328 330 332 332 334 334 334 334 334 336 337 333 334 335 336 338 338 337 334 332 333 334 332 330 330 328 326 317 312 311 312 318
324 325 324 323 321 322 321 319 319 319 319 321 323 324 325 324 322 322 322 318 319 322 325 326 326 323 323 325 326 328 328 326 326 327 327 333 335 332 330 333 333 332 336 333 332 334 336 338 336 333 332 331 331 330 330 330 330 329 328 317 312 311 313
324 323 323 322 322 322 324 320 319 319 320 323 324 324 325 324 323 324 322 321 321 321 323 320 321 325 327 327 328 327 325 323 324 327 325 327 329 330 326 327 329 328 327 330 334 334 335 334 337 335 332 330 327 326 328 329 327 329 330 326 317 314 313
324 323 322 321 321 324 322 320 318 318 319 321 322 323 323 323 322 322 320 322 327 326 326 327 328 326 324 321 323 327 327 324 324 325 321 320 322 320 323 320 323 321 325 328 326 326 327 331 336 335 333 330 326 324 325 328 331 328 327 328 327 318 315
325 323 323 322 322 322 321 322 321 319 318 319 321 323 324 322 321 320 319 324 326 323 325 326 326 325 324 323 324 325 326 325 324 326 326 328 328 327 324 324 325 323 324 325 325 328 330 331 330 329 330 332 330 330 328 325 323 320 320 322 323 322 320
326 322 322 321 321 323 320 319 318 319 320 319 320 320 323 323 323 323 324 324 326 327 325 325 325 323 322 321 323 321 321 319 325 320 323 323 322 325 325 324 322 323 322 319 318 321 326 327 327 327 328 328 327 324 323 318 316 316 316 314 315 315 317
325 324 322 322 323 323 320 319 319 321 321 321 320 320 321 322 321 324 324 323 322 323 326 325 323 322 321 322 322 324 322 322 327 323 316 317 315 314 317 320 318 315 315 314 314 315 319 321 321 321 322 323 324 323 319 317 314 311 310 310 310 310 311
324 323 324 323 322 322 320 321 321 321 321 320 321 321 322 323 324 323 321 322 324 323 323 321 321 324 323 322 318 316 321 320 318 319 317 311 311 311 312 315 319 313 313 316 316 316 316 316 317 320 319 318 320 322 319 318 314 312 307 313 306 308 308
323 323 323 323 322 321 322 322 321 321 322 321 322 323 322 323 323 323 321 322 323 323 322 323 325 321 314 314 314 320 322 321 319 320 321 316 311 311 312 312 305 310 315 312 313 308 306 310 314 318 318 313 313 316 319 316 314 305 299 298 297 297 298
325 324 323 323 321 321 321 321 322 321 321 320 322 322 322 321 321 322 322 322 322 323 322 321 325 323 315 315 315 320 322 321 319 318 318 318 319 318 314 310 310 299 304 312 311 301 294 294 297 304 313 318 312 310 307 307 301 299 299 299 297 296 295
326 325 324 325 323 322 321 321 321 321 321 320 321 320 320 320 321 322 321 323 323 323 321 322 321 325 316 316 317 319 321 317 317 323 321 317 320 320 319 316 312 310 300 298 301 298 294 293 293 295 302 307 311 313 308 304 298 296 296 296 295 295 294

ECMWFFLT1_sfc_thetae_108.txt.gz
Theta_e
333 333 333 329 328 329 328 331 336 337 338 339 340 341 346 347 347 349 349 350 351 351 352 354 354 356 355 355 358 356 355 357 356 355 355 355 358 357 356 357 357 356 356 352 352 353 355 363 359 359 361 362 362 364 362 362 361 365 364 363 363 365 361
332 333 334 331 329 330 328 330 335 336 337 337 340 342 347 348 348 349 349 349 352 352 352 353 354 354 356 356 358 357 355 357 358 360 358 357 361 357 357 356 357 357 357 354 353 355 357 360 360 359 361 363 361 362 363 361 359 359 359 360 357 357 361
332 333 334 333 329 330 330 330 334 335 336 337 339 343 347 348 349 349 350 349 351 352 352 353 354 353 355 357 357 356 356 357 356 357 355 357 358 358 358 356 357 357 358 356 357 357 360 357 360 359 360 361 361 361 362 360 360 360 360 358 358 358 356
333 333 334 335 332 332 332 333 334 335 336 338 339 344 346 348 349 350 351 350 351 352 351 352 353 352 354 356 355 355 355 356 356 356 355 356 357 359 357 355 357 358 357 358 359 359 361 357 358 358 368 360 360 361 361 361 360 360 361 359 358 359 357
333 335 335 334 333 331 332 333 334 335 336 338 339 346 347 349 350 351 352 351 352 353 352 352 354 353 354 356 356 356 356 355 356 356 356 355 356 356 355 355 355 356 355 354 357 358 358 357 358 357 360 360 360 360 362 361 360 359 358 359 358 358 359
333 334 335 335 336 336 334 334 335 336 336 337 339 344 347 349 351 351 352 352 351 355 354 353 353 354 353 355 357 356 356 357 356 357 357 355 355 354 354 355 354 356 355 352 356 355 357 356 357 358 358 360 360 360 361 360 360 359 358 359 358 357 360
333 334 334 335 337 337 337 338 339 338 338 338 342 346 348 349 350 351 352 352 352 353 353 353 354 353 353 354 355 356 354 357 356 356 357 355 354 354 353 354 355 354 356 354 353 354 356 355 356 357 357 358 359 358 358 358 358 359 358 357 357 355 358
333 335 333 335 337 340 340 340 339 340 342 341 342 345 346 348 350 350 352 352 352 354 353 353 353 353 352 354 354 354 355 355 357 356 355 354 353 353 352 353 354 353 354 353 353 354 354 353 355 356 357 357 356 357 358 358 358 359 359 357 356 356 360
335 336 335 335 336 338 340 340 339 341 341 341 343 344 346 348 349 350 352 352 352 353 352 353 352 353 353 353 353 352 354 354 355 355 353 353 352 352 352 352 352 353 351 353 353 354 353 353 353 354 354 355 355 355 356 357 358 358 359 358 357 356 357
335 335 337 338 336 338 339 339 341 342 341 342 342 344 346 347 348 350 351 352 352 352 352 352 352 352 353 353 353 352 353 352 354 354 353 352 351 351 351 351 351 352 351 351 352 353 353 353 353 353 353 354 354 354 354 356 357 358 358 357 357 357 356
335 336 337 336 336 337 337 338 339 340 341 341 342 344 346 347 348 349 350 351 351 351 352 352 351 352 352 352 352 351 352 351 352 352 351 350 349 351 351 350 350 350 350 350 350 352 352 353 354 352 352 353 353 353 354 354 355 356 358 357 357 358 358
335 336 335 336 336 336 336 337 338 339 340 341 343 344 345 347 348 349 349 350 351 351 351 351 350 351 351 351 351 349 350 351 351 351 350 350 348 347 349 349 348 348 350 349 348 349 350 351 352 352 352 352 353 353 354 354 354 355 358 358 358 357 358
335 335 335 336 336 337 337 337 338 339 340 342 343 344 344 345 348 349 348 349 350 351 351 351 350 350 350 350 349 348 349 349 350 350 350 350 349 349 348 346 344 343 345 346 346 346 347 350 351 352 352 353 353 354 354 355 356 356 357 358 357 357 357
336 336 336 337 337 336 336 337 338 339 339 340 342 342 344 345 347 348 349 348 349 349 348 345 346 345 349 349 347 346 347 347 348 349 349 350 350 349 349 347 349 350 353 356 353 348 343 345 349 350 351 353 353 354 356 356 357 357 357 358 356 356 355
334 335 336 336 336 336 336 337 338 338 340 341 341 341 340 340 340 341 343 344 346 346 345 347 348 348 347 346 345 345 345 345 347 348 350 351 348 348 348 348 350 353 356 356 356 357 356 353 346 347 348 351 354 354 356 357 358 357 356 355 355 357 356
332 333 335 335 335 336 337 338 338 339 340 339 339 339 340 341 342 342 342 343 345 345 346 346 347 346 344 342 342 344 344 344 345 345 346 347 348 350 350 346 353 355 355 355 356 356 356 352 351 346 346 349 354 352 351 351 353 354 351 355 354 353 356
332 332 333 334 335 336 337 338 339 339 338 338 338 338 339 340 341 342 342 343 344 345 346 346 344 343 342 343 344 343 344 345 345 344 343 344 344 345 350 352 354 354 354 354 354 352 353 351 347 346 347 347 351 348 348 347 345 341 335 339 348 357 354
331 332 332 335 336 337 337 337 337 337 338 339 339 339 339 340 340 342 342 344 344 345 346 343 342 342 343 343 343 344 342 342 344 343 343 345 346 344 346 350 352 351 352 353 353 351 352 351 347 345 346 347 347 346 344 341 336 329 332 336 338 351 357
333 333 334 335 336 335 336 336 336 336 336 337 337 338 339 339 339 340 342 343 344 345 344 343 343 342 342 344 344 344 343 342 344 343 342 344 347 346 347 348 351 350 350 349 351 353 347 348 347 346 347 346 344 343 341 336 330 328 331 334 334 338 360
333 334 334 335 335 335 335 334 334 335 335 334 336 337 337 338 337 338 340 341 342 341 341 341 342 343 344 345 345 346 345 343 342 343 343 345 347 348 348 349 348 348 348 349 348 347 348 350 348 347 347 347 344 340 337 334 328 324 326 328 332 336 347
331 332 331 331 331 331 330 330 331 331 331 333 334 334 334 334 335 336 337 338 338 339 339 339 339 340 341 341 341 341 343 345 345 344 344 344 345 344 344 344 344 346 347 346 346 345 346 348 348 347 349 347 342 337 332 329 323 321 323 323 325 333 353
329 329 329 330 329 329 330 330 330 330 330 332 331 331 332 332 334 333 333 335 335 335 336 337 336 336 338 338 340 340 340 341 340 340 340 341 342 342 341 341 342 341 345 345 343 344 345 346 347 346 345 346 341 336 332 330 319 319 320 320 322 328 354
329 329 330 331 332 331 332 332 331 331 330 327 327 326 327 329 330 330 329 329 329 330 330 330 330 330 332 333 335 338 339 340 339 339 339 339 339 339 339 339 339 341 344 340 340 340 342 345 349 348 346 346 342 334 329 329 321 316 317 317 318 331 354
330 330 331 330 330 331 331 330 330 329 327 325 325 325 326 326 326 326 325 325 326 326 326 326 326 327 328 329 331 334 337 338 338 338 339 338 338 338 339 340 341 341 343 338 338 339 340 342 346 346 345 344 337 333 329 325 320 314 314 314 316 328 346
329 329 329 329 329 328 328 328 327 327 326 324 323 324 326 326 325 324 324 324 324 324 323 323 323 325 326 327 329 330 331 333 335 336 337 337 337 338 338 340 341 343 342 341 341 339 338 344 345 343 342 344 338 338 327 326 325 316 314 314 316 332 343
327 327 328 329 330 329 329 329 327 324 323 323 323 326 327 326 325 324 322 323 324 323 323 323 323 324 325 326 328 329 330 331 333 333 333 334 336 337 338 341 340 338 337 336 336 338 337 339 342 342 339 334 329 327 326 324 323 321 313 313 315 322 340
328 328 326 325 324 327 323 323 323 323 323 323 325 324 323 323 322 322 323 322 322 322 323 323 323 323 324 325 326 327 328 330 331 331 332 333 334 336 338 339 336 336 335 336 338 337 334 333 332 331 329 329 328 327 326 326 324 322 313 311 312 315 325
327 326 325 325 327 325 320 320 320 320 320 320 320 321 321 321 320 319 319 319 320 322 324 324 323 322 322 323 325 326 325 326 328 328 331 333 332 331 332 333 335 335 334 334 337 335 333 332 332 329 329 329 329 329 329 332 330 325 316 313 311 311 315
325 324 321 319 319 323 320 318 318 318 319 319 319 319 320 322 322 322 321 319 320 323 322 322 321 322 324 326 326 327 325 324 324 325 328 331 331 329 327 329 328 329 333 333 335 335 332 330 329 326 324 324 326 327 329 330 332 327 324 316 311 311 312
324 324 320 319 320 320 322 318 319 320 322 323 323 322 323 322 319 318 316 315 318 321 325 323 322 322 324 325 324 324 323 322 324 322 321 323 325 325 322 323 326 327 328 328 331 333 330 329 328 327 325 324 324 325 326 328 329 328 325 322 314 312 312
321 319 318 318 319 321 319 318 318 319 320 320 321 321 321 321 322 321 319 321 325 324 322 322 325 323 322 322 324 326 324 323 321 320 319 320 322 321 321 322 324 323 325 329 329 329 330 331 329 325 324 323 321 321 324 323 323 322 324 324 322 315 313
319 318 318 318 318 318 318 318 318 318 318 318 320 321 321 319 319 319 317 321 324 320 321 322 323 322 320 321 322 321 324 322 321 322 322 324 323 324 323 324 325 321 319 322 325 327 328 330 331 328 324 324 325 324 320 321 320 317 317 319 320 318 317
319 318 318 317 319 320 317 316 316 317 318 317 318 318 319 318 318 318 320 321 321 322 323 324 324 325 322 318 320 319 320 320 320 319 319 316 316 319 321 319 316 316 319 318 319 322 326 327 329 329 328 325 321 320 319 316 314 315 316 313 314 314 314
317 317 318 319 319 318 316 316 315 317 317 317 316 318 319 319 319 319 319 319 320 320 323 322 321 321 318 317 317 322 319 322 330 319 312 314 314 314 314 314 313 312 314 314 315 317 318 322 323 323 324 321 320 319 319 317 314 312 311 311 311 310 310
317 317 318 317 317 318 317 318 318 318 318 316 316 316 317 318 319 318 317 319 319 319 322 323 325 324 314 314 317 320 322 319 316 311 309 309 310 309 310 311 315 312 312 314 314 316 317 318 319 321 320 322 321 319 316 317 315 314 310 313 305 306 306
319 318 317 317 318 318 319 319 318 317 317 315 316 317 318 318 317 318 320 319 319 319 322 323 318 312 312 313 316 319 320 321 317 312 311 309 308 308 310 311 304 306 310 310 313 305 300 305 315 318 316 313 313 315 318 316 316 311 300 297 296 296 297
317 317 317 318 318 317 317 317 319 319 318 317 318 319 319 317 317 317 319 318 318 319 317 319 321 315 313 317 316 319 321 318 315 314 312 311 308 309 311 307 308 299 299 305 309 299 293 294 296 305 312 317 310 310 306 305 300 297 296 295 294 295 294
319 318 318 318 318 317 318 318 318 318 318 315 317 317 317 318 317 315 318 318 318 317 315 316 318 318 313 314 316 322 320 313 319 320 315 314 313 310 310 307 306 307 302 297 298 298 294 293 292 292 296 301 308 315 309 305 299 297 295 295 295 294 294

ECMWFFLT1_sfc_thetae_111.txt.gz
Theta_e
331 327 323 325 329 332 333 334 336 336 337 338 339 340 341 344 345 346 347 348 348 348 352 353 353 353 353 352 352 352 351 353 354 352 352 351 353 352 351 352 352 353 353 353 353 353 355 358 356 356 356 357 357 357 358 360 360 363 360 360 359 361 357
330 330 325 325 327 331 333 335 336 337 338 338 339 340 341 343 345 346 347 348 348 348 351 353 354 354 354 352 353 353 350 353 355 356 354 354 358 355 354 354 353 353 353 352 352 353 354 356 358 356 356 358 359 357 360 358 357 356 357 356 355 352 357
330 331 329 325 326 329 331 334 336 337 338 338 340 340 341 343 345 346 347 348 348 348 351 352 354 354 354 353 353 353 351 353 354 354 353 353 355 357 356 355 355 354 355 354 352 353 356 354 357 357 357 357 358 357 358 357 357 356 355 354 355 354 352
330 330 331 328 326 328 330 333 336 337 339 339 339 340 341 343 345 346 348 348 348 348 349 352 353 354 354 353 354 354 352 353 355 355 355 354 355 357 356 354 355 355 355 355 355 355 356 355 355 356 364 357 357 358 358 359 358 356 356 355 354 354 353
330 331 331 330 327 327 328 331 335 336 338 339 340 341 343 344 346 347 348 349 349 349 350 352 353 354 355 355 355 355 354 354 355 355 355 355 355 356 356 355 354 355 356 356 356 357 355 355 354 355 357 357 357 357 358 358 358 357 355 355 353 354 355
330 330 330 331 328 328 328 329 333 336 337 338 339 340 343 345 346 346 348 349 349 351 351 352 352 353 353 355 356 355 355 354 355 355 354 353 354 354 355 354 354 354 355 355 356 356 355 356 354 354 354 357 358 358 358 358 359 358 356 354 355 355 356
330 330 330 332 330 329 329 328 331 335 336 338 339 342 344 345 346 347 348 348 350 350 350 350 352 352 352 355 355 355 353 354 354 354 355 354 353 353 353 353 356 354 355 355 352 354 354 354 355 355 355 355 357 357 357 357 357 357 356 354 354 354 354
332 331 332 333 333 331 330 329 330 333 335 337 338 341 343 346 346 347 347 348 349 351 350 350 351 351 351 354 355 353 353 354 354 354 354 354 353 353 352 352 353 354 354 354 353 352 353 353 354 355 355 355 355 356 356 356 356 357 356 355 354 354 357
334 334 334 335 336 335 336 337 338 334 333 335 336 340 343 345 346 347 348 348 349 350 350 351 351 352 351 352 353 353 353 353 354 354 353 353 353 352 353 352 352 353 352 353 353 352 352 352 353 354 354 354 354 354 355 355 355 356 356 355 354 353 354
335 335 334 335 335 337 337 339 339 338 337 337 336 339 342 345 346 347 348 348 349 350 350 351 351 352 351 351 352 353 352 352 353 354 353 352 352 352 352 352 352 353 352 352 353 352 352 352 352 352 352 353 353 353 353 353 354 356 356 356 355 354 354
335 335 334 334 335 336 337 337 338 337 337 337 338 339 340 344 346 346 348 349 348 350 351 352 352 352 351 351 351 351 351 351 352 353 352 352 351 351 352 351 351 351 351 350 350 351 351 352 351 350 350 351 351 352 352 353 353 354 355 356 356 356 355
334 334 333 333 334 335 335 336 337 338 338 339 340 339 338 340 343 346 348 349 350 349 350 351 352 352 351 350 350 349 350 351 351 351 352 352 351 350 351 351 350 349 350 350 349 349 350 350 351 351 350 350 350 351 351 352 352 353 354 355 355 355 355
334 334 334 333 334 335 336 336 336 338 339 340 339 340 340 340 339 339 341 342 344 345 347 347 349 350 350 350 350 349 349 350 350 351 351 352 351 350 350 350 350 349 348 349 348 347 347 349 349 351 351 350 350 350 351 351 352 352 352 353 354 354 354
336 334 334 334 334 333 334 335 336 337 339 340 339 340 342 342 343 343 345 345 346 347 347 346 346 345 346 347 348 348 349 349 350 350 350 350 350 349 348 348 347 346 345 347 345 345 345 346 347 349 351 351 351 351 352 351 351 351 352 353 354 354 354
331 332 333 334 333 333 334 335 336 337 339 339 339 340 341 343 344 345 346 346 346 347 347 346 346 345 343 342 342 340 341 343 346 346 348 350 348 348 347 347 346 346 349 351 350 350 346 344 345 347 348 349 350 351 352 352 352 353 353 353 353 354 354
332 333 334 334 333 333 333 335 336 337 339 339 338 339 340 341 343 344 344 344 346 346 347 346 345 343 341 342 342 341 341 341 344 344 344 346 347 347 346 345 346 350 352 352 353 353 352 349 348 344 345 346 347 349 352 353 354 359 361 360 356 354 355
333 334 335 335 335 335 335 336 337 338 338 338 338 339 339 341 342 343 343 343 343 344 345 346 344 343 342 342 343 344 343 344 343 343 343 342 342 343 347 347 347 350 350 351 351 350 351 346 343 344 344 343 345 348 351 352 354 353 347 347 357 357 351
331 333 334 335 336 337 336 337 337 337 337 336 337 338 339 339 341 342 342 343 342 344 345 345 344 343 343 343 343 343 341 342 343 341 342 344 343 342 343 346 348 348 347 349 349 348 350 347 345 343 344 345 346 348 348 346 336 331 332 336 337 350 354
332 333 334 335 336 337 337 336 335 335 336 337 337 338 339 339 339 340 341 341 343 344 343 343 343 342 341 341 342 343 341 341 342 342 341 342 343 343 344 345 346 345 345 346 350 347 345 345 345 344 344 343 342 343 341 336 330 327 330 331 332 334 347
333 332 331 331 332 332 333 332 332 333 334 334 336 339 340 341 340 341 342 342 342 341 340 341 341 342 342 343 343 343 342 341 342 342 341 342 342 343 343 345 345 346 347 346 345 344 346 347 345 343 343 342 341 338 336 334 329 325 326 327 330 333 340
329 329 328 328 328 329 329 329 329 330 331 332 335 336 337 338 340 340 340 341 340 340 339 339 340 340 341 340 340 340 341 343 342 342 341 343 342 342 342 342 343 344 345 345 344 344 344 345 345 345 346 342 338 336 333 332 323 322 324 323 326 330 345
329 329 327 327 327 328 328 329 328 328 329 331 331 333 335 335 337 336 335 337 337 337 338 338 337 337 338 338 339 339 340 340 339 339 339 339 340 339 338 338 339 340 343 343 342 344 345 346 346 346 343 341 337 335 332 330 319 320 320 320 322 329 343
329 328 328 329 329 328 328 328 328 328 329 328 329 329 330 332 332 331 331 330 330 331 331 331 330 331 333 334 336 338 338 338 339 339 338 337 337 337 337 338 338 339 342 337 337 338 340 341 343 343 344 344 339 334 331 330 322 317 317 317 319 328 341
329 329 328 327 327 327 327 327 328 329 327 326 326 327 328 330 330 329 328 327 328 327 327 327 327 329 330 330 332 333 335 336 337 337 337 336 337 338 339 339 340 339 341 337 338 338 340 343 345 347 345 346 339 336 330 327 324 315 314 315 316 326 333
328 328 327 327 326 325 326 326 327 327 327 326 325 325 327 328 327 326 325 325 324 325 325 325 326 327 327 328 329 331 332 333 334 334 334 334 336 337 337 339 340 340 339 339 339 338 339 343 342 342 341 341 338 339 328 326 325 315 313 313 315 325 332
325 325 326 327 327 326 326 327 325 324 324 324 324 325 325 326 326 326 324 324 324 323 322 323 323 325 326 327 329 330 331 332 333 334 333 334 336 338 338 338 336 336 337 337 337 337 337 340 339 331 327 328 327 326 326 325 324 320 312 312 313 318 330
327 327 325 325 325 327 323 324 324 323 322 322 323 323 324 324 324 323 324 322 321 321 321 322 323 324 324 325 325 325 326 327 330 332 333 334 335 336 335 335 334 334 335 336 335 334 333 331 329 328 327 327 328 328 328 327 323 320 311 310 310 312 323
325 325 327 326 326 323 321 320 319 319 320 320 321 322 321 321 321 320 319 319 319 320 321 322 322 323 323 323 323 321 321 325 327 329 331 332 331 329 329 330 332 335 335 336 333 331 329 330 329 327 328 329 330 330 330 331 327 322 316 311 310 310 313
319 321 321 320 320 322 319 317 317 317 318 319 320 321 321 321 320 320 319 317 319 321 321 321 322 324 325 324 321 322 321 321 321 323 326 327 328 327 327 329 329 331 335 334 331 329 326 325 324 323 324 326 327 327 327 327 326 323 321 316 309 310 312
319 317 317 318 319 320 322 319 320 320 320 321 321 320 319 320 320 321 318 316 319 323 324 321 321 324 325 327 324 320 322 321 321 318 320 323 323 325 325 326 328 329 331 333 330 327 325 325 325 324 323 323 323 323 323 322 322 324 322 321 314 310 309
316 315 316 317 318 321 321 319 318 318 319 319 320 320 320 320 320 320 318 318 323 322 322 323 326 324 320 319 321 324 321 320 320 321 321 321 322 324 324 323 324 323 325 329 328 326 324 324 324 322 323 323 321 321 319 320 320 317 322 322 321 314 311
315 315 315 316 317 319 319 318 318 318 318 318 319 320 320 319 319 319 317 321 324 319 321 323 323 323 321 321 320 317 320 319 317 316 317 319 320 322 321 321 323 322 320 323 325 325 326 326 324 322 322 322 321 319 318 318 317 316 315 318 318 317 316
315 315 314 315 317 319 317 317 317 317 317 316 316 317 318 317 318 319 321 321 320 321 322 325 325 324 318 315 318 317 317 316 314 313 315 314 314 314 316 315 314 318 321 320 319 323 328 331 327 324 323 322 319 318 318 315 314 313 312 310 311 311 311
314 314 315 315 316 316 315 315 315 316 316 315 315 317 318 317 317 317 317 318 319 319 323 326 322 317 314 315 318 321 321 324 327 318 312 313 313 311 311 311 312 312 313 313 313 318 322 328 328 325 324 319 317 317 317 317 314 313 309 309 307 306 306
314 315 315 314 314 316 314 314 315 314 316 314 313 314 316 316 316 316 316 317 317 319 323 324 325 321 313 315 317 320 322 315 315 312 311 310 310 309 309 310 312 312 311 312 310 312 314 319 320 322 320 319 318 317 316 317 314 312 308 310 304 305 304
315 315 314 315 316 315 316 316 315 314 314 312 312 314 315 314 315 316 318 317 317 320 323 322 318 313 313 314 315 317 317 314 310 311 312 309 308 308 309 310 302 304 309 308 311 303 298 302 314 315 315 312 311 313 315 314 313 304 299 298 296 296 297
315 314 315 316 315 314 314 314 315 314 314 313 315 316 316 314 314 314 316 315 316 318 317 317 317 315 313 317 315 318 318 315 311 309 307 307 306 308 310 307 307 297 297 304 306 298 293 294 295 300 306 316 311 310 305 304 300 297 297 295 295 294 294
316 316 316 316 315 315 316 315 314 314 315 312 314 314 314 315 314 313 316 315 314 315 315 316 317 312 313 313 314 322 320 311 315 315 311 308 307 308 309 306 305 307 301 295 297 297 292 292 292 292 295 297 303 314 311 307 300 297 294 294 294 293 292

ECMWFFLT1_sfc_thetae_114.txt.gz
Theta_e
324 321 324 328 330 331 332 333 335 335 336 337 339 340 342 343 345 346 346 347 348 348 350 351 351 351 351 351 352 351 351 351 352 352 352 352 352 352 352 352 353 353 355 354 355 356 358 361 361 361 361 361 361 360 360 365 365 366 365 366 362 363 361
326 322 323 327 330 331 332 334 335 336 336 337 339 341 342 343 344 345 346 347 348 348 350 351 352 351 351 352 353 352 351 352 355 357 355 355 357 354 353 353 354 354 355 355 356 357 358 358 361 360 359 361 362 361 361 363 364 363 364 364 362 360 363
328 324 323 325 329 331 332 333 335 336 337 337 339 340 341 343 345 345 346 346 347 348 351 351 352 351 352 352 352 353 352 352 355 355 354 353 355 356 356 355 355 355 355 356 356 356 359 357 359 360 359 359 360 361 361 363 364 362 362 361 363 362 359
329 327 323 325 328 331 333 334 335 336 337 338 339 340 341 343 345 346 346 347 347 347 349 351 352 352 352 352 352 353 352 352 354 355 355 354 354 357 357 356 357 357 357 357 357 356 357 359 357 359 364 360 360 361 361 362 363 363 362 361 360 360 360
329 330 325 323 325 329 332 333 334 336 337 338 339 341 341 343 345 346 346 347 347 347 349 351 353 353 354 354 353 354 354 353 354 355 356 356 356 358 358 357 356 357 358 358 359 359 358 358 357 357 358 361 360 360 361 362 362 362 361 361 360 360 360
328 329 327 324 324 328 331 333 335 336 337 337 338 340 341 342 344 345 347 348 348 349 349 351 353 354 353 354 354 355 355 354 355 356 356 356 356 356 357 357 356 357 357 358 359 359 358 357 358 357 357 358 360 360 360 361 361 361 361 360 360 360 359
328 329 329 326 325 326 329 332 334 336 337 338 339 341 342 342 343 345 346 347 349 348 348 349 352 353 353 354 354 355 354 354 354 355 356 355 355 356 357 357 359 356 357 359 358 359 358 357 358 358 358 357 360 360 360 361 361 362 362 360 360 359 359
330 329 330 329 326 326 328 331 334 336 338 339 339 339 340 342 343 344 345 346 348 348 349 349 351 352 353 355 355 355 355 355 355 355 356 355 354 355 355 356 357 358 358 356 357 357 357 358 357 358 358 357 357 360 360 361 361 360 361 360 359 359 358
331 331 331 331 328 327 327 329 331 334 336 337 338 338 340 342 343 344 345 346 348 349 349 350 351 353 353 354 354 354 355 355 354 355 355 355 354 354 354 354 355 357 356 356 356 357 356 356 356 357 358 358 358 358 359 360 359 360 360 360 359 359 358
331 331 331 333 331 330 329 329 331 333 335 335 336 337 339 342 344 345 345 346 347 348 349 350 351 352 353 353 354 355 354 354 355 354 354 354 355 354 354 354 354 356 355 355 355 355 356 356 355 356 356 357 358 357 358 358 358 359 359 360 359 359 359
333 332 333 333 332 331 331 332 332 333 334 335 336 337 340 342 343 344 345 347 347 348 350 351 352 352 352 352 353 354 353 353 354 354 354 354 354 354 354 354 354 355 355 354 354 354 355 356 356 355 355 354 355 357 357 357 357 357 357 359 360 359 359
333 333 332 333 332 332 331 332 333 334 335 336 337 338 340 342 344 345 346 348 348 349 350 351 352 352 352 352 352 352 353 353 353 353 354 354 354 354 354 354 354 353 354 354 354 354 354 354 354 354 354 354 355 356 356 357 357 357 357 357 359 359 359
334 333 333 333 333 333 334 333 333 335 336 337 338 339 341 342 343 344 346 347 348 350 351 351 351 352 351 351 351 351 352 353 353 353 354 355 355 355 354 353 353 352 352 353 353 353 352 352 353 355 355 354 354 353 354 355 355 356 357 357 358 358 358
336 334 333 334 334 334 333 334 335 336 337 338 338 339 341 342 343 344 345 346 348 349 350 351 351 351 351 350 350 350 351 352 353 353 353 354 355 354 354 354 353 353 353 353 352 351 351 350 350 351 354 354 354 354 355 355 354 355 356 357 357 357 357
331 333 333 333 333 333 334 334 334 336 338 338 339 339 340 341 343 345 346 347 348 350 350 351 351 350 350 350 350 349 350 351 352 352 353 354 353 352 352 352 352 352 351 352 351 350 350 350 350 350 350 352 354 354 354 353 353 354 355 355 356 356 356
331 332 333 333 333 333 334 335 335 337 337 337 338 339 340 341 342 344 345 346 348 349 350 351 350 350 350 349 350 350 350 350 350 350 350 351 351 351 351 351 351 350 350 350 350 351 351 350 349 348 348 349 351 352 352 352 354 357 358 358 357 356 356
331 332 334 334 333 334 335 336 337 337 337 337 338 339 340 341 342 344 346 347 348 348 349 349 348 348 348 349 349 348 347 347 348 348 348 349 350 350 350 350 350 350 351 352 353 354 355 354 350 349 347 347 348 349 350 352 353 349 344 345 353 360 358
332 334 335 335 335 335 335 336 336 337 337 338 339 340 340 341 342 344 344 346 346 348 348 348 347 346 345 345 345 345 345 346 346 346 346 347 347 348 350 351 350 350 350 352 353 354 354 351 348 349 349 348 347 347 348 351 338 333 334 337 339 348 357
333 334 335 335 336 336 336 336 337 337 337 338 338 339 340 342 342 341 343 344 344 344 344 345 345 342 340 342 344 344 344 345 345 345 345 346 346 346 348 351 352 351 351 351 353 353 349 348 348 349 349 349 350 349 348 343 330 328 330 331 332 335 348
330 331 332 334 334 333 333 334 335 336 337 338 339 341 341 342 341 341 342 343 343 342 341 341 341 341 341 342 343 343 343 343 344 344 344 344 346 347 347 350 350 350 348 344 341 341 342 345 346 348 349 347 346 344 342 338 327 324 325 325 328 331 339
328 327 327 328 328 329 330 331 332 333 335 337 339 339 340 340 341 340 341 341 340 340 339 339 339 339 340 341 341 342 343 343 343 343 343 344 344 345 345 345 343 343 343 342 341 341 342 343 345 348 348 345 343 343 336 330 322 322 323 322 323 329 341
326 326 326 327 327 328 329 330 330 331 332 336 338 339 340 339 340 339 338 340 338 338 338 338 337 337 337 338 339 339 340 341 341 343 343 343 342 342 340 338 339 340 342 342 342 343 344 344 344 343 344 345 343 342 339 330 319 319 321 321 323 332 340
327 327 327 327 328 327 329 329 329 330 331 331 331 333 334 336 337 336 336 335 335 335 334 334 333 334 335 335 337 338 338 338 339 339 339 340 340 339 338 338 339 340 342 339 340 341 342 344 345 345 344 345 345 342 336 330 321 316 317 318 322 334 337
327 327 327 327 327 328 329 329 331 331 330 330 330 331 332 333 332 332 331 331 331 332 331 332 331 331 332 332 333 335 336 337 337 338 338 338 337 337 338 339 339 340 342 338 338 339 341 343 344 346 345 346 342 340 332 328 322 313 313 314 318 333 337
325 325 325 325 324 324 325 327 328 328 328 328 327 328 331 331 330 329 328 328 329 329 329 328 328 329 330 330 332 333 333 335 336 336 337 337 337 339 339 339 339 340 340 339 339 338 339 344 343 340 334 336 336 337 329 327 323 314 312 313 315 328 337
324 324 325 325 326 326 326 327 325 324 325 325 325 327 328 329 328 327 325 325 327 326 326 326 327 328 329 330 330 331 333 335 336 336 337 337 337 337 337 338 337 337 337 337 337 336 334 333 332 329 328 329 329 328 327 324 322 319 311 311 313 319 333
324 325 324 323 324 325 323 323 322 321 321 322 324 325 327 327 325 324 325 324 322 322 323 324 326 325 324 325 326 328 330 331 332 333 333 334 334 335 335 336 336 336 335 334 334 333 331 330 329 328 328 330 330 330 328 325 322 320 310 309 309 313 324
323 323 324 326 325 322 319 319 319 319 320 321 321 322 322 322 322 321 321 320 319 321 324 325 324 323 322 321 321 321 323 326 328 330 330 332 331 330 331 334 337 336 335 333 331 329 329 329 329 328 328 329 329 328 327 328 325 324 316 310 308 308 312
319 319 320 320 320 322 320 318 319 319 320 321 321 321 321 320 319 319 319 318 320 323 325 325 324 322 321 320 320 321 321 321 323 325 327 328 330 330 330 332 334 335 333 330 328 327 325 325 326 326 325 324 324 324 324 325 327 324 324 316 309 308 309
317 317 318 319 320 321 322 320 320 319 320 320 321 321 322 322 321 321 321 319 322 324 326 324 323 321 321 322 320 320 323 323 324 323 325 327 328 328 327 329 331 333 333 331 328 326 325 325 326 325 324 322 322 322 323 323 322 322 322 322 314 310 309
316 317 318 319 320 322 320 318 318 318 319 319 320 321 321 321 321 321 320 321 325 324 323 323 323 321 320 320 320 321 320 321 320 321 322 322 324 325 326 326 328 327 328 330 328 326 325 325 326 325 324 324 320 319 320 320 321 320 320 319 319 314 310
316 317 318 319 319 320 319 319 318 318 318 318 319 319 321 319 320 320 320 322 325 323 324 323 322 321 319 319 320 319 319 317 316 316 316 317 317 319 320 321 326 326 325 327 329 328 327 327 325 324 324 323 322 321 320 320 319 318 317 318 317 316 314
314 316 317 317 319 320 318 318 317 317 317 317 318 319 320 320 320 320 321 322 322 324 325 324 322 323 319 320 320 319 317 316 316 315 316 314 314 313 316 318 317 320 322 321 322 327 332 330 327 326 327 324 322 322 322 319 318 316 314 314 312 312 312
314 315 315 316 318 318 317 316 316 316 317 317 317 318 319 319 318 318 319 320 322 324 327 327 324 318 318 320 324 325 325 325 326 317 313 313 312 310 311 313 314 314 314 314 314 319 324 327 328 327 326 324 323 322 323 322 319 315 312 312 311 309 308
314 314 314 315 316 317 315 316 316 317 317 316 316 317 317 317 317 318 318 320 321 322 323 325 325 321 317 317 318 321 322 316 316 314 312 311 311 310 310 310 311 313 313 313 311 313 316 321 322 322 321 323 320 321 321 320 317 317 309 311 304 306 305
314 314 314 315 316 316 317 317 316 316 316 315 316 317 317 316 317 317 319 319 319 320 322 323 321 318 318 318 316 316 316 316 314 315 314 311 310 310 311 309 302 306 311 310 310 301 298 303 316 316 317 315 313 316 320 318 317 306 298 296 295 296 297
315 315 315 316 316 315 316 317 318 317 317 316 318 317 318 317 316 316 317 317 318 318 318 319 319 318 317 321 321 322 321 316 312 311 310 310 311 313 314 311 309 296 297 307 306 297 292 292 294 299 304 316 314 311 307 306 301 295 294 294 294 293 293
315 316 317 317 316 316 317 316 316 316 317 316 317 316 316 316 316 315 317 316 317 317 318 318 318 316 317 316 320 328 323 316 320 317 314 311 312 313 314 311 312 312 301 294 298 297 293 292 291 292 295 296 303 314 312 306 297 292 292 291 292 292 291

ECMWFFLT1_sfc_thetae_120.txt.gz
Theta_e
337 334 335 336 337 338 339 340 343 342 345 348 350 349 350 350 352 354 354 356 358 358 360 361 360 360 361 360 361 361 360 359 360 360 360 360 361 362 361 359 359 362 359 358 361 360 364 364 364 367 369 369 369 370 372 371 370 365 370 373 371 369 369
336 334 334 335 337 338 340 342 343 343 345 347 349 350 350 351 353 353 355 357 358 358 359 359 361 361 360 361 361 363 362 360 361 361 361 362 363 363 362 363 362 363 364 363 363 366 367 364 367 367 368 368 367 371 370 371 370 368 368 373 369 370 370
337 335 334 336 337 339 342 342 344 344 346 346 347 348 350 353 354 356 356 356 357 358 359 359 361 360 361 362 361 362 362 361 360 360 359 358 361 359 362 364 363 361 361 364 366 363 365 365 368 369 368 367 364 368 372 370 369 368 370 372 368 365 371
337 334 335 338 340 342 343 344 345 345 346 348 346 347 351 354 356 358 358 358 357 357 358 357 358 358 360 361 361 362 362 362 361 360 357 359 359 361 362 363 362 364 361 362 363 362 361 365 366 368 367 368 368 368 368 369 368 368 369 372 368 367 369
337 336 336 338 340 342 343 344 345 347 348 350 351 350 352 355 356 359 358 356 356 356 356 356 356 356 358 359 358 358 360 360 360 360 360 360 363 363 361 360 361 361 362 362 365 366 366 366 364 366 367 369 368 368 367 368 367 368 370 371 367 365 364
336 336 336 339 341 342 341 342 346 348 349 351 352 352 352 356 355 355 357 355 355 357 357 357 355 356 356 357 358 357 359 361 362 362 360 362 364 361 360 361 359 361 359 361 363 364 364 364 363 365 364 362 362 362 364 365 363 364 367 369 368 365 361
338 340 339 340 340 340 341 342 343 348 351 352 353 354 353 355 354 354 355 355 357 356 354 354 354 356 358 358 359 359 359 358 359 358 359 359 361 361 361 362 362 360 361 364 363 364 362 363 365 366 364 362 364 362 364 367 366 365 367 368 370 368 366
335 337 338 339 338 339 341 343 344 347 351 350 351 352 354 354 355 355 354 353 356 353 354 354 355 358 360 361 359 358 359 359 358 359 358 357 360 359 358 360 361 363 364 362 364 365 362 364 363 364 364 364 364 366 364 367 369 365 365 367 366 366 362
339 339 340 339 337 340 343 345 346 347 350 350 351 352 353 354 354 355 356 357 358 357 357 356 358 360 362 362 361 360 359 360 359 358 357 356 357 356 355 358 360 363 363 360 361 364 363 362 362 363 367 366 365 368 367 368 367 366 366 365 366 366 365
339 341 341 340 341 341 345 346 348 349 350 351 352 353 354 355 357 357 358 359 361 360 361 361 361 362 365 364 361 362 361 360 359 357 357 356 357 357 357 357 359 361 361 360 359 359 363 363 363 365 368 366 367 368 368 367 366 364 364 365 366 366 366
337 340 340 341 341 343 345 346 348 349 351 353 353 353 354 354 357 358 358 361 360 362 363 362 364 364 366 365 361 361 359 359 359 357 359 359 359 358 357 356 357 360 360 359 359 360 362 363 365 366 369 363 364 366 367 366 366 365 363 363 365 366 365
337 338 340 343 344 345 345 347 349 351 353 354 355 354 355 356 357 359 361 362 363 363 364 364 365 366 367 366 361 359 359 358 358 358 358 360 360 360 358 356 356 358 359 360 360 361 360 362 363 363 366 366 364 364 366 367 367 367 366 363 362 362 364
339 338 341 344 345 346 347 348 349 351 353 354 356 356 357 357 357 359 361 362 363 363 364 366 366 367 368 367 363 360 359 358 358 359 359 362 362 362 360 359 357 356 357 360 360 359 358 359 362 364 364 366 365 362 363 365 363 367 369 365 364 363 363
338 341 344 346 346 346 345 345 348 350 351 353 354 357 357 358 358 360 361 360 362 364 364 363 364 366 366 366 364 363 362 362 361 363 364 365 365 365 362 359 358 359 360 361 360 358 358 358 358 361 363 363 363 364 365 365 364 366 367 367 364 361 361
337 339 341 342 345 347 347 346 347 347 349 350 353 354 356 357 358 360 361 362 363 363 364 365 365 366 365 366 366 366 367 367 366 367 369 368 368 367 365 362 359 360 361 362 361 357 358 358 358 358 358 360 361 363 361 358 358 359 361 363 362 363 358
335 337 339 343 346 347 348 349 349 348 349 349 351 353 354 356 357 357 358 360 361 362 364 365 365 365 366 366 367 368 369 370 369 369 371 370 370 370 367 363 360 359 361 361 360 362 362 362 362 360 358 358 360 360 358 357 358 355 353 356 362 360 360
333 336 338 340 343 348 350 350 350 350 350 350 350 351 353 355 357 358 359 359 360 362 364 364 364 365 365 365 367 368 368 368 369 369 369 367 368 370 368 365 365 363 363 363 363 362 365 362 361 360 358 357 357 357 355 354 346 338 337 340 345 358 361
334 335 337 339 342 343 345 346 348 349 350 351 352 352 354 355 357 357 357 359 360 362 363 362 362 361 363 364 366 366 365 365 366 364 356 350 352 358 367 369 368 368 368 365 362 366 364 361 363 365 362 359 358 357 354 348 333 330 333 336 337 345 358
336 336 336 339 341 342 342 344 347 349 348 350 351 352 354 356 355 355 357 358 361 362 361 360 362 362 362 363 364 364 364 365 363 360 358 358 354 349 352 364 367 367 365 363 365 366 365 365 361 358 360 360 361 358 356 347 328 329 330 332 333 336 351
333 334 335 337 339 341 342 345 345 346 348 348 350 351 353 354 354 355 358 359 361 361 361 359 361 360 361 362 362 362 361 363 361 357 356 358 356 356 358 361 362 363 361 361 364 364 364 363 362 364 364 364 363 363 353 344 328 325 326 328 329 333 342
329 330 331 332 334 336 337 339 341 343 345 347 348 350 351 351 353 354 354 354 355 356 357 357 356 356 357 359 360 359 358 358 358 356 354 354 355 356 354 355 360 362 361 361 362 360 358 359 363 364 365 364 362 360 345 335 319 322 322 323 325 329 342
327 328 327 329 330 331 332 335 336 337 338 343 347 348 349 349 352 351 352 354 353 353 355 357 357 357 358 357 355 356 356 354 354 354 353 352 350 349 349 351 354 357 357 357 359 358 360 357 360 364 363 362 361 359 347 332 316 319 319 320 322 325 352
328 328 328 329 330 330 333 335 336 336 337 338 339 340 343 348 348 348 349 349 350 351 353 355 356 353 354 351 349 349 349 348 348 347 349 350 346 343 346 346 349 353 358 357 357 357 357 355 359 362 361 360 359 357 348 337 319 315 315 317 317 334 353
332 331 330 329 330 332 333 334 335 336 336 336 337 339 342 344 343 340 339 339 341 342 341 340 342 348 350 351 351 349 348 346 345 344 345 345 344 343 344 347 349 352 356 355 356 355 356 357 356 355 353 353 351 350 344 331 320 313 314 314 315 330 350
329 330 329 329 328 329 331 332 333 334 335 336 335 336 337 337 336 335 333 333 334 334 333 334 335 335 339 346 348 348 347 348 347 345 344 344 344 344 344 345 347 348 349 351 350 349 351 350 348 347 347 346 345 342 342 333 324 313 312 311 312 328 347
327 328 329 330 329 329 329 331 331 331 332 332 332 333 332 332 331 330 329 329 329 328 328 329 331 333 334 338 342 344 344 344 344 344 344 344 342 343 344 345 343 342 344 344 347 346 346 346 344 341 340 340 340 337 335 330 326 322 310 310 311 313 335
330 329 328 329 328 330 328 329 328 329 332 333 333 332 333 333 331 329 328 328 327 327 327 330 332 332 332 334 336 337 338 338 338 339 339 340 340 341 340 341 340 341 341 341 342 342 343 342 340 338 338 338 337 335 334 334 333 325 310 309 309 310 320
329 329 330 330 331 330 329 329 329 328 330 331 331 331 332 332 330 329 329 328 326 327 329 331 332 333 332 331 332 334 335 336 337 339 339 339 339 337 337 339 340 339 339 338 337 335 335 336 336 335 336 336 336 335 333 330 328 332 317 311 309 308 312
327 328 329 330 330 330 330 328 328 327 328 330 331 330 331 331 329 328 328 326 327 330 331 333 333 332 330 330 330 331 334 337 338 338 340 339 339 338 337 337 337 336 336 335 334 334 332 333 334 333 332 331 333 334 334 333 330 323 328 316 310 309 311
328 328 328 328 328 328 327 326 326 326 327 328 330 332 332 330 327 326 326 326 328 327 329 330 330 331 332 333 333 331 334 336 337 337 339 339 338 340 338 338 337 336 336 337 336 334 333 334 334 336 333 332 331 334 334 335 336 327 321 325 314 310 308
325 325 324 324 324 325 324 322 322 322 324 325 327 327 328 328 327 326 326 327 329 329 327 328 327 326 327 328 329 330 331 331 332 334 334 338 341 339 338 337 338 337 337 338 339 337 335 336 337 337 334 332 332 332 334 336 337 336 332 324 324 315 310
324 325 324 324 324 323 322 321 320 320 320 322 324 325 327 326 327 327 327 329 331 330 330 329 328 328 327 327 327 326 326 326 327 329 330 331 333 334 335 336 336 335 337 338 338 338 336 336 337 334 333 334 332 332 333 335 335 335 334 327 324 323 316
324 324 323 323 324 323 323 323 321 321 321 322 324 324 324 325 326 327 328 329 330 331 331 330 329 330 330 328 326 327 327 326 323 322 322 323 323 325 328 331 332 332 333 333 332 332 332 333 333 332 331 332 332 333 332 334 333 331 325 322 321 321 325
327 327 328 328 327 325 324 324 323 323 324 324 325 326 327 329 329 329 328 327 328 330 332 330 328 325 324 323 323 322 322 321 322 320 320 321 320 319 319 320 321 321 324 326 328 327 327 329 330 331 331 330 331 331 330 325 323 324 319 320 321 323 324
326 327 327 326 326 326 324 324 323 324 324 324 327 329 328 327 327 328 329 329 330 331 329 327 328 326 323 321 321 321 323 321 321 320 320 321 322 320 321 323 322 320 319 323 325 324 326 329 327 327 327 326 324 322 322 322 322 322 306 314 302 309 317
322 324 327 328 328 327 326 325 325 324 324 326 327 327 328 328 328 328 327 329 330 331 330 328 326 326 324 323 321 320 320 320 322 323 323 321 320 319 316 312 301 308 322 318 315 304 297 304 320 319 322 323 320 320 320 319 322 300 294 293 293 294 294
321 320 323 327 327 327 326 326 326 325 325 325 325 324 324 324 325 327 328 330 330 331 332 330 326 323 322 325 326 324 324 323 322 325 326 327 326 325 322 319 316 297 296 308 309 300 294 293 295 298 302 319 324 320 308 307 299 293 293 292 294 293 294
324 326 325 324 325 327 327 328 328 327 327 328 327 326 327 326 326 327 325 328 329 330 331 330 327 325 324 325 326 327 327 326 326 326 325 326 327 328 328 327 323 317 300 295 300 298 295 293 293 293 296 296 304 320 327 309 298 292 293 293 293 294 294

ECMWFFLT1_sfc_thetae_123.txt.gz
Theta_e
340 336 335 334 335 336 337 340 343 342 345 348 350 349 348 346 349 352 351 355 356 358 359 360 360 360 359 358 360 360 358 360 360 358 358 359 359 360 360 359 359 361 359 357 359 359 361 362 364 364 367 369 371 371 369 371 368 363 366 375 371 365 365
335 335 334 334 335 336 338 341 342 343 344 348 349 352 350 348 349 350 353 356 357 358 358 359 360 360 359 359 360 362 360 359 362 362 360 360 362 363 363 363 361 362 362 363 363 363 366 361 363 365 366 370 367 371 368 368 367 367 367 372 368 369 371
336 338 335 335 335 336 338 340 342 344 344 346 348 349 350 352 352 353 356 355 356 359 359 359 360 359 361 362 361 361 360 358 359 358 359 357 360 359 360 363 363 361 360 361 363 362 363 365 364 366 366 366 364 367 369 368 369 367 367 370 365 363 367
338 339 337 336 337 338 338 341 343 344 345 347 347 347 350 353 354 355 355 356 356 357 357 356 357 356 358 361 361 363 361 359 360 357 357 359 359 358 361 360 361 362 360 361 360 360 360 362 365 365 367 367 365 367 367 367 366 366 367 373 366 364 367
338 339 337 336 336 337 338 340 342 345 345 347 349 350 349 351 353 355 355 355 355 355 356 354 354 355 357 358 357 358 360 359 360 360 359 358 359 361 359 358 359 357 359 360 363 362 365 366 364 367 366 366 365 365 364 367 364 367 369 372 368 364 364
338 337 339 337 336 337 337 339 342 344 345 346 347 347 348 351 350 351 354 354 355 354 356 355 353 354 355 355 356 356 357 360 363 362 360 360 359 358 359 360 359 359 356 359 360 362 363 363 363 363 363 363 359 360 362 363 362 363 365 365 365 364 359
338 339 338 338 339 338 338 339 341 344 346 346 346 347 348 349 350 350 351 352 354 354 352 352 352 353 355 355 356 358 357 356 358 357 358 359 360 360 360 360 361 359 358 361 360 362 362 362 361 364 362 362 362 358 360 363 363 362 364 366 368 366 364
339 338 339 340 337 338 339 341 342 345 346 346 347 348 348 347 349 350 352 350 351 350 351 351 353 357 357 357 357 357 356 357 356 357 357 356 358 359 359 360 359 361 361 359 361 362 361 363 362 362 362 361 360 362 361 364 368 364 363 363 363 366 363
340 341 343 340 337 340 342 343 344 345 345 345 347 348 347 349 350 352 355 356 353 353 354 354 355 357 359 358 359 357 357 358 358 356 354 354 355 356 356 357 359 361 360 358 359 362 362 361 360 361 362 362 361 364 363 366 365 365 362 362 363 364 362
340 343 336 339 344 343 345 346 345 347 346 348 349 349 349 351 354 354 356 358 358 355 356 356 360 357 359 359 358 359 359 358 358 357 355 353 353 354 356 355 357 359 358 357 357 357 360 361 361 360 365 364 365 368 366 364 364 363 362 362 363 364 364
339 343 342 341 343 343 344 346 347 348 350 352 350 347 349 350 351 353 355 356 356 359 361 358 359 360 359 360 360 359 359 357 358 357 357 357 354 354 355 355 355 357 358 358 356 356 357 359 361 362 365 361 362 365 363 363 363 363 362 360 361 362 361
340 340 344 344 343 343 344 345 346 347 348 350 353 351 354 357 353 355 358 357 358 359 361 361 360 360 361 361 359 360 359 358 357 355 356 357 357 357 355 355 355 354 355 357 357 358 355 356 356 358 363 364 363 362 363 364 363 364 364 362 360 358 359
342 342 343 346 346 344 344 345 344 346 349 350 354 355 356 356 358 360 359 359 359 360 361 362 361 362 363 364 361 360 358 357 356 357 356 359 361 360 359 357 355 354 353 356 357 357 355 355 357 357 359 362 362 360 362 362 361 365 367 363 359 362 356
341 342 341 343 345 343 345 344 348 350 352 353 356 355 353 358 357 359 362 362 362 363 362 361 361 363 363 365 363 360 358 359 358 360 362 362 363 363 360 358 357 356 356 356 357 356 356 355 354 357 357 358 359 360 361 360 361 364 361 364 364 363 361
338 340 342 341 343 343 338 344 350 351 352 354 357 357 357 356 358 360 363 364 365 364 364 365 364 364 364 366 363 362 362 363 363 364 365 365 366 366 365 360 357 358 359 357 357 355 357 357 354 353 354 355 360 360 360 356 358 358 358 362 364 364 359
338 341 337 338 340 341 343 341 349 352 353 355 356 357 357 358 359 360 361 363 364 364 365 366 365 364 364 363 365 367 365 366 365 365 367 367 357 357 362 363 360 356 359 359 358 359 360 359 358 355 353 354 357 357 355 356 358 360 355 359 362 362 360
339 340 339 337 337 340 339 340 344 347 351 354 355 356 358 358 360 362 362 363 365 364 366 365 365 365 366 364 367 366 368 368 368 368 368 357 354 353 356 359 363 362 359 359 361 361 363 359 359 357 355 353 353 351 352 350 345 339 337 339 347 359 357
338 339 340 339 337 337 340 340 340 346 351 353 355 356 357 358 359 360 360 362 363 365 365 365 364 363 366 366 365 363 370 372 372 372 365 363 359 358 358 360 361 364 365 363 359 363 363 360 359 359 358 354 349 351 351 345 333 330 333 335 337 345 356
335 337 338 337 338 337 338 340 341 349 352 354 354 354 356 359 359 359 361 362 362 364 364 363 363 363 363 366 367 368 371 371 371 370 368 367 365 364 364 362 359 361 363 362 360 360 361 363 361 360 361 358 353 355 349 344 329 328 330 332 332 335 348
338 335 334 335 336 336 336 337 338 342 345 350 355 357 357 358 359 360 362 363 364 363 362 361 361 361 360 363 364 365 365 369 369 366 365 366 364 365 365 363 363 365 364 361 361 359 363 363 361 363 363 362 359 355 348 340 327 324 325 327 327 332 341
335 333 333 332 334 335 334 336 339 342 345 347 352 353 354 355 356 357 357 357 358 358 358 360 359 359 360 361 361 356 361 368 366 364 364 364 363 363 363 363 362 362 362 362 362 362 363 361 362 363 363 364 356 352 340 330 319 322 322 322 323 327 341
334 334 332 333 333 334 335 336 337 338 340 346 349 350 352 353 354 355 355 356 356 357 357 357 357 357 357 357 358 358 362 366 364 360 360 360 360 359 359 360 360 359 358 359 363 362 366 359 364 363 363 361 351 346 337 326 316 318 318 318 320 324 349
333 333 333 334 338 336 336 338 338 339 343 345 347 348 350 352 353 352 353 353 353 354 357 356 357 357 359 359 363 362 361 360 359 357 357 357 355 357 360 360 356 354 352 359 362 363 359 363 361 353 347 348 347 342 332 325 318 314 314 315 315 331 351
334 335 334 334 334 338 338 338 339 341 342 342 342 343 345 347 347 347 347 347 347 347 347 347 347 349 353 355 359 358 355 355 352 350 353 352 352 353 355 356 354 355 355 355 351 355 357 359 352 349 349 347 344 338 328 320 317 312 312 312 313 325 349
332 334 334 334 333 332 334 336 338 339 339 340 338 338 340 342 342 342 340 340 341 341 340 340 342 345 348 350 352 351 348 349 348 347 349 350 351 352 353 353 352 354 355 351 348 350 352 347 344 345 347 347 344 340 332 325 321 313 311 310 311 326 342
331 331 333 334 333 333 335 336 335 334 334 335 335 337 337 337 336 335 334 335 336 336 336 337 338 341 344 348 351 348 348 348 348 349 348 349 349 351 352 353 354 351 348 347 348 346 346 345 345 343 343 344 341 337 331 325 322 321 311 309 311 313 336
332 332 332 332 331 333 333 334 333 333 334 335 335 335 335 335 332 331 332 333 333 332 334 336 337 337 340 345 345 345 344 345 343 340 340 341 343 344 343 344 345 345 344 343 344 343 341 340 340 341 341 340 339 339 337 335 329 324 311 310 309 311 320
331 333 335 334 333 332 332 333 333 334 336 337 335 336 335 333 331 331 331 332 331 332 334 335 335 336 338 340 340 339 340 341 340 339 340 340 339 337 337 338 338 339 339 338 336 336 336 338 339 339 339 337 336 333 328 328 332 332 317 311 310 309 314
329 330 331 331 331 332 332 331 330 330 332 335 336 335 335 333 331 330 330 329 330 332 332 333 336 337 338 338 338 339 338 339 340 340 339 339 340 337 335 336 336 337 337 334 333 334 334 334 334 334 335 335 335 335 334 334 331 327 332 315 311 309 312
331 330 330 330 330 331 332 330 330 330 331 332 332 333 331 329 326 326 325 327 330 331 332 332 333 334 334 335 335 337 338 338 339 340 340 340 340 340 339 339 338 337 337 336 336 333 333 335 335 334 334 334 337 335 339 340 341 328 326 327 315 311 310
329 328 330 330 328 329 329 328 327 328 328 328 328 327 327 326 325 324 324 327 330 330 329 328 328 328 329 330 332 333 334 336 339 341 341 340 340 339 339 338 339 338 339 338 338 337 334 336 339 338 338 339 335 336 338 340 343 338 330 331 329 314 310
327 327 327 327 327 327 326 326 325 325 324 325 326 326 328 327 327 325 326 328 331 331 331 330 329 328 327 326 326 326 327 328 331 333 332 333 335 336 338 338 337 338 340 341 339 338 337 336 335 335 334 333 334 336 337 339 337 339 333 330 324 324 315
324 324 323 322 324 325 324 322 321 322 322 321 323 325 326 327 327 327 328 329 329 331 331 330 329 328 328 327 327 327 327 324 323 323 326 329 330 332 334 336 337 337 339 339 338 336 336 335 334 334 331 331 332 334 336 336 335 323 322 324 323 324 327
324 325 325 326 325 325 324 322 321 321 322 323 325 326 326 327 327 327 328 328 327 327 327 326 325 323 323 322 322 322 322 322 324 324 323 324 323 321 322 322 323 323 325 325 325 329 330 330 329 328 330 329 329 329 327 323 323 321 320 320 321 322 325
325 326 324 324 325 326 326 326 325 326 325 326 328 328 328 328 329 330 331 331 330 329 326 324 325 324 321 321 320 320 322 319 320 320 320 321 323 320 320 323 324 319 319 320 318 317 319 327 327 325 324 321 319 323 323 324 322 320 307 313 302 310 318
325 324 324 324 324 325 327 328 328 327 326 326 328 327 328 328 328 329 328 329 329 329 328 328 325 323 322 321 321 322 323 323 321 320 320 319 319 320 319 313 304 310 324 318 315 303 298 306 316 315 320 323 319 323 321 320 321 302 294 294 294 295 296
327 325 323 324 324 326 327 328 328 328 327 328 329 328 328 329 329 330 330 331 329 327 328 329 327 325 324 325 324 322 323 325 327 329 328 325 322 322 321 320 321 300 297 306 308 301 294 293 294 297 301 319 325 319 307 307 298 294 294 294 294 293 293
326 327 325 324 324 325 325 325 325 325 325 326 325 325 326 326 328 330 330 332 332 332 332 331 328 326 325 326 327 328 327 323 325 328 329 331 331 329 326 323 323 323 305 295 300 300 296 293 294 293 295 297 303 321 326 307 298 293 293 293 293 294 294

ECMWFFLT1_sfc_thetae_126.txt.gz
Theta_e
336 335 335 334 335 335 338 341 343 343 345 345 343 341 341 343 347 350 353 355 357 358 359 361 361 360 360 358 359 361 359 360 360 359 361 362 362 362 359 356 356 364 360 358 358 358 364 366 362 363 368 368 365 368 373 374 373 363 369 375 370 370 371
337 335 335 334 335 336 338 341 344 343 345 344 344 348 344 344 349 348 352 356 357 357 357 359 361 361 359 360 357 361 361 359 361 363 359 364 366 367 361 359 359 363 366 363 371 366 366 358 362 364 365 369 365 373 367 370 372 371 368 372 371 372 370
336 337 338 336 336 337 340 342 342 343 344 345 346 344 344 348 350 352 355 354 356 358 357 357 360 357 359 360 359 360 358 357 358 356 355 354 356 355 359 364 361 358 358 364 366 360 361 359 367 370 365 365 361 371 371 369 371 367 370 373 371 366 371
338 338 338 341 343 340 340 342 343 344 345 347 346 346 347 352 351 356 355 355 354 356 355 355 356 356 357 358 357 359 357 358 357 355 354 354 354 355 358 360 363 361 360 356 358 359 357 359 359 367 368 369 370 366 366 367 364 367 367 371 371 366 373
342 341 341 340 341 339 339 341 342 345 346 346 349 350 348 350 350 353 353 353 353 354 353 354 354 355 356 356 355 355 356 355 356 355 355 355 358 358 355 354 355 356 358 356 361 364 370 366 359 363 364 371 364 367 369 369 367 371 374 374 372 367 368
339 341 343 345 345 340 338 337 339 342 344 347 348 349 347 349 346 347 349 352 353 356 356 354 352 353 354 354 355 354 357 358 359 359 356 357 358 355 354 354 354 354 353 355 357 358 359 359 360 361 361 361 359 358 359 360 359 359 365 367 367 365 359
339 342 343 346 346 343 338 338 338 342 346 347 347 349 348 348 347 347 349 350 352 352 352 352 351 352 354 355 356 357 356 354 356 354 354 354 354 354 356 355 360 356 355 358 357 358 357 360 363 364 361 360 361 357 364 367 365 363 368 373 371 370 371
341 341 344 344 344 344 338 339 339 341 345 344 345 346 349 347 349 349 348 349 350 350 351 349 351 355 354 356 356 354 354 356 355 356 356 354 354 355 354 356 358 359 358 353 357 360 358 360 358 358 358 359 359 363 359 366 370 360 361 366 368 364 359
341 343 340 344 345 345 341 340 342 343 345 343 344 346 346 346 346 349 352 352 352 353 353 351 351 358 357 358 358 357 354 355 356 356 355 352 353 354 352 353 355 356 355 353 355 358 358 360 359 364 367 362 361 364 360 363 362 364 367 367 366 365 360
338 342 342 344 345 346 346 342 344 344 344 345 346 347 347 348 350 352 353 355 354 355 356 356 357 360 360 357 355 353 355 354 355 352 352 351 351 351 352 353 354 357 355 354 354 354 356 358 359 361 367 362 364 365 366 365 365 362 364 363 364 363 362
339 344 343 344 343 344 346 344 344 346 346 346 348 348 347 348 351 355 355 356 354 355 358 355 357 359 360 357 353 352 353 352 352 352 353 352 349 349 350 352 353 355 355 354 353 354 355 361 360 362 363 358 359 365 367 363 364 365 360 361 362 361 359
338 342 344 344 344 346 344 344 345 348 349 349 351 349 350 350 352 354 359 357 357 357 359 358 357 360 360 357 355 356 352 351 352 351 353 354 352 350 349 351 352 353 354 354 353 355 352 355 356 360 362 364 362 361 365 366 365 365 363 364 362 361 359
340 341 343 344 344 346 345 341 341 348 350 349 350 351 352 352 354 355 359 358 359 360 360 359 358 362 361 360 356 357 353 352 352 353 352 357 358 357 353 351 352 351 351 353 354 353 351 352 356 360 359 363 361 359 365 364 362 368 363 364 364 361 362
337 339 341 346 341 342 344 346 343 347 352 351 353 354 353 354 356 357 357 356 357 360 359 355 356 363 362 360 358 360 359 358 357 358 360 363 364 364 361 356 352 352 352 356 355 352 352 351 354 355 356 358 359 362 365 364 362 366 368 366 365 364 361
336 338 341 342 344 346 346 346 346 343 347 350 352 353 353 351 356 361 361 360 359 358 361 361 360 361 360 362 362 363 365 365 366 368 368 369 370 366 367 365 358 359 361 362 354 351 352 354 353 354 354 356 360 361 359 359 358 361 362 362 362 365 360
335 337 338 340 342 344 345 343 345 345 344 348 347 353 352 354 352 359 362 364 370 370 367 363 363 362 361 363 365 367 368 369 369 366 366 366 373 374 373 367 365 358 360 359 358 362 366 363 359 353 353 355 355 356 354 355 354 348 348 352 361 362 360
336 337 339 341 344 343 343 343 344 343 341 342 342 347 353 357 359 361 365 365 363 363 360 365 367 365 363 364 367 369 368 367 367 365 369 369 370 369 370 370 367 365 366 365 360 367 370 362 357 353 354 354 352 351 352 349 342 336 334 337 342 355 359
336 337 339 341 342 342 341 339 337 338 341 339 341 344 346 348 357 361 362 364 363 358 356 354 360 364 367 368 369 368 369 369 369 368 369 367 366 367 367 366 366 367 367 364 358 367 361 358 356 350 352 352 352 352 348 338 332 329 332 334 334 343 352
337 338 340 341 340 340 340 338 338 338 341 345 344 347 349 349 347 348 351 355 359 364 356 352 359 357 360 366 366 366 368 365 364 365 367 366 366 367 366 365 365 364 364 362 363 362 365 364 357 352 352 349 349 350 342 336 328 327 328 329 331 334 347
336 337 337 338 340 339 337 338 339 342 343 343 344 349 349 348 347 348 350 350 350 356 356 351 352 353 356 359 361 362 361 360 356 359 362 365 367 367 366 366 365 365 364 363 366 363 361 356 355 350 352 354 352 343 338 332 326 323 324 324 326 331 340
334 333 334 336 336 337 337 339 339 340 341 344 346 351 349 347 347 347 348 349 352 354 352 351 357 356 353 352 356 359 356 355 355 354 358 358 361 361 361 365 366 366 366 365 365 364 361 357 349 349 351 354 348 338 330 318 319 319 320 320 323 326 342
332 333 333 335 336 336 337 336 336 340 343 347 349 350 352 351 350 349 350 349 350 353 354 357 358 355 353 348 349 353 349 349 352 355 354 354 351 349 355 360 365 365 366 365 362 358 355 355 350 348 350 352 343 335 322 315 316 316 317 318 319 327 348
333 333 334 336 337 337 339 339 340 341 343 346 348 349 351 353 353 350 351 351 353 354 354 354 353 354 354 353 349 350 347 346 346 350 349 348 346 346 352 355 359 361 358 358 357 354 353 351 348 350 348 346 338 329 322 318 315 314 314 315 317 334 350
335 334 335 335 338 337 337 339 341 342 341 341 342 346 347 348 349 347 346 347 348 348 349 348 348 350 352 348 344 343 344 345 345 346 345 346 347 351 352 354 356 357 358 356 352 348 349 349 348 349 348 341 332 325 320 318 317 312 312 312 316 334 337
333 334 335 336 336 336 338 338 340 339 339 339 339 341 345 346 345 343 341 342 342 342 341 342 343 345 348 348 345 343 342 346 345 344 346 346 350 351 349 349 350 355 355 351 347 346 347 350 346 343 340 336 332 330 324 322 320 312 311 311 312 329 335
332 333 333 334 335 336 337 338 338 336 335 335 336 339 339 339 338 337 337 338 337 337 337 338 340 343 346 347 346 344 345 346 344 344 344 346 346 346 348 351 351 350 349 347 346 344 343 343 342 339 338 336 330 326 324 323 321 318 310 310 311 316 333
333 333 332 332 333 335 334 335 335 334 333 334 335 336 337 337 335 334 335 335 334 334 337 341 343 345 346 347 346 345 345 346 344 340 340 339 339 339 340 341 342 342 342 342 341 339 339 338 338 336 335 335 335 334 331 327 323 321 311 310 310 313 323
333 333 333 334 334 334 333 333 334 333 334 335 335 335 335 335 332 332 332 332 332 336 339 341 341 342 341 341 341 341 340 340 341 340 339 339 338 336 335 337 338 338 338 338 337 337 336 336 335 333 330 328 326 327 329 334 333 325 316 311 310 310 317
331 330 331 332 333 333 333 332 332 333 333 334 335 334 333 333 331 331 331 331 333 337 339 340 340 339 339 339 339 339 339 339 339 339 339 338 339 337 336 337 336 336 336 335 333 332 331 332 332 331 330 330 332 333 334 335 334 332 329 315 311 310 313
331 332 332 332 332 333 333 332 330 328 329 330 330 330 331 331 329 329 328 328 333 335 338 339 339 339 338 338 338 339 339 340 340 339 339 338 337 337 335 335 335 335 334 333 332 330 330 330 332 333 332 331 333 335 339 340 339 331 327 326 315 311 311
330 331 331 330 331 333 333 330 327 326 326 327 329 329 329 329 327 328 327 330 333 331 332 334 335 334 335 336 336 336 337 337 338 339 339 339 338 336 336 336 336 334 335 335 335 335 334 335 336 335 335 334 333 333 336 339 340 337 333 331 330 316 313
329 329 327 328 329 329 330 330 326 325 325 326 328 329 329 329 329 327 328 331 331 331 330 329 328 327 328 330 332 332 331 330 332 334 335 336 338 340 341 340 340 338 338 338 337 337 335 335 335 334 332 331 332 333 336 338 336 332 327 327 328 327 322
327 328 327 327 326 326 325 325 325 325 326 325 325 325 326 328 328 328 329 328 328 329 328 327 326 326 325 324 326 328 329 328 327 328 330 334 337 339 339 339 339 337 339 341 336 334 334 335 335 336 334 333 333 334 331 322 323 322 322 322 321 322 324
324 325 326 325 326 324 321 321 321 322 323 323 323 324 325 325 325 326 325 326 326 329 330 327 325 322 321 321 322 322 323 323 327 323 319 319 318 319 322 323 320 317 316 314 314 322 329 327 325 325 323 323 324 326 325 322 321 319 317 319 317 318 320
324 325 326 328 330 329 328 327 325 323 325 326 327 329 330 330 329 329 329 328 329 328 326 326 329 323 318 318 319 320 324 320 321 319 318 316 315 315 315 317 321 317 314 313 311 313 315 321 320 323 320 320 323 325 322 321 320 318 307 311 303 309 313
324 324 327 328 329 329 328 329 330 328 327 328 329 330 330 330 328 327 325 326 328 331 332 332 327 325 323 323 322 321 323 322 321 323 321 319 319 318 316 312 305 313 319 314 310 302 301 308 313 313 321 320 320 322 320 320 319 302 296 294 294 295 296
325 325 327 328 328 329 329 329 330 330 329 329 331 330 330 329 328 328 328 330 330 330 331 329 327 324 323 325 326 327 328 326 325 326 326 326 325 322 320 318 317 298 302 310 307 300 293 293 295 299 305 324 322 317 305 304 298 295 294 294 294 293 293
325 325 327 328 327 328 328 327 329 329 329 330 329 328 329 328 330 332 328 333 332 333 331 330 328 326 324 322 325 328 327 328 331 332 332 332 330 329 327 325 324 322 304 297 302 301 296 293 293 294 297 300 310 327 322 305 297 293 294 294 294 294 293

ECMWFFLT1_sfc_thetae_129.txt.gz
Theta_e
335 332 331 334 335 337 337 339 339 339 340 339 338 338 339 342 344 347 347 349 350 348 352 352 351 352 352 353 354 355 354 355 358 356 356 358 357 356 356 357 357 356 357 356 357 355 356 358 359 359 361 365 362 364 368 365 364 366 365 368 363 364 363
334 332 332 331 333 336 337 340 341 341 341 341 338 339 339 342 345 346 347 349 350 349 352 353 352 352 352 352 354 354 353 354 357 359 358 360 361 358 356 356 354 357 357 356 356 357 359 358 359 360 360 365 362 363 365 366 365 363 362 362 363 364 362
333 333 335 335 333 335 336 339 340 341 340 341 340 338 338 341 345 347 348 348 351 350 353 354 354 352 353 352 353 353 354 353 355 356 355 356 357 359 356 355 355 357 358 357 359 358 362 357 356 359 360 362 362 363 363 363 363 363 363 364 364 363 362
334 334 335 336 336 334 337 340 340 341 342 342 341 340 338 343 346 349 349 349 351 351 351 354 355 354 354 353 352 353 354 353 354 355 355 354 355 354 354 355 358 358 357 356 358 358 357 355 357 359 366 361 361 364 364 362 363 363 361 365 363 362 362
333 334 335 338 338 338 335 339 340 340 341 342 341 343 340 345 347 350 350 350 352 352 353 354 356 356 355 355 354 354 353 353 353 352 352 352 353 353 353 353 355 355 356 357 357 357 358 356 355 358 361 361 362 363 363 363 364 363 361 363 362 362 362
334 335 337 340 343 344 341 338 339 340 340 341 341 342 342 345 348 350 351 352 352 354 354 354 354 355 353 354 354 353 353 353 353 353 352 352 352 352 352 353 354 354 353 354 356 356 357 356 355 356 358 359 359 360 361 362 362 364 364 365 362 362 360
337 338 337 336 338 342 345 338 339 340 341 343 344 345 344 345 347 349 351 351 353 352 353 353 353 353 353 353 353 352 351 352 352 352 353 353 352 352 351 352 354 353 353 353 352 356 356 355 355 356 358 358 357 356 358 360 359 358 361 360 361 361 361
335 336 336 336 337 340 343 341 337 340 342 343 343 345 343 344 346 348 349 351 351 352 352 351 352 352 352 352 352 351 352 352 353 353 352 351 350 352 351 352 352 355 353 352 353 354 355 354 358 358 358 358 357 355 359 358 358 360 359 360 361 361 364
334 339 337 337 337 338 339 342 340 337 341 341 342 344 343 343 342 346 347 349 350 351 351 351 350 350 352 351 351 351 352 353 352 352 351 350 349 351 351 352 353 355 355 352 351 354 355 356 356 356 357 356 356 356 357 357 358 359 359 359 361 360 356
336 339 338 338 337 338 340 342 344 341 339 341 341 342 343 343 344 344 346 348 349 349 351 351 350 351 350 351 352 351 351 351 352 352 351 350 350 350 351 351 352 355 353 353 351 351 356 356 356 356 356 357 358 356 356 357 356 359 359 359 359 359 356
337 339 338 336 336 337 338 341 343 343 340 339 341 342 343 343 344 345 346 348 348 349 350 350 350 351 350 349 351 351 350 351 351 351 351 351 350 350 351 351 351 353 353 352 351 351 353 356 356 357 358 355 356 359 357 358 359 359 358 360 360 358 358
335 336 340 339 336 335 336 339 339 340 342 342 340 342 343 343 343 346 346 348 349 349 349 349 351 352 349 349 350 349 349 350 351 350 350 350 349 349 349 350 350 350 352 352 351 354 352 355 356 357 356 355 356 359 360 361 360 360 359 359 358 359 356
337 338 339 341 341 338 339 339 339 339 343 345 343 341 343 343 343 345 347 348 349 350 349 349 352 353 350 349 348 348 347 348 348 349 349 350 350 349 349 346 347 350 350 351 351 350 350 351 353 357 356 357 358 358 360 360 359 361 361 360 360 357 357
333 335 339 341 340 337 336 338 341 341 341 342 343 342 343 343 344 344 349 349 349 350 350 350 352 353 351 349 348 348 349 347 348 349 349 350 352 353 353 355 348 349 349 351 350 351 349 350 353 357 356 358 356 358 361 358 360 360 361 363 360 357 358
327 329 333 338 338 337 336 339 342 342 340 341 343 344 345 344 344 347 352 350 352 352 351 350 352 353 352 349 349 349 351 351 352 353 353 360 352 354 355 357 355 349 350 354 351 352 350 352 352 351 348 348 350 352 351 354 354 355 357 360 362 361 358
326 327 329 331 336 339 340 342 341 342 342 341 342 343 344 344 343 341 340 344 350 352 354 352 353 353 352 350 350 352 354 354 356 357 358 364 364 356 357 355 357 357 357 355 356 355 351 352 352 350 350 350 351 351 352 347 346 347 351 354 355 354 357
325 327 329 331 334 335 337 339 340 340 340 340 340 342 342 344 346 345 344 343 340 343 349 352 353 353 353 352 353 355 357 359 356 355 359 362 361 361 360 360 360 360 360 359 359 359 351 348 351 350 349 350 350 348 343 339 337 335 334 336 345 350 350
326 327 332 335 334 335 335 336 338 338 339 340 341 344 344 344 345 344 344 343 343 344 343 340 345 352 354 355 357 357 358 358 356 356 360 360 359 359 360 360 360 359 359 359 358 353 348 349 349 349 349 349 349 344 338 332 331 328 331 334 336 345 350
326 332 335 335 336 337 338 338 337 336 341 342 342 344 343 346 344 343 344 343 343 346 345 344 342 340 342 344 340 338 338 340 344 356 358 358 359 360 359 358 358 358 359 358 357 352 348 348 348 348 349 348 344 338 334 327 326 325 328 330 331 336 348
331 333 333 333 335 335 335 335 337 340 342 342 342 347 347 347 344 345 348 345 344 345 346 344 343 342 343 342 343 343 342 343 345 350 356 357 357 358 357 357 356 357 358 359 357 351 348 348 347 347 347 347 338 330 324 320 323 322 325 325 328 331 342
331 331 331 331 333 334 335 335 335 336 338 340 342 344 346 343 344 345 345 346 344 346 346 345 343 344 343 342 341 343 344 345 346 348 352 351 352 352 353 356 356 357 358 359 355 349 347 346 347 349 348 337 329 320 315 316 319 320 322 321 324 329 344
329 330 330 332 333 333 334 334 332 333 336 341 343 343 345 344 346 345 346 348 347 346 346 345 346 345 344 344 344 343 344 345 346 347 349 349 346 347 347 350 353 355 355 354 352 351 349 348 349 346 336 329 319 315 313 315 316 317 319 321 326 339 349
330 330 330 332 335 335 335 336 336 338 339 338 339 343 344 344 345 346 345 346 347 348 346 346 345 344 344 343 343 344 344 344 343 344 346 345 343 342 344 347 348 347 348 347 348 348 346 346 347 341 331 325 318 314 314 314 316 315 317 322 327 334 334
333 332 333 333 335 336 335 336 338 340 338 336 336 342 345 345 346 346 346 346 346 345 345 346 345 344 343 342 341 343 343 342 343 344 344 341 341 344 345 346 346 347 350 346 345 344 344 345 343 334 327 321 316 315 313 312 314 313 314 318 323 330 326
332 332 332 332 333 333 334 336 338 338 337 335 334 338 341 342 343 341 339 339 339 340 339 339 340 341 340 340 341 342 343 344 343 341 344 345 346 347 345 345 346 347 345 345 344 344 344 347 336 329 325 323 323 326 318 315 317 313 312 313 318 326 323
332 331 331 332 333 335 335 336 334 333 333 332 333 336 338 338 337 336 335 335 337 336 336 338 340 342 342 342 340 340 341 341 342 341 341 340 341 342 342 344 343 344 344 343 343 341 340 336 331 327 324 324 322 322 321 318 317 319 313 313 314 320 323
331 331 330 331 332 335 333 333 333 331 331 332 334 335 335 335 334 333 334 335 336 336 338 341 342 342 341 340 340 341 340 338 338 337 337 338 338 339 339 339 339 339 338 336 335 333 332 331 329 327 327 328 328 327 326 322 318 319 313 311 312 316 322
330 330 331 334 335 334 331 331 331 331 331 332 333 334 333 334 333 333 334 334 334 336 339 340 341 341 341 341 340 339 338 337 337 337 336 336 336 334 334 336 337 337 337 335 332 330 328 327 328 324 324 326 328 330 329 330 328 323 316 312 311 311 318
328 328 328 329 330 331 330 326 326 326 328 331 332 332 333 333 331 332 333 333 335 338 339 339 339 338 338 338 338 338 337 337 337 336 336 335 335 334 333 333 333 333 333 331 330 328 327 326 326 326 326 327 329 331 331 331 331 328 326 316 312 312 313
329 329 329 330 329 327 327 325 326 325 327 329 330 330 329 329 329 330 331 331 336 337 337 337 337 337 336 336 336 336 336 335 335 334 334 334 333 332 331 331 331 331 331 330 329 327 327 328 328 327 326 326 328 331 333 330 328 328 328 326 314 312 312
329 330 328 327 326 327 327 326 326 326 327 328 328 328 328 328 326 327 327 330 334 335 336 336 337 336 335 335 336 335 334 334 333 333 333 333 333 332 331 330 331 329 330 330 329 329 329 330 331 328 327 326 324 327 333 335 333 329 329 329 325 319 317
326 326 326 325 326 326 326 327 326 325 325 327 327 327 328 328 327 325 326 329 329 330 332 333 333 332 331 332 332 332 333 333 334 335 336 337 336 335 334 333 333 333 333 333 333 333 332 332 331 329 326 325 327 325 321 323 323 322 321 324 325 325 321
323 322 320 319 321 322 321 323 323 323 324 323 326 326 325 325 325 325 326 326 327 326 326 327 328 329 328 327 328 327 326 323 320 319 320 325 332 328 321 319 318 319 325 330 329 329 330 331 331 331 330 328 323 320 321 319 318 317 317 317 317 317 320
318 318 318 319 319 320 319 320 319 320 321 320 321 322 323 322 322 323 325 327 327 324 324 323 322 321 321 322 323 322 321 320 323 318 315 316 316 316 314 313 314 313 313 314 317 323 319 320 320 320 322 322 322 320 319 317 316 314 312 314 313 314 314
319 319 319 318 318 318 318 319 320 321 323 321 319 319 321 321 320 323 325 325 329 326 321 321 323 320 318 319 319 319 319 316 315 314 313 312 311 310 312 314 313 311 310 312 311 317 319 318 318 319 318 319 320 319 316 317 314 316 306 309 303 308 310
323 323 323 324 325 324 324 323 323 323 325 326 327 325 324 324 322 319 319 321 323 327 326 325 321 319 319 320 320 319 319 318 316 316 315 313 312 311 311 312 304 309 312 312 313 308 308 312 317 318 316 315 315 318 315 314 317 306 296 295 295 295 296
323 323 323 325 323 322 323 324 324 324 324 327 327 325 324 325 325 325 327 330 330 324 322 323 323 323 323 322 321 321 321 321 320 319 317 315 315 314 313 310 309 299 302 310 307 300 296 297 301 307 314 319 313 312 306 306 299 294 294 294 294 294 293
324 325 326 326 324 323 322 323 325 326 325 326 326 326 326 326 327 328 330 330 327 325 323 321 321 322 323 325 326 327 325 322 322 322 321 320 319 318 316 314 312 312 303 298 301 298 295 294 295 296 298 304 314 324 315 304 298 294 293 293 294 294 294